<?xml version="1.0" encoding="UTF-8" standalone="no" ?>
<gpx xmlns="http://www.topografix.com/GPX/1/1" xmlns:xsi="http://www.w3.org/2001/XMLSchema-instance" xsi:schemaLocation="http://www.topografix.com/GPX/1/1 http://www.topografix.com/GPX/1/1/gpx.xsd" version="1.1" creator="VisuGPX - https://www.visugpx.com">
  <metadata>
    <name>LGT : Yeu - De la Croix au Port de la Meule</name>
    <desc><![CDATA[Une superbe balade autour de l\'ile d\'Yeu entre la Croix et le Port de la Meule]]></desc>
  </metadata>
  <trk>
    <name><![CDATA[011-2015/09/30-12:44:49]]></name>
    <trkseg>
      <trkpt lat="46.69684" lon="-2.31186">
        <ele>2</ele>
        <time>2015-09-30T10:44:49Z</time>
      </trkpt>
      <trkpt lat="46.69681" lon="-2.31226">
        <ele>8</ele>
        <time>2015-09-30T10:53:42Z</time>
      </trkpt>
      <trkpt lat="46.69681" lon="-2.31228">
        <ele>8</ele>
        <time>2015-09-30T10:53:44Z</time>
      </trkpt>
      <trkpt lat="46.6968" lon="-2.3123">
        <ele>8</ele>
        <time>2015-09-30T10:53:46Z</time>
      </trkpt>
      <trkpt lat="46.69679" lon="-2.31232">
        <ele>8</ele>
        <time>2015-09-30T10:53:48Z</time>
      </trkpt>
      <trkpt lat="46.69679" lon="-2.31234">
        <ele>7</ele>
        <time>2015-09-30T10:53:49Z</time>
      </trkpt>
      <trkpt lat="46.69678" lon="-2.31236">
        <ele>7</ele>
        <time>2015-09-30T10:53:51Z</time>
      </trkpt>
      <trkpt lat="46.69678" lon="-2.31238">
        <ele>7</ele>
        <time>2015-09-30T10:53:52Z</time>
      </trkpt>
      <trkpt lat="46.69678" lon="-2.3124">
        <ele>7</ele>
        <time>2015-09-30T10:53:54Z</time>
      </trkpt>
      <trkpt lat="46.69677" lon="-2.31243">
        <ele>7</ele>
        <time>2015-09-30T10:53:56Z</time>
      </trkpt>
      <trkpt lat="46.69677" lon="-2.31245">
        <ele>7</ele>
        <time>2015-09-30T10:53:57Z</time>
      </trkpt>
      <trkpt lat="46.69677" lon="-2.31247">
        <ele>7</ele>
        <time>2015-09-30T10:53:58Z</time>
      </trkpt>
      <trkpt lat="46.69677" lon="-2.31249">
        <ele>7</ele>
        <time>2015-09-30T10:54:00Z</time>
      </trkpt>
      <trkpt lat="46.69676" lon="-2.31252">
        <ele>7</ele>
        <time>2015-09-30T10:54:02Z</time>
      </trkpt>
      <trkpt lat="46.69676" lon="-2.31253">
        <ele>7</ele>
        <time>2015-09-30T10:54:03Z</time>
      </trkpt>
      <trkpt lat="46.69676" lon="-2.31255">
        <ele>7</ele>
        <time>2015-09-30T10:54:04Z</time>
      </trkpt>
      <trkpt lat="46.69675" lon="-2.31257">
        <ele>7</ele>
        <time>2015-09-30T10:54:05Z</time>
      </trkpt>
      <trkpt lat="46.69675" lon="-2.31259">
        <ele>7</ele>
        <time>2015-09-30T10:54:06Z</time>
      </trkpt>
      <trkpt lat="46.69675" lon="-2.31261">
        <ele>7</ele>
        <time>2015-09-30T10:54:07Z</time>
      </trkpt>
      <trkpt lat="46.69675" lon="-2.31262">
        <ele>7</ele>
        <time>2015-09-30T10:54:08Z</time>
      </trkpt>
      <trkpt lat="46.69674" lon="-2.31264">
        <ele>7</ele>
        <time>2015-09-30T10:54:09Z</time>
      </trkpt>
      <trkpt lat="46.69674" lon="-2.31266">
        <ele>7</ele>
        <time>2015-09-30T10:54:10Z</time>
      </trkpt>
      <trkpt lat="46.69674" lon="-2.31268">
        <ele>7</ele>
        <time>2015-09-30T10:54:11Z</time>
      </trkpt>
      <trkpt lat="46.69674" lon="-2.31271">
        <ele>7</ele>
        <time>2015-09-30T10:54:13Z</time>
      </trkpt>
      <trkpt lat="46.69673" lon="-2.31273">
        <ele>7</ele>
        <time>2015-09-30T10:54:15Z</time>
      </trkpt>
      <trkpt lat="46.69673" lon="-2.31276">
        <ele>7</ele>
        <time>2015-09-30T10:54:17Z</time>
      </trkpt>
      <trkpt lat="46.69672" lon="-2.31278">
        <ele>7</ele>
        <time>2015-09-30T10:54:19Z</time>
      </trkpt>
      <trkpt lat="46.69671" lon="-2.3128">
        <ele>7</ele>
        <time>2015-09-30T10:54:20Z</time>
      </trkpt>
      <trkpt lat="46.69671" lon="-2.31281">
        <ele>7</ele>
        <time>2015-09-30T10:54:21Z</time>
      </trkpt>
      <trkpt lat="46.69671" lon="-2.31283">
        <ele>7</ele>
        <time>2015-09-30T10:54:22Z</time>
      </trkpt>
      <trkpt lat="46.6967" lon="-2.31285">
        <ele>7</ele>
        <time>2015-09-30T10:54:24Z</time>
      </trkpt>
      <trkpt lat="46.69669" lon="-2.31288">
        <ele>6</ele>
        <time>2015-09-30T10:54:26Z</time>
      </trkpt>
      <trkpt lat="46.69668" lon="-2.3129">
        <ele>6</ele>
        <time>2015-09-30T10:54:28Z</time>
      </trkpt>
      <trkpt lat="46.69667" lon="-2.31293">
        <ele>5</ele>
        <time>2015-09-30T10:54:30Z</time>
      </trkpt>
      <trkpt lat="46.69666" lon="-2.31294">
        <ele>5</ele>
        <time>2015-09-30T10:54:31Z</time>
      </trkpt>
      <trkpt lat="46.69665" lon="-2.31297">
        <ele>4</ele>
        <time>2015-09-30T10:54:33Z</time>
      </trkpt>
      <trkpt lat="46.69665" lon="-2.31298">
        <ele>4</ele>
        <time>2015-09-30T10:54:34Z</time>
      </trkpt>
      <trkpt lat="46.69663" lon="-2.31301">
        <ele>4</ele>
        <time>2015-09-30T10:54:36Z</time>
      </trkpt>
      <trkpt lat="46.69662" lon="-2.31304">
        <ele>4</ele>
        <time>2015-09-30T10:54:38Z</time>
      </trkpt>
      <trkpt lat="46.69661" lon="-2.31307">
        <ele>4</ele>
        <time>2015-09-30T10:54:40Z</time>
      </trkpt>
      <trkpt lat="46.6966" lon="-2.3131">
        <ele>4</ele>
        <time>2015-09-30T10:54:42Z</time>
      </trkpt>
      <trkpt lat="46.69659" lon="-2.31312">
        <ele>4</ele>
        <time>2015-09-30T10:54:44Z</time>
      </trkpt>
      <trkpt lat="46.69658" lon="-2.31314">
        <ele>3</ele>
        <time>2015-09-30T10:54:45Z</time>
      </trkpt>
      <trkpt lat="46.69657" lon="-2.31315">
        <ele>3</ele>
        <time>2015-09-30T10:54:46Z</time>
      </trkpt>
      <trkpt lat="46.69656" lon="-2.31317">
        <ele>3</ele>
        <time>2015-09-30T10:54:47Z</time>
      </trkpt>
      <trkpt lat="46.69655" lon="-2.3132">
        <ele>3</ele>
        <time>2015-09-30T10:54:49Z</time>
      </trkpt>
      <trkpt lat="46.69654" lon="-2.31322">
        <ele>3</ele>
        <time>2015-09-30T10:54:50Z</time>
      </trkpt>
      <trkpt lat="46.69653" lon="-2.31325">
        <ele>3</ele>
        <time>2015-09-30T10:54:52Z</time>
      </trkpt>
      <trkpt lat="46.69653" lon="-2.31327">
        <ele>3</ele>
        <time>2015-09-30T10:54:53Z</time>
      </trkpt>
      <trkpt lat="46.69652" lon="-2.31328">
        <ele>3</ele>
        <time>2015-09-30T10:54:54Z</time>
      </trkpt>
      <trkpt lat="46.69652" lon="-2.3133">
        <ele>3</ele>
        <time>2015-09-30T10:54:55Z</time>
      </trkpt>
      <trkpt lat="46.69651" lon="-2.31333">
        <ele>3</ele>
        <time>2015-09-30T10:54:57Z</time>
      </trkpt>
      <trkpt lat="46.6965" lon="-2.31336">
        <ele>3</ele>
        <time>2015-09-30T10:54:59Z</time>
      </trkpt>
      <trkpt lat="46.6965" lon="-2.31337">
        <ele>3</ele>
        <time>2015-09-30T10:55:00Z</time>
      </trkpt>
      <trkpt lat="46.69649" lon="-2.31339">
        <ele>3</ele>
        <time>2015-09-30T10:55:01Z</time>
      </trkpt>
      <trkpt lat="46.69649" lon="-2.3134">
        <ele>3</ele>
        <time>2015-09-30T10:55:02Z</time>
      </trkpt>
      <trkpt lat="46.69648" lon="-2.31342">
        <ele>3</ele>
        <time>2015-09-30T10:55:03Z</time>
      </trkpt>
      <trkpt lat="46.69648" lon="-2.31344">
        <ele>3</ele>
        <time>2015-09-30T10:55:04Z</time>
      </trkpt>
      <trkpt lat="46.69647" lon="-2.31345">
        <ele>3</ele>
        <time>2015-09-30T10:55:05Z</time>
      </trkpt>
      <trkpt lat="46.69647" lon="-2.31347">
        <ele>3</ele>
        <time>2015-09-30T10:55:06Z</time>
      </trkpt>
      <trkpt lat="46.69646" lon="-2.31348">
        <ele>3</ele>
        <time>2015-09-30T10:55:07Z</time>
      </trkpt>
      <trkpt lat="46.69646" lon="-2.3135">
        <ele>3</ele>
        <time>2015-09-30T10:55:08Z</time>
      </trkpt>
      <trkpt lat="46.69645" lon="-2.31352">
        <ele>3</ele>
        <time>2015-09-30T10:55:10Z</time>
      </trkpt>
      <trkpt lat="46.69644" lon="-2.31355">
        <ele>3</ele>
        <time>2015-09-30T10:55:12Z</time>
      </trkpt>
      <trkpt lat="46.69643" lon="-2.31357">
        <ele>3</ele>
        <time>2015-09-30T10:55:14Z</time>
      </trkpt>
      <trkpt lat="46.69642" lon="-2.31359">
        <ele>3</ele>
        <time>2015-09-30T10:55:16Z</time>
      </trkpt>
      <trkpt lat="46.69642" lon="-2.31362">
        <ele>3</ele>
        <time>2015-09-30T10:55:18Z</time>
      </trkpt>
      <trkpt lat="46.69641" lon="-2.31364">
        <ele>3</ele>
        <time>2015-09-30T10:55:19Z</time>
      </trkpt>
      <trkpt lat="46.69641" lon="-2.31366">
        <ele>3</ele>
        <time>2015-09-30T10:55:21Z</time>
      </trkpt>
      <trkpt lat="46.69639" lon="-2.31368">
        <ele>3</ele>
        <time>2015-09-30T10:55:23Z</time>
      </trkpt>
      <trkpt lat="46.69638" lon="-2.3137">
        <ele>3</ele>
        <time>2015-09-30T10:55:24Z</time>
      </trkpt>
      <trkpt lat="46.69637" lon="-2.31372">
        <ele>3</ele>
        <time>2015-09-30T10:55:25Z</time>
      </trkpt>
      <trkpt lat="46.69636" lon="-2.31374">
        <ele>3</ele>
        <time>2015-09-30T10:55:27Z</time>
      </trkpt>
      <trkpt lat="46.69635" lon="-2.31376">
        <ele>3</ele>
        <time>2015-09-30T10:55:29Z</time>
      </trkpt>
      <trkpt lat="46.69634" lon="-2.31378">
        <ele>3</ele>
        <time>2015-09-30T10:55:30Z</time>
      </trkpt>
      <trkpt lat="46.69633" lon="-2.31381">
        <ele>3</ele>
        <time>2015-09-30T10:55:32Z</time>
      </trkpt>
      <trkpt lat="46.69633" lon="-2.31383">
        <ele>3</ele>
        <time>2015-09-30T10:55:33Z</time>
      </trkpt>
      <trkpt lat="46.69632" lon="-2.31385">
        <ele>3</ele>
        <time>2015-09-30T10:55:35Z</time>
      </trkpt>
      <trkpt lat="46.69631" lon="-2.31388">
        <ele>3</ele>
        <time>2015-09-30T10:55:37Z</time>
      </trkpt>
      <trkpt lat="46.6963" lon="-2.3139">
        <ele>3</ele>
        <time>2015-09-30T10:55:38Z</time>
      </trkpt>
      <trkpt lat="46.6963" lon="-2.31391">
        <ele>3</ele>
        <time>2015-09-30T10:55:39Z</time>
      </trkpt>
      <trkpt lat="46.69629" lon="-2.31394">
        <ele>3</ele>
        <time>2015-09-30T10:55:41Z</time>
      </trkpt>
      <trkpt lat="46.69628" lon="-2.31395">
        <ele>3</ele>
        <time>2015-09-30T10:55:42Z</time>
      </trkpt>
      <trkpt lat="46.69627" lon="-2.31398">
        <ele>3</ele>
        <time>2015-09-30T10:55:44Z</time>
      </trkpt>
      <trkpt lat="46.69626" lon="-2.31401">
        <ele>3</ele>
        <time>2015-09-30T10:55:46Z</time>
      </trkpt>
      <trkpt lat="46.69626" lon="-2.31403">
        <ele>3</ele>
        <time>2015-09-30T10:55:47Z</time>
      </trkpt>
      <trkpt lat="46.69625" lon="-2.31404">
        <ele>3</ele>
        <time>2015-09-30T10:55:48Z</time>
      </trkpt>
      <trkpt lat="46.69624" lon="-2.31407">
        <ele>3</ele>
        <time>2015-09-30T10:55:50Z</time>
      </trkpt>
      <trkpt lat="46.69623" lon="-2.3141">
        <ele>2</ele>
        <time>2015-09-30T10:55:52Z</time>
      </trkpt>
      <trkpt lat="46.69622" lon="-2.31412">
        <ele>2</ele>
        <time>2015-09-30T10:55:54Z</time>
      </trkpt>
      <trkpt lat="46.69622" lon="-2.31414">
        <ele>2</ele>
        <time>2015-09-30T10:55:55Z</time>
      </trkpt>
      <trkpt lat="46.69621" lon="-2.31415">
        <ele>2</ele>
        <time>2015-09-30T10:55:56Z</time>
      </trkpt>
      <trkpt lat="46.69621" lon="-2.31417">
        <ele>2</ele>
        <time>2015-09-30T10:55:57Z</time>
      </trkpt>
      <trkpt lat="46.6962" lon="-2.3142">
        <ele>2</ele>
        <time>2015-09-30T10:55:59Z</time>
      </trkpt>
      <trkpt lat="46.6962" lon="-2.31421">
        <ele>2</ele>
        <time>2015-09-30T10:56:00Z</time>
      </trkpt>
      <trkpt lat="46.69619" lon="-2.31424">
        <ele>2</ele>
        <time>2015-09-30T10:56:02Z</time>
      </trkpt>
      <trkpt lat="46.69618" lon="-2.31426">
        <ele>2</ele>
        <time>2015-09-30T10:56:03Z</time>
      </trkpt>
      <trkpt lat="46.69618" lon="-2.31427">
        <ele>2</ele>
        <time>2015-09-30T10:56:04Z</time>
      </trkpt>
      <trkpt lat="46.69617" lon="-2.3143">
        <ele>2</ele>
        <time>2015-09-30T10:56:06Z</time>
      </trkpt>
      <trkpt lat="46.69616" lon="-2.31433">
        <ele>2</ele>
        <time>2015-09-30T10:56:08Z</time>
      </trkpt>
      <trkpt lat="46.69615" lon="-2.31436">
        <ele>2</ele>
        <time>2015-09-30T10:56:10Z</time>
      </trkpt>
      <trkpt lat="46.69614" lon="-2.31438">
        <ele>2</ele>
        <time>2015-09-30T10:56:12Z</time>
      </trkpt>
      <trkpt lat="46.69613" lon="-2.3144">
        <ele>2</ele>
        <time>2015-09-30T10:56:14Z</time>
      </trkpt>
      <trkpt lat="46.69613" lon="-2.31442">
        <ele>2</ele>
        <time>2015-09-30T10:56:15Z</time>
      </trkpt>
      <trkpt lat="46.69612" lon="-2.31445">
        <ele>2</ele>
        <time>2015-09-30T10:56:17Z</time>
      </trkpt>
      <trkpt lat="46.69611" lon="-2.31447">
        <ele>2</ele>
        <time>2015-09-30T10:56:19Z</time>
      </trkpt>
      <trkpt lat="46.6961" lon="-2.3145">
        <ele>2</ele>
        <time>2015-09-30T10:56:21Z</time>
      </trkpt>
      <trkpt lat="46.69608" lon="-2.31452">
        <ele>2</ele>
        <time>2015-09-30T10:56:23Z</time>
      </trkpt>
      <trkpt lat="46.69607" lon="-2.31455">
        <ele>2</ele>
        <time>2015-09-30T10:56:25Z</time>
      </trkpt>
      <trkpt lat="46.69606" lon="-2.31457">
        <ele>2</ele>
        <time>2015-09-30T10:56:26Z</time>
      </trkpt>
      <trkpt lat="46.69605" lon="-2.31458">
        <ele>2</ele>
        <time>2015-09-30T10:56:27Z</time>
      </trkpt>
      <trkpt lat="46.69605" lon="-2.3146">
        <ele>2</ele>
        <time>2015-09-30T10:56:28Z</time>
      </trkpt>
      <trkpt lat="46.69603" lon="-2.31462">
        <ele>2</ele>
        <time>2015-09-30T10:56:30Z</time>
      </trkpt>
      <trkpt lat="46.69601" lon="-2.31464">
        <ele>2</ele>
        <time>2015-09-30T10:56:32Z</time>
      </trkpt>
      <trkpt lat="46.696" lon="-2.31466">
        <ele>1</ele>
        <time>2015-09-30T10:56:34Z</time>
      </trkpt>
      <trkpt lat="46.69598" lon="-2.31468">
        <ele>6.7</ele>
        <time>2015-09-30T10:56:36Z</time>
      </trkpt>
      <trkpt lat="46.69596" lon="-2.3147">
        <ele>6.5</ele>
        <time>2015-09-30T10:56:39Z</time>
      </trkpt>
      <trkpt lat="46.69595" lon="-2.31471">
        <ele>6.5</ele>
        <time>2015-09-30T10:56:40Z</time>
      </trkpt>
      <trkpt lat="46.69594" lon="-2.31472">
        <ele>6.4</ele>
        <time>2015-09-30T10:56:41Z</time>
      </trkpt>
      <trkpt lat="46.69592" lon="-2.31473">
        <ele>6.3</ele>
        <time>2015-09-30T10:56:43Z</time>
      </trkpt>
      <trkpt lat="46.69591" lon="-2.31474">
        <ele>6.3</ele>
        <time>2015-09-30T10:56:44Z</time>
      </trkpt>
      <trkpt lat="46.69589" lon="-2.31474">
        <ele>6.2</ele>
        <time>2015-09-30T10:56:46Z</time>
      </trkpt>
      <trkpt lat="46.69588" lon="-2.31474">
        <ele>6.1</ele>
        <time>2015-09-30T10:56:47Z</time>
      </trkpt>
      <trkpt lat="46.69586" lon="-2.31475">
        <ele>6.1</ele>
        <time>2015-09-30T10:56:48Z</time>
      </trkpt>
      <trkpt lat="46.69584" lon="-2.31475">
        <ele>6</ele>
        <time>2015-09-30T10:56:50Z</time>
      </trkpt>
      <trkpt lat="46.69582" lon="-2.31476">
        <ele>6</ele>
        <time>2015-09-30T10:56:52Z</time>
      </trkpt>
      <trkpt lat="46.6958" lon="-2.31476">
        <ele>6</ele>
        <time>2015-09-30T10:56:54Z</time>
      </trkpt>
      <trkpt lat="46.69578" lon="-2.31476">
        <ele>6</ele>
        <time>2015-09-30T10:56:55Z</time>
      </trkpt>
      <trkpt lat="46.69577" lon="-2.31475">
        <ele>6</ele>
        <time>2015-09-30T10:56:56Z</time>
      </trkpt>
      <trkpt lat="46.69576" lon="-2.31475">
        <ele>6.1</ele>
        <time>2015-09-30T10:56:57Z</time>
      </trkpt>
      <trkpt lat="46.69574" lon="-2.31476">
        <ele>6.1</ele>
        <time>2015-09-30T10:56:59Z</time>
      </trkpt>
      <trkpt lat="46.69572" lon="-2.31478">
        <ele>6.2</ele>
        <time>2015-09-30T10:57:01Z</time>
      </trkpt>
      <trkpt lat="46.69571" lon="-2.31478">
        <ele>6.2</ele>
        <time>2015-09-30T10:57:03Z</time>
      </trkpt>
      <trkpt lat="46.69569" lon="-2.31479">
        <ele>6.2</ele>
        <time>2015-09-30T10:57:04Z</time>
      </trkpt>
      <trkpt lat="46.69567" lon="-2.3148">
        <ele>6.3</ele>
        <time>2015-09-30T10:57:06Z</time>
      </trkpt>
      <trkpt lat="46.69566" lon="-2.31481">
        <ele>6.4</ele>
        <time>2015-09-30T10:57:08Z</time>
      </trkpt>
      <trkpt lat="46.69564" lon="-2.31481">
        <ele>6.4</ele>
        <time>2015-09-30T10:57:09Z</time>
      </trkpt>
      <trkpt lat="46.69563" lon="-2.31482">
        <ele>6.5</ele>
        <time>2015-09-30T10:57:11Z</time>
      </trkpt>
      <trkpt lat="46.69561" lon="-2.31483">
        <ele>6.6</ele>
        <time>2015-09-30T10:57:12Z</time>
      </trkpt>
      <trkpt lat="46.6956" lon="-2.31485">
        <ele>6.7</ele>
        <time>2015-09-30T10:57:13Z</time>
      </trkpt>
      <trkpt lat="46.69558" lon="-2.31486">
        <ele>6.9</ele>
        <time>2015-09-30T10:57:15Z</time>
      </trkpt>
      <trkpt lat="46.69557" lon="-2.31487">
        <ele>7</ele>
        <time>2015-09-30T10:57:16Z</time>
      </trkpt>
      <trkpt lat="46.69555" lon="-2.31488">
        <ele>7</ele>
        <time>2015-09-30T10:57:18Z</time>
      </trkpt>
      <trkpt lat="46.69553" lon="-2.31489">
        <ele>6.9</ele>
        <time>2015-09-30T10:57:20Z</time>
      </trkpt>
      <trkpt lat="46.69552" lon="-2.31489">
        <ele>6.8</ele>
        <time>2015-09-30T10:57:21Z</time>
      </trkpt>
      <trkpt lat="46.6955" lon="-2.31489">
        <ele>6.6</ele>
        <time>2015-09-30T10:57:22Z</time>
      </trkpt>
      <trkpt lat="46.69549" lon="-2.31489">
        <ele>6.5</ele>
        <time>2015-09-30T10:57:23Z</time>
      </trkpt>
      <trkpt lat="46.69548" lon="-2.31489">
        <ele>6.3</ele>
        <time>2015-09-30T10:57:24Z</time>
      </trkpt>
      <trkpt lat="46.69546" lon="-2.31489">
        <ele>6.2</ele>
        <time>2015-09-30T10:57:26Z</time>
      </trkpt>
      <trkpt lat="46.69544" lon="-2.31488">
        <ele>5.9</ele>
        <time>2015-09-30T10:57:29Z</time>
      </trkpt>
      <trkpt lat="46.69543" lon="-2.31488">
        <ele>5.7</ele>
        <time>2015-09-30T10:57:30Z</time>
      </trkpt>
      <trkpt lat="46.69541" lon="-2.31487">
        <ele>5.5</ele>
        <time>2015-09-30T10:57:31Z</time>
      </trkpt>
      <trkpt lat="46.6954" lon="-2.31488">
        <ele>5.4</ele>
        <time>2015-09-30T10:57:32Z</time>
      </trkpt>
      <trkpt lat="46.69537" lon="-2.31488">
        <ele>5.2</ele>
        <time>2015-09-30T10:57:34Z</time>
      </trkpt>
      <trkpt lat="46.69536" lon="-2.31487">
        <ele>4.9</ele>
        <time>2015-09-30T10:57:35Z</time>
      </trkpt>
      <trkpt lat="46.69535" lon="-2.31488">
        <ele>4.8</ele>
        <time>2015-09-30T10:57:36Z</time>
      </trkpt>
      <trkpt lat="46.69533" lon="-2.31489">
        <ele>4.7</ele>
        <time>2015-09-30T10:57:38Z</time>
      </trkpt>
      <trkpt lat="46.69532" lon="-2.31492">
        <ele>4.8</ele>
        <time>2015-09-30T10:57:40Z</time>
      </trkpt>
      <trkpt lat="46.6953" lon="-2.31494">
        <ele>4.8</ele>
        <time>2015-09-30T10:57:42Z</time>
      </trkpt>
      <trkpt lat="46.69529" lon="-2.31497">
        <ele>4.9</ele>
        <time>2015-09-30T10:57:44Z</time>
      </trkpt>
      <trkpt lat="46.69527" lon="-2.31498">
        <ele>4.8</ele>
        <time>2015-09-30T10:57:46Z</time>
      </trkpt>
      <trkpt lat="46.69526" lon="-2.31501">
        <ele>5.1</ele>
        <time>2015-09-30T10:57:48Z</time>
      </trkpt>
      <trkpt lat="46.69526" lon="-2.31507">
        <ele>6.4</ele>
        <time>2015-09-30T10:57:52Z</time>
      </trkpt>
      <trkpt lat="46.69525" lon="-2.31509">
        <ele>6.8</ele>
        <time>2015-09-30T10:57:53Z</time>
      </trkpt>
      <trkpt lat="46.69524" lon="-2.31509">
        <ele>6.7</ele>
        <time>2015-09-30T10:57:54Z</time>
      </trkpt>
      <trkpt lat="46.69524" lon="-2.31511">
        <ele>7</ele>
        <time>2015-09-30T10:57:56Z</time>
      </trkpt>
      <trkpt lat="46.69523" lon="-2.31513">
        <ele>7.6</ele>
        <time>2015-09-30T10:57:58Z</time>
      </trkpt>
      <trkpt lat="46.69523" lon="-2.31515">
        <ele>7.9</ele>
        <time>2015-09-30T10:57:59Z</time>
      </trkpt>
      <trkpt lat="46.69523" lon="-2.31518">
        <ele>8.5</ele>
        <time>2015-09-30T10:58:01Z</time>
      </trkpt>
      <trkpt lat="46.69523" lon="-2.31519">
        <ele>8.8</ele>
        <time>2015-09-30T10:58:02Z</time>
      </trkpt>
      <trkpt lat="46.69521" lon="-2.31522">
        <ele>9.2</ele>
        <time>2015-09-30T10:58:04Z</time>
      </trkpt>
      <trkpt lat="46.6952" lon="-2.31524">
        <ele>9.3</ele>
        <time>2015-09-30T10:58:06Z</time>
      </trkpt>
      <trkpt lat="46.69519" lon="-2.31526">
        <ele>9.6</ele>
        <time>2015-09-30T10:58:08Z</time>
      </trkpt>
      <trkpt lat="46.69519" lon="-2.31528">
        <ele>9.9</ele>
        <time>2015-09-30T10:58:10Z</time>
      </trkpt>
      <trkpt lat="46.69519" lon="-2.31531">
        <ele>10.3</ele>
        <time>2015-09-30T10:58:12Z</time>
      </trkpt>
      <trkpt lat="46.69519" lon="-2.31533">
        <ele>10.6</ele>
        <time>2015-09-30T10:58:14Z</time>
      </trkpt>
      <trkpt lat="46.69518" lon="-2.31536">
        <ele>10.8</ele>
        <time>2015-09-30T10:58:16Z</time>
      </trkpt>
      <trkpt lat="46.69517" lon="-2.31537">
        <ele>11</ele>
        <time>2015-09-30T10:58:17Z</time>
      </trkpt>
      <trkpt lat="46.69516" lon="-2.3154">
        <ele>11.4</ele>
        <time>2015-09-30T10:58:19Z</time>
      </trkpt>
      <trkpt lat="46.69514" lon="-2.31541">
        <ele>11.4</ele>
        <time>2015-09-30T10:58:21Z</time>
      </trkpt>
      <trkpt lat="46.69513" lon="-2.31542">
        <ele>11.4</ele>
        <time>2015-09-30T10:58:22Z</time>
      </trkpt>
      <trkpt lat="46.69513" lon="-2.31543">
        <ele>11.7</ele>
        <time>2015-09-30T10:58:23Z</time>
      </trkpt>
      <trkpt lat="46.69511" lon="-2.31545">
        <ele>1</ele>
        <time>2015-09-30T10:58:25Z</time>
      </trkpt>
      <trkpt lat="46.6951" lon="-2.31545">
        <ele>1</ele>
        <time>2015-09-30T10:58:26Z</time>
      </trkpt>
      <trkpt lat="46.69509" lon="-2.31546">
        <ele>2</ele>
        <time>2015-09-30T10:58:28Z</time>
      </trkpt>
      <trkpt lat="46.69507" lon="-2.31546">
        <ele>2</ele>
        <time>2015-09-30T10:58:30Z</time>
      </trkpt>
      <trkpt lat="46.69505" lon="-2.31547">
        <ele>2</ele>
        <time>2015-09-30T10:58:32Z</time>
      </trkpt>
      <trkpt lat="46.69503" lon="-2.31548">
        <ele>2</ele>
        <time>2015-09-30T10:58:35Z</time>
      </trkpt>
      <trkpt lat="46.69502" lon="-2.31549">
        <ele>2</ele>
        <time>2015-09-30T10:58:37Z</time>
      </trkpt>
      <trkpt lat="46.695" lon="-2.31551">
        <ele>2</ele>
        <time>2015-09-30T10:58:39Z</time>
      </trkpt>
      <trkpt lat="46.69498" lon="-2.31553">
        <ele>2</ele>
        <time>2015-09-30T10:58:41Z</time>
      </trkpt>
      <trkpt lat="46.69497" lon="-2.31554">
        <ele>2</ele>
        <time>2015-09-30T10:58:43Z</time>
      </trkpt>
      <trkpt lat="46.69494" lon="-2.31556">
        <ele>2</ele>
        <time>2015-09-30T10:58:45Z</time>
      </trkpt>
      <trkpt lat="46.69493" lon="-2.31558">
        <ele>2</ele>
        <time>2015-09-30T10:58:47Z</time>
      </trkpt>
      <trkpt lat="46.69492" lon="-2.31559">
        <ele>2</ele>
        <time>2015-09-30T10:58:49Z</time>
      </trkpt>
      <trkpt lat="46.6949" lon="-2.3156">
        <ele>2</ele>
        <time>2015-09-30T10:58:51Z</time>
      </trkpt>
      <trkpt lat="46.69489" lon="-2.31562">
        <ele>2</ele>
        <time>2015-09-30T10:58:53Z</time>
      </trkpt>
      <trkpt lat="46.69488" lon="-2.31563">
        <ele>2</ele>
        <time>2015-09-30T10:58:55Z</time>
      </trkpt>
      <trkpt lat="46.69487" lon="-2.31565">
        <ele>2</ele>
        <time>2015-09-30T10:58:57Z</time>
      </trkpt>
      <trkpt lat="46.69485" lon="-2.31566">
        <ele>2</ele>
        <time>2015-09-30T10:58:59Z</time>
      </trkpt>
      <trkpt lat="46.69484" lon="-2.31567">
        <ele>2</ele>
        <time>2015-09-30T10:59:00Z</time>
      </trkpt>
      <trkpt lat="46.69483" lon="-2.31568">
        <ele>2</ele>
        <time>2015-09-30T10:59:01Z</time>
      </trkpt>
      <trkpt lat="46.69482" lon="-2.31569">
        <ele>2</ele>
        <time>2015-09-30T10:59:02Z</time>
      </trkpt>
      <trkpt lat="46.69482" lon="-2.31571">
        <ele>2</ele>
        <time>2015-09-30T10:59:03Z</time>
      </trkpt>
      <trkpt lat="46.69481" lon="-2.31573">
        <ele>2</ele>
        <time>2015-09-30T10:59:04Z</time>
      </trkpt>
      <trkpt lat="46.6948" lon="-2.31573">
        <ele>2</ele>
        <time>2015-09-30T10:59:05Z</time>
      </trkpt>
      <trkpt lat="46.69478" lon="-2.31573">
        <ele>2</ele>
        <time>2015-09-30T10:59:07Z</time>
      </trkpt>
      <trkpt lat="46.69476" lon="-2.31574">
        <ele>2</ele>
        <time>2015-09-30T10:59:09Z</time>
      </trkpt>
      <trkpt lat="46.69474" lon="-2.31575">
        <ele>2</ele>
        <time>2015-09-30T10:59:11Z</time>
      </trkpt>
      <trkpt lat="46.69472" lon="-2.31576">
        <ele>2</ele>
        <time>2015-09-30T10:59:12Z</time>
      </trkpt>
      <trkpt lat="46.69472" lon="-2.31578">
        <ele>2</ele>
        <time>2015-09-30T10:59:14Z</time>
      </trkpt>
      <trkpt lat="46.69471" lon="-2.3158">
        <ele>2</ele>
        <time>2015-09-30T10:59:16Z</time>
      </trkpt>
      <trkpt lat="46.69469" lon="-2.31583">
        <ele>2</ele>
        <time>2015-09-30T10:59:18Z</time>
      </trkpt>
      <trkpt lat="46.69468" lon="-2.31586">
        <ele>2</ele>
        <time>2015-09-30T10:59:19Z</time>
      </trkpt>
      <trkpt lat="46.69468" lon="-2.31588">
        <ele>2</ele>
        <time>2015-09-30T10:59:20Z</time>
      </trkpt>
      <trkpt lat="46.69468" lon="-2.3159">
        <ele>2</ele>
        <time>2015-09-30T10:59:21Z</time>
      </trkpt>
      <trkpt lat="46.69467" lon="-2.31592">
        <ele>3</ele>
        <time>2015-09-30T10:59:22Z</time>
      </trkpt>
      <trkpt lat="46.69465" lon="-2.31595">
        <ele>4</ele>
        <time>2015-09-30T10:59:24Z</time>
      </trkpt>
      <trkpt lat="46.69464" lon="-2.31597">
        <ele>6</ele>
        <time>2015-09-30T10:59:26Z</time>
      </trkpt>
      <trkpt lat="46.69462" lon="-2.31598">
        <ele>6</ele>
        <time>2015-09-30T10:59:28Z</time>
      </trkpt>
      <trkpt lat="46.6946" lon="-2.31599">
        <ele>6</ele>
        <time>2015-09-30T10:59:29Z</time>
      </trkpt>
      <trkpt lat="46.69459" lon="-2.31599">
        <ele>6</ele>
        <time>2015-09-30T10:59:30Z</time>
      </trkpt>
      <trkpt lat="46.69457" lon="-2.31599">
        <ele>6</ele>
        <time>2015-09-30T10:59:31Z</time>
      </trkpt>
      <trkpt lat="46.69456" lon="-2.31599">
        <ele>6</ele>
        <time>2015-09-30T10:59:32Z</time>
      </trkpt>
      <trkpt lat="46.69454" lon="-2.31598">
        <ele>6</ele>
        <time>2015-09-30T10:59:33Z</time>
      </trkpt>
      <trkpt lat="46.69452" lon="-2.31599">
        <ele>6</ele>
        <time>2015-09-30T10:59:35Z</time>
      </trkpt>
      <trkpt lat="46.6945" lon="-2.31599">
        <ele>6</ele>
        <time>2015-09-30T10:59:37Z</time>
      </trkpt>
      <trkpt lat="46.69448" lon="-2.31598">
        <ele>4</ele>
        <time>2015-09-30T10:59:39Z</time>
      </trkpt>
      <trkpt lat="46.69447" lon="-2.31596">
        <ele>3</ele>
        <time>2015-09-30T10:59:41Z</time>
      </trkpt>
      <trkpt lat="46.69447" lon="-2.31594">
        <ele>3</ele>
        <time>2015-09-30T10:59:42Z</time>
      </trkpt>
      <trkpt lat="46.69445" lon="-2.31593">
        <ele>2</ele>
        <time>2015-09-30T10:59:43Z</time>
      </trkpt>
      <trkpt lat="46.69444" lon="-2.31591">
        <ele>1</ele>
        <time>2015-09-30T10:59:45Z</time>
      </trkpt>
      <trkpt lat="46.69443" lon="-2.31589">
        <ele>11.9</ele>
        <time>2015-09-30T10:59:47Z</time>
      </trkpt>
      <trkpt lat="46.69441" lon="-2.31588">
        <ele>11.8</ele>
        <time>2015-09-30T10:59:49Z</time>
      </trkpt>
      <trkpt lat="46.6944" lon="-2.31585">
        <ele>11.7</ele>
        <time>2015-09-30T10:59:53Z</time>
      </trkpt>
      <trkpt lat="46.69438" lon="-2.31582">
        <ele>11.5</ele>
        <time>2015-09-30T10:59:56Z</time>
      </trkpt>
      <trkpt lat="46.69436" lon="-2.31581">
        <ele>11.4</ele>
        <time>2015-09-30T10:59:57Z</time>
      </trkpt>
      <trkpt lat="46.69434" lon="-2.31579">
        <ele>11.2</ele>
        <time>2015-09-30T10:59:58Z</time>
      </trkpt>
      <trkpt lat="46.69422" lon="-2.31573">
        <ele>10.1</ele>
        <time>2015-09-30T11:00:08Z</time>
      </trkpt>
      <trkpt lat="46.69421" lon="-2.31572">
        <ele>9.9</ele>
        <time>2015-09-30T11:00:10Z</time>
      </trkpt>
      <trkpt lat="46.69418" lon="-2.31571">
        <ele>9.7</ele>
        <time>2015-09-30T11:00:12Z</time>
      </trkpt>
      <trkpt lat="46.69416" lon="-2.31571">
        <ele>9.4</ele>
        <time>2015-09-30T11:00:14Z</time>
      </trkpt>
      <trkpt lat="46.69415" lon="-2.31571">
        <ele>9.3</ele>
        <time>2015-09-30T11:00:16Z</time>
      </trkpt>
      <trkpt lat="46.69408" lon="-2.31566">
        <ele>8</ele>
        <time>2015-09-30T11:00:22Z</time>
      </trkpt>
      <trkpt lat="46.69402" lon="-2.31562">
        <ele>6.6</ele>
        <time>2015-09-30T11:00:23Z</time>
      </trkpt>
      <trkpt lat="46.69402" lon="-2.31558">
        <ele>6</ele>
        <time>2015-09-30T11:00:24Z</time>
      </trkpt>
      <trkpt lat="46.69401" lon="-2.31556">
        <ele>5.6</ele>
        <time>2015-09-30T11:00:25Z</time>
      </trkpt>
      <trkpt lat="46.694" lon="-2.31558">
        <ele>5.6</ele>
        <time>2015-09-30T11:00:26Z</time>
      </trkpt>
      <trkpt lat="46.69398" lon="-2.31558">
        <ele>5.3</ele>
        <time>2015-09-30T11:00:27Z</time>
      </trkpt>
      <trkpt lat="46.69396" lon="-2.31557">
        <ele>4.8</ele>
        <time>2015-09-30T11:00:28Z</time>
      </trkpt>
      <trkpt lat="46.69395" lon="-2.31559">
        <ele>4.9</ele>
        <time>2015-09-30T11:00:29Z</time>
      </trkpt>
      <trkpt lat="46.69394" lon="-2.31561">
        <ele>4.8</ele>
        <time>2015-09-30T11:00:31Z</time>
      </trkpt>
      <trkpt lat="46.69393" lon="-2.31561">
        <ele>4.6</ele>
        <time>2015-09-30T11:00:32Z</time>
      </trkpt>
      <trkpt lat="46.69391" lon="-2.31561">
        <ele>4.3</ele>
        <time>2015-09-30T11:00:33Z</time>
      </trkpt>
      <trkpt lat="46.69388" lon="-2.31563">
        <ele>4.4</ele>
        <time>2015-09-30T11:00:35Z</time>
      </trkpt>
      <trkpt lat="46.69388" lon="-2.31564">
        <ele>4.8</ele>
        <time>2015-09-30T11:00:36Z</time>
      </trkpt>
      <trkpt lat="46.69386" lon="-2.31564">
        <ele>5.1</ele>
        <time>2015-09-30T11:00:37Z</time>
      </trkpt>
      <trkpt lat="46.69385" lon="-2.31567">
        <ele>5.8</ele>
        <time>2015-09-30T11:00:39Z</time>
      </trkpt>
      <trkpt lat="46.69384" lon="-2.31567">
        <ele>6.1</ele>
        <time>2015-09-30T11:00:40Z</time>
      </trkpt>
      <trkpt lat="46.69382" lon="-2.31569">
        <ele>6.7</ele>
        <time>2015-09-30T11:00:42Z</time>
      </trkpt>
      <trkpt lat="46.6938" lon="-2.3157">
        <ele>7.1</ele>
        <time>2015-09-30T11:00:44Z</time>
      </trkpt>
      <trkpt lat="46.69379" lon="-2.31571">
        <ele>7.5</ele>
        <time>2015-09-30T11:00:46Z</time>
      </trkpt>
      <trkpt lat="46.69378" lon="-2.31571">
        <ele>7.7</ele>
        <time>2015-09-30T11:00:48Z</time>
      </trkpt>
      <trkpt lat="46.69376" lon="-2.31569">
        <ele>7.8</ele>
        <time>2015-09-30T11:00:52Z</time>
      </trkpt>
      <trkpt lat="46.69375" lon="-2.31567">
        <ele>7.7</ele>
        <time>2015-09-30T11:00:55Z</time>
      </trkpt>
      <trkpt lat="46.69374" lon="-2.31566">
        <ele>8</ele>
        <time>2015-09-30T11:00:56Z</time>
      </trkpt>
      <trkpt lat="46.69371" lon="-2.31565">
        <ele>8.2</ele>
        <time>2015-09-30T11:00:58Z</time>
      </trkpt>
      <trkpt lat="46.6937" lon="-2.31564">
        <ele>8.4</ele>
        <time>2015-09-30T11:00:59Z</time>
      </trkpt>
      <trkpt lat="46.69369" lon="-2.31564">
        <ele>8.7</ele>
        <time>2015-09-30T11:01:00Z</time>
      </trkpt>
      <trkpt lat="46.69366" lon="-2.31563">
        <ele>9.1</ele>
        <time>2015-09-30T11:01:01Z</time>
      </trkpt>
      <trkpt lat="46.69365" lon="-2.31562">
        <ele>9.5</ele>
        <time>2015-09-30T11:01:02Z</time>
      </trkpt>
      <trkpt lat="46.69362" lon="-2.3156">
        <ele>10</ele>
        <time>2015-09-30T11:01:04Z</time>
      </trkpt>
      <trkpt lat="46.6936" lon="-2.31559">
        <ele>10.1</ele>
        <time>2015-09-30T11:01:06Z</time>
      </trkpt>
      <trkpt lat="46.69358" lon="-2.31557">
        <ele>10</ele>
        <time>2015-09-30T11:01:08Z</time>
      </trkpt>
      <trkpt lat="46.69356" lon="-2.31556">
        <ele>10</ele>
        <time>2015-09-30T11:01:10Z</time>
      </trkpt>
      <trkpt lat="46.69355" lon="-2.31555">
        <ele>9.8</ele>
        <time>2015-09-30T11:01:11Z</time>
      </trkpt>
      <trkpt lat="46.69354" lon="-2.31553">
        <ele>9.2</ele>
        <time>2015-09-30T11:01:12Z</time>
      </trkpt>
      <trkpt lat="46.69353" lon="-2.31551">
        <ele>8.8</ele>
        <time>2015-09-30T11:01:13Z</time>
      </trkpt>
      <trkpt lat="46.69351" lon="-2.3155">
        <ele>8.3</ele>
        <time>2015-09-30T11:01:15Z</time>
      </trkpt>
      <trkpt lat="46.69349" lon="-2.31549">
        <ele>8.2</ele>
        <time>2015-09-30T11:01:17Z</time>
      </trkpt>
      <trkpt lat="46.69348" lon="-2.31549">
        <ele>8.2</ele>
        <time>2015-09-30T11:01:19Z</time>
      </trkpt>
      <trkpt lat="46.69346" lon="-2.3155">
        <ele>8.5</ele>
        <time>2015-09-30T11:01:21Z</time>
      </trkpt>
      <trkpt lat="46.69343" lon="-2.31551">
        <ele>8.8</ele>
        <time>2015-09-30T11:01:23Z</time>
      </trkpt>
      <trkpt lat="46.69342" lon="-2.31552">
        <ele>9.1</ele>
        <time>2015-09-30T11:01:25Z</time>
      </trkpt>
      <trkpt lat="46.6934" lon="-2.31553">
        <ele>9.4</ele>
        <time>2015-09-30T11:01:27Z</time>
      </trkpt>
      <trkpt lat="46.69339" lon="-2.31555">
        <ele>9.8</ele>
        <time>2015-09-30T11:01:29Z</time>
      </trkpt>
      <trkpt lat="46.69338" lon="-2.31556">
        <ele>10</ele>
        <time>2015-09-30T11:01:31Z</time>
      </trkpt>
      <trkpt lat="46.69337" lon="-2.31558">
        <ele>10.1</ele>
        <time>2015-09-30T11:01:33Z</time>
      </trkpt>
      <trkpt lat="46.69336" lon="-2.31558">
        <ele>10.1</ele>
        <time>2015-09-30T11:01:42Z</time>
      </trkpt>
      <trkpt lat="46.69335" lon="-2.31559">
        <ele>10.1</ele>
        <time>2015-09-30T11:01:45Z</time>
      </trkpt>
      <trkpt lat="46.69334" lon="-2.3156">
        <ele>10.2</ele>
        <time>2015-09-30T11:01:48Z</time>
      </trkpt>
      <trkpt lat="46.69332" lon="-2.31562">
        <ele>10</ele>
        <time>2015-09-30T11:01:52Z</time>
      </trkpt>
      <trkpt lat="46.69331" lon="-2.31563">
        <ele>1</ele>
        <time>2015-09-30T11:02:07Z</time>
      </trkpt>
      <trkpt lat="46.6933" lon="-2.31563">
        <ele>3</ele>
        <time>2015-09-30T11:02:14Z</time>
      </trkpt>
      <trkpt lat="46.69329" lon="-2.31562">
        <ele>3</ele>
        <time>2015-09-30T11:02:18Z</time>
      </trkpt>
      <trkpt lat="46.69327" lon="-2.31561">
        <ele>3</ele>
        <time>2015-09-30T11:02:25Z</time>
      </trkpt>
      <trkpt lat="46.69327" lon="-2.31559">
        <ele>3</ele>
        <time>2015-09-30T11:02:34Z</time>
      </trkpt>
      <trkpt lat="46.69325" lon="-2.31558">
        <ele>3</ele>
        <time>2015-09-30T11:02:37Z</time>
      </trkpt>
      <trkpt lat="46.69327" lon="-2.31556">
        <ele>3</ele>
        <time>2015-09-30T11:02:48Z</time>
      </trkpt>
      <trkpt lat="46.69327" lon="-2.31558">
        <ele>3</ele>
        <time>2015-09-30T11:02:55Z</time>
      </trkpt>
      <trkpt lat="46.69329" lon="-2.31557">
        <ele>3</ele>
        <time>2015-09-30T11:03:02Z</time>
      </trkpt>
      <trkpt lat="46.6933" lon="-2.31557">
        <ele>3</ele>
        <time>2015-09-30T11:03:06Z</time>
      </trkpt>
      <trkpt lat="46.69332" lon="-2.31557">
        <ele>3</ele>
        <time>2015-09-30T11:03:11Z</time>
      </trkpt>
      <trkpt lat="46.69333" lon="-2.31558">
        <ele>3</ele>
        <time>2015-09-30T11:03:15Z</time>
      </trkpt>
      <trkpt lat="46.69334" lon="-2.31559">
        <ele>3</ele>
        <time>2015-09-30T11:03:26Z</time>
      </trkpt>
      <trkpt lat="46.69333" lon="-2.31561">
        <ele>3</ele>
        <time>2015-09-30T11:03:31Z</time>
      </trkpt>
      <trkpt lat="46.69333" lon="-2.31563">
        <ele>5</ele>
        <time>2015-09-30T11:03:37Z</time>
      </trkpt>
      <trkpt lat="46.69332" lon="-2.31563">
        <ele>5</ele>
        <time>2015-09-30T11:03:40Z</time>
      </trkpt>
      <trkpt lat="46.69333" lon="-2.31565">
        <ele>5</ele>
        <time>2015-09-30T11:03:44Z</time>
      </trkpt>
      <trkpt lat="46.69334" lon="-2.31563">
        <ele>5</ele>
        <time>2015-09-30T11:03:51Z</time>
      </trkpt>
      <trkpt lat="46.69335" lon="-2.31564">
        <ele>4</ele>
        <time>2015-09-30T11:03:53Z</time>
      </trkpt>
      <trkpt lat="46.69334" lon="-2.31565">
        <ele>10.4</ele>
        <time>2015-09-30T11:03:59Z</time>
      </trkpt>
      <trkpt lat="46.69333" lon="-2.31567">
        <ele>10.4</ele>
        <time>2015-09-30T11:04:00Z</time>
      </trkpt>
      <trkpt lat="46.69332" lon="-2.31568">
        <ele>10.3</ele>
        <time>2015-09-30T11:04:01Z</time>
      </trkpt>
      <trkpt lat="46.69331" lon="-2.31571">
        <ele>10.2</ele>
        <time>2015-09-30T11:04:03Z</time>
      </trkpt>
      <trkpt lat="46.69329" lon="-2.31572">
        <ele>10.2</ele>
        <time>2015-09-30T11:04:05Z</time>
      </trkpt>
      <trkpt lat="46.69328" lon="-2.31574">
        <ele>10.2</ele>
        <time>2015-09-30T11:04:07Z</time>
      </trkpt>
      <trkpt lat="46.69326" lon="-2.31575">
        <ele>10.1</ele>
        <time>2015-09-30T11:04:09Z</time>
      </trkpt>
      <trkpt lat="46.69325" lon="-2.31576">
        <ele>10.1</ele>
        <time>2015-09-30T11:04:10Z</time>
      </trkpt>
      <trkpt lat="46.69323" lon="-2.31577">
        <ele>10.2</ele>
        <time>2015-09-30T11:04:12Z</time>
      </trkpt>
      <trkpt lat="46.69321" lon="-2.3158">
        <ele>10.4</ele>
        <time>2015-09-30T11:04:14Z</time>
      </trkpt>
      <trkpt lat="46.6932" lon="-2.31581">
        <ele>10.7</ele>
        <time>2015-09-30T11:04:16Z</time>
      </trkpt>
      <trkpt lat="46.69319" lon="-2.3158">
        <ele>10.5</ele>
        <time>2015-09-30T11:04:27Z</time>
      </trkpt>
      <trkpt lat="46.69319" lon="-2.31578">
        <ele>1</ele>
        <time>2015-09-30T11:04:30Z</time>
      </trkpt>
      <trkpt lat="46.6932" lon="-2.31579">
        <ele>3</ele>
        <time>2015-09-30T11:04:42Z</time>
      </trkpt>
      <trkpt lat="46.69319" lon="-2.31581">
        <ele>3</ele>
        <time>2015-09-30T11:04:44Z</time>
      </trkpt>
      <trkpt lat="46.69318" lon="-2.31583">
        <ele>3</ele>
        <time>2015-09-30T11:04:46Z</time>
      </trkpt>
      <trkpt lat="46.69317" lon="-2.31586">
        <ele>3</ele>
        <time>2015-09-30T11:04:48Z</time>
      </trkpt>
      <trkpt lat="46.69316" lon="-2.31588">
        <ele>3</ele>
        <time>2015-09-30T11:04:49Z</time>
      </trkpt>
      <trkpt lat="46.69314" lon="-2.3159">
        <ele>3</ele>
        <time>2015-09-30T11:04:51Z</time>
      </trkpt>
      <trkpt lat="46.69313" lon="-2.31592">
        <ele>3</ele>
        <time>2015-09-30T11:04:53Z</time>
      </trkpt>
      <trkpt lat="46.69313" lon="-2.31594">
        <ele>3</ele>
        <time>2015-09-30T11:04:55Z</time>
      </trkpt>
      <trkpt lat="46.69313" lon="-2.31595">
        <ele>3</ele>
        <time>2015-09-30T11:04:57Z</time>
      </trkpt>
      <trkpt lat="46.69312" lon="-2.31597">
        <ele>3</ele>
        <time>2015-09-30T11:05:00Z</time>
      </trkpt>
      <trkpt lat="46.69312" lon="-2.31599">
        <ele>3</ele>
        <time>2015-09-30T11:05:03Z</time>
      </trkpt>
      <trkpt lat="46.6931" lon="-2.316">
        <ele>3</ele>
        <time>2015-09-30T11:05:05Z</time>
      </trkpt>
      <trkpt lat="46.69309" lon="-2.31601">
        <ele>3</ele>
        <time>2015-09-30T11:05:09Z</time>
      </trkpt>
      <trkpt lat="46.69309" lon="-2.31602">
        <ele>2</ele>
        <time>2015-09-30T11:05:12Z</time>
      </trkpt>
      <trkpt lat="46.69308" lon="-2.31604">
        <ele>2</ele>
        <time>2015-09-30T11:05:14Z</time>
      </trkpt>
      <trkpt lat="46.69308" lon="-2.31606">
        <ele>2</ele>
        <time>2015-09-30T11:05:16Z</time>
      </trkpt>
      <trkpt lat="46.69307" lon="-2.31608">
        <ele>2</ele>
        <time>2015-09-30T11:05:20Z</time>
      </trkpt>
      <trkpt lat="46.69306" lon="-2.3161">
        <ele>2</ele>
        <time>2015-09-30T11:05:21Z</time>
      </trkpt>
      <trkpt lat="46.69305" lon="-2.31611">
        <ele>2</ele>
        <time>2015-09-30T11:05:23Z</time>
      </trkpt>
      <trkpt lat="46.69304" lon="-2.31613">
        <ele>2</ele>
        <time>2015-09-30T11:05:26Z</time>
      </trkpt>
      <trkpt lat="46.69302" lon="-2.31614">
        <ele>2</ele>
        <time>2015-09-30T11:05:28Z</time>
      </trkpt>
      <trkpt lat="46.693" lon="-2.31615">
        <ele>2</ele>
        <time>2015-09-30T11:05:30Z</time>
      </trkpt>
      <trkpt lat="46.69299" lon="-2.31617">
        <ele>2</ele>
        <time>2015-09-30T11:05:32Z</time>
      </trkpt>
      <trkpt lat="46.69298" lon="-2.31617">
        <ele>2</ele>
        <time>2015-09-30T11:05:33Z</time>
      </trkpt>
      <trkpt lat="46.69297" lon="-2.31619">
        <ele>2</ele>
        <time>2015-09-30T11:05:35Z</time>
      </trkpt>
      <trkpt lat="46.69297" lon="-2.31621">
        <ele>2</ele>
        <time>2015-09-30T11:05:41Z</time>
      </trkpt>
      <trkpt lat="46.69295" lon="-2.31622">
        <ele>2</ele>
        <time>2015-09-30T11:05:46Z</time>
      </trkpt>
      <trkpt lat="46.69294" lon="-2.31623">
        <ele>2</ele>
        <time>2015-09-30T11:05:48Z</time>
      </trkpt>
      <trkpt lat="46.69293" lon="-2.31625">
        <ele>2</ele>
        <time>2015-09-30T11:05:50Z</time>
      </trkpt>
      <trkpt lat="46.69292" lon="-2.31627">
        <ele>2</ele>
        <time>2015-09-30T11:05:51Z</time>
      </trkpt>
      <trkpt lat="46.69291" lon="-2.31629">
        <ele>2</ele>
        <time>2015-09-30T11:05:53Z</time>
      </trkpt>
      <trkpt lat="46.6929" lon="-2.31631">
        <ele>2</ele>
        <time>2015-09-30T11:05:56Z</time>
      </trkpt>
      <trkpt lat="46.69288" lon="-2.31631">
        <ele>2</ele>
        <time>2015-09-30T11:05:57Z</time>
      </trkpt>
      <trkpt lat="46.69287" lon="-2.31633">
        <ele>2</ele>
        <time>2015-09-30T11:06:01Z</time>
      </trkpt>
      <trkpt lat="46.69287" lon="-2.31634">
        <ele>2</ele>
        <time>2015-09-30T11:06:03Z</time>
      </trkpt>
      <trkpt lat="46.69285" lon="-2.31637">
        <ele>2</ele>
        <time>2015-09-30T11:06:06Z</time>
      </trkpt>
      <trkpt lat="46.69284" lon="-2.31638">
        <ele>2</ele>
        <time>2015-09-30T11:06:08Z</time>
      </trkpt>
      <trkpt lat="46.69283" lon="-2.31641">
        <ele>2</ele>
        <time>2015-09-30T11:06:10Z</time>
      </trkpt>
      <trkpt lat="46.69282" lon="-2.31643">
        <ele>2</ele>
        <time>2015-09-30T11:06:12Z</time>
      </trkpt>
      <trkpt lat="46.6928" lon="-2.31644">
        <ele>2</ele>
        <time>2015-09-30T11:06:13Z</time>
      </trkpt>
      <trkpt lat="46.69279" lon="-2.31645">
        <ele>3</ele>
        <time>2015-09-30T11:06:15Z</time>
      </trkpt>
      <trkpt lat="46.69277" lon="-2.31647">
        <ele>4</ele>
        <time>2015-09-30T11:06:17Z</time>
      </trkpt>
      <trkpt lat="46.69276" lon="-2.31648">
        <ele>4</ele>
        <time>2015-09-30T11:06:19Z</time>
      </trkpt>
      <trkpt lat="46.69275" lon="-2.3165">
        <ele>4</ele>
        <time>2015-09-30T11:06:21Z</time>
      </trkpt>
      <trkpt lat="46.69273" lon="-2.31651">
        <ele>4</ele>
        <time>2015-09-30T11:06:24Z</time>
      </trkpt>
      <trkpt lat="46.69272" lon="-2.31652">
        <ele>4</ele>
        <time>2015-09-30T11:06:25Z</time>
      </trkpt>
      <trkpt lat="46.69271" lon="-2.31653">
        <ele>4</ele>
        <time>2015-09-30T11:06:26Z</time>
      </trkpt>
      <trkpt lat="46.69269" lon="-2.31654">
        <ele>4</ele>
        <time>2015-09-30T11:06:27Z</time>
      </trkpt>
      <trkpt lat="46.69268" lon="-2.31654">
        <ele>4</ele>
        <time>2015-09-30T11:06:29Z</time>
      </trkpt>
      <trkpt lat="46.69266" lon="-2.31654">
        <ele>4</ele>
        <time>2015-09-30T11:06:31Z</time>
      </trkpt>
      <trkpt lat="46.69264" lon="-2.31655">
        <ele>4</ele>
        <time>2015-09-30T11:06:33Z</time>
      </trkpt>
      <trkpt lat="46.69262" lon="-2.31656">
        <ele>4</ele>
        <time>2015-09-30T11:06:35Z</time>
      </trkpt>
      <trkpt lat="46.6926" lon="-2.31656">
        <ele>4</ele>
        <time>2015-09-30T11:06:37Z</time>
      </trkpt>
      <trkpt lat="46.69259" lon="-2.31656">
        <ele>4</ele>
        <time>2015-09-30T11:06:38Z</time>
      </trkpt>
      <trkpt lat="46.69257" lon="-2.31656">
        <ele>4</ele>
        <time>2015-09-30T11:06:40Z</time>
      </trkpt>
      <trkpt lat="46.69256" lon="-2.31656">
        <ele>4</ele>
        <time>2015-09-30T11:06:42Z</time>
      </trkpt>
      <trkpt lat="46.69255" lon="-2.31656">
        <ele>4</ele>
        <time>2015-09-30T11:06:43Z</time>
      </trkpt>
      <trkpt lat="46.69254" lon="-2.31657">
        <ele>4</ele>
        <time>2015-09-30T11:06:44Z</time>
      </trkpt>
      <trkpt lat="46.69252" lon="-2.31657">
        <ele>4</ele>
        <time>2015-09-30T11:06:45Z</time>
      </trkpt>
      <trkpt lat="46.69251" lon="-2.31657">
        <ele>4</ele>
        <time>2015-09-30T11:06:46Z</time>
      </trkpt>
      <trkpt lat="46.6925" lon="-2.31657">
        <ele>4</ele>
        <time>2015-09-30T11:06:47Z</time>
      </trkpt>
      <trkpt lat="46.69249" lon="-2.31657">
        <ele>4</ele>
        <time>2015-09-30T11:06:48Z</time>
      </trkpt>
      <trkpt lat="46.69248" lon="-2.31656">
        <ele>4</ele>
        <time>2015-09-30T11:06:49Z</time>
      </trkpt>
      <trkpt lat="46.69246" lon="-2.31656">
        <ele>4</ele>
        <time>2015-09-30T11:06:50Z</time>
      </trkpt>
      <trkpt lat="46.69245" lon="-2.31656">
        <ele>4</ele>
        <time>2015-09-30T11:06:51Z</time>
      </trkpt>
      <trkpt lat="46.69243" lon="-2.31655">
        <ele>4</ele>
        <time>2015-09-30T11:06:53Z</time>
      </trkpt>
      <trkpt lat="46.69242" lon="-2.31655">
        <ele>4</ele>
        <time>2015-09-30T11:06:54Z</time>
      </trkpt>
      <trkpt lat="46.6924" lon="-2.31655">
        <ele>4</ele>
        <time>2015-09-30T11:06:55Z</time>
      </trkpt>
      <trkpt lat="46.69238" lon="-2.31653">
        <ele>4</ele>
        <time>2015-09-30T11:06:57Z</time>
      </trkpt>
      <trkpt lat="46.69237" lon="-2.31653">
        <ele>4</ele>
        <time>2015-09-30T11:06:58Z</time>
      </trkpt>
      <trkpt lat="46.69235" lon="-2.31652">
        <ele>4</ele>
        <time>2015-09-30T11:07:00Z</time>
      </trkpt>
      <trkpt lat="46.69234" lon="-2.31651">
        <ele>4</ele>
        <time>2015-09-30T11:07:01Z</time>
      </trkpt>
      <trkpt lat="46.69233" lon="-2.31651">
        <ele>4</ele>
        <time>2015-09-30T11:07:02Z</time>
      </trkpt>
      <trkpt lat="46.69231" lon="-2.3165">
        <ele>4</ele>
        <time>2015-09-30T11:07:04Z</time>
      </trkpt>
      <trkpt lat="46.69229" lon="-2.3165">
        <ele>4</ele>
        <time>2015-09-30T11:07:06Z</time>
      </trkpt>
      <trkpt lat="46.69227" lon="-2.31649">
        <ele>4</ele>
        <time>2015-09-30T11:07:08Z</time>
      </trkpt>
      <trkpt lat="46.69225" lon="-2.31649">
        <ele>4</ele>
        <time>2015-09-30T11:07:10Z</time>
      </trkpt>
      <trkpt lat="46.69224" lon="-2.31648">
        <ele>4</ele>
        <time>2015-09-30T11:07:11Z</time>
      </trkpt>
      <trkpt lat="46.69223" lon="-2.31648">
        <ele>4</ele>
        <time>2015-09-30T11:07:13Z</time>
      </trkpt>
      <trkpt lat="46.69221" lon="-2.31647">
        <ele>5</ele>
        <time>2015-09-30T11:07:14Z</time>
      </trkpt>
      <trkpt lat="46.6922" lon="-2.31647">
        <ele>6</ele>
        <time>2015-09-30T11:07:15Z</time>
      </trkpt>
      <trkpt lat="46.69219" lon="-2.31646">
        <ele>6</ele>
        <time>2015-09-30T11:07:16Z</time>
      </trkpt>
      <trkpt lat="46.69218" lon="-2.31646">
        <ele>6</ele>
        <time>2015-09-30T11:07:17Z</time>
      </trkpt>
      <trkpt lat="46.69217" lon="-2.31645">
        <ele>6</ele>
        <time>2015-09-30T11:07:19Z</time>
      </trkpt>
      <trkpt lat="46.69215" lon="-2.31644">
        <ele>6</ele>
        <time>2015-09-30T11:07:21Z</time>
      </trkpt>
      <trkpt lat="46.69213" lon="-2.31642">
        <ele>7</ele>
        <time>2015-09-30T11:07:23Z</time>
      </trkpt>
      <trkpt lat="46.69211" lon="-2.31641">
        <ele>7</ele>
        <time>2015-09-30T11:07:25Z</time>
      </trkpt>
      <trkpt lat="46.6921" lon="-2.31639">
        <ele>7</ele>
        <time>2015-09-30T11:07:27Z</time>
      </trkpt>
      <trkpt lat="46.69208" lon="-2.31638">
        <ele>7</ele>
        <time>2015-09-30T11:07:29Z</time>
      </trkpt>
      <trkpt lat="46.69208" lon="-2.31636">
        <ele>8</ele>
        <time>2015-09-30T11:07:31Z</time>
      </trkpt>
      <trkpt lat="46.69206" lon="-2.31636">
        <ele>8</ele>
        <time>2015-09-30T11:07:33Z</time>
      </trkpt>
      <trkpt lat="46.69207" lon="-2.31634">
        <ele>8</ele>
        <time>2015-09-30T11:07:51Z</time>
      </trkpt>
      <trkpt lat="46.69206" lon="-2.31634">
        <ele>8</ele>
        <time>2015-09-30T11:07:58Z</time>
      </trkpt>
      <trkpt lat="46.69204" lon="-2.31634">
        <ele>8</ele>
        <time>2015-09-30T11:08:01Z</time>
      </trkpt>
      <trkpt lat="46.69203" lon="-2.31634">
        <ele>8</ele>
        <time>2015-09-30T11:08:03Z</time>
      </trkpt>
      <trkpt lat="46.69201" lon="-2.31633">
        <ele>8</ele>
        <time>2015-09-30T11:08:07Z</time>
      </trkpt>
      <trkpt lat="46.69201" lon="-2.31631">
        <ele>8</ele>
        <time>2015-09-30T11:08:10Z</time>
      </trkpt>
      <trkpt lat="46.692" lon="-2.3163">
        <ele>8</ele>
        <time>2015-09-30T11:08:12Z</time>
      </trkpt>
      <trkpt lat="46.69198" lon="-2.31629">
        <ele>8</ele>
        <time>2015-09-30T11:08:13Z</time>
      </trkpt>
      <trkpt lat="46.69197" lon="-2.31629">
        <ele>7</ele>
        <time>2015-09-30T11:08:15Z</time>
      </trkpt>
      <trkpt lat="46.69196" lon="-2.31628">
        <ele>7</ele>
        <time>2015-09-30T11:08:16Z</time>
      </trkpt>
      <trkpt lat="46.69194" lon="-2.31626">
        <ele>7</ele>
        <time>2015-09-30T11:08:18Z</time>
      </trkpt>
      <trkpt lat="46.69192" lon="-2.31624">
        <ele>7</ele>
        <time>2015-09-30T11:08:20Z</time>
      </trkpt>
      <trkpt lat="46.69191" lon="-2.31623">
        <ele>7</ele>
        <time>2015-09-30T11:08:21Z</time>
      </trkpt>
      <trkpt lat="46.69189" lon="-2.31622">
        <ele>7</ele>
        <time>2015-09-30T11:08:23Z</time>
      </trkpt>
      <trkpt lat="46.69187" lon="-2.31621">
        <ele>7</ele>
        <time>2015-09-30T11:08:25Z</time>
      </trkpt>
      <trkpt lat="46.69185" lon="-2.3162">
        <ele>7</ele>
        <time>2015-09-30T11:08:27Z</time>
      </trkpt>
      <trkpt lat="46.69183" lon="-2.31619">
        <ele>7</ele>
        <time>2015-09-30T11:08:29Z</time>
      </trkpt>
      <trkpt lat="46.69182" lon="-2.31619">
        <ele>7</ele>
        <time>2015-09-30T11:08:30Z</time>
      </trkpt>
      <trkpt lat="46.6918" lon="-2.31619">
        <ele>7</ele>
        <time>2015-09-30T11:08:32Z</time>
      </trkpt>
      <trkpt lat="46.69178" lon="-2.31619">
        <ele>7</ele>
        <time>2015-09-30T11:08:34Z</time>
      </trkpt>
      <trkpt lat="46.69177" lon="-2.31619">
        <ele>8</ele>
        <time>2015-09-30T11:08:36Z</time>
      </trkpt>
      <trkpt lat="46.69175" lon="-2.31618">
        <ele>8</ele>
        <time>2015-09-30T11:08:38Z</time>
      </trkpt>
      <trkpt lat="46.69173" lon="-2.31618">
        <ele>8</ele>
        <time>2015-09-30T11:08:40Z</time>
      </trkpt>
      <trkpt lat="46.69172" lon="-2.31618">
        <ele>9</ele>
        <time>2015-09-30T11:08:42Z</time>
      </trkpt>
      <trkpt lat="46.69171" lon="-2.31619">
        <ele>10</ele>
        <time>2015-09-30T11:08:44Z</time>
      </trkpt>
      <trkpt lat="46.69169" lon="-2.3162">
        <ele>11</ele>
        <time>2015-09-30T11:08:46Z</time>
      </trkpt>
      <trkpt lat="46.69168" lon="-2.31621">
        <ele>11</ele>
        <time>2015-09-30T11:08:48Z</time>
      </trkpt>
      <trkpt lat="46.69167" lon="-2.31621">
        <ele>11</ele>
        <time>2015-09-30T11:08:50Z</time>
      </trkpt>
      <trkpt lat="46.69165" lon="-2.31622">
        <ele>11</ele>
        <time>2015-09-30T11:08:52Z</time>
      </trkpt>
      <trkpt lat="46.69164" lon="-2.31622">
        <ele>11</ele>
        <time>2015-09-30T11:08:54Z</time>
      </trkpt>
      <trkpt lat="46.69163" lon="-2.31622">
        <ele>11</ele>
        <time>2015-09-30T11:08:56Z</time>
      </trkpt>
      <trkpt lat="46.69162" lon="-2.31623">
        <ele>11</ele>
        <time>2015-09-30T11:08:58Z</time>
      </trkpt>
      <trkpt lat="46.6916" lon="-2.31622">
        <ele>11</ele>
        <time>2015-09-30T11:09:01Z</time>
      </trkpt>
      <trkpt lat="46.69159" lon="-2.31623">
        <ele>11</ele>
        <time>2015-09-30T11:09:03Z</time>
      </trkpt>
      <trkpt lat="46.69158" lon="-2.31622">
        <ele>11</ele>
        <time>2015-09-30T11:09:06Z</time>
      </trkpt>
      <trkpt lat="46.69158" lon="-2.31624">
        <ele>10</ele>
        <time>2015-09-30T11:09:51Z</time>
      </trkpt>
      <trkpt lat="46.69157" lon="-2.31626">
        <ele>10</ele>
        <time>2015-09-30T11:10:02Z</time>
      </trkpt>
      <trkpt lat="46.69158" lon="-2.31627">
        <ele>10</ele>
        <time>2015-09-30T11:10:07Z</time>
      </trkpt>
      <trkpt lat="46.6916" lon="-2.31627">
        <ele>11</ele>
        <time>2015-09-30T11:10:29Z</time>
      </trkpt>
      <trkpt lat="46.69161" lon="-2.31629">
        <ele>11</ele>
        <time>2015-09-30T11:10:32Z</time>
      </trkpt>
      <trkpt lat="46.69162" lon="-2.31631">
        <ele>11</ele>
        <time>2015-09-30T11:10:34Z</time>
      </trkpt>
      <trkpt lat="46.69164" lon="-2.31633">
        <ele>12</ele>
        <time>2015-09-30T11:10:36Z</time>
      </trkpt>
      <trkpt lat="46.69165" lon="-2.31634">
        <ele>13</ele>
        <time>2015-09-30T11:10:38Z</time>
      </trkpt>
      <trkpt lat="46.69166" lon="-2.31636">
        <ele>14</ele>
        <time>2015-09-30T11:10:40Z</time>
      </trkpt>
      <trkpt lat="46.69167" lon="-2.31637">
        <ele>14</ele>
        <time>2015-09-30T11:10:42Z</time>
      </trkpt>
      <trkpt lat="46.69168" lon="-2.3164">
        <ele>15</ele>
        <time>2015-09-30T11:10:44Z</time>
      </trkpt>
      <trkpt lat="46.69168" lon="-2.31643">
        <ele>16</ele>
        <time>2015-09-30T11:10:46Z</time>
      </trkpt>
      <trkpt lat="46.69169" lon="-2.31646">
        <ele>16</ele>
        <time>2015-09-30T11:10:48Z</time>
      </trkpt>
      <trkpt lat="46.6917" lon="-2.31647">
        <ele>17</ele>
        <time>2015-09-30T11:10:50Z</time>
      </trkpt>
      <trkpt lat="46.69171" lon="-2.3165">
        <ele>17</ele>
        <time>2015-09-30T11:10:52Z</time>
      </trkpt>
      <trkpt lat="46.69172" lon="-2.31652">
        <ele>17</ele>
        <time>2015-09-30T11:10:54Z</time>
      </trkpt>
      <trkpt lat="46.69173" lon="-2.31655">
        <ele>18</ele>
        <time>2015-09-30T11:10:56Z</time>
      </trkpt>
      <trkpt lat="46.69173" lon="-2.31658">
        <ele>18</ele>
        <time>2015-09-30T11:10:58Z</time>
      </trkpt>
      <trkpt lat="46.69173" lon="-2.31659">
        <ele>18</ele>
        <time>2015-09-30T11:10:59Z</time>
      </trkpt>
      <trkpt lat="46.69173" lon="-2.31662">
        <ele>18</ele>
        <time>2015-09-30T11:11:01Z</time>
      </trkpt>
      <trkpt lat="46.69173" lon="-2.31664">
        <ele>18</ele>
        <time>2015-09-30T11:11:03Z</time>
      </trkpt>
      <trkpt lat="46.69174" lon="-2.31667">
        <ele>18</ele>
        <time>2015-09-30T11:11:05Z</time>
      </trkpt>
      <trkpt lat="46.69174" lon="-2.31669">
        <ele>18</ele>
        <time>2015-09-30T11:11:07Z</time>
      </trkpt>
      <trkpt lat="46.69175" lon="-2.31671">
        <ele>18</ele>
        <time>2015-09-30T11:11:08Z</time>
      </trkpt>
      <trkpt lat="46.69175" lon="-2.31672">
        <ele>18</ele>
        <time>2015-09-30T11:11:09Z</time>
      </trkpt>
      <trkpt lat="46.69175" lon="-2.31674">
        <ele>18</ele>
        <time>2015-09-30T11:11:10Z</time>
      </trkpt>
      <trkpt lat="46.69175" lon="-2.31675">
        <ele>18</ele>
        <time>2015-09-30T11:11:11Z</time>
      </trkpt>
      <trkpt lat="46.69175" lon="-2.31677">
        <ele>18</ele>
        <time>2015-09-30T11:11:12Z</time>
      </trkpt>
      <trkpt lat="46.69176" lon="-2.31678">
        <ele>19</ele>
        <time>2015-09-30T11:11:13Z</time>
      </trkpt>
      <trkpt lat="46.69176" lon="-2.3168">
        <ele>19</ele>
        <time>2015-09-30T11:11:14Z</time>
      </trkpt>
      <trkpt lat="46.69176" lon="-2.31682">
        <ele>19</ele>
        <time>2015-09-30T11:11:15Z</time>
      </trkpt>
      <trkpt lat="46.69176" lon="-2.31683">
        <ele>19</ele>
        <time>2015-09-30T11:11:16Z</time>
      </trkpt>
      <trkpt lat="46.69176" lon="-2.31685">
        <ele>19</ele>
        <time>2015-09-30T11:11:17Z</time>
      </trkpt>
      <trkpt lat="46.69176" lon="-2.31688">
        <ele>20</ele>
        <time>2015-09-30T11:11:19Z</time>
      </trkpt>
      <trkpt lat="46.69176" lon="-2.31689">
        <ele>20</ele>
        <time>2015-09-30T11:11:20Z</time>
      </trkpt>
      <trkpt lat="46.69177" lon="-2.31692">
        <ele>20</ele>
        <time>2015-09-30T11:11:22Z</time>
      </trkpt>
      <trkpt lat="46.69177" lon="-2.31694">
        <ele>20</ele>
        <time>2015-09-30T11:11:23Z</time>
      </trkpt>
      <trkpt lat="46.69177" lon="-2.31695">
        <ele>20</ele>
        <time>2015-09-30T11:11:24Z</time>
      </trkpt>
      <trkpt lat="46.69177" lon="-2.31697">
        <ele>20</ele>
        <time>2015-09-30T11:11:25Z</time>
      </trkpt>
      <trkpt lat="46.69178" lon="-2.317">
        <ele>21</ele>
        <time>2015-09-30T11:11:27Z</time>
      </trkpt>
      <trkpt lat="46.69179" lon="-2.31701">
        <ele>21</ele>
        <time>2015-09-30T11:11:28Z</time>
      </trkpt>
      <trkpt lat="46.69179" lon="-2.31703">
        <ele>22</ele>
        <time>2015-09-30T11:11:29Z</time>
      </trkpt>
      <trkpt lat="46.69179" lon="-2.31705">
        <ele>22</ele>
        <time>2015-09-30T11:11:30Z</time>
      </trkpt>
      <trkpt lat="46.6918" lon="-2.31706">
        <ele>22</ele>
        <time>2015-09-30T11:11:31Z</time>
      </trkpt>
      <trkpt lat="46.6918" lon="-2.31708">
        <ele>23</ele>
        <time>2015-09-30T11:11:32Z</time>
      </trkpt>
      <trkpt lat="46.6918" lon="-2.3171">
        <ele>23</ele>
        <time>2015-09-30T11:11:33Z</time>
      </trkpt>
      <trkpt lat="46.6918" lon="-2.31712">
        <ele>23</ele>
        <time>2015-09-30T11:11:34Z</time>
      </trkpt>
      <trkpt lat="46.69181" lon="-2.31714">
        <ele>23</ele>
        <time>2015-09-30T11:11:35Z</time>
      </trkpt>
      <trkpt lat="46.69181" lon="-2.31715">
        <ele>23</ele>
        <time>2015-09-30T11:11:36Z</time>
      </trkpt>
      <trkpt lat="46.69182" lon="-2.31717">
        <ele>23</ele>
        <time>2015-09-30T11:11:37Z</time>
      </trkpt>
      <trkpt lat="46.69182" lon="-2.31718">
        <ele>23</ele>
        <time>2015-09-30T11:11:38Z</time>
      </trkpt>
      <trkpt lat="46.69183" lon="-2.3172">
        <ele>23</ele>
        <time>2015-09-30T11:11:39Z</time>
      </trkpt>
      <trkpt lat="46.69183" lon="-2.31722">
        <ele>23</ele>
        <time>2015-09-30T11:11:40Z</time>
      </trkpt>
      <trkpt lat="46.69184" lon="-2.31723">
        <ele>23</ele>
        <time>2015-09-30T11:11:41Z</time>
      </trkpt>
      <trkpt lat="46.69185" lon="-2.31725">
        <ele>23</ele>
        <time>2015-09-30T11:11:42Z</time>
      </trkpt>
      <trkpt lat="46.69185" lon="-2.31728">
        <ele>23</ele>
        <time>2015-09-30T11:11:44Z</time>
      </trkpt>
      <trkpt lat="46.69186" lon="-2.3173">
        <ele>24</ele>
        <time>2015-09-30T11:11:45Z</time>
      </trkpt>
      <trkpt lat="46.69186" lon="-2.31731">
        <ele>24</ele>
        <time>2015-09-30T11:11:46Z</time>
      </trkpt>
      <trkpt lat="46.69186" lon="-2.31733">
        <ele>24</ele>
        <time>2015-09-30T11:11:47Z</time>
      </trkpt>
      <trkpt lat="46.69187" lon="-2.31735">
        <ele>24</ele>
        <time>2015-09-30T11:11:49Z</time>
      </trkpt>
      <trkpt lat="46.69187" lon="-2.31737">
        <ele>24</ele>
        <time>2015-09-30T11:11:50Z</time>
      </trkpt>
      <trkpt lat="46.69188" lon="-2.31739">
        <ele>24</ele>
        <time>2015-09-30T11:11:51Z</time>
      </trkpt>
      <trkpt lat="46.69188" lon="-2.31741">
        <ele>24</ele>
        <time>2015-09-30T11:11:52Z</time>
      </trkpt>
      <trkpt lat="46.69188" lon="-2.31742">
        <ele>24</ele>
        <time>2015-09-30T11:11:53Z</time>
      </trkpt>
      <trkpt lat="46.69188" lon="-2.31744">
        <ele>24</ele>
        <time>2015-09-30T11:11:54Z</time>
      </trkpt>
      <trkpt lat="46.69188" lon="-2.31746">
        <ele>24</ele>
        <time>2015-09-30T11:11:55Z</time>
      </trkpt>
      <trkpt lat="46.69188" lon="-2.31747">
        <ele>24</ele>
        <time>2015-09-30T11:11:56Z</time>
      </trkpt>
      <trkpt lat="46.69188" lon="-2.3175">
        <ele>24</ele>
        <time>2015-09-30T11:11:58Z</time>
      </trkpt>
      <trkpt lat="46.69188" lon="-2.31753">
        <ele>24</ele>
        <time>2015-09-30T11:12:00Z</time>
      </trkpt>
      <trkpt lat="46.69188" lon="-2.31754">
        <ele>24</ele>
        <time>2015-09-30T11:12:01Z</time>
      </trkpt>
      <trkpt lat="46.69187" lon="-2.31756">
        <ele>24</ele>
        <time>2015-09-30T11:12:02Z</time>
      </trkpt>
      <trkpt lat="46.69187" lon="-2.31758">
        <ele>24</ele>
        <time>2015-09-30T11:12:03Z</time>
      </trkpt>
      <trkpt lat="46.69187" lon="-2.31761">
        <ele>24</ele>
        <time>2015-09-30T11:12:05Z</time>
      </trkpt>
      <trkpt lat="46.69186" lon="-2.31763">
        <ele>24</ele>
        <time>2015-09-30T11:12:07Z</time>
      </trkpt>
      <trkpt lat="46.69186" lon="-2.31766">
        <ele>24</ele>
        <time>2015-09-30T11:12:09Z</time>
      </trkpt>
      <trkpt lat="46.69186" lon="-2.31768">
        <ele>24</ele>
        <time>2015-09-30T11:12:10Z</time>
      </trkpt>
      <trkpt lat="46.69186" lon="-2.31769">
        <ele>24</ele>
        <time>2015-09-30T11:12:11Z</time>
      </trkpt>
      <trkpt lat="46.69186" lon="-2.31771">
        <ele>24</ele>
        <time>2015-09-30T11:12:12Z</time>
      </trkpt>
      <trkpt lat="46.69186" lon="-2.31773">
        <ele>24</ele>
        <time>2015-09-30T11:12:13Z</time>
      </trkpt>
      <trkpt lat="46.69187" lon="-2.31776">
        <ele>24</ele>
        <time>2015-09-30T11:12:15Z</time>
      </trkpt>
      <trkpt lat="46.69187" lon="-2.31777">
        <ele>24</ele>
        <time>2015-09-30T11:12:16Z</time>
      </trkpt>
      <trkpt lat="46.69187" lon="-2.31779">
        <ele>24</ele>
        <time>2015-09-30T11:12:17Z</time>
      </trkpt>
      <trkpt lat="46.69187" lon="-2.31781">
        <ele>24</ele>
        <time>2015-09-30T11:12:19Z</time>
      </trkpt>
      <trkpt lat="46.69187" lon="-2.31783">
        <ele>24</ele>
        <time>2015-09-30T11:12:20Z</time>
      </trkpt>
      <trkpt lat="46.69188" lon="-2.31785">
        <ele>24</ele>
        <time>2015-09-30T11:12:22Z</time>
      </trkpt>
      <trkpt lat="46.69187" lon="-2.31788">
        <ele>24</ele>
        <time>2015-09-30T11:12:24Z</time>
      </trkpt>
      <trkpt lat="46.69187" lon="-2.31789">
        <ele>24</ele>
        <time>2015-09-30T11:12:25Z</time>
      </trkpt>
      <trkpt lat="46.69188" lon="-2.31792">
        <ele>24</ele>
        <time>2015-09-30T11:12:27Z</time>
      </trkpt>
      <trkpt lat="46.69187" lon="-2.31795">
        <ele>24</ele>
        <time>2015-09-30T11:12:29Z</time>
      </trkpt>
      <trkpt lat="46.69187" lon="-2.31797">
        <ele>24</ele>
        <time>2015-09-30T11:12:30Z</time>
      </trkpt>
      <trkpt lat="46.69187" lon="-2.31799">
        <ele>24</ele>
        <time>2015-09-30T11:12:31Z</time>
      </trkpt>
      <trkpt lat="46.69187" lon="-2.31801">
        <ele>24</ele>
        <time>2015-09-30T11:12:32Z</time>
      </trkpt>
      <trkpt lat="46.69187" lon="-2.31803">
        <ele>24</ele>
        <time>2015-09-30T11:12:33Z</time>
      </trkpt>
      <trkpt lat="46.69186" lon="-2.31805">
        <ele>24</ele>
        <time>2015-09-30T11:12:34Z</time>
      </trkpt>
      <trkpt lat="46.69186" lon="-2.31807">
        <ele>24</ele>
        <time>2015-09-30T11:12:35Z</time>
      </trkpt>
      <trkpt lat="46.69186" lon="-2.31809">
        <ele>24</ele>
        <time>2015-09-30T11:12:36Z</time>
      </trkpt>
      <trkpt lat="46.69185" lon="-2.3181">
        <ele>24</ele>
        <time>2015-09-30T11:12:37Z</time>
      </trkpt>
      <trkpt lat="46.69185" lon="-2.31812">
        <ele>24</ele>
        <time>2015-09-30T11:12:38Z</time>
      </trkpt>
      <trkpt lat="46.69184" lon="-2.31813">
        <ele>24</ele>
        <time>2015-09-30T11:12:39Z</time>
      </trkpt>
      <trkpt lat="46.69184" lon="-2.31815">
        <ele>24</ele>
        <time>2015-09-30T11:12:40Z</time>
      </trkpt>
      <trkpt lat="46.69185" lon="-2.31817">
        <ele>24</ele>
        <time>2015-09-30T11:12:41Z</time>
      </trkpt>
      <trkpt lat="46.69185" lon="-2.31819">
        <ele>24</ele>
        <time>2015-09-30T11:12:43Z</time>
      </trkpt>
      <trkpt lat="46.69186" lon="-2.31821">
        <ele>24</ele>
        <time>2015-09-30T11:12:45Z</time>
      </trkpt>
      <trkpt lat="46.69187" lon="-2.31824">
        <ele>24</ele>
        <time>2015-09-30T11:12:47Z</time>
      </trkpt>
      <trkpt lat="46.69188" lon="-2.31826">
        <ele>23</ele>
        <time>2015-09-30T11:12:49Z</time>
      </trkpt>
      <trkpt lat="46.69189" lon="-2.31827">
        <ele>23</ele>
        <time>2015-09-30T11:12:50Z</time>
      </trkpt>
      <trkpt lat="46.69189" lon="-2.3183">
        <ele>23</ele>
        <time>2015-09-30T11:12:52Z</time>
      </trkpt>
      <trkpt lat="46.69189" lon="-2.31833">
        <ele>23</ele>
        <time>2015-09-30T11:12:54Z</time>
      </trkpt>
      <trkpt lat="46.6919" lon="-2.31835">
        <ele>23</ele>
        <time>2015-09-30T11:12:55Z</time>
      </trkpt>
      <trkpt lat="46.6919" lon="-2.31837">
        <ele>23</ele>
        <time>2015-09-30T11:12:56Z</time>
      </trkpt>
      <trkpt lat="46.69191" lon="-2.31838">
        <ele>23</ele>
        <time>2015-09-30T11:12:57Z</time>
      </trkpt>
      <trkpt lat="46.69192" lon="-2.3184">
        <ele>23</ele>
        <time>2015-09-30T11:12:58Z</time>
      </trkpt>
      <trkpt lat="46.69192" lon="-2.31842">
        <ele>23</ele>
        <time>2015-09-30T11:12:59Z</time>
      </trkpt>
      <trkpt lat="46.69194" lon="-2.31844">
        <ele>23</ele>
        <time>2015-09-30T11:13:01Z</time>
      </trkpt>
      <trkpt lat="46.69197" lon="-2.31845">
        <ele>23</ele>
        <time>2015-09-30T11:13:03Z</time>
      </trkpt>
      <trkpt lat="46.69197" lon="-2.31847">
        <ele>23</ele>
        <time>2015-09-30T11:13:04Z</time>
      </trkpt>
      <trkpt lat="46.69199" lon="-2.31849">
        <ele>23</ele>
        <time>2015-09-30T11:13:06Z</time>
      </trkpt>
      <trkpt lat="46.692" lon="-2.31852">
        <ele>23</ele>
        <time>2015-09-30T11:13:08Z</time>
      </trkpt>
      <trkpt lat="46.692" lon="-2.31853">
        <ele>23</ele>
        <time>2015-09-30T11:13:09Z</time>
      </trkpt>
      <trkpt lat="46.692" lon="-2.31855">
        <ele>23</ele>
        <time>2015-09-30T11:13:10Z</time>
      </trkpt>
      <trkpt lat="46.692" lon="-2.31857">
        <ele>23</ele>
        <time>2015-09-30T11:13:11Z</time>
      </trkpt>
      <trkpt lat="46.69201" lon="-2.31858">
        <ele>23</ele>
        <time>2015-09-30T11:13:12Z</time>
      </trkpt>
      <trkpt lat="46.69201" lon="-2.3186">
        <ele>23</ele>
        <time>2015-09-30T11:13:13Z</time>
      </trkpt>
      <trkpt lat="46.69202" lon="-2.31862">
        <ele>23</ele>
        <time>2015-09-30T11:13:14Z</time>
      </trkpt>
      <trkpt lat="46.69203" lon="-2.31863">
        <ele>23</ele>
        <time>2015-09-30T11:13:15Z</time>
      </trkpt>
      <trkpt lat="46.69205" lon="-2.31866">
        <ele>23</ele>
        <time>2015-09-30T11:13:17Z</time>
      </trkpt>
      <trkpt lat="46.69206" lon="-2.31869">
        <ele>23</ele>
        <time>2015-09-30T11:13:19Z</time>
      </trkpt>
      <trkpt lat="46.69206" lon="-2.31871">
        <ele>23</ele>
        <time>2015-09-30T11:13:20Z</time>
      </trkpt>
      <trkpt lat="46.69207" lon="-2.31872">
        <ele>23</ele>
        <time>2015-09-30T11:13:21Z</time>
      </trkpt>
      <trkpt lat="46.69207" lon="-2.31874">
        <ele>23</ele>
        <time>2015-09-30T11:13:22Z</time>
      </trkpt>
      <trkpt lat="46.69207" lon="-2.31877">
        <ele>22</ele>
        <time>2015-09-30T11:13:23Z</time>
      </trkpt>
      <trkpt lat="46.69207" lon="-2.31879">
        <ele>22</ele>
        <time>2015-09-30T11:13:24Z</time>
      </trkpt>
      <trkpt lat="46.69206" lon="-2.31881">
        <ele>22</ele>
        <time>2015-09-30T11:13:25Z</time>
      </trkpt>
      <trkpt lat="46.69206" lon="-2.31883">
        <ele>22</ele>
        <time>2015-09-30T11:13:26Z</time>
      </trkpt>
      <trkpt lat="46.69206" lon="-2.31885">
        <ele>22</ele>
        <time>2015-09-30T11:13:27Z</time>
      </trkpt>
      <trkpt lat="46.69207" lon="-2.31887">
        <ele>22</ele>
        <time>2015-09-30T11:13:28Z</time>
      </trkpt>
      <trkpt lat="46.69207" lon="-2.31889">
        <ele>22</ele>
        <time>2015-09-30T11:13:29Z</time>
      </trkpt>
      <trkpt lat="46.69209" lon="-2.3189">
        <ele>21</ele>
        <time>2015-09-30T11:13:30Z</time>
      </trkpt>
      <trkpt lat="46.6921" lon="-2.31891">
        <ele>21</ele>
        <time>2015-09-30T11:13:31Z</time>
      </trkpt>
      <trkpt lat="46.69211" lon="-2.31891">
        <ele>21</ele>
        <time>2015-09-30T11:13:32Z</time>
      </trkpt>
      <trkpt lat="46.69212" lon="-2.31895">
        <ele>21</ele>
        <time>2015-09-30T11:13:34Z</time>
      </trkpt>
      <trkpt lat="46.69212" lon="-2.31896">
        <ele>21</ele>
        <time>2015-09-30T11:13:35Z</time>
      </trkpt>
      <trkpt lat="46.69213" lon="-2.31898">
        <ele>21</ele>
        <time>2015-09-30T11:13:36Z</time>
      </trkpt>
      <trkpt lat="46.69214" lon="-2.31901">
        <ele>21</ele>
        <time>2015-09-30T11:13:38Z</time>
      </trkpt>
      <trkpt lat="46.69214" lon="-2.31903">
        <ele>21</ele>
        <time>2015-09-30T11:13:39Z</time>
      </trkpt>
      <trkpt lat="46.69213" lon="-2.31906">
        <ele>21</ele>
        <time>2015-09-30T11:13:40Z</time>
      </trkpt>
      <trkpt lat="46.69212" lon="-2.31909">
        <ele>21</ele>
        <time>2015-09-30T11:13:41Z</time>
      </trkpt>
      <trkpt lat="46.69211" lon="-2.31911">
        <ele>21</ele>
        <time>2015-09-30T11:13:42Z</time>
      </trkpt>
      <trkpt lat="46.69209" lon="-2.31913">
        <ele>21</ele>
        <time>2015-09-30T11:13:43Z</time>
      </trkpt>
      <trkpt lat="46.69208" lon="-2.31914">
        <ele>21</ele>
        <time>2015-09-30T11:13:44Z</time>
      </trkpt>
      <trkpt lat="46.69207" lon="-2.31915">
        <ele>21</ele>
        <time>2015-09-30T11:13:45Z</time>
      </trkpt>
      <trkpt lat="46.69206" lon="-2.31916">
        <ele>21</ele>
        <time>2015-09-30T11:13:46Z</time>
      </trkpt>
      <trkpt lat="46.69203" lon="-2.31919">
        <ele>21</ele>
        <time>2015-09-30T11:13:48Z</time>
      </trkpt>
      <trkpt lat="46.69202" lon="-2.31921">
        <ele>21</ele>
        <time>2015-09-30T11:13:49Z</time>
      </trkpt>
      <trkpt lat="46.69202" lon="-2.31923">
        <ele>21</ele>
        <time>2015-09-30T11:13:50Z</time>
      </trkpt>
      <trkpt lat="46.69202" lon="-2.31925">
        <ele>20</ele>
        <time>2015-09-30T11:13:51Z</time>
      </trkpt>
      <trkpt lat="46.69202" lon="-2.31927">
        <ele>20</ele>
        <time>2015-09-30T11:13:52Z</time>
      </trkpt>
      <trkpt lat="46.69202" lon="-2.31929">
        <ele>20</ele>
        <time>2015-09-30T11:13:54Z</time>
      </trkpt>
      <trkpt lat="46.69201" lon="-2.31931">
        <ele>20</ele>
        <time>2015-09-30T11:13:56Z</time>
      </trkpt>
      <trkpt lat="46.692" lon="-2.31932">
        <ele>20</ele>
        <time>2015-09-30T11:13:58Z</time>
      </trkpt>
      <trkpt lat="46.69199" lon="-2.31933">
        <ele>16</ele>
        <time>2015-09-30T11:14:08Z</time>
      </trkpt>
      <trkpt lat="46.69197" lon="-2.31932">
        <ele>16</ele>
        <time>2015-09-30T11:14:11Z</time>
      </trkpt>
      <trkpt lat="46.69196" lon="-2.31932">
        <ele>15</ele>
        <time>2015-09-30T11:14:14Z</time>
      </trkpt>
      <trkpt lat="46.69197" lon="-2.31934">
        <ele>14</ele>
        <time>2015-09-30T11:14:29Z</time>
      </trkpt>
      <trkpt lat="46.69197" lon="-2.31935">
        <ele>14</ele>
        <time>2015-09-30T11:14:30Z</time>
      </trkpt>
      <trkpt lat="46.69196" lon="-2.31938">
        <ele>14</ele>
        <time>2015-09-30T11:14:31Z</time>
      </trkpt>
      <trkpt lat="46.69195" lon="-2.3194">
        <ele>14</ele>
        <time>2015-09-30T11:14:32Z</time>
      </trkpt>
      <trkpt lat="46.69195" lon="-2.31941">
        <ele>14</ele>
        <time>2015-09-30T11:14:34Z</time>
      </trkpt>
      <trkpt lat="46.69193" lon="-2.31941">
        <ele>14</ele>
        <time>2015-09-30T11:14:37Z</time>
      </trkpt>
      <trkpt lat="46.69192" lon="-2.31941">
        <ele>14</ele>
        <time>2015-09-30T11:14:40Z</time>
      </trkpt>
      <trkpt lat="46.6919" lon="-2.31942">
        <ele>14</ele>
        <time>2015-09-30T11:14:42Z</time>
      </trkpt>
      <trkpt lat="46.69188" lon="-2.31944">
        <ele>14</ele>
        <time>2015-09-30T11:14:45Z</time>
      </trkpt>
      <trkpt lat="46.69186" lon="-2.31944">
        <ele>14</ele>
        <time>2015-09-30T11:14:46Z</time>
      </trkpt>
      <trkpt lat="46.69185" lon="-2.31944">
        <ele>14</ele>
        <time>2015-09-30T11:14:47Z</time>
      </trkpt>
      <trkpt lat="46.69184" lon="-2.31945">
        <ele>14</ele>
        <time>2015-09-30T11:14:49Z</time>
      </trkpt>
      <trkpt lat="46.69183" lon="-2.31945">
        <ele>14</ele>
        <time>2015-09-30T11:14:50Z</time>
      </trkpt>
      <trkpt lat="46.69181" lon="-2.31945">
        <ele>14</ele>
        <time>2015-09-30T11:14:50Z</time>
      </trkpt>
      <trkpt lat="46.69179" lon="-2.31945">
        <ele>14</ele>
        <time>2015-09-30T11:14:53Z</time>
      </trkpt>
      <trkpt lat="46.69178" lon="-2.31947">
        <ele>14</ele>
        <time>2015-09-30T11:14:54Z</time>
      </trkpt>
      <trkpt lat="46.69176" lon="-2.31946">
        <ele>14</ele>
        <time>2015-09-30T11:14:57Z</time>
      </trkpt>
      <trkpt lat="46.69175" lon="-2.31946">
        <ele>14</ele>
        <time>2015-09-30T11:14:59Z</time>
      </trkpt>
      <trkpt lat="46.69173" lon="-2.31945">
        <ele>14</ele>
        <time>2015-09-30T11:15:00Z</time>
      </trkpt>
      <trkpt lat="46.69171" lon="-2.31946">
        <ele>14</ele>
        <time>2015-09-30T11:15:02Z</time>
      </trkpt>
      <trkpt lat="46.6917" lon="-2.31947">
        <ele>14</ele>
        <time>2015-09-30T11:15:03Z</time>
      </trkpt>
      <trkpt lat="46.69169" lon="-2.31949">
        <ele>14</ele>
        <time>2015-09-30T11:15:04Z</time>
      </trkpt>
      <trkpt lat="46.69169" lon="-2.31951">
        <ele>14</ele>
        <time>2015-09-30T11:15:05Z</time>
      </trkpt>
      <trkpt lat="46.69167" lon="-2.31952">
        <ele>14</ele>
        <time>2015-09-30T11:15:07Z</time>
      </trkpt>
      <trkpt lat="46.69165" lon="-2.31953">
        <ele>14</ele>
        <time>2015-09-30T11:15:09Z</time>
      </trkpt>
      <trkpt lat="46.69163" lon="-2.31954">
        <ele>14</ele>
        <time>2015-09-30T11:15:10Z</time>
      </trkpt>
      <trkpt lat="46.69161" lon="-2.31954">
        <ele>14</ele>
        <time>2015-09-30T11:15:12Z</time>
      </trkpt>
      <trkpt lat="46.6916" lon="-2.31954">
        <ele>14</ele>
        <time>2015-09-30T11:15:13Z</time>
      </trkpt>
      <trkpt lat="46.69159" lon="-2.31955">
        <ele>14</ele>
        <time>2015-09-30T11:15:14Z</time>
      </trkpt>
      <trkpt lat="46.69157" lon="-2.31955">
        <ele>14</ele>
        <time>2015-09-30T11:15:15Z</time>
      </trkpt>
      <trkpt lat="46.69156" lon="-2.31956">
        <ele>14</ele>
        <time>2015-09-30T11:15:17Z</time>
      </trkpt>
      <trkpt lat="46.69153" lon="-2.31956">
        <ele>14</ele>
        <time>2015-09-30T11:15:19Z</time>
      </trkpt>
      <trkpt lat="46.69151" lon="-2.31956">
        <ele>14</ele>
        <time>2015-09-30T11:15:20Z</time>
      </trkpt>
      <trkpt lat="46.6915" lon="-2.31956">
        <ele>14</ele>
        <time>2015-09-30T11:15:21Z</time>
      </trkpt>
      <trkpt lat="46.69149" lon="-2.31955">
        <ele>14</ele>
        <time>2015-09-30T11:15:22Z</time>
      </trkpt>
      <trkpt lat="46.69147" lon="-2.31955">
        <ele>14</ele>
        <time>2015-09-30T11:15:24Z</time>
      </trkpt>
      <trkpt lat="46.69145" lon="-2.31956">
        <ele>14</ele>
        <time>2015-09-30T11:15:26Z</time>
      </trkpt>
      <trkpt lat="46.69144" lon="-2.31957">
        <ele>14</ele>
        <time>2015-09-30T11:15:27Z</time>
      </trkpt>
      <trkpt lat="46.69142" lon="-2.3196">
        <ele>14</ele>
        <time>2015-09-30T11:15:29Z</time>
      </trkpt>
      <trkpt lat="46.69141" lon="-2.31962">
        <ele>14</ele>
        <time>2015-09-30T11:15:31Z</time>
      </trkpt>
      <trkpt lat="46.6914" lon="-2.31964">
        <ele>14</ele>
        <time>2015-09-30T11:15:33Z</time>
      </trkpt>
      <trkpt lat="46.6914" lon="-2.31965">
        <ele>14</ele>
        <time>2015-09-30T11:15:35Z</time>
      </trkpt>
      <trkpt lat="46.69139" lon="-2.31967">
        <ele>14</ele>
        <time>2015-09-30T11:15:37Z</time>
      </trkpt>
      <trkpt lat="46.69139" lon="-2.3197">
        <ele>14</ele>
        <time>2015-09-30T11:15:40Z</time>
      </trkpt>
      <trkpt lat="46.69138" lon="-2.31972">
        <ele>14</ele>
        <time>2015-09-30T11:15:42Z</time>
      </trkpt>
      <trkpt lat="46.69138" lon="-2.31973">
        <ele>14</ele>
        <time>2015-09-30T11:15:43Z</time>
      </trkpt>
      <trkpt lat="46.69136" lon="-2.31975">
        <ele>14</ele>
        <time>2015-09-30T11:15:45Z</time>
      </trkpt>
      <trkpt lat="46.69135" lon="-2.31977">
        <ele>14</ele>
        <time>2015-09-30T11:15:47Z</time>
      </trkpt>
      <trkpt lat="46.69135" lon="-2.3198">
        <ele>15</ele>
        <time>2015-09-30T11:15:49Z</time>
      </trkpt>
      <trkpt lat="46.69135" lon="-2.31982">
        <ele>16</ele>
        <time>2015-09-30T11:15:51Z</time>
      </trkpt>
      <trkpt lat="46.69134" lon="-2.31985">
        <ele>17</ele>
        <time>2015-09-30T11:15:53Z</time>
      </trkpt>
      <trkpt lat="46.69133" lon="-2.31987">
        <ele>17</ele>
        <time>2015-09-30T11:15:55Z</time>
      </trkpt>
      <trkpt lat="46.69132" lon="-2.31989">
        <ele>17</ele>
        <time>2015-09-30T11:15:58Z</time>
      </trkpt>
      <trkpt lat="46.69132" lon="-2.31992">
        <ele>17</ele>
        <time>2015-09-30T11:16:00Z</time>
      </trkpt>
      <trkpt lat="46.69131" lon="-2.31993">
        <ele>17</ele>
        <time>2015-09-30T11:16:01Z</time>
      </trkpt>
      <trkpt lat="46.69131" lon="-2.31995">
        <ele>17</ele>
        <time>2015-09-30T11:16:02Z</time>
      </trkpt>
      <trkpt lat="46.69131" lon="-2.31997">
        <ele>17</ele>
        <time>2015-09-30T11:16:04Z</time>
      </trkpt>
      <trkpt lat="46.6913" lon="-2.31999">
        <ele>17</ele>
        <time>2015-09-30T11:16:05Z</time>
      </trkpt>
      <trkpt lat="46.6913" lon="-2.32001">
        <ele>17</ele>
        <time>2015-09-30T11:16:06Z</time>
      </trkpt>
      <trkpt lat="46.69129" lon="-2.32003">
        <ele>17</ele>
        <time>2015-09-30T11:16:07Z</time>
      </trkpt>
      <trkpt lat="46.69129" lon="-2.32004">
        <ele>17</ele>
        <time>2015-09-30T11:16:08Z</time>
      </trkpt>
      <trkpt lat="46.69129" lon="-2.32007">
        <ele>17</ele>
        <time>2015-09-30T11:16:10Z</time>
      </trkpt>
      <trkpt lat="46.69128" lon="-2.32009">
        <ele>17</ele>
        <time>2015-09-30T11:16:12Z</time>
      </trkpt>
      <trkpt lat="46.69128" lon="-2.32012">
        <ele>17</ele>
        <time>2015-09-30T11:16:14Z</time>
      </trkpt>
      <trkpt lat="46.69127" lon="-2.32015">
        <ele>17</ele>
        <time>2015-09-30T11:16:16Z</time>
      </trkpt>
      <trkpt lat="46.69126" lon="-2.32018">
        <ele>17</ele>
        <time>2015-09-30T11:16:18Z</time>
      </trkpt>
      <trkpt lat="46.69126" lon="-2.32019">
        <ele>17</ele>
        <time>2015-09-30T11:16:19Z</time>
      </trkpt>
      <trkpt lat="46.69126" lon="-2.32021">
        <ele>17</ele>
        <time>2015-09-30T11:16:20Z</time>
      </trkpt>
      <trkpt lat="46.69125" lon="-2.32023">
        <ele>17</ele>
        <time>2015-09-30T11:16:21Z</time>
      </trkpt>
      <trkpt lat="46.69126" lon="-2.32025">
        <ele>17</ele>
        <time>2015-09-30T11:16:23Z</time>
      </trkpt>
      <trkpt lat="46.69126" lon="-2.32027">
        <ele>17</ele>
        <time>2015-09-30T11:16:24Z</time>
      </trkpt>
      <trkpt lat="46.69126" lon="-2.32028">
        <ele>17</ele>
        <time>2015-09-30T11:16:25Z</time>
      </trkpt>
      <trkpt lat="46.69126" lon="-2.3203">
        <ele>17</ele>
        <time>2015-09-30T11:16:26Z</time>
      </trkpt>
      <trkpt lat="46.69126" lon="-2.32031">
        <ele>17</ele>
        <time>2015-09-30T11:16:27Z</time>
      </trkpt>
      <trkpt lat="46.69127" lon="-2.32033">
        <ele>17</ele>
        <time>2015-09-30T11:16:28Z</time>
      </trkpt>
      <trkpt lat="46.69127" lon="-2.32036">
        <ele>17</ele>
        <time>2015-09-30T11:16:30Z</time>
      </trkpt>
      <trkpt lat="46.69128" lon="-2.32037">
        <ele>17</ele>
        <time>2015-09-30T11:16:31Z</time>
      </trkpt>
      <trkpt lat="46.69128" lon="-2.3204">
        <ele>17</ele>
        <time>2015-09-30T11:16:33Z</time>
      </trkpt>
      <trkpt lat="46.69129" lon="-2.32042">
        <ele>17</ele>
        <time>2015-09-30T11:16:35Z</time>
      </trkpt>
      <trkpt lat="46.69129" lon="-2.32044">
        <ele>17</ele>
        <time>2015-09-30T11:16:37Z</time>
      </trkpt>
      <trkpt lat="46.69131" lon="-2.32046">
        <ele>17</ele>
        <time>2015-09-30T11:16:39Z</time>
      </trkpt>
      <trkpt lat="46.69131" lon="-2.32048">
        <ele>17</ele>
        <time>2015-09-30T11:16:40Z</time>
      </trkpt>
      <trkpt lat="46.69131" lon="-2.3205">
        <ele>17</ele>
        <time>2015-09-30T11:16:41Z</time>
      </trkpt>
      <trkpt lat="46.69132" lon="-2.32052">
        <ele>17</ele>
        <time>2015-09-30T11:16:42Z</time>
      </trkpt>
      <trkpt lat="46.69132" lon="-2.32054">
        <ele>17</ele>
        <time>2015-09-30T11:16:43Z</time>
      </trkpt>
      <trkpt lat="46.69132" lon="-2.32055">
        <ele>17</ele>
        <time>2015-09-30T11:16:44Z</time>
      </trkpt>
      <trkpt lat="46.69132" lon="-2.32058">
        <ele>17</ele>
        <time>2015-09-30T11:16:46Z</time>
      </trkpt>
      <trkpt lat="46.69132" lon="-2.32059">
        <ele>17</ele>
        <time>2015-09-30T11:16:47Z</time>
      </trkpt>
      <trkpt lat="46.69133" lon="-2.32061">
        <ele>17</ele>
        <time>2015-09-30T11:16:48Z</time>
      </trkpt>
      <trkpt lat="46.69133" lon="-2.32063">
        <ele>17</ele>
        <time>2015-09-30T11:16:49Z</time>
      </trkpt>
      <trkpt lat="46.69133" lon="-2.32064">
        <ele>17</ele>
        <time>2015-09-30T11:16:50Z</time>
      </trkpt>
      <trkpt lat="46.69134" lon="-2.32066">
        <ele>17</ele>
        <time>2015-09-30T11:16:51Z</time>
      </trkpt>
      <trkpt lat="46.69134" lon="-2.32068">
        <ele>16</ele>
        <time>2015-09-30T11:16:53Z</time>
      </trkpt>
      <trkpt lat="46.69134" lon="-2.3207">
        <ele>16</ele>
        <time>2015-09-30T11:16:56Z</time>
      </trkpt>
      <trkpt lat="46.69133" lon="-2.32073">
        <ele>14</ele>
        <time>2015-09-30T11:17:00Z</time>
      </trkpt>
      <trkpt lat="46.69132" lon="-2.32076">
        <ele>13</ele>
        <time>2015-09-30T11:17:02Z</time>
      </trkpt>
      <trkpt lat="46.69131" lon="-2.32078">
        <ele>13</ele>
        <time>2015-09-30T11:17:03Z</time>
      </trkpt>
      <trkpt lat="46.6913" lon="-2.3208">
        <ele>13</ele>
        <time>2015-09-30T11:17:04Z</time>
      </trkpt>
      <trkpt lat="46.69129" lon="-2.32081">
        <ele>13</ele>
        <time>2015-09-30T11:17:05Z</time>
      </trkpt>
      <trkpt lat="46.69129" lon="-2.32083">
        <ele>13</ele>
        <time>2015-09-30T11:17:06Z</time>
      </trkpt>
      <trkpt lat="46.69128" lon="-2.32085">
        <ele>13</ele>
        <time>2015-09-30T11:17:08Z</time>
      </trkpt>
      <trkpt lat="46.69127" lon="-2.32088">
        <ele>13</ele>
        <time>2015-09-30T11:17:10Z</time>
      </trkpt>
      <trkpt lat="46.69126" lon="-2.32091">
        <ele>13</ele>
        <time>2015-09-30T11:17:12Z</time>
      </trkpt>
      <trkpt lat="46.69126" lon="-2.32093">
        <ele>13</ele>
        <time>2015-09-30T11:17:13Z</time>
      </trkpt>
      <trkpt lat="46.69125" lon="-2.32094">
        <ele>13</ele>
        <time>2015-09-30T11:17:14Z</time>
      </trkpt>
      <trkpt lat="46.69125" lon="-2.32096">
        <ele>13</ele>
        <time>2015-09-30T11:17:16Z</time>
      </trkpt>
      <trkpt lat="46.69125" lon="-2.32098">
        <ele>13</ele>
        <time>2015-09-30T11:17:18Z</time>
      </trkpt>
      <trkpt lat="46.69123" lon="-2.321">
        <ele>13</ele>
        <time>2015-09-30T11:17:20Z</time>
      </trkpt>
      <trkpt lat="46.69123" lon="-2.32102">
        <ele>13</ele>
        <time>2015-09-30T11:17:22Z</time>
      </trkpt>
      <trkpt lat="46.69122" lon="-2.32103">
        <ele>13</ele>
        <time>2015-09-30T11:17:24Z</time>
      </trkpt>
      <trkpt lat="46.69122" lon="-2.32106">
        <ele>12</ele>
        <time>2015-09-30T11:17:26Z</time>
      </trkpt>
      <trkpt lat="46.69122" lon="-2.32108">
        <ele>11</ele>
        <time>2015-09-30T11:17:28Z</time>
      </trkpt>
      <trkpt lat="46.69122" lon="-2.3211">
        <ele>11</ele>
        <time>2015-09-30T11:17:29Z</time>
      </trkpt>
      <trkpt lat="46.69122" lon="-2.32112">
        <ele>11</ele>
        <time>2015-09-30T11:17:31Z</time>
      </trkpt>
      <trkpt lat="46.69123" lon="-2.32114">
        <ele>11</ele>
        <time>2015-09-30T11:17:33Z</time>
      </trkpt>
      <trkpt lat="46.69124" lon="-2.32116">
        <ele>10</ele>
        <time>2015-09-30T11:17:35Z</time>
      </trkpt>
      <trkpt lat="46.69124" lon="-2.32118">
        <ele>10</ele>
        <time>2015-09-30T11:17:37Z</time>
      </trkpt>
      <trkpt lat="46.69122" lon="-2.3212">
        <ele>10</ele>
        <time>2015-09-30T11:17:38Z</time>
      </trkpt>
      <trkpt lat="46.6912" lon="-2.32123">
        <ele>10</ele>
        <time>2015-09-30T11:17:40Z</time>
      </trkpt>
      <trkpt lat="46.69119" lon="-2.32125">
        <ele>10</ele>
        <time>2015-09-30T11:17:42Z</time>
      </trkpt>
      <trkpt lat="46.69117" lon="-2.32128">
        <ele>10</ele>
        <time>2015-09-30T11:17:44Z</time>
      </trkpt>
      <trkpt lat="46.69116" lon="-2.3213">
        <ele>10</ele>
        <time>2015-09-30T11:17:45Z</time>
      </trkpt>
      <trkpt lat="46.69115" lon="-2.32132">
        <ele>10</ele>
        <time>2015-09-30T11:17:47Z</time>
      </trkpt>
      <trkpt lat="46.69114" lon="-2.32133">
        <ele>10</ele>
        <time>2015-09-30T11:17:48Z</time>
      </trkpt>
      <trkpt lat="46.69112" lon="-2.32134">
        <ele>10</ele>
        <time>2015-09-30T11:17:49Z</time>
      </trkpt>
      <trkpt lat="46.69111" lon="-2.32137">
        <ele>11</ele>
        <time>2015-09-30T11:17:51Z</time>
      </trkpt>
      <trkpt lat="46.69111" lon="-2.3214">
        <ele>11</ele>
        <time>2015-09-30T11:17:53Z</time>
      </trkpt>
      <trkpt lat="46.69111" lon="-2.32141">
        <ele>11</ele>
        <time>2015-09-30T11:17:55Z</time>
      </trkpt>
      <trkpt lat="46.6911" lon="-2.32142">
        <ele>11</ele>
        <time>2015-09-30T11:17:56Z</time>
      </trkpt>
      <trkpt lat="46.69109" lon="-2.32144">
        <ele>12</ele>
        <time>2015-09-30T11:18:01Z</time>
      </trkpt>
      <trkpt lat="46.6911" lon="-2.32146">
        <ele>13</ele>
        <time>2015-09-30T11:18:10Z</time>
      </trkpt>
      <trkpt lat="46.6911" lon="-2.32147">
        <ele>13</ele>
        <time>2015-09-30T11:18:11Z</time>
      </trkpt>
      <trkpt lat="46.69109" lon="-2.32149">
        <ele>13</ele>
        <time>2015-09-30T11:18:13Z</time>
      </trkpt>
      <trkpt lat="46.69109" lon="-2.32151">
        <ele>14</ele>
        <time>2015-09-30T11:18:18Z</time>
      </trkpt>
      <trkpt lat="46.6911" lon="-2.32152">
        <ele>14</ele>
        <time>2015-09-30T11:18:19Z</time>
      </trkpt>
      <trkpt lat="46.69109" lon="-2.32154">
        <ele>15</ele>
        <time>2015-09-30T11:18:24Z</time>
      </trkpt>
      <trkpt lat="46.69109" lon="-2.32156">
        <ele>16</ele>
        <time>2015-09-30T11:18:27Z</time>
      </trkpt>
      <trkpt lat="46.69108" lon="-2.32156">
        <ele>16</ele>
        <time>2015-09-30T11:18:28Z</time>
      </trkpt>
      <trkpt lat="46.69107" lon="-2.32156">
        <ele>16</ele>
        <time>2015-09-30T11:18:36Z</time>
      </trkpt>
      <trkpt lat="46.69105" lon="-2.32157">
        <ele>16</ele>
        <time>2015-09-30T11:18:44Z</time>
      </trkpt>
      <trkpt lat="46.69105" lon="-2.32159">
        <ele>16</ele>
        <time>2015-09-30T11:18:46Z</time>
      </trkpt>
      <trkpt lat="46.69105" lon="-2.3216">
        <ele>16</ele>
        <time>2015-09-30T11:18:49Z</time>
      </trkpt>
      <trkpt lat="46.69104" lon="-2.32162">
        <ele>16</ele>
        <time>2015-09-30T11:18:50Z</time>
      </trkpt>
      <trkpt lat="46.69102" lon="-2.32165">
        <ele>16</ele>
        <time>2015-09-30T11:18:52Z</time>
      </trkpt>
      <trkpt lat="46.69101" lon="-2.32167">
        <ele>16</ele>
        <time>2015-09-30T11:18:54Z</time>
      </trkpt>
      <trkpt lat="46.69101" lon="-2.32169">
        <ele>16</ele>
        <time>2015-09-30T11:18:56Z</time>
      </trkpt>
      <trkpt lat="46.69102" lon="-2.32171">
        <ele>16</ele>
        <time>2015-09-30T11:18:57Z</time>
      </trkpt>
      <trkpt lat="46.69103" lon="-2.32173">
        <ele>16</ele>
        <time>2015-09-30T11:18:59Z</time>
      </trkpt>
      <trkpt lat="46.69105" lon="-2.32175">
        <ele>16</ele>
        <time>2015-09-30T11:19:01Z</time>
      </trkpt>
      <trkpt lat="46.69106" lon="-2.32177">
        <ele>16</ele>
        <time>2015-09-30T11:19:03Z</time>
      </trkpt>
      <trkpt lat="46.69106" lon="-2.3218">
        <ele>16</ele>
        <time>2015-09-30T11:19:05Z</time>
      </trkpt>
      <trkpt lat="46.69106" lon="-2.32182">
        <ele>16</ele>
        <time>2015-09-30T11:19:07Z</time>
      </trkpt>
      <trkpt lat="46.69106" lon="-2.32185">
        <ele>16</ele>
        <time>2015-09-30T11:19:08Z</time>
      </trkpt>
      <trkpt lat="46.69105" lon="-2.32187">
        <ele>16</ele>
        <time>2015-09-30T11:19:11Z</time>
      </trkpt>
      <trkpt lat="46.69104" lon="-2.32185">
        <ele>16</ele>
        <time>2015-09-30T11:19:13Z</time>
      </trkpt>
      <trkpt lat="46.69102" lon="-2.32184">
        <ele>16</ele>
        <time>2015-09-30T11:19:16Z</time>
      </trkpt>
      <trkpt lat="46.691" lon="-2.32183">
        <ele>16</ele>
        <time>2015-09-30T11:19:18Z</time>
      </trkpt>
      <trkpt lat="46.69099" lon="-2.32182">
        <ele>16</ele>
        <time>2015-09-30T11:19:19Z</time>
      </trkpt>
      <trkpt lat="46.69097" lon="-2.32182">
        <ele>16</ele>
        <time>2015-09-30T11:19:21Z</time>
      </trkpt>
      <trkpt lat="46.69095" lon="-2.32181">
        <ele>16</ele>
        <time>2015-09-30T11:19:23Z</time>
      </trkpt>
      <trkpt lat="46.69093" lon="-2.32179">
        <ele>17</ele>
        <time>2015-09-30T11:19:25Z</time>
      </trkpt>
      <trkpt lat="46.69091" lon="-2.32178">
        <ele>18</ele>
        <time>2015-09-30T11:19:27Z</time>
      </trkpt>
      <trkpt lat="46.69089" lon="-2.32176">
        <ele>19</ele>
        <time>2015-09-30T11:19:29Z</time>
      </trkpt>
      <trkpt lat="46.69087" lon="-2.32175">
        <ele>19</ele>
        <time>2015-09-30T11:19:30Z</time>
      </trkpt>
      <trkpt lat="46.69085" lon="-2.32174">
        <ele>20</ele>
        <time>2015-09-30T11:19:33Z</time>
      </trkpt>
      <trkpt lat="46.69084" lon="-2.32173">
        <ele>20</ele>
        <time>2015-09-30T11:19:34Z</time>
      </trkpt>
      <trkpt lat="46.69086" lon="-2.32173">
        <ele>20</ele>
        <time>2015-09-30T11:19:39Z</time>
      </trkpt>
      <trkpt lat="46.69087" lon="-2.32173">
        <ele>21</ele>
        <time>2015-09-30T11:19:40Z</time>
      </trkpt>
      <trkpt lat="46.69088" lon="-2.32175">
        <ele>21</ele>
        <time>2015-09-30T11:19:43Z</time>
      </trkpt>
      <trkpt lat="46.69088" lon="-2.32177">
        <ele>22</ele>
        <time>2015-09-30T11:19:45Z</time>
      </trkpt>
      <trkpt lat="46.69087" lon="-2.32176">
        <ele>22</ele>
        <time>2015-09-30T11:19:50Z</time>
      </trkpt>
      <trkpt lat="46.69087" lon="-2.32175">
        <ele>22</ele>
        <time>2015-09-30T11:19:52Z</time>
      </trkpt>
      <trkpt lat="46.69087" lon="-2.32177">
        <ele>22</ele>
        <time>2015-09-30T11:20:01Z</time>
      </trkpt>
      <trkpt lat="46.69087" lon="-2.32178">
        <ele>22</ele>
        <time>2015-09-30T11:20:14Z</time>
      </trkpt>
      <trkpt lat="46.69087" lon="-2.3218">
        <ele>22</ele>
        <time>2015-09-30T11:20:16Z</time>
      </trkpt>
      <trkpt lat="46.69086" lon="-2.32182">
        <ele>22</ele>
        <time>2015-09-30T11:20:38Z</time>
      </trkpt>
      <trkpt lat="46.69088" lon="-2.32181">
        <ele>22</ele>
        <time>2015-09-30T11:20:45Z</time>
      </trkpt>
      <trkpt lat="46.6909" lon="-2.32183">
        <ele>22</ele>
        <time>2015-09-30T11:20:46Z</time>
      </trkpt>
      <trkpt lat="46.6909" lon="-2.32185">
        <ele>22</ele>
        <time>2015-09-30T11:20:48Z</time>
      </trkpt>
      <trkpt lat="46.69092" lon="-2.32187">
        <ele>22</ele>
        <time>2015-09-30T11:20:48Z</time>
      </trkpt>
      <trkpt lat="46.69092" lon="-2.32188">
        <ele>22</ele>
        <time>2015-09-30T11:20:50Z</time>
      </trkpt>
      <trkpt lat="46.69095" lon="-2.3219">
        <ele>22</ele>
        <time>2015-09-30T11:20:51Z</time>
      </trkpt>
      <trkpt lat="46.69096" lon="-2.3219">
        <ele>22</ele>
        <time>2015-09-30T11:20:52Z</time>
      </trkpt>
      <trkpt lat="46.69097" lon="-2.3219">
        <ele>22</ele>
        <time>2015-09-30T11:20:53Z</time>
      </trkpt>
      <trkpt lat="46.69099" lon="-2.32189">
        <ele>22</ele>
        <time>2015-09-30T11:20:55Z</time>
      </trkpt>
      <trkpt lat="46.691" lon="-2.32189">
        <ele>22</ele>
        <time>2015-09-30T11:20:55Z</time>
      </trkpt>
      <trkpt lat="46.69101" lon="-2.32189">
        <ele>22</ele>
        <time>2015-09-30T11:20:57Z</time>
      </trkpt>
      <trkpt lat="46.69103" lon="-2.3219">
        <ele>22</ele>
        <time>2015-09-30T11:21:00Z</time>
      </trkpt>
      <trkpt lat="46.69103" lon="-2.32192">
        <ele>22</ele>
        <time>2015-09-30T11:21:08Z</time>
      </trkpt>
      <trkpt lat="46.69104" lon="-2.32194">
        <ele>22</ele>
        <time>2015-09-30T11:21:09Z</time>
      </trkpt>
      <trkpt lat="46.69104" lon="-2.32197">
        <ele>22</ele>
        <time>2015-09-30T11:21:11Z</time>
      </trkpt>
      <trkpt lat="46.69105" lon="-2.32199">
        <ele>22</ele>
        <time>2015-09-30T11:21:14Z</time>
      </trkpt>
      <trkpt lat="46.69106" lon="-2.32201">
        <ele>22</ele>
        <time>2015-09-30T11:21:15Z</time>
      </trkpt>
      <trkpt lat="46.69107" lon="-2.32203">
        <ele>22</ele>
        <time>2015-09-30T11:21:17Z</time>
      </trkpt>
      <trkpt lat="46.69107" lon="-2.32205">
        <ele>22</ele>
        <time>2015-09-30T11:21:19Z</time>
      </trkpt>
      <trkpt lat="46.69108" lon="-2.32207">
        <ele>22</ele>
        <time>2015-09-30T11:21:19Z</time>
      </trkpt>
      <trkpt lat="46.69108" lon="-2.32209">
        <ele>22</ele>
        <time>2015-09-30T11:21:20Z</time>
      </trkpt>
      <trkpt lat="46.69109" lon="-2.32212">
        <ele>22</ele>
        <time>2015-09-30T11:21:22Z</time>
      </trkpt>
      <trkpt lat="46.6911" lon="-2.32214">
        <ele>21</ele>
        <time>2015-09-30T11:21:25Z</time>
      </trkpt>
      <trkpt lat="46.6911" lon="-2.32217">
        <ele>21</ele>
        <time>2015-09-30T11:21:26Z</time>
      </trkpt>
      <trkpt lat="46.69111" lon="-2.3222">
        <ele>21</ele>
        <time>2015-09-30T11:21:28Z</time>
      </trkpt>
      <trkpt lat="46.69111" lon="-2.32222">
        <ele>21</ele>
        <time>2015-09-30T11:21:30Z</time>
      </trkpt>
      <trkpt lat="46.69111" lon="-2.32223">
        <ele>21</ele>
        <time>2015-09-30T11:21:30Z</time>
      </trkpt>
      <trkpt lat="46.69111" lon="-2.32225">
        <ele>21</ele>
        <time>2015-09-30T11:21:31Z</time>
      </trkpt>
      <trkpt lat="46.69111" lon="-2.32226">
        <ele>21</ele>
        <time>2015-09-30T11:21:32Z</time>
      </trkpt>
      <trkpt lat="46.6911" lon="-2.32228">
        <ele>21</ele>
        <time>2015-09-30T11:21:33Z</time>
      </trkpt>
      <trkpt lat="46.69109" lon="-2.3223">
        <ele>21</ele>
        <time>2015-09-30T11:21:35Z</time>
      </trkpt>
      <trkpt lat="46.69108" lon="-2.32232">
        <ele>21</ele>
        <time>2015-09-30T11:21:36Z</time>
      </trkpt>
      <trkpt lat="46.69107" lon="-2.32233">
        <ele>21</ele>
        <time>2015-09-30T11:21:38Z</time>
      </trkpt>
      <trkpt lat="46.69107" lon="-2.32236">
        <ele>21</ele>
        <time>2015-09-30T11:21:41Z</time>
      </trkpt>
      <trkpt lat="46.69107" lon="-2.32237">
        <ele>21</ele>
        <time>2015-09-30T11:21:42Z</time>
      </trkpt>
      <trkpt lat="46.69107" lon="-2.32239">
        <ele>21</ele>
        <time>2015-09-30T11:21:44Z</time>
      </trkpt>
      <trkpt lat="46.69107" lon="-2.32241">
        <ele>21</ele>
        <time>2015-09-30T11:21:47Z</time>
      </trkpt>
      <trkpt lat="46.69108" lon="-2.32244">
        <ele>21</ele>
        <time>2015-09-30T11:21:48Z</time>
      </trkpt>
      <trkpt lat="46.69108" lon="-2.32247">
        <ele>21</ele>
        <time>2015-09-30T11:21:50Z</time>
      </trkpt>
      <trkpt lat="46.69108" lon="-2.32248">
        <ele>21</ele>
        <time>2015-09-30T11:21:52Z</time>
      </trkpt>
      <trkpt lat="46.69108" lon="-2.3225">
        <ele>21</ele>
        <time>2015-09-30T11:21:52Z</time>
      </trkpt>
      <trkpt lat="46.69107" lon="-2.32251">
        <ele>21</ele>
        <time>2015-09-30T11:21:53Z</time>
      </trkpt>
      <trkpt lat="46.69107" lon="-2.32253">
        <ele>21</ele>
        <time>2015-09-30T11:21:54Z</time>
      </trkpt>
      <trkpt lat="46.69106" lon="-2.32254">
        <ele>21</ele>
        <time>2015-09-30T11:21:55Z</time>
      </trkpt>
      <trkpt lat="46.69106" lon="-2.32256">
        <ele>21</ele>
        <time>2015-09-30T11:21:57Z</time>
      </trkpt>
      <trkpt lat="46.69105" lon="-2.32258">
        <ele>21</ele>
        <time>2015-09-30T11:21:57Z</time>
      </trkpt>
      <trkpt lat="46.69105" lon="-2.3226">
        <ele>21</ele>
        <time>2015-09-30T11:21:58Z</time>
      </trkpt>
      <trkpt lat="46.69105" lon="-2.32262">
        <ele>21</ele>
        <time>2015-09-30T11:21:59Z</time>
      </trkpt>
      <trkpt lat="46.69105" lon="-2.32263">
        <ele>21</ele>
        <time>2015-09-30T11:22:00Z</time>
      </trkpt>
      <trkpt lat="46.69104" lon="-2.32266">
        <ele>21</ele>
        <time>2015-09-30T11:22:03Z</time>
      </trkpt>
      <trkpt lat="46.69104" lon="-2.32268">
        <ele>21</ele>
        <time>2015-09-30T11:22:04Z</time>
      </trkpt>
      <trkpt lat="46.69104" lon="-2.3227">
        <ele>21</ele>
        <time>2015-09-30T11:22:05Z</time>
      </trkpt>
      <trkpt lat="46.69104" lon="-2.32272">
        <ele>21</ele>
        <time>2015-09-30T11:22:07Z</time>
      </trkpt>
      <trkpt lat="46.69105" lon="-2.32274">
        <ele>21</ele>
        <time>2015-09-30T11:22:09Z</time>
      </trkpt>
      <trkpt lat="46.69105" lon="-2.32276">
        <ele>21</ele>
        <time>2015-09-30T11:22:11Z</time>
      </trkpt>
      <trkpt lat="46.69105" lon="-2.32277">
        <ele>21</ele>
        <time>2015-09-30T11:22:19Z</time>
      </trkpt>
      <trkpt lat="46.69106" lon="-2.32279">
        <ele>21</ele>
        <time>2015-09-30T11:22:21Z</time>
      </trkpt>
      <trkpt lat="46.69106" lon="-2.3228">
        <ele>21</ele>
        <time>2015-09-30T11:22:24Z</time>
      </trkpt>
      <trkpt lat="46.69106" lon="-2.32283">
        <ele>21</ele>
        <time>2015-09-30T11:22:25Z</time>
      </trkpt>
      <trkpt lat="46.69106" lon="-2.32284">
        <ele>21</ele>
        <time>2015-09-30T11:22:27Z</time>
      </trkpt>
      <trkpt lat="46.69106" lon="-2.32287">
        <ele>21</ele>
        <time>2015-09-30T11:22:30Z</time>
      </trkpt>
      <trkpt lat="46.69105" lon="-2.32289">
        <ele>21</ele>
        <time>2015-09-30T11:22:31Z</time>
      </trkpt>
      <trkpt lat="46.69105" lon="-2.32291">
        <ele>21</ele>
        <time>2015-09-30T11:22:32Z</time>
      </trkpt>
      <trkpt lat="46.69105" lon="-2.32293">
        <ele>21</ele>
        <time>2015-09-30T11:22:35Z</time>
      </trkpt>
      <trkpt lat="46.69105" lon="-2.32295">
        <ele>21</ele>
        <time>2015-09-30T11:22:35Z</time>
      </trkpt>
      <trkpt lat="46.69105" lon="-2.32297">
        <ele>21</ele>
        <time>2015-09-30T11:22:37Z</time>
      </trkpt>
      <trkpt lat="46.69105" lon="-2.32299">
        <ele>21</ele>
        <time>2015-09-30T11:22:40Z</time>
      </trkpt>
      <trkpt lat="46.69106" lon="-2.32302">
        <ele>21</ele>
        <time>2015-09-30T11:22:48Z</time>
      </trkpt>
      <trkpt lat="46.69106" lon="-2.32304">
        <ele>21</ele>
        <time>2015-09-30T11:22:48Z</time>
      </trkpt>
      <trkpt lat="46.69106" lon="-2.32306">
        <ele>21</ele>
        <time>2015-09-30T11:22:49Z</time>
      </trkpt>
      <trkpt lat="46.69106" lon="-2.32307">
        <ele>21</ele>
        <time>2015-09-30T11:22:50Z</time>
      </trkpt>
      <trkpt lat="46.69106" lon="-2.3231">
        <ele>21</ele>
        <time>2015-09-30T11:22:53Z</time>
      </trkpt>
      <trkpt lat="46.69106" lon="-2.32312">
        <ele>21</ele>
        <time>2015-09-30T11:22:54Z</time>
      </trkpt>
      <trkpt lat="46.69107" lon="-2.32314">
        <ele>21</ele>
        <time>2015-09-30T11:22:57Z</time>
      </trkpt>
      <trkpt lat="46.69106" lon="-2.32316">
        <ele>21</ele>
        <time>2015-09-30T11:22:59Z</time>
      </trkpt>
      <trkpt lat="46.69107" lon="-2.32318">
        <ele>21</ele>
        <time>2015-09-30T11:23:04Z</time>
      </trkpt>
      <trkpt lat="46.69107" lon="-2.3232">
        <ele>21</ele>
        <time>2015-09-30T11:23:06Z</time>
      </trkpt>
      <trkpt lat="46.69108" lon="-2.32321">
        <ele>21</ele>
        <time>2015-09-30T11:23:08Z</time>
      </trkpt>
      <trkpt lat="46.69109" lon="-2.32323">
        <ele>21</ele>
        <time>2015-09-30T11:23:12Z</time>
      </trkpt>
      <trkpt lat="46.6911" lon="-2.32324">
        <ele>21</ele>
        <time>2015-09-30T11:23:13Z</time>
      </trkpt>
      <trkpt lat="46.69111" lon="-2.32325">
        <ele>21</ele>
        <time>2015-09-30T11:23:15Z</time>
      </trkpt>
      <trkpt lat="46.69113" lon="-2.32327">
        <ele>19</ele>
        <time>2015-09-30T11:23:19Z</time>
      </trkpt>
      <trkpt lat="46.69114" lon="-2.32328">
        <ele>18</ele>
        <time>2015-09-30T11:23:22Z</time>
      </trkpt>
      <trkpt lat="46.69113" lon="-2.32331">
        <ele>17</ele>
        <time>2015-09-30T11:23:26Z</time>
      </trkpt>
      <trkpt lat="46.69114" lon="-2.32333">
        <ele>17</ele>
        <time>2015-09-30T11:23:35Z</time>
      </trkpt>
      <trkpt lat="46.69113" lon="-2.32334">
        <ele>17</ele>
        <time>2015-09-30T11:23:36Z</time>
      </trkpt>
      <trkpt lat="46.69113" lon="-2.32336">
        <ele>17</ele>
        <time>2015-09-30T11:23:37Z</time>
      </trkpt>
      <trkpt lat="46.69114" lon="-2.32337">
        <ele>17</ele>
        <time>2015-09-30T11:23:40Z</time>
      </trkpt>
      <trkpt lat="46.69113" lon="-2.32339">
        <ele>17</ele>
        <time>2015-09-30T11:23:43Z</time>
      </trkpt>
      <trkpt lat="46.69112" lon="-2.32341">
        <ele>17</ele>
        <time>2015-09-30T11:23:46Z</time>
      </trkpt>
      <trkpt lat="46.69111" lon="-2.32341">
        <ele>17</ele>
        <time>2015-09-30T11:23:49Z</time>
      </trkpt>
      <trkpt lat="46.69109" lon="-2.32342">
        <ele>17</ele>
        <time>2015-09-30T11:23:51Z</time>
      </trkpt>
      <trkpt lat="46.69108" lon="-2.32343">
        <ele>17</ele>
        <time>2015-09-30T11:23:52Z</time>
      </trkpt>
      <trkpt lat="46.69107" lon="-2.32344">
        <ele>17</ele>
        <time>2015-09-30T11:23:53Z</time>
      </trkpt>
      <trkpt lat="46.69107" lon="-2.32346">
        <ele>17</ele>
        <time>2015-09-30T11:23:54Z</time>
      </trkpt>
      <trkpt lat="46.69106" lon="-2.32349">
        <ele>17</ele>
        <time>2015-09-30T11:23:56Z</time>
      </trkpt>
      <trkpt lat="46.69106" lon="-2.3235">
        <ele>17</ele>
        <time>2015-09-30T11:23:57Z</time>
      </trkpt>
      <trkpt lat="46.69105" lon="-2.32353">
        <ele>17</ele>
        <time>2015-09-30T11:23:59Z</time>
      </trkpt>
      <trkpt lat="46.69106" lon="-2.32356">
        <ele>17</ele>
        <time>2015-09-30T11:24:02Z</time>
      </trkpt>
      <trkpt lat="46.69106" lon="-2.32357">
        <ele>17</ele>
        <time>2015-09-30T11:24:02Z</time>
      </trkpt>
      <trkpt lat="46.69107" lon="-2.32359">
        <ele>17</ele>
        <time>2015-09-30T11:24:04Z</time>
      </trkpt>
      <trkpt lat="46.69108" lon="-2.32361">
        <ele>17</ele>
        <time>2015-09-30T11:24:06Z</time>
      </trkpt>
      <trkpt lat="46.69108" lon="-2.32363">
        <ele>17</ele>
        <time>2015-09-30T11:24:08Z</time>
      </trkpt>
      <trkpt lat="46.6911" lon="-2.32364">
        <ele>17</ele>
        <time>2015-09-30T11:24:12Z</time>
      </trkpt>
      <trkpt lat="46.69111" lon="-2.32364">
        <ele>17</ele>
        <time>2015-09-30T11:24:14Z</time>
      </trkpt>
      <trkpt lat="46.69112" lon="-2.32365">
        <ele>17</ele>
        <time>2015-09-30T11:24:17Z</time>
      </trkpt>
      <trkpt lat="46.69113" lon="-2.32367">
        <ele>16</ele>
        <time>2015-09-30T11:24:24Z</time>
      </trkpt>
      <trkpt lat="46.69114" lon="-2.32369">
        <ele>15</ele>
        <time>2015-09-30T11:24:27Z</time>
      </trkpt>
      <trkpt lat="46.69116" lon="-2.3237">
        <ele>15</ele>
        <time>2015-09-30T11:24:31Z</time>
      </trkpt>
      <trkpt lat="46.69116" lon="-2.32371">
        <ele>15</ele>
        <time>2015-09-30T11:24:33Z</time>
      </trkpt>
      <trkpt lat="46.69116" lon="-2.32373">
        <ele>15</ele>
        <time>2015-09-30T11:24:35Z</time>
      </trkpt>
      <trkpt lat="46.69115" lon="-2.32376">
        <ele>15</ele>
        <time>2015-09-30T11:24:36Z</time>
      </trkpt>
      <trkpt lat="46.69115" lon="-2.32378">
        <ele>15</ele>
        <time>2015-09-30T11:24:37Z</time>
      </trkpt>
      <trkpt lat="46.69115" lon="-2.3238">
        <ele>15</ele>
        <time>2015-09-30T11:24:39Z</time>
      </trkpt>
      <trkpt lat="46.69115" lon="-2.32383">
        <ele>15</ele>
        <time>2015-09-30T11:24:42Z</time>
      </trkpt>
      <trkpt lat="46.69114" lon="-2.32385">
        <ele>15</ele>
        <time>2015-09-30T11:24:42Z</time>
      </trkpt>
      <trkpt lat="46.69114" lon="-2.32387">
        <ele>15</ele>
        <time>2015-09-30T11:24:43Z</time>
      </trkpt>
      <trkpt lat="46.69113" lon="-2.32389">
        <ele>15</ele>
        <time>2015-09-30T11:24:45Z</time>
      </trkpt>
      <trkpt lat="46.69113" lon="-2.32392">
        <ele>15</ele>
        <time>2015-09-30T11:24:47Z</time>
      </trkpt>
      <trkpt lat="46.69113" lon="-2.32395">
        <ele>15</ele>
        <time>2015-09-30T11:24:49Z</time>
      </trkpt>
      <trkpt lat="46.69112" lon="-2.32397">
        <ele>15</ele>
        <time>2015-09-30T11:24:51Z</time>
      </trkpt>
      <trkpt lat="46.69112" lon="-2.324">
        <ele>15</ele>
        <time>2015-09-30T11:24:54Z</time>
      </trkpt>
      <trkpt lat="46.69111" lon="-2.32402">
        <ele>15</ele>
        <time>2015-09-30T11:24:55Z</time>
      </trkpt>
      <trkpt lat="46.6911" lon="-2.32404">
        <ele>15</ele>
        <time>2015-09-30T11:24:56Z</time>
      </trkpt>
      <trkpt lat="46.69109" lon="-2.32406">
        <ele>15</ele>
        <time>2015-09-30T11:24:58Z</time>
      </trkpt>
      <trkpt lat="46.69108" lon="-2.32408">
        <ele>15</ele>
        <time>2015-09-30T11:24:59Z</time>
      </trkpt>
      <trkpt lat="46.69108" lon="-2.32409">
        <ele>15</ele>
        <time>2015-09-30T11:25:00Z</time>
      </trkpt>
      <trkpt lat="46.69107" lon="-2.32411">
        <ele>15</ele>
        <time>2015-09-30T11:25:02Z</time>
      </trkpt>
      <trkpt lat="46.69105" lon="-2.32413">
        <ele>15</ele>
        <time>2015-09-30T11:25:04Z</time>
      </trkpt>
      <trkpt lat="46.69103" lon="-2.32415">
        <ele>15</ele>
        <time>2015-09-30T11:25:06Z</time>
      </trkpt>
      <trkpt lat="46.69101" lon="-2.32416">
        <ele>15</ele>
        <time>2015-09-30T11:25:07Z</time>
      </trkpt>
      <trkpt lat="46.691" lon="-2.32417">
        <ele>15</ele>
        <time>2015-09-30T11:25:08Z</time>
      </trkpt>
      <trkpt lat="46.69099" lon="-2.32418">
        <ele>15</ele>
        <time>2015-09-30T11:25:10Z</time>
      </trkpt>
      <trkpt lat="46.69097" lon="-2.32419">
        <ele>17</ele>
        <time>2015-09-30T11:25:13Z</time>
      </trkpt>
      <trkpt lat="46.69096" lon="-2.3242">
        <ele>17</ele>
        <time>2015-09-30T11:25:15Z</time>
      </trkpt>
      <trkpt lat="46.69094" lon="-2.32422">
        <ele>18</ele>
        <time>2015-09-30T11:25:17Z</time>
      </trkpt>
      <trkpt lat="46.69092" lon="-2.32424">
        <ele>18</ele>
        <time>2015-09-30T11:25:19Z</time>
      </trkpt>
      <trkpt lat="46.69091" lon="-2.32425">
        <ele>18</ele>
        <time>2015-09-30T11:25:21Z</time>
      </trkpt>
      <trkpt lat="46.69089" lon="-2.32427">
        <ele>18</ele>
        <time>2015-09-30T11:25:23Z</time>
      </trkpt>
      <trkpt lat="46.69088" lon="-2.32429">
        <ele>18</ele>
        <time>2015-09-30T11:25:25Z</time>
      </trkpt>
      <trkpt lat="46.69087" lon="-2.32432">
        <ele>18</ele>
        <time>2015-09-30T11:25:27Z</time>
      </trkpt>
      <trkpt lat="46.69087" lon="-2.32435">
        <ele>18</ele>
        <time>2015-09-30T11:25:29Z</time>
      </trkpt>
      <trkpt lat="46.69087" lon="-2.32437">
        <ele>18</ele>
        <time>2015-09-30T11:25:31Z</time>
      </trkpt>
      <trkpt lat="46.69087" lon="-2.32439">
        <ele>18</ele>
        <time>2015-09-30T11:25:32Z</time>
      </trkpt>
      <trkpt lat="46.69087" lon="-2.32441">
        <ele>18</ele>
        <time>2015-09-30T11:25:34Z</time>
      </trkpt>
      <trkpt lat="46.69087" lon="-2.32443">
        <ele>18</ele>
        <time>2015-09-30T11:25:35Z</time>
      </trkpt>
      <trkpt lat="46.69087" lon="-2.32445">
        <ele>18</ele>
        <time>2015-09-30T11:25:36Z</time>
      </trkpt>
      <trkpt lat="46.69087" lon="-2.32447">
        <ele>18</ele>
        <time>2015-09-30T11:25:38Z</time>
      </trkpt>
      <trkpt lat="46.69087" lon="-2.3245">
        <ele>18</ele>
        <time>2015-09-30T11:25:40Z</time>
      </trkpt>
      <trkpt lat="46.69087" lon="-2.32451">
        <ele>18</ele>
        <time>2015-09-30T11:25:41Z</time>
      </trkpt>
      <trkpt lat="46.69087" lon="-2.32454">
        <ele>18</ele>
        <time>2015-09-30T11:25:44Z</time>
      </trkpt>
      <trkpt lat="46.69087" lon="-2.32456">
        <ele>18</ele>
        <time>2015-09-30T11:25:45Z</time>
      </trkpt>
      <trkpt lat="46.69086" lon="-2.32458">
        <ele>18</ele>
        <time>2015-09-30T11:25:47Z</time>
      </trkpt>
      <trkpt lat="46.69085" lon="-2.3246">
        <ele>18</ele>
        <time>2015-09-30T11:25:49Z</time>
      </trkpt>
      <trkpt lat="46.69084" lon="-2.32462">
        <ele>18</ele>
        <time>2015-09-30T11:26:04Z</time>
      </trkpt>
      <trkpt lat="46.69084" lon="-2.32464">
        <ele>18</ele>
        <time>2015-09-30T11:26:06Z</time>
      </trkpt>
      <trkpt lat="46.69083" lon="-2.32465">
        <ele>18</ele>
        <time>2015-09-30T11:26:08Z</time>
      </trkpt>
      <trkpt lat="46.69081" lon="-2.32466">
        <ele>18</ele>
        <time>2015-09-30T11:26:10Z</time>
      </trkpt>
      <trkpt lat="46.69081" lon="-2.32468">
        <ele>18</ele>
        <time>2015-09-30T11:26:13Z</time>
      </trkpt>
      <trkpt lat="46.69079" lon="-2.32469">
        <ele>18</ele>
        <time>2015-09-30T11:26:26Z</time>
      </trkpt>
      <trkpt lat="46.69079" lon="-2.32471">
        <ele>18</ele>
        <time>2015-09-30T11:26:29Z</time>
      </trkpt>
      <trkpt lat="46.69079" lon="-2.32473">
        <ele>18</ele>
        <time>2015-09-30T11:26:33Z</time>
      </trkpt>
      <trkpt lat="46.69077" lon="-2.32473">
        <ele>18</ele>
        <time>2015-09-30T11:26:37Z</time>
      </trkpt>
      <trkpt lat="46.69079" lon="-2.32472">
        <ele>18</ele>
        <time>2015-09-30T11:26:43Z</time>
      </trkpt>
      <trkpt lat="46.69078" lon="-2.32474">
        <ele>18</ele>
        <time>2015-09-30T11:26:59Z</time>
      </trkpt>
      <trkpt lat="46.69077" lon="-2.32475">
        <ele>18</ele>
        <time>2015-09-30T11:27:02Z</time>
      </trkpt>
      <trkpt lat="46.69076" lon="-2.32475">
        <ele>18</ele>
        <time>2015-09-30T11:27:05Z</time>
      </trkpt>
      <trkpt lat="46.69074" lon="-2.32476">
        <ele>18</ele>
        <time>2015-09-30T11:27:08Z</time>
      </trkpt>
      <trkpt lat="46.69073" lon="-2.32477">
        <ele>18</ele>
        <time>2015-09-30T11:27:10Z</time>
      </trkpt>
      <trkpt lat="46.69072" lon="-2.32479">
        <ele>18</ele>
        <time>2015-09-30T11:27:12Z</time>
      </trkpt>
      <trkpt lat="46.69073" lon="-2.3248">
        <ele>18</ele>
        <time>2015-09-30T11:27:19Z</time>
      </trkpt>
      <trkpt lat="46.69073" lon="-2.32482">
        <ele>18</ele>
        <time>2015-09-30T11:27:22Z</time>
      </trkpt>
      <trkpt lat="46.69074" lon="-2.32484">
        <ele>18</ele>
        <time>2015-09-30T11:27:25Z</time>
      </trkpt>
      <trkpt lat="46.69075" lon="-2.32484">
        <ele>18</ele>
        <time>2015-09-30T11:27:30Z</time>
      </trkpt>
      <trkpt lat="46.69076" lon="-2.32485">
        <ele>18</ele>
        <time>2015-09-30T11:27:32Z</time>
      </trkpt>
      <trkpt lat="46.69077" lon="-2.32486">
        <ele>18</ele>
        <time>2015-09-30T11:27:34Z</time>
      </trkpt>
      <trkpt lat="46.69079" lon="-2.32487">
        <ele>16</ele>
        <time>2015-09-30T11:27:45Z</time>
      </trkpt>
      <trkpt lat="46.6908" lon="-2.32488">
        <ele>15</ele>
        <time>2015-09-30T11:27:48Z</time>
      </trkpt>
      <trkpt lat="46.69081" lon="-2.32488">
        <ele>14</ele>
        <time>2015-09-30T11:27:51Z</time>
      </trkpt>
      <trkpt lat="46.69082" lon="-2.32488">
        <ele>12</ele>
        <time>2015-09-30T11:28:00Z</time>
      </trkpt>
      <trkpt lat="46.69083" lon="-2.3249">
        <ele>12</ele>
        <time>2015-09-30T11:28:05Z</time>
      </trkpt>
      <trkpt lat="46.69082" lon="-2.32491">
        <ele>12</ele>
        <time>2015-09-30T11:28:08Z</time>
      </trkpt>
      <trkpt lat="46.69082" lon="-2.32493">
        <ele>12</ele>
        <time>2015-09-30T11:28:10Z</time>
      </trkpt>
      <trkpt lat="46.69082" lon="-2.32495">
        <ele>12</ele>
        <time>2015-09-30T11:28:12Z</time>
      </trkpt>
      <trkpt lat="46.69082" lon="-2.32496">
        <ele>12</ele>
        <time>2015-09-30T11:28:15Z</time>
      </trkpt>
      <trkpt lat="46.69081" lon="-2.32498">
        <ele>12</ele>
        <time>2015-09-30T11:28:17Z</time>
      </trkpt>
      <trkpt lat="46.69082" lon="-2.32499">
        <ele>12</ele>
        <time>2015-09-30T11:28:19Z</time>
      </trkpt>
      <trkpt lat="46.69081" lon="-2.32501">
        <ele>12</ele>
        <time>2015-09-30T11:28:24Z</time>
      </trkpt>
      <trkpt lat="46.6908" lon="-2.32502">
        <ele>12</ele>
        <time>2015-09-30T11:28:29Z</time>
      </trkpt>
      <trkpt lat="46.6908" lon="-2.32505">
        <ele>12</ele>
        <time>2015-09-30T11:28:32Z</time>
      </trkpt>
      <trkpt lat="46.69082" lon="-2.32506">
        <ele>12</ele>
        <time>2015-09-30T11:28:36Z</time>
      </trkpt>
      <trkpt lat="46.69083" lon="-2.32507">
        <ele>12</ele>
        <time>2015-09-30T11:28:39Z</time>
      </trkpt>
      <trkpt lat="46.69084" lon="-2.32508">
        <ele>12</ele>
        <time>2015-09-30T11:28:41Z</time>
      </trkpt>
      <trkpt lat="46.69084" lon="-2.3251">
        <ele>12</ele>
        <time>2015-09-30T11:28:43Z</time>
      </trkpt>
      <trkpt lat="46.69085" lon="-2.32512">
        <ele>12</ele>
        <time>2015-09-30T11:28:49Z</time>
      </trkpt>
      <trkpt lat="46.69085" lon="-2.32514">
        <ele>13</ele>
        <time>2015-09-30T11:28:52Z</time>
      </trkpt>
      <trkpt lat="46.69084" lon="-2.32515">
        <ele>13</ele>
        <time>2015-09-30T11:28:54Z</time>
      </trkpt>
      <trkpt lat="46.69082" lon="-2.32514">
        <ele>13</ele>
        <time>2015-09-30T11:28:57Z</time>
      </trkpt>
      <trkpt lat="46.69081" lon="-2.32515">
        <ele>13</ele>
        <time>2015-09-30T11:29:00Z</time>
      </trkpt>
      <trkpt lat="46.6908" lon="-2.32515">
        <ele>13</ele>
        <time>2015-09-30T11:29:03Z</time>
      </trkpt>
      <trkpt lat="46.69079" lon="-2.32516">
        <ele>13</ele>
        <time>2015-09-30T11:29:08Z</time>
      </trkpt>
      <trkpt lat="46.69077" lon="-2.32515">
        <ele>13</ele>
        <time>2015-09-30T11:29:10Z</time>
      </trkpt>
      <trkpt lat="46.69075" lon="-2.32515">
        <ele>13</ele>
        <time>2015-09-30T11:29:12Z</time>
      </trkpt>
      <trkpt lat="46.69074" lon="-2.32514">
        <ele>13</ele>
        <time>2015-09-30T11:29:14Z</time>
      </trkpt>
      <trkpt lat="46.69073" lon="-2.32513">
        <ele>13</ele>
        <time>2015-09-30T11:29:16Z</time>
      </trkpt>
      <trkpt lat="46.69072" lon="-2.32511">
        <ele>13</ele>
        <time>2015-09-30T11:29:19Z</time>
      </trkpt>
      <trkpt lat="46.6907" lon="-2.32508">
        <ele>13</ele>
        <time>2015-09-30T11:29:21Z</time>
      </trkpt>
      <trkpt lat="46.69069" lon="-2.32506">
        <ele>13</ele>
        <time>2015-09-30T11:29:23Z</time>
      </trkpt>
      <trkpt lat="46.69068" lon="-2.32504">
        <ele>13</ele>
        <time>2015-09-30T11:29:25Z</time>
      </trkpt>
      <trkpt lat="46.69067" lon="-2.32502">
        <ele>13</ele>
        <time>2015-09-30T11:29:27Z</time>
      </trkpt>
      <trkpt lat="46.69066" lon="-2.32502">
        <ele>13</ele>
        <time>2015-09-30T11:29:28Z</time>
      </trkpt>
      <trkpt lat="46.69064" lon="-2.325">
        <ele>13</ele>
        <time>2015-09-30T11:29:30Z</time>
      </trkpt>
      <trkpt lat="46.69064" lon="-2.32499">
        <ele>13</ele>
        <time>2015-09-30T11:29:32Z</time>
      </trkpt>
      <trkpt lat="46.69062" lon="-2.32497">
        <ele>13</ele>
        <time>2015-09-30T11:29:34Z</time>
      </trkpt>
      <trkpt lat="46.6906" lon="-2.32495">
        <ele>13</ele>
        <time>2015-09-30T11:29:37Z</time>
      </trkpt>
      <trkpt lat="46.69059" lon="-2.32494">
        <ele>13</ele>
        <time>2015-09-30T11:29:39Z</time>
      </trkpt>
      <trkpt lat="46.69057" lon="-2.32493">
        <ele>13</ele>
        <time>2015-09-30T11:29:42Z</time>
      </trkpt>
      <trkpt lat="46.69056" lon="-2.32492">
        <ele>13</ele>
        <time>2015-09-30T11:29:44Z</time>
      </trkpt>
      <trkpt lat="46.69055" lon="-2.3249">
        <ele>13</ele>
        <time>2015-09-30T11:29:46Z</time>
      </trkpt>
      <trkpt lat="46.69055" lon="-2.32488">
        <ele>13</ele>
        <time>2015-09-30T11:29:48Z</time>
      </trkpt>
      <trkpt lat="46.69054" lon="-2.32487">
        <ele>13</ele>
        <time>2015-09-30T11:29:50Z</time>
      </trkpt>
      <trkpt lat="46.69053" lon="-2.32485">
        <ele>13</ele>
        <time>2015-09-30T11:29:53Z</time>
      </trkpt>
      <trkpt lat="46.6905" lon="-2.32484">
        <ele>13</ele>
        <time>2015-09-30T11:29:57Z</time>
      </trkpt>
      <trkpt lat="46.6905" lon="-2.32486">
        <ele>13</ele>
        <time>2015-09-30T11:29:58Z</time>
      </trkpt>
      <trkpt lat="46.69049" lon="-2.32485">
        <ele>13</ele>
        <time>2015-09-30T11:30:00Z</time>
      </trkpt>
      <trkpt lat="46.69046" lon="-2.32484">
        <ele>13</ele>
        <time>2015-09-30T11:30:05Z</time>
      </trkpt>
      <trkpt lat="46.69048" lon="-2.32484">
        <ele>13</ele>
        <time>2015-09-30T11:30:06Z</time>
      </trkpt>
      <trkpt lat="46.69046" lon="-2.32484">
        <ele>13</ele>
        <time>2015-09-30T11:30:08Z</time>
      </trkpt>
      <trkpt lat="46.69047" lon="-2.32486">
        <ele>11</ele>
        <time>2015-09-30T11:30:12Z</time>
      </trkpt>
      <trkpt lat="46.69047" lon="-2.32487">
        <ele>11</ele>
        <time>2015-09-30T11:30:15Z</time>
      </trkpt>
      <trkpt lat="46.69046" lon="-2.32489">
        <ele>10</ele>
        <time>2015-09-30T11:30:17Z</time>
      </trkpt>
      <trkpt lat="46.69045" lon="-2.32491">
        <ele>9</ele>
        <time>2015-09-30T11:30:21Z</time>
      </trkpt>
      <trkpt lat="46.69043" lon="-2.32491">
        <ele>9</ele>
        <time>2015-09-30T11:30:23Z</time>
      </trkpt>
      <trkpt lat="46.69044" lon="-2.32492">
        <ele>9</ele>
        <time>2015-09-30T11:30:26Z</time>
      </trkpt>
      <trkpt lat="46.69044" lon="-2.32494">
        <ele>9</ele>
        <time>2015-09-30T11:30:28Z</time>
      </trkpt>
      <trkpt lat="46.69044" lon="-2.32496">
        <ele>8</ele>
        <time>2015-09-30T11:30:33Z</time>
      </trkpt>
      <trkpt lat="46.69044" lon="-2.32497">
        <ele>8</ele>
        <time>2015-09-30T11:30:35Z</time>
      </trkpt>
      <trkpt lat="46.69043" lon="-2.32498">
        <ele>8</ele>
        <time>2015-09-30T11:30:38Z</time>
      </trkpt>
      <trkpt lat="46.69041" lon="-2.32499">
        <ele>8</ele>
        <time>2015-09-30T11:30:42Z</time>
      </trkpt>
      <trkpt lat="46.69039" lon="-2.32499">
        <ele>8</ele>
        <time>2015-09-30T11:30:44Z</time>
      </trkpt>
      <trkpt lat="46.69037" lon="-2.32499">
        <ele>8</ele>
        <time>2015-09-30T11:30:46Z</time>
      </trkpt>
      <trkpt lat="46.69036" lon="-2.32499">
        <ele>8</ele>
        <time>2015-09-30T11:30:48Z</time>
      </trkpt>
      <trkpt lat="46.69035" lon="-2.32499">
        <ele>9</ele>
        <time>2015-09-30T11:30:50Z</time>
      </trkpt>
      <trkpt lat="46.69035" lon="-2.32501">
        <ele>9</ele>
        <time>2015-09-30T11:30:54Z</time>
      </trkpt>
      <trkpt lat="46.69036" lon="-2.32503">
        <ele>10</ele>
        <time>2015-09-30T11:30:56Z</time>
      </trkpt>
      <trkpt lat="46.69036" lon="-2.32504">
        <ele>10</ele>
        <time>2015-09-30T11:30:58Z</time>
      </trkpt>
      <trkpt lat="46.69036" lon="-2.32506">
        <ele>10</ele>
        <time>2015-09-30T11:31:00Z</time>
      </trkpt>
      <trkpt lat="46.69035" lon="-2.32506">
        <ele>10</ele>
        <time>2015-09-30T11:31:01Z</time>
      </trkpt>
      <trkpt lat="46.69034" lon="-2.32505">
        <ele>10</ele>
        <time>2015-09-30T11:31:04Z</time>
      </trkpt>
      <trkpt lat="46.69032" lon="-2.32504">
        <ele>11</ele>
        <time>2015-09-30T11:31:11Z</time>
      </trkpt>
      <trkpt lat="46.69031" lon="-2.32505">
        <ele>12</ele>
        <time>2015-09-30T11:31:13Z</time>
      </trkpt>
      <trkpt lat="46.69029" lon="-2.32504">
        <ele>12</ele>
        <time>2015-09-30T11:31:16Z</time>
      </trkpt>
      <trkpt lat="46.69029" lon="-2.32502">
        <ele>12</ele>
        <time>2015-09-30T11:31:18Z</time>
      </trkpt>
      <trkpt lat="46.69028" lon="-2.325">
        <ele>14</ele>
        <time>2015-09-30T11:31:21Z</time>
      </trkpt>
      <trkpt lat="46.69027" lon="-2.32498">
        <ele>14</ele>
        <time>2015-09-30T11:31:23Z</time>
      </trkpt>
      <trkpt lat="46.69026" lon="-2.32497">
        <ele>15</ele>
        <time>2015-09-30T11:31:25Z</time>
      </trkpt>
      <trkpt lat="46.69024" lon="-2.32495">
        <ele>15</ele>
        <time>2015-09-30T11:31:27Z</time>
      </trkpt>
      <trkpt lat="46.69022" lon="-2.32494">
        <ele>15</ele>
        <time>2015-09-30T11:31:29Z</time>
      </trkpt>
      <trkpt lat="46.6902" lon="-2.32493">
        <ele>15</ele>
        <time>2015-09-30T11:31:31Z</time>
      </trkpt>
      <trkpt lat="46.69019" lon="-2.32491">
        <ele>15</ele>
        <time>2015-09-30T11:31:33Z</time>
      </trkpt>
      <trkpt lat="46.69018" lon="-2.32491">
        <ele>15</ele>
        <time>2015-09-30T11:31:38Z</time>
      </trkpt>
      <trkpt lat="46.69016" lon="-2.32491">
        <ele>15</ele>
        <time>2015-09-30T11:31:40Z</time>
      </trkpt>
      <trkpt lat="46.69015" lon="-2.32489">
        <ele>15</ele>
        <time>2015-09-30T11:31:48Z</time>
      </trkpt>
      <trkpt lat="46.69013" lon="-2.32489">
        <ele>15</ele>
        <time>2015-09-30T11:31:50Z</time>
      </trkpt>
      <trkpt lat="46.69012" lon="-2.3249">
        <ele>15</ele>
        <time>2015-09-30T11:31:53Z</time>
      </trkpt>
      <trkpt lat="46.69011" lon="-2.3249">
        <ele>15</ele>
        <time>2015-09-30T11:31:56Z</time>
      </trkpt>
      <trkpt lat="46.6901" lon="-2.32492">
        <ele>15</ele>
        <time>2015-09-30T11:32:01Z</time>
      </trkpt>
      <trkpt lat="46.69008" lon="-2.32493">
        <ele>15</ele>
        <time>2015-09-30T11:32:07Z</time>
      </trkpt>
      <trkpt lat="46.69007" lon="-2.32492">
        <ele>15</ele>
        <time>2015-09-30T11:32:10Z</time>
      </trkpt>
      <trkpt lat="46.69005" lon="-2.32492">
        <ele>15</ele>
        <time>2015-09-30T11:32:14Z</time>
      </trkpt>
      <trkpt lat="46.69004" lon="-2.32492">
        <ele>15</ele>
        <time>2015-09-30T11:32:17Z</time>
      </trkpt>
      <trkpt lat="46.69002" lon="-2.32493">
        <ele>15</ele>
        <time>2015-09-30T11:32:19Z</time>
      </trkpt>
      <trkpt lat="46.69" lon="-2.32494">
        <ele>15</ele>
        <time>2015-09-30T11:32:21Z</time>
      </trkpt>
      <trkpt lat="46.68999" lon="-2.32496">
        <ele>15</ele>
        <time>2015-09-30T11:32:23Z</time>
      </trkpt>
      <trkpt lat="46.68998" lon="-2.32497">
        <ele>15</ele>
        <time>2015-09-30T11:32:25Z</time>
      </trkpt>
      <trkpt lat="46.68996" lon="-2.32498">
        <ele>16</ele>
        <time>2015-09-30T11:32:27Z</time>
      </trkpt>
      <trkpt lat="46.68995" lon="-2.325">
        <ele>16</ele>
        <time>2015-09-30T11:32:29Z</time>
      </trkpt>
      <trkpt lat="46.68994" lon="-2.32502">
        <ele>17</ele>
        <time>2015-09-30T11:32:30Z</time>
      </trkpt>
      <trkpt lat="46.68993" lon="-2.32503">
        <ele>17</ele>
        <time>2015-09-30T11:32:32Z</time>
      </trkpt>
      <trkpt lat="46.68992" lon="-2.32504">
        <ele>17</ele>
        <time>2015-09-30T11:32:34Z</time>
      </trkpt>
      <trkpt lat="46.6899" lon="-2.32505">
        <ele>17</ele>
        <time>2015-09-30T11:32:36Z</time>
      </trkpt>
      <trkpt lat="46.68989" lon="-2.32506">
        <ele>17</ele>
        <time>2015-09-30T11:32:39Z</time>
      </trkpt>
      <trkpt lat="46.68987" lon="-2.32508">
        <ele>17</ele>
        <time>2015-09-30T11:32:41Z</time>
      </trkpt>
      <trkpt lat="46.68985" lon="-2.32509">
        <ele>17</ele>
        <time>2015-09-30T11:32:43Z</time>
      </trkpt>
      <trkpt lat="46.68984" lon="-2.3251">
        <ele>17</ele>
        <time>2015-09-30T11:32:44Z</time>
      </trkpt>
      <trkpt lat="46.68982" lon="-2.3251">
        <ele>17</ele>
        <time>2015-09-30T11:32:46Z</time>
      </trkpt>
      <trkpt lat="46.6898" lon="-2.32511">
        <ele>17</ele>
        <time>2015-09-30T11:32:48Z</time>
      </trkpt>
      <trkpt lat="46.68979" lon="-2.32511">
        <ele>17</ele>
        <time>2015-09-30T11:32:49Z</time>
      </trkpt>
      <trkpt lat="46.68978" lon="-2.32512">
        <ele>17</ele>
        <time>2015-09-30T11:32:50Z</time>
      </trkpt>
      <trkpt lat="46.68976" lon="-2.32513">
        <ele>17</ele>
        <time>2015-09-30T11:32:52Z</time>
      </trkpt>
      <trkpt lat="46.68975" lon="-2.32515">
        <ele>17</ele>
        <time>2015-09-30T11:32:54Z</time>
      </trkpt>
      <trkpt lat="46.68973" lon="-2.32517">
        <ele>17</ele>
        <time>2015-09-30T11:32:56Z</time>
      </trkpt>
      <trkpt lat="46.68971" lon="-2.32519">
        <ele>17</ele>
        <time>2015-09-30T11:32:58Z</time>
      </trkpt>
      <trkpt lat="46.6897" lon="-2.32519">
        <ele>17</ele>
        <time>2015-09-30T11:33:00Z</time>
      </trkpt>
      <trkpt lat="46.68968" lon="-2.32521">
        <ele>17</ele>
        <time>2015-09-30T11:33:03Z</time>
      </trkpt>
      <trkpt lat="46.68967" lon="-2.32522">
        <ele>17</ele>
        <time>2015-09-30T11:33:06Z</time>
      </trkpt>
      <trkpt lat="46.68968" lon="-2.32522">
        <ele>17</ele>
        <time>2015-09-30T11:33:29Z</time>
      </trkpt>
      <trkpt lat="46.68967" lon="-2.32524">
        <ele>17</ele>
        <time>2015-09-30T11:33:52Z</time>
      </trkpt>
      <trkpt lat="46.68966" lon="-2.32526">
        <ele>17</ele>
        <time>2015-09-30T11:33:54Z</time>
      </trkpt>
      <trkpt lat="46.68965" lon="-2.32528">
        <ele>17</ele>
        <time>2015-09-30T11:33:56Z</time>
      </trkpt>
      <trkpt lat="46.68963" lon="-2.32529">
        <ele>17</ele>
        <time>2015-09-30T11:33:57Z</time>
      </trkpt>
      <trkpt lat="46.68962" lon="-2.3253">
        <ele>17</ele>
        <time>2015-09-30T11:33:58Z</time>
      </trkpt>
      <trkpt lat="46.68961" lon="-2.32531">
        <ele>17</ele>
        <time>2015-09-30T11:33:59Z</time>
      </trkpt>
      <trkpt lat="46.68959" lon="-2.32531">
        <ele>17</ele>
        <time>2015-09-30T11:34:00Z</time>
      </trkpt>
      <trkpt lat="46.68958" lon="-2.32533">
        <ele>17</ele>
        <time>2015-09-30T11:34:01Z</time>
      </trkpt>
      <trkpt lat="46.68957" lon="-2.32534">
        <ele>17</ele>
        <time>2015-09-30T11:34:02Z</time>
      </trkpt>
      <trkpt lat="46.68956" lon="-2.32536">
        <ele>17</ele>
        <time>2015-09-30T11:34:03Z</time>
      </trkpt>
      <trkpt lat="46.68955" lon="-2.32538">
        <ele>17</ele>
        <time>2015-09-30T11:34:05Z</time>
      </trkpt>
      <trkpt lat="46.68953" lon="-2.3254">
        <ele>17</ele>
        <time>2015-09-30T11:34:07Z</time>
      </trkpt>
      <trkpt lat="46.68951" lon="-2.32541">
        <ele>17</ele>
        <time>2015-09-30T11:34:09Z</time>
      </trkpt>
      <trkpt lat="46.6895" lon="-2.32542">
        <ele>17</ele>
        <time>2015-09-30T11:34:10Z</time>
      </trkpt>
      <trkpt lat="46.68948" lon="-2.32544">
        <ele>17</ele>
        <time>2015-09-30T11:34:12Z</time>
      </trkpt>
      <trkpt lat="46.68946" lon="-2.32547">
        <ele>17</ele>
        <time>2015-09-30T11:34:14Z</time>
      </trkpt>
      <trkpt lat="46.68946" lon="-2.32548">
        <ele>17</ele>
        <time>2015-09-30T11:34:15Z</time>
      </trkpt>
      <trkpt lat="46.68945" lon="-2.3255">
        <ele>17</ele>
        <time>2015-09-30T11:34:16Z</time>
      </trkpt>
      <trkpt lat="46.68945" lon="-2.32551">
        <ele>17</ele>
        <time>2015-09-30T11:34:17Z</time>
      </trkpt>
      <trkpt lat="46.68945" lon="-2.32553">
        <ele>17</ele>
        <time>2015-09-30T11:34:18Z</time>
      </trkpt>
      <trkpt lat="46.68945" lon="-2.32555">
        <ele>17</ele>
        <time>2015-09-30T11:34:19Z</time>
      </trkpt>
      <trkpt lat="46.68944" lon="-2.32557">
        <ele>17</ele>
        <time>2015-09-30T11:34:20Z</time>
      </trkpt>
      <trkpt lat="46.68944" lon="-2.32558">
        <ele>17</ele>
        <time>2015-09-30T11:34:21Z</time>
      </trkpt>
      <trkpt lat="46.68944" lon="-2.3256">
        <ele>17</ele>
        <time>2015-09-30T11:34:22Z</time>
      </trkpt>
      <trkpt lat="46.68944" lon="-2.32561">
        <ele>17</ele>
        <time>2015-09-30T11:34:23Z</time>
      </trkpt>
      <trkpt lat="46.68943" lon="-2.32564">
        <ele>17</ele>
        <time>2015-09-30T11:34:25Z</time>
      </trkpt>
      <trkpt lat="46.68943" lon="-2.32566">
        <ele>17</ele>
        <time>2015-09-30T11:34:26Z</time>
      </trkpt>
      <trkpt lat="46.68943" lon="-2.32568">
        <ele>17</ele>
        <time>2015-09-30T11:34:27Z</time>
      </trkpt>
      <trkpt lat="46.68942" lon="-2.32569">
        <ele>17</ele>
        <time>2015-09-30T11:34:28Z</time>
      </trkpt>
      <trkpt lat="46.68942" lon="-2.32571">
        <ele>17</ele>
        <time>2015-09-30T11:34:29Z</time>
      </trkpt>
      <trkpt lat="46.68942" lon="-2.32573">
        <ele>17</ele>
        <time>2015-09-30T11:34:30Z</time>
      </trkpt>
      <trkpt lat="46.68942" lon="-2.32576">
        <ele>17</ele>
        <time>2015-09-30T11:34:32Z</time>
      </trkpt>
      <trkpt lat="46.68942" lon="-2.32578">
        <ele>17</ele>
        <time>2015-09-30T11:34:34Z</time>
      </trkpt>
      <trkpt lat="46.68942" lon="-2.3258">
        <ele>17</ele>
        <time>2015-09-30T11:34:35Z</time>
      </trkpt>
      <trkpt lat="46.68942" lon="-2.32582">
        <ele>17</ele>
        <time>2015-09-30T11:34:37Z</time>
      </trkpt>
      <trkpt lat="46.68942" lon="-2.32584">
        <ele>17</ele>
        <time>2015-09-30T11:34:39Z</time>
      </trkpt>
      <trkpt lat="46.68942" lon="-2.32587">
        <ele>17</ele>
        <time>2015-09-30T11:34:41Z</time>
      </trkpt>
      <trkpt lat="46.68942" lon="-2.32589">
        <ele>17</ele>
        <time>2015-09-30T11:34:43Z</time>
      </trkpt>
      <trkpt lat="46.68942" lon="-2.32591">
        <ele>18</ele>
        <time>2015-09-30T11:34:45Z</time>
      </trkpt>
      <trkpt lat="46.68942" lon="-2.32593">
        <ele>18</ele>
        <time>2015-09-30T11:34:46Z</time>
      </trkpt>
      <trkpt lat="46.68942" lon="-2.32595">
        <ele>18</ele>
        <time>2015-09-30T11:34:48Z</time>
      </trkpt>
      <trkpt lat="46.68942" lon="-2.32598">
        <ele>18</ele>
        <time>2015-09-30T11:34:50Z</time>
      </trkpt>
      <trkpt lat="46.68942" lon="-2.32599">
        <ele>18</ele>
        <time>2015-09-30T11:34:51Z</time>
      </trkpt>
      <trkpt lat="46.68942" lon="-2.32601">
        <ele>18</ele>
        <time>2015-09-30T11:34:53Z</time>
      </trkpt>
      <trkpt lat="46.68942" lon="-2.32604">
        <ele>18</ele>
        <time>2015-09-30T11:34:55Z</time>
      </trkpt>
      <trkpt lat="46.68942" lon="-2.32606">
        <ele>18</ele>
        <time>2015-09-30T11:34:57Z</time>
      </trkpt>
      <trkpt lat="46.68942" lon="-2.32609">
        <ele>18</ele>
        <time>2015-09-30T11:34:59Z</time>
      </trkpt>
      <trkpt lat="46.68942" lon="-2.32611">
        <ele>18</ele>
        <time>2015-09-30T11:35:01Z</time>
      </trkpt>
      <trkpt lat="46.68942" lon="-2.32612">
        <ele>18</ele>
        <time>2015-09-30T11:35:02Z</time>
      </trkpt>
      <trkpt lat="46.68942" lon="-2.32615">
        <ele>18</ele>
        <time>2015-09-30T11:35:04Z</time>
      </trkpt>
      <trkpt lat="46.68942" lon="-2.32617">
        <ele>18</ele>
        <time>2015-09-30T11:35:06Z</time>
      </trkpt>
      <trkpt lat="46.68942" lon="-2.32619">
        <ele>18</ele>
        <time>2015-09-30T11:35:07Z</time>
      </trkpt>
      <trkpt lat="46.68942" lon="-2.32622">
        <ele>18</ele>
        <time>2015-09-30T11:35:09Z</time>
      </trkpt>
      <trkpt lat="46.68942" lon="-2.32625">
        <ele>18</ele>
        <time>2015-09-30T11:35:11Z</time>
      </trkpt>
      <trkpt lat="46.68941" lon="-2.32627">
        <ele>18</ele>
        <time>2015-09-30T11:35:13Z</time>
      </trkpt>
      <trkpt lat="46.68941" lon="-2.3263">
        <ele>18</ele>
        <time>2015-09-30T11:35:15Z</time>
      </trkpt>
      <trkpt lat="46.6894" lon="-2.32633">
        <ele>18</ele>
        <time>2015-09-30T11:35:17Z</time>
      </trkpt>
      <trkpt lat="46.6894" lon="-2.32634">
        <ele>18</ele>
        <time>2015-09-30T11:35:18Z</time>
      </trkpt>
      <trkpt lat="46.6894" lon="-2.32637">
        <ele>18</ele>
        <time>2015-09-30T11:35:20Z</time>
      </trkpt>
      <trkpt lat="46.6894" lon="-2.32638">
        <ele>18</ele>
        <time>2015-09-30T11:35:21Z</time>
      </trkpt>
      <trkpt lat="46.68939" lon="-2.32641">
        <ele>18</ele>
        <time>2015-09-30T11:35:23Z</time>
      </trkpt>
      <trkpt lat="46.68939" lon="-2.32643">
        <ele>18</ele>
        <time>2015-09-30T11:35:25Z</time>
      </trkpt>
      <trkpt lat="46.68939" lon="-2.32646">
        <ele>18</ele>
        <time>2015-09-30T11:35:27Z</time>
      </trkpt>
      <trkpt lat="46.68938" lon="-2.32648">
        <ele>18</ele>
        <time>2015-09-30T11:35:29Z</time>
      </trkpt>
      <trkpt lat="46.68938" lon="-2.32651">
        <ele>18</ele>
        <time>2015-09-30T11:35:32Z</time>
      </trkpt>
      <trkpt lat="46.68937" lon="-2.32652">
        <ele>18</ele>
        <time>2015-09-30T11:35:33Z</time>
      </trkpt>
      <trkpt lat="46.68936" lon="-2.32654">
        <ele>18</ele>
        <time>2015-09-30T11:35:35Z</time>
      </trkpt>
      <trkpt lat="46.68935" lon="-2.32656">
        <ele>18</ele>
        <time>2015-09-30T11:35:37Z</time>
      </trkpt>
      <trkpt lat="46.68933" lon="-2.32659">
        <ele>18</ele>
        <time>2015-09-30T11:35:39Z</time>
      </trkpt>
      <trkpt lat="46.68931" lon="-2.3266">
        <ele>18</ele>
        <time>2015-09-30T11:35:40Z</time>
      </trkpt>
      <trkpt lat="46.6893" lon="-2.32661">
        <ele>18</ele>
        <time>2015-09-30T11:35:41Z</time>
      </trkpt>
      <trkpt lat="46.68929" lon="-2.32661">
        <ele>18</ele>
        <time>2015-09-30T11:35:42Z</time>
      </trkpt>
      <trkpt lat="46.68928" lon="-2.32661">
        <ele>18</ele>
        <time>2015-09-30T11:35:43Z</time>
      </trkpt>
      <trkpt lat="46.68927" lon="-2.32661">
        <ele>18</ele>
        <time>2015-09-30T11:35:44Z</time>
      </trkpt>
      <trkpt lat="46.68924" lon="-2.32662">
        <ele>18</ele>
        <time>2015-09-30T11:35:46Z</time>
      </trkpt>
      <trkpt lat="46.68923" lon="-2.32664">
        <ele>18</ele>
        <time>2015-09-30T11:35:48Z</time>
      </trkpt>
      <trkpt lat="46.68923" lon="-2.32666">
        <ele>18</ele>
        <time>2015-09-30T11:35:51Z</time>
      </trkpt>
      <trkpt lat="46.68921" lon="-2.32667">
        <ele>18</ele>
        <time>2015-09-30T11:35:54Z</time>
      </trkpt>
      <trkpt lat="46.68919" lon="-2.32667">
        <ele>18</ele>
        <time>2015-09-30T11:35:57Z</time>
      </trkpt>
      <trkpt lat="46.68918" lon="-2.32667">
        <ele>18</ele>
        <time>2015-09-30T11:35:59Z</time>
      </trkpt>
      <trkpt lat="46.68917" lon="-2.32668">
        <ele>18</ele>
        <time>2015-09-30T11:36:01Z</time>
      </trkpt>
      <trkpt lat="46.68915" lon="-2.32669">
        <ele>18</ele>
        <time>2015-09-30T11:36:03Z</time>
      </trkpt>
      <trkpt lat="46.68913" lon="-2.3267">
        <ele>18</ele>
        <time>2015-09-30T11:36:05Z</time>
      </trkpt>
      <trkpt lat="46.68912" lon="-2.32671">
        <ele>18</ele>
        <time>2015-09-30T11:36:07Z</time>
      </trkpt>
      <trkpt lat="46.6891" lon="-2.32672">
        <ele>18</ele>
        <time>2015-09-30T11:36:09Z</time>
      </trkpt>
      <trkpt lat="46.68908" lon="-2.32673">
        <ele>18</ele>
        <time>2015-09-30T11:36:11Z</time>
      </trkpt>
      <trkpt lat="46.68907" lon="-2.32674">
        <ele>18</ele>
        <time>2015-09-30T11:36:12Z</time>
      </trkpt>
      <trkpt lat="46.68905" lon="-2.32675">
        <ele>18</ele>
        <time>2015-09-30T11:36:14Z</time>
      </trkpt>
      <trkpt lat="46.68903" lon="-2.32675">
        <ele>18</ele>
        <time>2015-09-30T11:36:16Z</time>
      </trkpt>
      <trkpt lat="46.68901" lon="-2.32674">
        <ele>18</ele>
        <time>2015-09-30T11:36:17Z</time>
      </trkpt>
      <trkpt lat="46.689" lon="-2.32673">
        <ele>18</ele>
        <time>2015-09-30T11:36:19Z</time>
      </trkpt>
      <trkpt lat="46.68898" lon="-2.32672">
        <ele>18</ele>
        <time>2015-09-30T11:36:21Z</time>
      </trkpt>
      <trkpt lat="46.68896" lon="-2.32673">
        <ele>18</ele>
        <time>2015-09-30T11:36:23Z</time>
      </trkpt>
      <trkpt lat="46.68895" lon="-2.32675">
        <ele>18</ele>
        <time>2015-09-30T11:36:25Z</time>
      </trkpt>
      <trkpt lat="46.68895" lon="-2.32676">
        <ele>18</ele>
        <time>2015-09-30T11:36:27Z</time>
      </trkpt>
      <trkpt lat="46.68893" lon="-2.32677">
        <ele>18</ele>
        <time>2015-09-30T11:36:29Z</time>
      </trkpt>
      <trkpt lat="46.68893" lon="-2.32679">
        <ele>18</ele>
        <time>2015-09-30T11:36:34Z</time>
      </trkpt>
      <trkpt lat="46.68891" lon="-2.3268">
        <ele>18</ele>
        <time>2015-09-30T11:36:36Z</time>
      </trkpt>
      <trkpt lat="46.6889" lon="-2.32681">
        <ele>18</ele>
        <time>2015-09-30T11:36:39Z</time>
      </trkpt>
      <trkpt lat="46.68888" lon="-2.3268">
        <ele>18</ele>
        <time>2015-09-30T11:36:41Z</time>
      </trkpt>
      <trkpt lat="46.68887" lon="-2.32679">
        <ele>18</ele>
        <time>2015-09-30T11:36:45Z</time>
      </trkpt>
      <trkpt lat="46.68885" lon="-2.3268">
        <ele>18</ele>
        <time>2015-09-30T11:36:48Z</time>
      </trkpt>
      <trkpt lat="46.68885" lon="-2.32682">
        <ele>18</ele>
        <time>2015-09-30T11:36:50Z</time>
      </trkpt>
      <trkpt lat="46.68884" lon="-2.32684">
        <ele>19</ele>
        <time>2015-09-30T11:36:52Z</time>
      </trkpt>
      <trkpt lat="46.68883" lon="-2.32686">
        <ele>19</ele>
        <time>2015-09-30T11:36:54Z</time>
      </trkpt>
      <trkpt lat="46.68881" lon="-2.32688">
        <ele>19</ele>
        <time>2015-09-30T11:36:56Z</time>
      </trkpt>
      <trkpt lat="46.68879" lon="-2.32688">
        <ele>19</ele>
        <time>2015-09-30T11:36:58Z</time>
      </trkpt>
      <trkpt lat="46.68877" lon="-2.32689">
        <ele>20</ele>
        <time>2015-09-30T11:37:00Z</time>
      </trkpt>
      <trkpt lat="46.68875" lon="-2.32688">
        <ele>20</ele>
        <time>2015-09-30T11:37:02Z</time>
      </trkpt>
      <trkpt lat="46.68874" lon="-2.32687">
        <ele>21</ele>
        <time>2015-09-30T11:37:03Z</time>
      </trkpt>
      <trkpt lat="46.68872" lon="-2.32687">
        <ele>21</ele>
        <time>2015-09-30T11:37:05Z</time>
      </trkpt>
      <trkpt lat="46.68871" lon="-2.32687">
        <ele>21</ele>
        <time>2015-09-30T11:37:06Z</time>
      </trkpt>
      <trkpt lat="46.6887" lon="-2.32689">
        <ele>22</ele>
        <time>2015-09-30T11:37:08Z</time>
      </trkpt>
      <trkpt lat="46.68868" lon="-2.3269">
        <ele>22</ele>
        <time>2015-09-30T11:37:10Z</time>
      </trkpt>
      <trkpt lat="46.68866" lon="-2.32692">
        <ele>23</ele>
        <time>2015-09-30T11:37:12Z</time>
      </trkpt>
      <trkpt lat="46.68865" lon="-2.32693">
        <ele>23</ele>
        <time>2015-09-30T11:37:14Z</time>
      </trkpt>
      <trkpt lat="46.68864" lon="-2.32695">
        <ele>23</ele>
        <time>2015-09-30T11:37:17Z</time>
      </trkpt>
      <trkpt lat="46.68862" lon="-2.32697">
        <ele>23</ele>
        <time>2015-09-30T11:37:19Z</time>
      </trkpt>
      <trkpt lat="46.6886" lon="-2.32698">
        <ele>23</ele>
        <time>2015-09-30T11:37:21Z</time>
      </trkpt>
      <trkpt lat="46.68859" lon="-2.32698">
        <ele>23</ele>
        <time>2015-09-30T11:37:22Z</time>
      </trkpt>
      <trkpt lat="46.68858" lon="-2.32699">
        <ele>23</ele>
        <time>2015-09-30T11:37:23Z</time>
      </trkpt>
      <trkpt lat="46.68856" lon="-2.327">
        <ele>23</ele>
        <time>2015-09-30T11:37:25Z</time>
      </trkpt>
      <trkpt lat="46.68855" lon="-2.32701">
        <ele>23</ele>
        <time>2015-09-30T11:37:27Z</time>
      </trkpt>
      <trkpt lat="46.68853" lon="-2.32703">
        <ele>23</ele>
        <time>2015-09-30T11:37:29Z</time>
      </trkpt>
      <trkpt lat="46.68852" lon="-2.32705">
        <ele>23</ele>
        <time>2015-09-30T11:37:31Z</time>
      </trkpt>
      <trkpt lat="46.68851" lon="-2.32708">
        <ele>23</ele>
        <time>2015-09-30T11:37:33Z</time>
      </trkpt>
      <trkpt lat="46.68851" lon="-2.32709">
        <ele>23</ele>
        <time>2015-09-30T11:37:34Z</time>
      </trkpt>
      <trkpt lat="46.6885" lon="-2.32712">
        <ele>23</ele>
        <time>2015-09-30T11:37:36Z</time>
      </trkpt>
      <trkpt lat="46.68848" lon="-2.32714">
        <ele>23</ele>
        <time>2015-09-30T11:37:38Z</time>
      </trkpt>
      <trkpt lat="46.68847" lon="-2.32715">
        <ele>23</ele>
        <time>2015-09-30T11:37:41Z</time>
      </trkpt>
      <trkpt lat="46.68846" lon="-2.32716">
        <ele>23</ele>
        <time>2015-09-30T11:37:43Z</time>
      </trkpt>
      <trkpt lat="46.68844" lon="-2.32716">
        <ele>23</ele>
        <time>2015-09-30T11:37:46Z</time>
      </trkpt>
      <trkpt lat="46.68844" lon="-2.32719">
        <ele>23</ele>
        <time>2015-09-30T11:37:50Z</time>
      </trkpt>
      <trkpt lat="46.68844" lon="-2.32721">
        <ele>23</ele>
        <time>2015-09-30T11:37:52Z</time>
      </trkpt>
      <trkpt lat="46.68843" lon="-2.32722">
        <ele>23</ele>
        <time>2015-09-30T11:37:54Z</time>
      </trkpt>
      <trkpt lat="46.68842" lon="-2.32722">
        <ele>23</ele>
        <time>2015-09-30T11:38:00Z</time>
      </trkpt>
      <trkpt lat="46.68842" lon="-2.32721">
        <ele>23</ele>
        <time>2015-09-30T11:38:07Z</time>
      </trkpt>
      <trkpt lat="46.6884" lon="-2.32722">
        <ele>23</ele>
        <time>2015-09-30T11:38:15Z</time>
      </trkpt>
      <trkpt lat="46.68839" lon="-2.32724">
        <ele>23</ele>
        <time>2015-09-30T11:38:18Z</time>
      </trkpt>
      <trkpt lat="46.68838" lon="-2.32726">
        <ele>23</ele>
        <time>2015-09-30T11:38:20Z</time>
      </trkpt>
      <trkpt lat="46.68837" lon="-2.32728">
        <ele>23</ele>
        <time>2015-09-30T11:38:22Z</time>
      </trkpt>
      <trkpt lat="46.68836" lon="-2.32729">
        <ele>23</ele>
        <time>2015-09-30T11:38:24Z</time>
      </trkpt>
      <trkpt lat="46.68834" lon="-2.32729">
        <ele>23</ele>
        <time>2015-09-30T11:38:26Z</time>
      </trkpt>
      <trkpt lat="46.68832" lon="-2.3273">
        <ele>23</ele>
        <time>2015-09-30T11:38:27Z</time>
      </trkpt>
      <trkpt lat="46.68831" lon="-2.3273">
        <ele>23</ele>
        <time>2015-09-30T11:38:28Z</time>
      </trkpt>
      <trkpt lat="46.6883" lon="-2.32731">
        <ele>23</ele>
        <time>2015-09-30T11:38:29Z</time>
      </trkpt>
      <trkpt lat="46.68828" lon="-2.32731">
        <ele>23</ele>
        <time>2015-09-30T11:38:31Z</time>
      </trkpt>
      <trkpt lat="46.68827" lon="-2.32731">
        <ele>23</ele>
        <time>2015-09-30T11:38:32Z</time>
      </trkpt>
      <trkpt lat="46.68826" lon="-2.32731">
        <ele>23</ele>
        <time>2015-09-30T11:38:33Z</time>
      </trkpt>
      <trkpt lat="46.68824" lon="-2.32732">
        <ele>23</ele>
        <time>2015-09-30T11:38:35Z</time>
      </trkpt>
      <trkpt lat="46.68823" lon="-2.32732">
        <ele>23</ele>
        <time>2015-09-30T11:38:37Z</time>
      </trkpt>
      <trkpt lat="46.68821" lon="-2.32733">
        <ele>23</ele>
        <time>2015-09-30T11:38:39Z</time>
      </trkpt>
      <trkpt lat="46.68819" lon="-2.32734">
        <ele>23</ele>
        <time>2015-09-30T11:38:41Z</time>
      </trkpt>
      <trkpt lat="46.68817" lon="-2.32736">
        <ele>23</ele>
        <time>2015-09-30T11:38:43Z</time>
      </trkpt>
      <trkpt lat="46.68816" lon="-2.32737">
        <ele>23</ele>
        <time>2015-09-30T11:38:45Z</time>
      </trkpt>
      <trkpt lat="46.68815" lon="-2.32739">
        <ele>23</ele>
        <time>2015-09-30T11:38:46Z</time>
      </trkpt>
      <trkpt lat="46.68813" lon="-2.32741">
        <ele>23</ele>
        <time>2015-09-30T11:38:48Z</time>
      </trkpt>
      <trkpt lat="46.68812" lon="-2.32743">
        <ele>23</ele>
        <time>2015-09-30T11:38:50Z</time>
      </trkpt>
      <trkpt lat="46.68811" lon="-2.32745">
        <ele>23</ele>
        <time>2015-09-30T11:38:52Z</time>
      </trkpt>
      <trkpt lat="46.68809" lon="-2.32748">
        <ele>23</ele>
        <time>2015-09-30T11:38:54Z</time>
      </trkpt>
      <trkpt lat="46.68808" lon="-2.32751">
        <ele>23</ele>
        <time>2015-09-30T11:38:56Z</time>
      </trkpt>
      <trkpt lat="46.68808" lon="-2.32752">
        <ele>23</ele>
        <time>2015-09-30T11:38:57Z</time>
      </trkpt>
      <trkpt lat="46.68808" lon="-2.32754">
        <ele>23</ele>
        <time>2015-09-30T11:38:58Z</time>
      </trkpt>
      <trkpt lat="46.68808" lon="-2.32755">
        <ele>23</ele>
        <time>2015-09-30T11:38:59Z</time>
      </trkpt>
      <trkpt lat="46.68808" lon="-2.32757">
        <ele>23</ele>
        <time>2015-09-30T11:39:00Z</time>
      </trkpt>
      <trkpt lat="46.68808" lon="-2.32758">
        <ele>23</ele>
        <time>2015-09-30T11:39:01Z</time>
      </trkpt>
      <trkpt lat="46.68808" lon="-2.3276">
        <ele>23</ele>
        <time>2015-09-30T11:39:02Z</time>
      </trkpt>
      <trkpt lat="46.68809" lon="-2.32762">
        <ele>23</ele>
        <time>2015-09-30T11:39:04Z</time>
      </trkpt>
      <trkpt lat="46.68809" lon="-2.32764">
        <ele>23</ele>
        <time>2015-09-30T11:39:05Z</time>
      </trkpt>
      <trkpt lat="46.68809" lon="-2.32766">
        <ele>23</ele>
        <time>2015-09-30T11:39:07Z</time>
      </trkpt>
      <trkpt lat="46.68809" lon="-2.32768">
        <ele>23</ele>
        <time>2015-09-30T11:39:08Z</time>
      </trkpt>
      <trkpt lat="46.68809" lon="-2.3277">
        <ele>23</ele>
        <time>2015-09-30T11:39:10Z</time>
      </trkpt>
      <trkpt lat="46.68809" lon="-2.32772">
        <ele>23</ele>
        <time>2015-09-30T11:39:11Z</time>
      </trkpt>
      <trkpt lat="46.68808" lon="-2.32774">
        <ele>23</ele>
        <time>2015-09-30T11:39:13Z</time>
      </trkpt>
      <trkpt lat="46.68806" lon="-2.32776">
        <ele>23</ele>
        <time>2015-09-30T11:39:15Z</time>
      </trkpt>
      <trkpt lat="46.68804" lon="-2.32777">
        <ele>23</ele>
        <time>2015-09-30T11:39:17Z</time>
      </trkpt>
      <trkpt lat="46.68803" lon="-2.32777">
        <ele>23</ele>
        <time>2015-09-30T11:39:18Z</time>
      </trkpt>
      <trkpt lat="46.68801" lon="-2.32777">
        <ele>23</ele>
        <time>2015-09-30T11:39:20Z</time>
      </trkpt>
      <trkpt lat="46.68799" lon="-2.32777">
        <ele>23</ele>
        <time>2015-09-30T11:39:22Z</time>
      </trkpt>
      <trkpt lat="46.68798" lon="-2.32779">
        <ele>23</ele>
        <time>2015-09-30T11:39:24Z</time>
      </trkpt>
      <trkpt lat="46.68796" lon="-2.3278">
        <ele>23</ele>
        <time>2015-09-30T11:39:27Z</time>
      </trkpt>
      <trkpt lat="46.68795" lon="-2.3278">
        <ele>23</ele>
        <time>2015-09-30T11:39:29Z</time>
      </trkpt>
      <trkpt lat="46.68794" lon="-2.32782">
        <ele>23</ele>
        <time>2015-09-30T11:39:31Z</time>
      </trkpt>
      <trkpt lat="46.68793" lon="-2.32784">
        <ele>23</ele>
        <time>2015-09-30T11:39:34Z</time>
      </trkpt>
      <trkpt lat="46.68792" lon="-2.32785">
        <ele>23</ele>
        <time>2015-09-30T11:39:36Z</time>
      </trkpt>
      <trkpt lat="46.6879" lon="-2.32786">
        <ele>23</ele>
        <time>2015-09-30T11:39:40Z</time>
      </trkpt>
      <trkpt lat="46.68788" lon="-2.32788">
        <ele>23</ele>
        <time>2015-09-30T11:39:43Z</time>
      </trkpt>
      <trkpt lat="46.68786" lon="-2.3279">
        <ele>23</ele>
        <time>2015-09-30T11:39:45Z</time>
      </trkpt>
      <trkpt lat="46.68785" lon="-2.32791">
        <ele>23</ele>
        <time>2015-09-30T11:39:47Z</time>
      </trkpt>
      <trkpt lat="46.68783" lon="-2.32793">
        <ele>23</ele>
        <time>2015-09-30T11:39:49Z</time>
      </trkpt>
      <trkpt lat="46.68782" lon="-2.32794">
        <ele>22</ele>
        <time>2015-09-30T11:39:50Z</time>
      </trkpt>
      <trkpt lat="46.6878" lon="-2.32796">
        <ele>22</ele>
        <time>2015-09-30T11:39:52Z</time>
      </trkpt>
      <trkpt lat="46.68778" lon="-2.32798">
        <ele>22</ele>
        <time>2015-09-30T11:39:54Z</time>
      </trkpt>
      <trkpt lat="46.68777" lon="-2.32799">
        <ele>22</ele>
        <time>2015-09-30T11:39:55Z</time>
      </trkpt>
      <trkpt lat="46.68775" lon="-2.32801">
        <ele>21</ele>
        <time>2015-09-30T11:39:57Z</time>
      </trkpt>
      <trkpt lat="46.68773" lon="-2.32803">
        <ele>21</ele>
        <time>2015-09-30T11:39:59Z</time>
      </trkpt>
      <trkpt lat="46.68772" lon="-2.32805">
        <ele>20</ele>
        <time>2015-09-30T11:40:01Z</time>
      </trkpt>
      <trkpt lat="46.68771" lon="-2.32807">
        <ele>20</ele>
        <time>2015-09-30T11:40:02Z</time>
      </trkpt>
      <trkpt lat="46.68771" lon="-2.32809">
        <ele>20</ele>
        <time>2015-09-30T11:40:03Z</time>
      </trkpt>
      <trkpt lat="46.68769" lon="-2.32811">
        <ele>19</ele>
        <time>2015-09-30T11:40:05Z</time>
      </trkpt>
      <trkpt lat="46.68768" lon="-2.32814">
        <ele>18</ele>
        <time>2015-09-30T11:40:07Z</time>
      </trkpt>
      <trkpt lat="46.68768" lon="-2.32816">
        <ele>18</ele>
        <time>2015-09-30T11:40:08Z</time>
      </trkpt>
      <trkpt lat="46.68768" lon="-2.32817">
        <ele>18</ele>
        <time>2015-09-30T11:40:09Z</time>
      </trkpt>
      <trkpt lat="46.68767" lon="-2.32819">
        <ele>18</ele>
        <time>2015-09-30T11:40:10Z</time>
      </trkpt>
      <trkpt lat="46.68767" lon="-2.3282">
        <ele>18</ele>
        <time>2015-09-30T11:40:11Z</time>
      </trkpt>
      <trkpt lat="46.68766" lon="-2.32823">
        <ele>18</ele>
        <time>2015-09-30T11:40:13Z</time>
      </trkpt>
      <trkpt lat="46.68764" lon="-2.32825">
        <ele>18</ele>
        <time>2015-09-30T11:40:15Z</time>
      </trkpt>
      <trkpt lat="46.68762" lon="-2.32828">
        <ele>18</ele>
        <time>2015-09-30T11:40:17Z</time>
      </trkpt>
      <trkpt lat="46.68761" lon="-2.32831">
        <ele>18</ele>
        <time>2015-09-30T11:40:19Z</time>
      </trkpt>
      <trkpt lat="46.68761" lon="-2.32833">
        <ele>18</ele>
        <time>2015-09-30T11:40:20Z</time>
      </trkpt>
      <trkpt lat="46.6876" lon="-2.32834">
        <ele>18</ele>
        <time>2015-09-30T11:40:21Z</time>
      </trkpt>
      <trkpt lat="46.6876" lon="-2.32836">
        <ele>18</ele>
        <time>2015-09-30T11:40:22Z</time>
      </trkpt>
      <trkpt lat="46.68759" lon="-2.32838">
        <ele>18</ele>
        <time>2015-09-30T11:40:23Z</time>
      </trkpt>
      <trkpt lat="46.68759" lon="-2.32839">
        <ele>18</ele>
        <time>2015-09-30T11:40:24Z</time>
      </trkpt>
      <trkpt lat="46.68758" lon="-2.32841">
        <ele>18</ele>
        <time>2015-09-30T11:40:25Z</time>
      </trkpt>
      <trkpt lat="46.68758" lon="-2.32843">
        <ele>18</ele>
        <time>2015-09-30T11:40:26Z</time>
      </trkpt>
      <trkpt lat="46.68758" lon="-2.32844">
        <ele>17</ele>
        <time>2015-09-30T11:40:27Z</time>
      </trkpt>
      <trkpt lat="46.68757" lon="-2.32847">
        <ele>17</ele>
        <time>2015-09-30T11:40:29Z</time>
      </trkpt>
      <trkpt lat="46.68757" lon="-2.32849">
        <ele>17</ele>
        <time>2015-09-30T11:40:31Z</time>
      </trkpt>
      <trkpt lat="46.68756" lon="-2.32852">
        <ele>17</ele>
        <time>2015-09-30T11:40:33Z</time>
      </trkpt>
      <trkpt lat="46.68755" lon="-2.32854">
        <ele>17</ele>
        <time>2015-09-30T11:40:35Z</time>
      </trkpt>
      <trkpt lat="46.68754" lon="-2.32856">
        <ele>17</ele>
        <time>2015-09-30T11:40:37Z</time>
      </trkpt>
      <trkpt lat="46.68753" lon="-2.32858">
        <ele>17</ele>
        <time>2015-09-30T11:40:39Z</time>
      </trkpt>
      <trkpt lat="46.68752" lon="-2.32861">
        <ele>17</ele>
        <time>2015-09-30T11:40:41Z</time>
      </trkpt>
      <trkpt lat="46.68751" lon="-2.32862">
        <ele>17</ele>
        <time>2015-09-30T11:40:42Z</time>
      </trkpt>
      <trkpt lat="46.6875" lon="-2.32864">
        <ele>17</ele>
        <time>2015-09-30T11:40:43Z</time>
      </trkpt>
      <trkpt lat="46.68749" lon="-2.32866">
        <ele>17</ele>
        <time>2015-09-30T11:40:45Z</time>
      </trkpt>
      <trkpt lat="46.68748" lon="-2.32868">
        <ele>17</ele>
        <time>2015-09-30T11:40:47Z</time>
      </trkpt>
      <trkpt lat="46.68746" lon="-2.32871">
        <ele>17</ele>
        <time>2015-09-30T11:40:49Z</time>
      </trkpt>
      <trkpt lat="46.68746" lon="-2.32873">
        <ele>17</ele>
        <time>2015-09-30T11:40:50Z</time>
      </trkpt>
      <trkpt lat="46.68745" lon="-2.32874">
        <ele>17</ele>
        <time>2015-09-30T11:40:51Z</time>
      </trkpt>
      <trkpt lat="46.68743" lon="-2.32877">
        <ele>17</ele>
        <time>2015-09-30T11:40:53Z</time>
      </trkpt>
      <trkpt lat="46.68743" lon="-2.32878">
        <ele>17</ele>
        <time>2015-09-30T11:40:54Z</time>
      </trkpt>
      <trkpt lat="46.68742" lon="-2.3288">
        <ele>17</ele>
        <time>2015-09-30T11:40:55Z</time>
      </trkpt>
      <trkpt lat="46.6874" lon="-2.32883">
        <ele>17</ele>
        <time>2015-09-30T11:40:57Z</time>
      </trkpt>
      <trkpt lat="46.68739" lon="-2.32885">
        <ele>17</ele>
        <time>2015-09-30T11:40:59Z</time>
      </trkpt>
      <trkpt lat="46.68738" lon="-2.32887">
        <ele>17</ele>
        <time>2015-09-30T11:41:00Z</time>
      </trkpt>
      <trkpt lat="46.68737" lon="-2.32889">
        <ele>17</ele>
        <time>2015-09-30T11:41:01Z</time>
      </trkpt>
      <trkpt lat="46.68736" lon="-2.3289">
        <ele>17</ele>
        <time>2015-09-30T11:41:02Z</time>
      </trkpt>
      <trkpt lat="46.68735" lon="-2.32892">
        <ele>17</ele>
        <time>2015-09-30T11:41:03Z</time>
      </trkpt>
      <trkpt lat="46.68734" lon="-2.32894">
        <ele>17</ele>
        <time>2015-09-30T11:41:05Z</time>
      </trkpt>
      <trkpt lat="46.68733" lon="-2.32895">
        <ele>17</ele>
        <time>2015-09-30T11:41:06Z</time>
      </trkpt>
      <trkpt lat="46.68732" lon="-2.32897">
        <ele>17</ele>
        <time>2015-09-30T11:41:08Z</time>
      </trkpt>
      <trkpt lat="46.6873" lon="-2.32899">
        <ele>17</ele>
        <time>2015-09-30T11:41:10Z</time>
      </trkpt>
      <trkpt lat="46.68729" lon="-2.32902">
        <ele>17</ele>
        <time>2015-09-30T11:41:12Z</time>
      </trkpt>
      <trkpt lat="46.68727" lon="-2.32904">
        <ele>17</ele>
        <time>2015-09-30T11:41:14Z</time>
      </trkpt>
      <trkpt lat="46.68726" lon="-2.32907">
        <ele>17</ele>
        <time>2015-09-30T11:41:16Z</time>
      </trkpt>
      <trkpt lat="46.68724" lon="-2.32909">
        <ele>17</ele>
        <time>2015-09-30T11:41:18Z</time>
      </trkpt>
      <trkpt lat="46.68723" lon="-2.3291">
        <ele>17</ele>
        <time>2015-09-30T11:41:20Z</time>
      </trkpt>
      <trkpt lat="46.68722" lon="-2.32912">
        <ele>17</ele>
        <time>2015-09-30T11:41:22Z</time>
      </trkpt>
      <trkpt lat="46.6872" lon="-2.32913">
        <ele>17</ele>
        <time>2015-09-30T11:41:24Z</time>
      </trkpt>
      <trkpt lat="46.68718" lon="-2.32915">
        <ele>17</ele>
        <time>2015-09-30T11:41:26Z</time>
      </trkpt>
      <trkpt lat="46.68717" lon="-2.32916">
        <ele>17</ele>
        <time>2015-09-30T11:41:28Z</time>
      </trkpt>
      <trkpt lat="46.68715" lon="-2.32918">
        <ele>17</ele>
        <time>2015-09-30T11:41:30Z</time>
      </trkpt>
      <trkpt lat="46.68714" lon="-2.3292">
        <ele>17</ele>
        <time>2015-09-30T11:41:32Z</time>
      </trkpt>
      <trkpt lat="46.68713" lon="-2.32922">
        <ele>17</ele>
        <time>2015-09-30T11:41:34Z</time>
      </trkpt>
      <trkpt lat="46.68711" lon="-2.32924">
        <ele>17</ele>
        <time>2015-09-30T11:41:36Z</time>
      </trkpt>
      <trkpt lat="46.68711" lon="-2.32927">
        <ele>17</ele>
        <time>2015-09-30T11:41:38Z</time>
      </trkpt>
      <trkpt lat="46.6871" lon="-2.32929">
        <ele>17</ele>
        <time>2015-09-30T11:41:40Z</time>
      </trkpt>
      <trkpt lat="46.68709" lon="-2.32931">
        <ele>17</ele>
        <time>2015-09-30T11:41:42Z</time>
      </trkpt>
      <trkpt lat="46.68709" lon="-2.32933">
        <ele>17</ele>
        <time>2015-09-30T11:41:44Z</time>
      </trkpt>
      <trkpt lat="46.6871" lon="-2.32935">
        <ele>17</ele>
        <time>2015-09-30T11:41:46Z</time>
      </trkpt>
      <trkpt lat="46.6871" lon="-2.32937">
        <ele>17</ele>
        <time>2015-09-30T11:41:48Z</time>
      </trkpt>
      <trkpt lat="46.68711" lon="-2.32938">
        <ele>17</ele>
        <time>2015-09-30T11:41:53Z</time>
      </trkpt>
      <trkpt lat="46.68712" lon="-2.32939">
        <ele>17</ele>
        <time>2015-09-30T11:41:57Z</time>
      </trkpt>
      <trkpt lat="46.68713" lon="-2.32941">
        <ele>17</ele>
        <time>2015-09-30T11:41:59Z</time>
      </trkpt>
      <trkpt lat="46.68713" lon="-2.32943">
        <ele>17</ele>
        <time>2015-09-30T11:42:02Z</time>
      </trkpt>
      <trkpt lat="46.68713" lon="-2.32945">
        <ele>16</ele>
        <time>2015-09-30T11:42:14Z</time>
      </trkpt>
      <trkpt lat="46.68715" lon="-2.32945">
        <ele>13</ele>
        <time>2015-09-30T11:42:18Z</time>
      </trkpt>
      <trkpt lat="46.68715" lon="-2.32947">
        <ele>13</ele>
        <time>2015-09-30T11:42:26Z</time>
      </trkpt>
      <trkpt lat="46.68714" lon="-2.32949">
        <ele>13</ele>
        <time>2015-09-30T11:42:27Z</time>
      </trkpt>
      <trkpt lat="46.68714" lon="-2.32951">
        <ele>13</ele>
        <time>2015-09-30T11:42:28Z</time>
      </trkpt>
      <trkpt lat="46.68714" lon="-2.32953">
        <ele>13</ele>
        <time>2015-09-30T11:42:29Z</time>
      </trkpt>
      <trkpt lat="46.68715" lon="-2.32955">
        <ele>13</ele>
        <time>2015-09-30T11:42:30Z</time>
      </trkpt>
      <trkpt lat="46.68715" lon="-2.32957">
        <ele>13</ele>
        <time>2015-09-30T11:42:31Z</time>
      </trkpt>
      <trkpt lat="46.68715" lon="-2.32959">
        <ele>13</ele>
        <time>2015-09-30T11:42:32Z</time>
      </trkpt>
      <trkpt lat="46.68716" lon="-2.32961">
        <ele>13</ele>
        <time>2015-09-30T11:42:33Z</time>
      </trkpt>
      <trkpt lat="46.68716" lon="-2.32962">
        <ele>13</ele>
        <time>2015-09-30T11:42:34Z</time>
      </trkpt>
      <trkpt lat="46.68716" lon="-2.32964">
        <ele>13</ele>
        <time>2015-09-30T11:42:35Z</time>
      </trkpt>
      <trkpt lat="46.68717" lon="-2.32966">
        <ele>13</ele>
        <time>2015-09-30T11:42:36Z</time>
      </trkpt>
      <trkpt lat="46.68717" lon="-2.32968">
        <ele>13</ele>
        <time>2015-09-30T11:42:37Z</time>
      </trkpt>
      <trkpt lat="46.68717" lon="-2.32969">
        <ele>13</ele>
        <time>2015-09-30T11:42:38Z</time>
      </trkpt>
      <trkpt lat="46.68717" lon="-2.32971">
        <ele>13</ele>
        <time>2015-09-30T11:42:39Z</time>
      </trkpt>
      <trkpt lat="46.68717" lon="-2.32973">
        <ele>13</ele>
        <time>2015-09-30T11:42:40Z</time>
      </trkpt>
      <trkpt lat="46.68718" lon="-2.32975">
        <ele>13</ele>
        <time>2015-09-30T11:42:41Z</time>
      </trkpt>
      <trkpt lat="46.68718" lon="-2.32976">
        <ele>13</ele>
        <time>2015-09-30T11:42:42Z</time>
      </trkpt>
      <trkpt lat="46.68718" lon="-2.32978">
        <ele>13</ele>
        <time>2015-09-30T11:42:43Z</time>
      </trkpt>
      <trkpt lat="46.68719" lon="-2.3298">
        <ele>13</ele>
        <time>2015-09-30T11:42:44Z</time>
      </trkpt>
      <trkpt lat="46.68719" lon="-2.32981">
        <ele>13</ele>
        <time>2015-09-30T11:42:45Z</time>
      </trkpt>
      <trkpt lat="46.68719" lon="-2.32983">
        <ele>13</ele>
        <time>2015-09-30T11:42:46Z</time>
      </trkpt>
      <trkpt lat="46.68719" lon="-2.32985">
        <ele>13</ele>
        <time>2015-09-30T11:42:47Z</time>
      </trkpt>
      <trkpt lat="46.68719" lon="-2.32986">
        <ele>13</ele>
        <time>2015-09-30T11:42:48Z</time>
      </trkpt>
      <trkpt lat="46.68719" lon="-2.32988">
        <ele>13</ele>
        <time>2015-09-30T11:42:49Z</time>
      </trkpt>
      <trkpt lat="46.68719" lon="-2.3299">
        <ele>13</ele>
        <time>2015-09-30T11:42:50Z</time>
      </trkpt>
      <trkpt lat="46.68719" lon="-2.32992">
        <ele>13</ele>
        <time>2015-09-30T11:42:51Z</time>
      </trkpt>
      <trkpt lat="46.6872" lon="-2.32994">
        <ele>13</ele>
        <time>2015-09-30T11:42:52Z</time>
      </trkpt>
      <trkpt lat="46.6872" lon="-2.32995">
        <ele>13</ele>
        <time>2015-09-30T11:42:53Z</time>
      </trkpt>
      <trkpt lat="46.6872" lon="-2.32997">
        <ele>13</ele>
        <time>2015-09-30T11:42:54Z</time>
      </trkpt>
      <trkpt lat="46.6872" lon="-2.32999">
        <ele>13</ele>
        <time>2015-09-30T11:42:55Z</time>
      </trkpt>
      <trkpt lat="46.6872" lon="-2.33001">
        <ele>13</ele>
        <time>2015-09-30T11:42:56Z</time>
      </trkpt>
      <trkpt lat="46.6872" lon="-2.33003">
        <ele>13</ele>
        <time>2015-09-30T11:42:57Z</time>
      </trkpt>
      <trkpt lat="46.6872" lon="-2.33004">
        <ele>13</ele>
        <time>2015-09-30T11:42:58Z</time>
      </trkpt>
      <trkpt lat="46.6872" lon="-2.33006">
        <ele>13</ele>
        <time>2015-09-30T11:42:59Z</time>
      </trkpt>
      <trkpt lat="46.6872" lon="-2.33008">
        <ele>13</ele>
        <time>2015-09-30T11:43:00Z</time>
      </trkpt>
      <trkpt lat="46.6872" lon="-2.3301">
        <ele>13</ele>
        <time>2015-09-30T11:43:01Z</time>
      </trkpt>
      <trkpt lat="46.6872" lon="-2.33012">
        <ele>13</ele>
        <time>2015-09-30T11:43:02Z</time>
      </trkpt>
      <trkpt lat="46.6872" lon="-2.33013">
        <ele>13</ele>
        <time>2015-09-30T11:43:03Z</time>
      </trkpt>
      <trkpt lat="46.6872" lon="-2.33015">
        <ele>13</ele>
        <time>2015-09-30T11:43:04Z</time>
      </trkpt>
      <trkpt lat="46.6872" lon="-2.33017">
        <ele>13</ele>
        <time>2015-09-30T11:43:05Z</time>
      </trkpt>
      <trkpt lat="46.6872" lon="-2.33019">
        <ele>13</ele>
        <time>2015-09-30T11:43:06Z</time>
      </trkpt>
      <trkpt lat="46.68721" lon="-2.3302">
        <ele>13</ele>
        <time>2015-09-30T11:43:07Z</time>
      </trkpt>
      <trkpt lat="46.68721" lon="-2.33022">
        <ele>13</ele>
        <time>2015-09-30T11:43:08Z</time>
      </trkpt>
      <trkpt lat="46.68721" lon="-2.33024">
        <ele>13</ele>
        <time>2015-09-30T11:43:10Z</time>
      </trkpt>
      <trkpt lat="46.68722" lon="-2.33026">
        <ele>14</ele>
        <time>2015-09-30T11:43:12Z</time>
      </trkpt>
      <trkpt lat="46.68722" lon="-2.33029">
        <ele>14</ele>
        <time>2015-09-30T11:43:14Z</time>
      </trkpt>
      <trkpt lat="46.68723" lon="-2.33031">
        <ele>15</ele>
        <time>2015-09-30T11:43:16Z</time>
      </trkpt>
      <trkpt lat="46.68724" lon="-2.33033">
        <ele>15</ele>
        <time>2015-09-30T11:43:18Z</time>
      </trkpt>
      <trkpt lat="46.68724" lon="-2.33036">
        <ele>15</ele>
        <time>2015-09-30T11:43:20Z</time>
      </trkpt>
      <trkpt lat="46.68724" lon="-2.33038">
        <ele>15</ele>
        <time>2015-09-30T11:43:22Z</time>
      </trkpt>
      <trkpt lat="46.68725" lon="-2.3304">
        <ele>15</ele>
        <time>2015-09-30T11:43:24Z</time>
      </trkpt>
      <trkpt lat="46.68725" lon="-2.33042">
        <ele>15</ele>
        <time>2015-09-30T11:43:25Z</time>
      </trkpt>
      <trkpt lat="46.68725" lon="-2.33043">
        <ele>15</ele>
        <time>2015-09-30T11:43:26Z</time>
      </trkpt>
      <trkpt lat="46.68725" lon="-2.33046">
        <ele>15</ele>
        <time>2015-09-30T11:43:28Z</time>
      </trkpt>
      <trkpt lat="46.68725" lon="-2.33048">
        <ele>15</ele>
        <time>2015-09-30T11:43:30Z</time>
      </trkpt>
      <trkpt lat="46.68726" lon="-2.3305">
        <ele>15</ele>
        <time>2015-09-30T11:43:32Z</time>
      </trkpt>
      <trkpt lat="46.68727" lon="-2.33053">
        <ele>15</ele>
        <time>2015-09-30T11:43:34Z</time>
      </trkpt>
      <trkpt lat="46.68727" lon="-2.33054">
        <ele>15</ele>
        <time>2015-09-30T11:43:35Z</time>
      </trkpt>
      <trkpt lat="46.68728" lon="-2.33056">
        <ele>15</ele>
        <time>2015-09-30T11:43:37Z</time>
      </trkpt>
      <trkpt lat="46.68728" lon="-2.33059">
        <ele>15</ele>
        <time>2015-09-30T11:43:39Z</time>
      </trkpt>
      <trkpt lat="46.68727" lon="-2.33061">
        <ele>15</ele>
        <time>2015-09-30T11:43:40Z</time>
      </trkpt>
      <trkpt lat="46.68727" lon="-2.33062">
        <ele>15</ele>
        <time>2015-09-30T11:43:42Z</time>
      </trkpt>
      <trkpt lat="46.68726" lon="-2.33064">
        <ele>15</ele>
        <time>2015-09-30T11:43:45Z</time>
      </trkpt>
      <trkpt lat="46.68726" lon="-2.33066">
        <ele>15</ele>
        <time>2015-09-30T11:43:47Z</time>
      </trkpt>
      <trkpt lat="46.68727" lon="-2.33068">
        <ele>15</ele>
        <time>2015-09-30T11:43:49Z</time>
      </trkpt>
      <trkpt lat="46.68728" lon="-2.3307">
        <ele>15</ele>
        <time>2015-09-30T11:43:51Z</time>
      </trkpt>
      <trkpt lat="46.68728" lon="-2.33072">
        <ele>15</ele>
        <time>2015-09-30T11:43:53Z</time>
      </trkpt>
      <trkpt lat="46.68728" lon="-2.33074">
        <ele>15</ele>
        <time>2015-09-30T11:43:55Z</time>
      </trkpt>
      <trkpt lat="46.68729" lon="-2.33076">
        <ele>15</ele>
        <time>2015-09-30T11:43:57Z</time>
      </trkpt>
      <trkpt lat="46.68729" lon="-2.33078">
        <ele>15</ele>
        <time>2015-09-30T11:43:59Z</time>
      </trkpt>
      <trkpt lat="46.68729" lon="-2.3308">
        <ele>15</ele>
        <time>2015-09-30T11:44:01Z</time>
      </trkpt>
      <trkpt lat="46.68729" lon="-2.33082">
        <ele>15</ele>
        <time>2015-09-30T11:44:03Z</time>
      </trkpt>
      <trkpt lat="46.6873" lon="-2.33081">
        <ele>15</ele>
        <time>2015-09-30T11:44:10Z</time>
      </trkpt>
      <trkpt lat="46.68729" lon="-2.33083">
        <ele>14</ele>
        <time>2015-09-30T11:44:17Z</time>
      </trkpt>
      <trkpt lat="46.68728" lon="-2.33086">
        <ele>14</ele>
        <time>2015-09-30T11:44:19Z</time>
      </trkpt>
      <trkpt lat="46.68727" lon="-2.33088">
        <ele>13</ele>
        <time>2015-09-30T11:44:20Z</time>
      </trkpt>
      <trkpt lat="46.68726" lon="-2.3309">
        <ele>13</ele>
        <time>2015-09-30T11:44:21Z</time>
      </trkpt>
      <trkpt lat="46.68725" lon="-2.33091">
        <ele>12</ele>
        <time>2015-09-30T11:44:22Z</time>
      </trkpt>
      <trkpt lat="46.68724" lon="-2.33093">
        <ele>12</ele>
        <time>2015-09-30T11:44:23Z</time>
      </trkpt>
      <trkpt lat="46.68723" lon="-2.33096">
        <ele>11</ele>
        <time>2015-09-30T11:44:25Z</time>
      </trkpt>
      <trkpt lat="46.68721" lon="-2.33097">
        <ele>11</ele>
        <time>2015-09-30T11:44:26Z</time>
      </trkpt>
      <trkpt lat="46.6872" lon="-2.33099">
        <ele>11</ele>
        <time>2015-09-30T11:44:27Z</time>
      </trkpt>
      <trkpt lat="46.68719" lon="-2.33101">
        <ele>10</ele>
        <time>2015-09-30T11:44:28Z</time>
      </trkpt>
      <trkpt lat="46.68718" lon="-2.33102">
        <ele>10</ele>
        <time>2015-09-30T11:44:29Z</time>
      </trkpt>
      <trkpt lat="46.68717" lon="-2.33104">
        <ele>10</ele>
        <time>2015-09-30T11:44:30Z</time>
      </trkpt>
      <trkpt lat="46.68716" lon="-2.33105">
        <ele>9</ele>
        <time>2015-09-30T11:44:31Z</time>
      </trkpt>
      <trkpt lat="46.68715" lon="-2.33107">
        <ele>9</ele>
        <time>2015-09-30T11:44:32Z</time>
      </trkpt>
      <trkpt lat="46.68714" lon="-2.33109">
        <ele>9</ele>
        <time>2015-09-30T11:44:33Z</time>
      </trkpt>
      <trkpt lat="46.68713" lon="-2.3311">
        <ele>9</ele>
        <time>2015-09-30T11:44:34Z</time>
      </trkpt>
      <trkpt lat="46.68712" lon="-2.33112">
        <ele>9</ele>
        <time>2015-09-30T11:44:35Z</time>
      </trkpt>
      <trkpt lat="46.68711" lon="-2.33114">
        <ele>9</ele>
        <time>2015-09-30T11:44:36Z</time>
      </trkpt>
      <trkpt lat="46.68711" lon="-2.33116">
        <ele>9</ele>
        <time>2015-09-30T11:44:37Z</time>
      </trkpt>
      <trkpt lat="46.6871" lon="-2.33117">
        <ele>8</ele>
        <time>2015-09-30T11:44:38Z</time>
      </trkpt>
      <trkpt lat="46.68709" lon="-2.33119">
        <ele>8</ele>
        <time>2015-09-30T11:44:39Z</time>
      </trkpt>
      <trkpt lat="46.68709" lon="-2.33121">
        <ele>8</ele>
        <time>2015-09-30T11:44:40Z</time>
      </trkpt>
      <trkpt lat="46.68709" lon="-2.33123">
        <ele>8</ele>
        <time>2015-09-30T11:44:41Z</time>
      </trkpt>
      <trkpt lat="46.68709" lon="-2.33125">
        <ele>7</ele>
        <time>2015-09-30T11:44:42Z</time>
      </trkpt>
      <trkpt lat="46.68709" lon="-2.33127">
        <ele>7</ele>
        <time>2015-09-30T11:44:43Z</time>
      </trkpt>
      <trkpt lat="46.68709" lon="-2.33129">
        <ele>7</ele>
        <time>2015-09-30T11:44:44Z</time>
      </trkpt>
      <trkpt lat="46.68708" lon="-2.33132">
        <ele>7</ele>
        <time>2015-09-30T11:44:46Z</time>
      </trkpt>
      <trkpt lat="46.68708" lon="-2.33133">
        <ele>7</ele>
        <time>2015-09-30T11:44:47Z</time>
      </trkpt>
      <trkpt lat="46.68708" lon="-2.33135">
        <ele>7</ele>
        <time>2015-09-30T11:44:48Z</time>
      </trkpt>
      <trkpt lat="46.68707" lon="-2.33137">
        <ele>7</ele>
        <time>2015-09-30T11:44:50Z</time>
      </trkpt>
      <trkpt lat="46.68706" lon="-2.33139">
        <ele>7</ele>
        <time>2015-09-30T11:44:52Z</time>
      </trkpt>
      <trkpt lat="46.68704" lon="-2.3314">
        <ele>7</ele>
        <time>2015-09-30T11:44:54Z</time>
      </trkpt>
      <trkpt lat="46.68703" lon="-2.33142">
        <ele>7</ele>
        <time>2015-09-30T11:44:55Z</time>
      </trkpt>
      <trkpt lat="46.68701" lon="-2.33143">
        <ele>7</ele>
        <time>2015-09-30T11:44:57Z</time>
      </trkpt>
      <trkpt lat="46.68699" lon="-2.33145">
        <ele>7</ele>
        <time>2015-09-30T11:44:59Z</time>
      </trkpt>
      <trkpt lat="46.68698" lon="-2.33147">
        <ele>7</ele>
        <time>2015-09-30T11:45:01Z</time>
      </trkpt>
      <trkpt lat="46.68696" lon="-2.33149">
        <ele>7</ele>
        <time>2015-09-30T11:45:03Z</time>
      </trkpt>
      <trkpt lat="46.68695" lon="-2.33151">
        <ele>8</ele>
        <time>2015-09-30T11:45:05Z</time>
      </trkpt>
      <trkpt lat="46.68694" lon="-2.33153">
        <ele>8</ele>
        <time>2015-09-30T11:45:07Z</time>
      </trkpt>
      <trkpt lat="46.68693" lon="-2.33155">
        <ele>9</ele>
        <time>2015-09-30T11:45:09Z</time>
      </trkpt>
      <trkpt lat="46.68692" lon="-2.33157">
        <ele>9</ele>
        <time>2015-09-30T11:45:11Z</time>
      </trkpt>
      <trkpt lat="46.68691" lon="-2.3316">
        <ele>9</ele>
        <time>2015-09-30T11:45:13Z</time>
      </trkpt>
      <trkpt lat="46.6869" lon="-2.33162">
        <ele>9</ele>
        <time>2015-09-30T11:45:15Z</time>
      </trkpt>
      <trkpt lat="46.68689" lon="-2.33165">
        <ele>9</ele>
        <time>2015-09-30T11:45:17Z</time>
      </trkpt>
      <trkpt lat="46.68688" lon="-2.33167">
        <ele>9</ele>
        <time>2015-09-30T11:45:19Z</time>
      </trkpt>
      <trkpt lat="46.68687" lon="-2.33169">
        <ele>9</ele>
        <time>2015-09-30T11:45:21Z</time>
      </trkpt>
      <trkpt lat="46.68687" lon="-2.33171">
        <ele>9</ele>
        <time>2015-09-30T11:45:34Z</time>
      </trkpt>
      <trkpt lat="46.68687" lon="-2.33173">
        <ele>9</ele>
        <time>2015-09-30T11:45:36Z</time>
      </trkpt>
      <trkpt lat="46.68687" lon="-2.33175">
        <ele>9</ele>
        <time>2015-09-30T11:45:38Z</time>
      </trkpt>
      <trkpt lat="46.68687" lon="-2.33177">
        <ele>9</ele>
        <time>2015-09-30T11:45:40Z</time>
      </trkpt>
      <trkpt lat="46.68687" lon="-2.3318">
        <ele>9</ele>
        <time>2015-09-30T11:45:42Z</time>
      </trkpt>
      <trkpt lat="46.68687" lon="-2.33182">
        <ele>9</ele>
        <time>2015-09-30T11:45:44Z</time>
      </trkpt>
      <trkpt lat="46.68688" lon="-2.33184">
        <ele>9</ele>
        <time>2015-09-30T11:45:46Z</time>
      </trkpt>
      <trkpt lat="46.68689" lon="-2.33184">
        <ele>9</ele>
        <time>2015-09-30T11:45:59Z</time>
      </trkpt>
      <trkpt lat="46.68689" lon="-2.33187">
        <ele>11</ele>
        <time>2015-09-30T11:46:15Z</time>
      </trkpt>
      <trkpt lat="46.68689" lon="-2.33189">
        <ele>11</ele>
        <time>2015-09-30T11:46:16Z</time>
      </trkpt>
      <trkpt lat="46.6869" lon="-2.33191">
        <ele>11</ele>
        <time>2015-09-30T11:46:17Z</time>
      </trkpt>
      <trkpt lat="46.6869" lon="-2.33193">
        <ele>11</ele>
        <time>2015-09-30T11:46:18Z</time>
      </trkpt>
      <trkpt lat="46.6869" lon="-2.33194">
        <ele>11</ele>
        <time>2015-09-30T11:46:19Z</time>
      </trkpt>
      <trkpt lat="46.68691" lon="-2.33196">
        <ele>11</ele>
        <time>2015-09-30T11:46:20Z</time>
      </trkpt>
      <trkpt lat="46.68691" lon="-2.33198">
        <ele>11</ele>
        <time>2015-09-30T11:46:21Z</time>
      </trkpt>
      <trkpt lat="46.68691" lon="-2.33199">
        <ele>11</ele>
        <time>2015-09-30T11:46:22Z</time>
      </trkpt>
      <trkpt lat="46.68691" lon="-2.33201">
        <ele>11</ele>
        <time>2015-09-30T11:46:23Z</time>
      </trkpt>
      <trkpt lat="46.68691" lon="-2.33202">
        <ele>12</ele>
        <time>2015-09-30T11:46:24Z</time>
      </trkpt>
      <trkpt lat="46.68692" lon="-2.33204">
        <ele>12</ele>
        <time>2015-09-30T11:46:25Z</time>
      </trkpt>
      <trkpt lat="46.68692" lon="-2.33206">
        <ele>12</ele>
        <time>2015-09-30T11:46:26Z</time>
      </trkpt>
      <trkpt lat="46.68693" lon="-2.33208">
        <ele>12</ele>
        <time>2015-09-30T11:46:28Z</time>
      </trkpt>
      <trkpt lat="46.68693" lon="-2.33211">
        <ele>12</ele>
        <time>2015-09-30T11:46:30Z</time>
      </trkpt>
      <trkpt lat="46.68692" lon="-2.33213">
        <ele>12</ele>
        <time>2015-09-30T11:46:31Z</time>
      </trkpt>
      <trkpt lat="46.68692" lon="-2.33214">
        <ele>12</ele>
        <time>2015-09-30T11:46:32Z</time>
      </trkpt>
      <trkpt lat="46.68692" lon="-2.33216">
        <ele>12</ele>
        <time>2015-09-30T11:46:33Z</time>
      </trkpt>
      <trkpt lat="46.68692" lon="-2.33218">
        <ele>12</ele>
        <time>2015-09-30T11:46:34Z</time>
      </trkpt>
      <trkpt lat="46.68692" lon="-2.33219">
        <ele>12</ele>
        <time>2015-09-30T11:46:35Z</time>
      </trkpt>
      <trkpt lat="46.68693" lon="-2.33222">
        <ele>12</ele>
        <time>2015-09-30T11:46:37Z</time>
      </trkpt>
      <trkpt lat="46.68693" lon="-2.33223">
        <ele>12</ele>
        <time>2015-09-30T11:46:41Z</time>
      </trkpt>
      <trkpt lat="46.68692" lon="-2.33223">
        <ele>12</ele>
        <time>2015-09-30T11:46:48Z</time>
      </trkpt>
      <trkpt lat="46.6869" lon="-2.33223">
        <ele>12</ele>
        <time>2015-09-30T11:46:53Z</time>
      </trkpt>
      <trkpt lat="46.68692" lon="-2.33221">
        <ele>12</ele>
        <time>2015-09-30T11:47:00Z</time>
      </trkpt>
      <trkpt lat="46.68694" lon="-2.3322">
        <ele>12</ele>
        <time>2015-09-30T11:47:02Z</time>
      </trkpt>
      <trkpt lat="46.68696" lon="-2.33219">
        <ele>12</ele>
        <time>2015-09-30T11:47:03Z</time>
      </trkpt>
      <trkpt lat="46.68698" lon="-2.33218">
        <ele>12</ele>
        <time>2015-09-30T11:47:05Z</time>
      </trkpt>
      <trkpt lat="46.68699" lon="-2.33217">
        <ele>12</ele>
        <time>2015-09-30T11:47:06Z</time>
      </trkpt>
      <trkpt lat="46.687" lon="-2.33217">
        <ele>12</ele>
        <time>2015-09-30T11:47:07Z</time>
      </trkpt>
      <trkpt lat="46.68703" lon="-2.33217">
        <ele>12</ele>
        <time>2015-09-30T11:47:09Z</time>
      </trkpt>
      <trkpt lat="46.68704" lon="-2.33216">
        <ele>12</ele>
        <time>2015-09-30T11:47:10Z</time>
      </trkpt>
      <trkpt lat="46.68706" lon="-2.33216">
        <ele>12</ele>
        <time>2015-09-30T11:47:12Z</time>
      </trkpt>
      <trkpt lat="46.68707" lon="-2.33215">
        <ele>12</ele>
        <time>2015-09-30T11:47:13Z</time>
      </trkpt>
      <trkpt lat="46.68708" lon="-2.33215">
        <ele>12</ele>
        <time>2015-09-30T11:47:14Z</time>
      </trkpt>
      <trkpt lat="46.68709" lon="-2.33214">
        <ele>12</ele>
        <time>2015-09-30T11:47:15Z</time>
      </trkpt>
      <trkpt lat="46.6871" lon="-2.33213">
        <ele>12</ele>
        <time>2015-09-30T11:47:16Z</time>
      </trkpt>
      <trkpt lat="46.68712" lon="-2.33211">
        <ele>12</ele>
        <time>2015-09-30T11:47:18Z</time>
      </trkpt>
      <trkpt lat="46.68714" lon="-2.33209">
        <ele>12</ele>
        <time>2015-09-30T11:47:20Z</time>
      </trkpt>
      <trkpt lat="46.68715" lon="-2.33207">
        <ele>12</ele>
        <time>2015-09-30T11:47:22Z</time>
      </trkpt>
      <trkpt lat="46.68717" lon="-2.33205">
        <ele>12</ele>
        <time>2015-09-30T11:47:24Z</time>
      </trkpt>
      <trkpt lat="46.68719" lon="-2.33203">
        <ele>12</ele>
        <time>2015-09-30T11:47:26Z</time>
      </trkpt>
      <trkpt lat="46.6872" lon="-2.332">
        <ele>12</ele>
        <time>2015-09-30T11:47:28Z</time>
      </trkpt>
      <trkpt lat="46.68721" lon="-2.33199">
        <ele>12</ele>
        <time>2015-09-30T11:47:30Z</time>
      </trkpt>
      <trkpt lat="46.68722" lon="-2.33198">
        <ele>12</ele>
        <time>2015-09-30T11:47:32Z</time>
      </trkpt>
      <trkpt lat="46.68724" lon="-2.33197">
        <ele>12</ele>
        <time>2015-09-30T11:47:34Z</time>
      </trkpt>
      <trkpt lat="46.68726" lon="-2.33196">
        <ele>12</ele>
        <time>2015-09-30T11:47:36Z</time>
      </trkpt>
      <trkpt lat="46.68728" lon="-2.33196">
        <ele>12</ele>
        <time>2015-09-30T11:47:37Z</time>
      </trkpt>
      <trkpt lat="46.6873" lon="-2.33196">
        <ele>12</ele>
        <time>2015-09-30T11:47:38Z</time>
      </trkpt>
      <trkpt lat="46.68732" lon="-2.33196">
        <ele>12</ele>
        <time>2015-09-30T11:47:39Z</time>
      </trkpt>
      <trkpt lat="46.68733" lon="-2.33197">
        <ele>12</ele>
        <time>2015-09-30T11:47:40Z</time>
      </trkpt>
      <trkpt lat="46.68735" lon="-2.33198">
        <ele>12</ele>
        <time>2015-09-30T11:47:41Z</time>
      </trkpt>
      <trkpt lat="46.68736" lon="-2.33198">
        <ele>12</ele>
        <time>2015-09-30T11:47:42Z</time>
      </trkpt>
      <trkpt lat="46.68738" lon="-2.33199">
        <ele>12</ele>
        <time>2015-09-30T11:47:43Z</time>
      </trkpt>
      <trkpt lat="46.68739" lon="-2.33199">
        <ele>12</ele>
        <time>2015-09-30T11:47:44Z</time>
      </trkpt>
      <trkpt lat="46.6874" lon="-2.332">
        <ele>12</ele>
        <time>2015-09-30T11:47:45Z</time>
      </trkpt>
      <trkpt lat="46.68742" lon="-2.332">
        <ele>12</ele>
        <time>2015-09-30T11:47:46Z</time>
      </trkpt>
      <trkpt lat="46.68743" lon="-2.332">
        <ele>12</ele>
        <time>2015-09-30T11:47:47Z</time>
      </trkpt>
      <trkpt lat="46.68745" lon="-2.33201">
        <ele>12</ele>
        <time>2015-09-30T11:47:48Z</time>
      </trkpt>
      <trkpt lat="46.68746" lon="-2.33201">
        <ele>12</ele>
        <time>2015-09-30T11:47:49Z</time>
      </trkpt>
      <trkpt lat="46.68747" lon="-2.33201">
        <ele>12</ele>
        <time>2015-09-30T11:47:50Z</time>
      </trkpt>
      <trkpt lat="46.68748" lon="-2.33201">
        <ele>12</ele>
        <time>2015-09-30T11:47:51Z</time>
      </trkpt>
      <trkpt lat="46.6875" lon="-2.33201">
        <ele>12</ele>
        <time>2015-09-30T11:47:52Z</time>
      </trkpt>
      <trkpt lat="46.68751" lon="-2.33201">
        <ele>12</ele>
        <time>2015-09-30T11:47:53Z</time>
      </trkpt>
      <trkpt lat="46.68753" lon="-2.33201">
        <ele>12</ele>
        <time>2015-09-30T11:47:54Z</time>
      </trkpt>
      <trkpt lat="46.68754" lon="-2.33201">
        <ele>12</ele>
        <time>2015-09-30T11:47:55Z</time>
      </trkpt>
      <trkpt lat="46.68756" lon="-2.33201">
        <ele>12</ele>
        <time>2015-09-30T11:47:56Z</time>
      </trkpt>
      <trkpt lat="46.68757" lon="-2.33201">
        <ele>12</ele>
        <time>2015-09-30T11:47:57Z</time>
      </trkpt>
      <trkpt lat="46.68758" lon="-2.33201">
        <ele>12</ele>
        <time>2015-09-30T11:47:58Z</time>
      </trkpt>
      <trkpt lat="46.6876" lon="-2.33201">
        <ele>12</ele>
        <time>2015-09-30T11:47:59Z</time>
      </trkpt>
      <trkpt lat="46.68761" lon="-2.332">
        <ele>12</ele>
        <time>2015-09-30T11:48:00Z</time>
      </trkpt>
      <trkpt lat="46.68762" lon="-2.332">
        <ele>12</ele>
        <time>2015-09-30T11:48:01Z</time>
      </trkpt>
      <trkpt lat="46.68763" lon="-2.33199">
        <ele>12</ele>
        <time>2015-09-30T11:48:02Z</time>
      </trkpt>
      <trkpt lat="46.68765" lon="-2.33199">
        <ele>12</ele>
        <time>2015-09-30T11:48:03Z</time>
      </trkpt>
      <trkpt lat="46.68766" lon="-2.33198">
        <ele>12</ele>
        <time>2015-09-30T11:48:04Z</time>
      </trkpt>
      <trkpt lat="46.68767" lon="-2.33197">
        <ele>12</ele>
        <time>2015-09-30T11:48:05Z</time>
      </trkpt>
      <trkpt lat="46.68769" lon="-2.33197">
        <ele>12</ele>
        <time>2015-09-30T11:48:06Z</time>
      </trkpt>
      <trkpt lat="46.6877" lon="-2.33197">
        <ele>12</ele>
        <time>2015-09-30T11:48:07Z</time>
      </trkpt>
      <trkpt lat="46.68771" lon="-2.33196">
        <ele>12</ele>
        <time>2015-09-30T11:48:08Z</time>
      </trkpt>
      <trkpt lat="46.68773" lon="-2.33196">
        <ele>12</ele>
        <time>2015-09-30T11:48:09Z</time>
      </trkpt>
      <trkpt lat="46.68774" lon="-2.33196">
        <ele>12</ele>
        <time>2015-09-30T11:48:10Z</time>
      </trkpt>
      <trkpt lat="46.68775" lon="-2.33196">
        <ele>12</ele>
        <time>2015-09-30T11:48:11Z</time>
      </trkpt>
      <trkpt lat="46.68776" lon="-2.33195">
        <ele>12</ele>
        <time>2015-09-30T11:48:12Z</time>
      </trkpt>
      <trkpt lat="46.68778" lon="-2.33195">
        <ele>12</ele>
        <time>2015-09-30T11:48:13Z</time>
      </trkpt>
      <trkpt lat="46.68779" lon="-2.33195">
        <ele>12</ele>
        <time>2015-09-30T11:48:14Z</time>
      </trkpt>
      <trkpt lat="46.6878" lon="-2.33195">
        <ele>12</ele>
        <time>2015-09-30T11:48:15Z</time>
      </trkpt>
      <trkpt lat="46.68781" lon="-2.33194">
        <ele>12</ele>
        <time>2015-09-30T11:48:16Z</time>
      </trkpt>
      <trkpt lat="46.68783" lon="-2.33194">
        <ele>12</ele>
        <time>2015-09-30T11:48:17Z</time>
      </trkpt>
      <trkpt lat="46.68784" lon="-2.33194">
        <ele>12</ele>
        <time>2015-09-30T11:48:18Z</time>
      </trkpt>
      <trkpt lat="46.68785" lon="-2.33194">
        <ele>12</ele>
        <time>2015-09-30T11:48:19Z</time>
      </trkpt>
      <trkpt lat="46.68786" lon="-2.33194">
        <ele>12</ele>
        <time>2015-09-30T11:48:20Z</time>
      </trkpt>
      <trkpt lat="46.68788" lon="-2.33193">
        <ele>12</ele>
        <time>2015-09-30T11:48:21Z</time>
      </trkpt>
      <trkpt lat="46.68789" lon="-2.33193">
        <ele>12</ele>
        <time>2015-09-30T11:48:22Z</time>
      </trkpt>
      <trkpt lat="46.6879" lon="-2.33193">
        <ele>12</ele>
        <time>2015-09-30T11:48:23Z</time>
      </trkpt>
      <trkpt lat="46.68791" lon="-2.33192">
        <ele>12</ele>
        <time>2015-09-30T11:48:24Z</time>
      </trkpt>
      <trkpt lat="46.68792" lon="-2.33192">
        <ele>12</ele>
        <time>2015-09-30T11:48:25Z</time>
      </trkpt>
      <trkpt lat="46.68794" lon="-2.33192">
        <ele>12</ele>
        <time>2015-09-30T11:48:26Z</time>
      </trkpt>
      <trkpt lat="46.68795" lon="-2.33191">
        <ele>12</ele>
        <time>2015-09-30T11:48:27Z</time>
      </trkpt>
      <trkpt lat="46.68796" lon="-2.33191">
        <ele>12</ele>
        <time>2015-09-30T11:48:28Z</time>
      </trkpt>
      <trkpt lat="46.68797" lon="-2.33191">
        <ele>12</ele>
        <time>2015-09-30T11:48:29Z</time>
      </trkpt>
      <trkpt lat="46.68798" lon="-2.3319">
        <ele>12</ele>
        <time>2015-09-30T11:48:30Z</time>
      </trkpt>
      <trkpt lat="46.688" lon="-2.33189">
        <ele>12</ele>
        <time>2015-09-30T11:48:31Z</time>
      </trkpt>
      <trkpt lat="46.68801" lon="-2.33188">
        <ele>12</ele>
        <time>2015-09-30T11:48:32Z</time>
      </trkpt>
      <trkpt lat="46.68803" lon="-2.33186">
        <ele>12</ele>
        <time>2015-09-30T11:48:34Z</time>
      </trkpt>
      <trkpt lat="46.68804" lon="-2.33185">
        <ele>12</ele>
        <time>2015-09-30T11:48:35Z</time>
      </trkpt>
      <trkpt lat="46.68805" lon="-2.33185">
        <ele>12</ele>
        <time>2015-09-30T11:48:36Z</time>
      </trkpt>
      <trkpt lat="46.68806" lon="-2.33184">
        <ele>12</ele>
        <time>2015-09-30T11:48:37Z</time>
      </trkpt>
      <trkpt lat="46.68808" lon="-2.33183">
        <ele>12</ele>
        <time>2015-09-30T11:48:38Z</time>
      </trkpt>
      <trkpt lat="46.6881" lon="-2.33182">
        <ele>12</ele>
        <time>2015-09-30T11:48:40Z</time>
      </trkpt>
      <trkpt lat="46.68811" lon="-2.33181">
        <ele>12</ele>
        <time>2015-09-30T11:48:41Z</time>
      </trkpt>
      <trkpt lat="46.68812" lon="-2.33181">
        <ele>12</ele>
        <time>2015-09-30T11:48:42Z</time>
      </trkpt>
      <trkpt lat="46.68813" lon="-2.3318">
        <ele>12</ele>
        <time>2015-09-30T11:48:43Z</time>
      </trkpt>
      <trkpt lat="46.68814" lon="-2.33179">
        <ele>12</ele>
        <time>2015-09-30T11:48:44Z</time>
      </trkpt>
      <trkpt lat="46.68816" lon="-2.33178">
        <ele>12</ele>
        <time>2015-09-30T11:48:45Z</time>
      </trkpt>
      <trkpt lat="46.68817" lon="-2.33178">
        <ele>12</ele>
        <time>2015-09-30T11:48:46Z</time>
      </trkpt>
      <trkpt lat="46.68818" lon="-2.33177">
        <ele>12</ele>
        <time>2015-09-30T11:48:47Z</time>
      </trkpt>
      <trkpt lat="46.68819" lon="-2.33177">
        <ele>12</ele>
        <time>2015-09-30T11:48:48Z</time>
      </trkpt>
      <trkpt lat="46.68821" lon="-2.33177">
        <ele>12</ele>
        <time>2015-09-30T11:48:49Z</time>
      </trkpt>
      <trkpt lat="46.68823" lon="-2.33176">
        <ele>12</ele>
        <time>2015-09-30T11:48:51Z</time>
      </trkpt>
      <trkpt lat="46.68824" lon="-2.33175">
        <ele>12</ele>
        <time>2015-09-30T11:48:53Z</time>
      </trkpt>
      <trkpt lat="46.68826" lon="-2.33174">
        <ele>12</ele>
        <time>2015-09-30T11:48:55Z</time>
      </trkpt>
      <trkpt lat="46.68828" lon="-2.33173">
        <ele>12</ele>
        <time>2015-09-30T11:48:57Z</time>
      </trkpt>
      <trkpt lat="46.6883" lon="-2.33173">
        <ele>12</ele>
        <time>2015-09-30T11:48:59Z</time>
      </trkpt>
      <trkpt lat="46.68832" lon="-2.33173">
        <ele>12</ele>
        <time>2015-09-30T11:49:01Z</time>
      </trkpt>
      <trkpt lat="46.68834" lon="-2.33173">
        <ele>12</ele>
        <time>2015-09-30T11:49:03Z</time>
      </trkpt>
      <trkpt lat="46.68836" lon="-2.33173">
        <ele>12</ele>
        <time>2015-09-30T11:49:05Z</time>
      </trkpt>
      <trkpt lat="46.68838" lon="-2.33172">
        <ele>12</ele>
        <time>2015-09-30T11:49:07Z</time>
      </trkpt>
      <trkpt lat="46.68839" lon="-2.33172">
        <ele>12</ele>
        <time>2015-09-30T11:49:09Z</time>
      </trkpt>
      <trkpt lat="46.68841" lon="-2.33171">
        <ele>12</ele>
        <time>2015-09-30T11:49:11Z</time>
      </trkpt>
      <trkpt lat="46.68843" lon="-2.33169">
        <ele>12</ele>
        <time>2015-09-30T11:49:13Z</time>
      </trkpt>
      <trkpt lat="46.68845" lon="-2.33169">
        <ele>12</ele>
        <time>2015-09-30T11:49:15Z</time>
      </trkpt>
      <trkpt lat="46.68846" lon="-2.33169">
        <ele>12</ele>
        <time>2015-09-30T11:49:16Z</time>
      </trkpt>
      <trkpt lat="46.68847" lon="-2.3317">
        <ele>12</ele>
        <time>2015-09-30T11:49:17Z</time>
      </trkpt>
      <trkpt lat="46.68849" lon="-2.33171">
        <ele>12</ele>
        <time>2015-09-30T11:49:19Z</time>
      </trkpt>
      <trkpt lat="46.6885" lon="-2.33172">
        <ele>12</ele>
        <time>2015-09-30T11:49:20Z</time>
      </trkpt>
      <trkpt lat="46.68852" lon="-2.33171">
        <ele>12</ele>
        <time>2015-09-30T11:49:22Z</time>
      </trkpt>
      <trkpt lat="46.68854" lon="-2.33169">
        <ele>12</ele>
        <time>2015-09-30T11:49:24Z</time>
      </trkpt>
      <trkpt lat="46.68854" lon="-2.33168">
        <ele>12</ele>
        <time>2015-09-30T11:49:25Z</time>
      </trkpt>
      <trkpt lat="46.68854" lon="-2.33166">
        <ele>12</ele>
        <time>2015-09-30T11:49:26Z</time>
      </trkpt>
      <trkpt lat="46.68855" lon="-2.33164">
        <ele>12</ele>
        <time>2015-09-30T11:49:27Z</time>
      </trkpt>
      <trkpt lat="46.68855" lon="-2.33162">
        <ele>12</ele>
        <time>2015-09-30T11:49:28Z</time>
      </trkpt>
      <trkpt lat="46.68855" lon="-2.33161">
        <ele>12</ele>
        <time>2015-09-30T11:49:29Z</time>
      </trkpt>
      <trkpt lat="46.68856" lon="-2.33159">
        <ele>12</ele>
        <time>2015-09-30T11:49:30Z</time>
      </trkpt>
      <trkpt lat="46.68857" lon="-2.33156">
        <ele>12</ele>
        <time>2015-09-30T11:49:32Z</time>
      </trkpt>
      <trkpt lat="46.68859" lon="-2.33154">
        <ele>12</ele>
        <time>2015-09-30T11:49:34Z</time>
      </trkpt>
      <trkpt lat="46.68861" lon="-2.33151">
        <ele>12</ele>
        <time>2015-09-30T11:49:36Z</time>
      </trkpt>
      <trkpt lat="46.68862" lon="-2.33149">
        <ele>12</ele>
        <time>2015-09-30T11:49:37Z</time>
      </trkpt>
      <trkpt lat="46.68864" lon="-2.33148">
        <ele>12</ele>
        <time>2015-09-30T11:49:39Z</time>
      </trkpt>
      <trkpt lat="46.68865" lon="-2.33148">
        <ele>12</ele>
        <time>2015-09-30T11:49:40Z</time>
      </trkpt>
      <trkpt lat="46.68867" lon="-2.33151">
        <ele>12</ele>
        <time>2015-09-30T11:49:42Z</time>
      </trkpt>
      <trkpt lat="46.68868" lon="-2.33153">
        <ele>12</ele>
        <time>2015-09-30T11:49:43Z</time>
      </trkpt>
      <trkpt lat="46.68869" lon="-2.33154">
        <ele>12</ele>
        <time>2015-09-30T11:49:44Z</time>
      </trkpt>
      <trkpt lat="46.68871" lon="-2.33157">
        <ele>12</ele>
        <time>2015-09-30T11:49:46Z</time>
      </trkpt>
      <trkpt lat="46.68872" lon="-2.33157">
        <ele>12</ele>
        <time>2015-09-30T11:49:47Z</time>
      </trkpt>
      <trkpt lat="46.68873" lon="-2.33158">
        <ele>12</ele>
        <time>2015-09-30T11:49:48Z</time>
      </trkpt>
      <trkpt lat="46.68874" lon="-2.33159">
        <ele>12</ele>
        <time>2015-09-30T11:49:49Z</time>
      </trkpt>
      <trkpt lat="46.68875" lon="-2.3316">
        <ele>12</ele>
        <time>2015-09-30T11:49:50Z</time>
      </trkpt>
      <trkpt lat="46.68877" lon="-2.33161">
        <ele>12</ele>
        <time>2015-09-30T11:49:52Z</time>
      </trkpt>
      <trkpt lat="46.68879" lon="-2.33164">
        <ele>12</ele>
        <time>2015-09-30T11:49:54Z</time>
      </trkpt>
      <trkpt lat="46.68881" lon="-2.33166">
        <ele>12</ele>
        <time>2015-09-30T11:49:56Z</time>
      </trkpt>
      <trkpt lat="46.68882" lon="-2.33167">
        <ele>12</ele>
        <time>2015-09-30T11:49:57Z</time>
      </trkpt>
      <trkpt lat="46.68883" lon="-2.33168">
        <ele>12</ele>
        <time>2015-09-30T11:49:58Z</time>
      </trkpt>
      <trkpt lat="46.68885" lon="-2.3317">
        <ele>12</ele>
        <time>2015-09-30T11:50:00Z</time>
      </trkpt>
      <trkpt lat="46.68886" lon="-2.33172">
        <ele>12</ele>
        <time>2015-09-30T11:50:02Z</time>
      </trkpt>
      <trkpt lat="46.68887" lon="-2.33174">
        <ele>12</ele>
        <time>2015-09-30T11:50:04Z</time>
      </trkpt>
      <trkpt lat="46.68887" lon="-2.33176">
        <ele>12</ele>
        <time>2015-09-30T11:50:05Z</time>
      </trkpt>
      <trkpt lat="46.68887" lon="-2.33177">
        <ele>12</ele>
        <time>2015-09-30T11:50:06Z</time>
      </trkpt>
      <trkpt lat="46.68887" lon="-2.33179">
        <ele>12</ele>
        <time>2015-09-30T11:50:07Z</time>
      </trkpt>
      <trkpt lat="46.68888" lon="-2.33182">
        <ele>12</ele>
        <time>2015-09-30T11:50:09Z</time>
      </trkpt>
      <trkpt lat="46.68888" lon="-2.33185">
        <ele>12</ele>
        <time>2015-09-30T11:50:11Z</time>
      </trkpt>
      <trkpt lat="46.68889" lon="-2.33186">
        <ele>12</ele>
        <time>2015-09-30T11:50:12Z</time>
      </trkpt>
      <trkpt lat="46.6889" lon="-2.33189">
        <ele>12</ele>
        <time>2015-09-30T11:50:14Z</time>
      </trkpt>
      <trkpt lat="46.68891" lon="-2.33191">
        <ele>12</ele>
        <time>2015-09-30T11:50:16Z</time>
      </trkpt>
      <trkpt lat="46.68892" lon="-2.33193">
        <ele>12</ele>
        <time>2015-09-30T11:50:18Z</time>
      </trkpt>
      <trkpt lat="46.68893" lon="-2.33196">
        <ele>12</ele>
        <time>2015-09-30T11:50:20Z</time>
      </trkpt>
      <trkpt lat="46.68895" lon="-2.33198">
        <ele>12</ele>
        <time>2015-09-30T11:50:22Z</time>
      </trkpt>
      <trkpt lat="46.68897" lon="-2.33201">
        <ele>12</ele>
        <time>2015-09-30T11:50:24Z</time>
      </trkpt>
      <trkpt lat="46.68898" lon="-2.33204">
        <ele>12</ele>
        <time>2015-09-30T11:50:26Z</time>
      </trkpt>
      <trkpt lat="46.689" lon="-2.33206">
        <ele>12</ele>
        <time>2015-09-30T11:50:28Z</time>
      </trkpt>
      <trkpt lat="46.68902" lon="-2.33208">
        <ele>12</ele>
        <time>2015-09-30T11:50:30Z</time>
      </trkpt>
      <trkpt lat="46.68903" lon="-2.3321">
        <ele>12</ele>
        <time>2015-09-30T11:50:32Z</time>
      </trkpt>
      <trkpt lat="46.68904" lon="-2.33211">
        <ele>12</ele>
        <time>2015-09-30T11:50:34Z</time>
      </trkpt>
      <trkpt lat="46.68907" lon="-2.33212">
        <ele>12</ele>
        <time>2015-09-30T11:50:36Z</time>
      </trkpt>
      <trkpt lat="46.68908" lon="-2.33212">
        <ele>12</ele>
        <time>2015-09-30T11:50:37Z</time>
      </trkpt>
      <trkpt lat="46.68909" lon="-2.33213">
        <ele>12</ele>
        <time>2015-09-30T11:50:38Z</time>
      </trkpt>
      <trkpt lat="46.68911" lon="-2.33213">
        <ele>12</ele>
        <time>2015-09-30T11:50:39Z</time>
      </trkpt>
      <trkpt lat="46.68912" lon="-2.33214">
        <ele>12</ele>
        <time>2015-09-30T11:50:40Z</time>
      </trkpt>
      <trkpt lat="46.68913" lon="-2.33214">
        <ele>12</ele>
        <time>2015-09-30T11:50:41Z</time>
      </trkpt>
      <trkpt lat="46.68915" lon="-2.33217">
        <ele>12</ele>
        <time>2015-09-30T11:50:43Z</time>
      </trkpt>
      <trkpt lat="46.68917" lon="-2.33219">
        <ele>12</ele>
        <time>2015-09-30T11:50:45Z</time>
      </trkpt>
      <trkpt lat="46.68918" lon="-2.33222">
        <ele>12</ele>
        <time>2015-09-30T11:50:47Z</time>
      </trkpt>
      <trkpt lat="46.68918" lon="-2.33224">
        <ele>12</ele>
        <time>2015-09-30T11:50:48Z</time>
      </trkpt>
      <trkpt lat="46.68918" lon="-2.33225">
        <ele>12</ele>
        <time>2015-09-30T11:50:49Z</time>
      </trkpt>
      <trkpt lat="46.68918" lon="-2.33227">
        <ele>12</ele>
        <time>2015-09-30T11:50:50Z</time>
      </trkpt>
      <trkpt lat="46.68918" lon="-2.33229">
        <ele>12</ele>
        <time>2015-09-30T11:50:52Z</time>
      </trkpt>
      <trkpt lat="46.68918" lon="-2.33232">
        <ele>12</ele>
        <time>2015-09-30T11:50:54Z</time>
      </trkpt>
      <trkpt lat="46.68919" lon="-2.33234">
        <ele>12</ele>
        <time>2015-09-30T11:50:55Z</time>
      </trkpt>
      <trkpt lat="46.6892" lon="-2.33236">
        <ele>12</ele>
        <time>2015-09-30T11:50:57Z</time>
      </trkpt>
      <trkpt lat="46.68922" lon="-2.33238">
        <ele>12</ele>
        <time>2015-09-30T11:50:59Z</time>
      </trkpt>
      <trkpt lat="46.68923" lon="-2.3324">
        <ele>12</ele>
        <time>2015-09-30T11:51:01Z</time>
      </trkpt>
      <trkpt lat="46.68925" lon="-2.33243">
        <ele>12</ele>
        <time>2015-09-30T11:51:03Z</time>
      </trkpt>
      <trkpt lat="46.68926" lon="-2.33245">
        <ele>12</ele>
        <time>2015-09-30T11:51:05Z</time>
      </trkpt>
      <trkpt lat="46.68928" lon="-2.33247">
        <ele>12</ele>
        <time>2015-09-30T11:51:07Z</time>
      </trkpt>
      <trkpt lat="46.68929" lon="-2.33249">
        <ele>12</ele>
        <time>2015-09-30T11:51:09Z</time>
      </trkpt>
      <trkpt lat="46.6893" lon="-2.33252">
        <ele>12</ele>
        <time>2015-09-30T11:51:11Z</time>
      </trkpt>
      <trkpt lat="46.68931" lon="-2.33254">
        <ele>12</ele>
        <time>2015-09-30T11:51:12Z</time>
      </trkpt>
      <trkpt lat="46.68932" lon="-2.33256">
        <ele>12</ele>
        <time>2015-09-30T11:51:14Z</time>
      </trkpt>
      <trkpt lat="46.68932" lon="-2.33259">
        <ele>12</ele>
        <time>2015-09-30T11:51:16Z</time>
      </trkpt>
      <trkpt lat="46.68934" lon="-2.33261">
        <ele>12</ele>
        <time>2015-09-30T11:51:18Z</time>
      </trkpt>
      <trkpt lat="46.68935" lon="-2.33263">
        <ele>12</ele>
        <time>2015-09-30T11:51:20Z</time>
      </trkpt>
      <trkpt lat="46.68936" lon="-2.33264">
        <ele>12</ele>
        <time>2015-09-30T11:51:23Z</time>
      </trkpt>
      <trkpt lat="46.68935" lon="-2.33266">
        <ele>12</ele>
        <time>2015-09-30T11:51:33Z</time>
      </trkpt>
      <trkpt lat="46.68936" lon="-2.33269">
        <ele>12</ele>
        <time>2015-09-30T11:51:35Z</time>
      </trkpt>
      <trkpt lat="46.68936" lon="-2.33271">
        <ele>12</ele>
        <time>2015-09-30T11:51:37Z</time>
      </trkpt>
      <trkpt lat="46.68937" lon="-2.33272">
        <ele>12</ele>
        <time>2015-09-30T11:51:44Z</time>
      </trkpt>
      <trkpt lat="46.68938" lon="-2.33272">
        <ele>12</ele>
        <time>2015-09-30T11:51:48Z</time>
      </trkpt>
      <trkpt lat="46.68937" lon="-2.33273">
        <ele>12</ele>
        <time>2015-09-30T11:52:23Z</time>
      </trkpt>
      <trkpt lat="46.68936" lon="-2.33273">
        <ele>12</ele>
        <time>2015-09-30T11:52:48Z</time>
      </trkpt>
      <trkpt lat="46.68936" lon="-2.33274">
        <ele>12</ele>
        <time>2015-09-30T11:53:04Z</time>
      </trkpt>
      <trkpt lat="46.68935" lon="-2.33274">
        <ele>11</ele>
        <time>2015-09-30T11:53:21Z</time>
      </trkpt>
      <trkpt lat="46.68936" lon="-2.33274">
        <ele>10</ele>
        <time>2015-09-30T11:53:26Z</time>
      </trkpt>
      <trkpt lat="46.68936" lon="-2.33273">
        <ele>10</ele>
        <time>2015-09-30T11:53:31Z</time>
      </trkpt>
      <trkpt lat="46.68937" lon="-2.33274">
        <ele>10</ele>
        <time>2015-09-30T11:53:50Z</time>
      </trkpt>
      <trkpt lat="46.68936" lon="-2.33275">
        <ele>10</ele>
        <time>2015-09-30T11:53:58Z</time>
      </trkpt>
      <trkpt lat="46.68934" lon="-2.33274">
        <ele>10</ele>
        <time>2015-09-30T11:54:08Z</time>
      </trkpt>
      <trkpt lat="46.68933" lon="-2.33274">
        <ele>10</ele>
        <time>2015-09-30T11:54:11Z</time>
      </trkpt>
      <trkpt lat="46.68935" lon="-2.33273">
        <ele>10</ele>
        <time>2015-09-30T11:54:17Z</time>
      </trkpt>
      <trkpt lat="46.68933" lon="-2.33272">
        <ele>10</ele>
        <time>2015-09-30T11:54:25Z</time>
      </trkpt>
      <trkpt lat="46.68933" lon="-2.33273">
        <ele>10</ele>
        <time>2015-09-30T11:54:31Z</time>
      </trkpt>
      <trkpt lat="46.68935" lon="-2.33273">
        <ele>10</ele>
        <time>2015-09-30T11:54:39Z</time>
      </trkpt>
      <trkpt lat="46.68934" lon="-2.33275">
        <ele>10</ele>
        <time>2015-09-30T11:54:43Z</time>
      </trkpt>
      <trkpt lat="46.68935" lon="-2.33274">
        <ele>11</ele>
        <time>2015-09-30T11:54:52Z</time>
      </trkpt>
      <trkpt lat="46.68936" lon="-2.33274">
        <ele>11</ele>
        <time>2015-09-30T11:55:04Z</time>
      </trkpt>
      <trkpt lat="46.68935" lon="-2.33274">
        <ele>12</ele>
        <time>2015-09-30T11:55:52Z</time>
      </trkpt>
      <trkpt lat="46.68935" lon="-2.33275">
        <ele>11</ele>
        <time>2015-09-30T11:56:00Z</time>
      </trkpt>
      <trkpt lat="46.68935" lon="-2.33274">
        <ele>11</ele>
        <time>2015-09-30T11:56:18Z</time>
      </trkpt>
      <trkpt lat="46.68936" lon="-2.33275">
        <ele>11</ele>
        <time>2015-09-30T11:56:25Z</time>
      </trkpt>
      <trkpt lat="46.68937" lon="-2.33275">
        <ele>11</ele>
        <time>2015-09-30T11:56:36Z</time>
      </trkpt>
      <trkpt lat="46.68938" lon="-2.33274">
        <ele>11</ele>
        <time>2015-09-30T11:56:46Z</time>
      </trkpt>
      <trkpt lat="46.68938" lon="-2.33275">
        <ele>11</ele>
        <time>2015-09-30T11:57:05Z</time>
      </trkpt>
      <trkpt lat="46.68938" lon="-2.33278">
        <ele>11</ele>
        <time>2015-09-30T11:57:08Z</time>
      </trkpt>
      <trkpt lat="46.68938" lon="-2.33279">
        <ele>11</ele>
        <time>2015-09-30T11:57:11Z</time>
      </trkpt>
      <trkpt lat="46.68938" lon="-2.33281">
        <ele>11</ele>
        <time>2015-09-30T11:57:15Z</time>
      </trkpt>
      <trkpt lat="46.68938" lon="-2.33282">
        <ele>11</ele>
        <time>2015-09-30T11:57:20Z</time>
      </trkpt>
      <trkpt lat="46.68939" lon="-2.33284">
        <ele>11</ele>
        <time>2015-09-30T11:57:23Z</time>
      </trkpt>
      <trkpt lat="46.68939" lon="-2.33287">
        <ele>11</ele>
        <time>2015-09-30T11:57:25Z</time>
      </trkpt>
      <trkpt lat="46.68939" lon="-2.33289">
        <ele>11</ele>
        <time>2015-09-30T11:57:26Z</time>
      </trkpt>
      <trkpt lat="46.68939" lon="-2.3329">
        <ele>11</ele>
        <time>2015-09-30T11:57:27Z</time>
      </trkpt>
      <trkpt lat="46.68939" lon="-2.33292">
        <ele>11</ele>
        <time>2015-09-30T11:57:28Z</time>
      </trkpt>
      <trkpt lat="46.68939" lon="-2.33293">
        <ele>11</ele>
        <time>2015-09-30T11:57:29Z</time>
      </trkpt>
      <trkpt lat="46.68939" lon="-2.33296">
        <ele>11</ele>
        <time>2015-09-30T11:57:31Z</time>
      </trkpt>
      <trkpt lat="46.6894" lon="-2.33299">
        <ele>11</ele>
        <time>2015-09-30T11:57:33Z</time>
      </trkpt>
      <trkpt lat="46.6894" lon="-2.33301">
        <ele>11</ele>
        <time>2015-09-30T11:57:35Z</time>
      </trkpt>
      <trkpt lat="46.6894" lon="-2.33304">
        <ele>11</ele>
        <time>2015-09-30T11:57:37Z</time>
      </trkpt>
      <trkpt lat="46.68941" lon="-2.33306">
        <ele>11</ele>
        <time>2015-09-30T11:57:39Z</time>
      </trkpt>
      <trkpt lat="46.68942" lon="-2.33308">
        <ele>11</ele>
        <time>2015-09-30T11:57:41Z</time>
      </trkpt>
      <trkpt lat="46.68943" lon="-2.3331">
        <ele>11</ele>
        <time>2015-09-30T11:57:43Z</time>
      </trkpt>
      <trkpt lat="46.68944" lon="-2.33313">
        <ele>11</ele>
        <time>2015-09-30T11:57:45Z</time>
      </trkpt>
      <trkpt lat="46.68945" lon="-2.33315">
        <ele>11</ele>
        <time>2015-09-30T11:57:47Z</time>
      </trkpt>
      <trkpt lat="46.68946" lon="-2.33317">
        <ele>11</ele>
        <time>2015-09-30T11:57:49Z</time>
      </trkpt>
      <trkpt lat="46.68947" lon="-2.33319">
        <ele>11</ele>
        <time>2015-09-30T11:57:51Z</time>
      </trkpt>
      <trkpt lat="46.68948" lon="-2.33321">
        <ele>11</ele>
        <time>2015-09-30T11:57:53Z</time>
      </trkpt>
      <trkpt lat="46.68949" lon="-2.33323">
        <ele>11</ele>
        <time>2015-09-30T11:57:56Z</time>
      </trkpt>
      <trkpt lat="46.6895" lon="-2.33325">
        <ele>11</ele>
        <time>2015-09-30T11:57:58Z</time>
      </trkpt>
      <trkpt lat="46.68951" lon="-2.33326">
        <ele>11</ele>
        <time>2015-09-30T11:58:00Z</time>
      </trkpt>
      <trkpt lat="46.68951" lon="-2.33328">
        <ele>11</ele>
        <time>2015-09-30T11:58:02Z</time>
      </trkpt>
      <trkpt lat="46.68951" lon="-2.3333">
        <ele>11</ele>
        <time>2015-09-30T11:58:04Z</time>
      </trkpt>
      <trkpt lat="46.68952" lon="-2.33332">
        <ele>11</ele>
        <time>2015-09-30T11:58:06Z</time>
      </trkpt>
      <trkpt lat="46.68953" lon="-2.33334">
        <ele>11</ele>
        <time>2015-09-30T11:58:09Z</time>
      </trkpt>
      <trkpt lat="46.68955" lon="-2.33335">
        <ele>11</ele>
        <time>2015-09-30T11:58:12Z</time>
      </trkpt>
      <trkpt lat="46.68955" lon="-2.33337">
        <ele>10</ele>
        <time>2015-09-30T11:58:15Z</time>
      </trkpt>
      <trkpt lat="46.68956" lon="-2.33339">
        <ele>8</ele>
        <time>2015-09-30T11:58:18Z</time>
      </trkpt>
      <trkpt lat="46.68956" lon="-2.33341">
        <ele>7</ele>
        <time>2015-09-30T11:58:21Z</time>
      </trkpt>
      <trkpt lat="46.68956" lon="-2.33343">
        <ele>7</ele>
        <time>2015-09-30T11:58:24Z</time>
      </trkpt>
      <trkpt lat="46.68957" lon="-2.33345">
        <ele>6</ele>
        <time>2015-09-30T11:58:27Z</time>
      </trkpt>
      <trkpt lat="46.68956" lon="-2.33347">
        <ele>5</ele>
        <time>2015-09-30T11:58:30Z</time>
      </trkpt>
      <trkpt lat="46.68956" lon="-2.33348">
        <ele>5</ele>
        <time>2015-09-30T11:58:32Z</time>
      </trkpt>
      <trkpt lat="46.68956" lon="-2.33351">
        <ele>4</ele>
        <time>2015-09-30T11:58:34Z</time>
      </trkpt>
      <trkpt lat="46.68956" lon="-2.33353">
        <ele>4</ele>
        <time>2015-09-30T11:58:35Z</time>
      </trkpt>
      <trkpt lat="46.68955" lon="-2.33355">
        <ele>4</ele>
        <time>2015-09-30T11:58:36Z</time>
      </trkpt>
      <trkpt lat="46.68954" lon="-2.33357">
        <ele>4</ele>
        <time>2015-09-30T11:58:37Z</time>
      </trkpt>
      <trkpt lat="46.68952" lon="-2.33359">
        <ele>4</ele>
        <time>2015-09-30T11:58:39Z</time>
      </trkpt>
      <trkpt lat="46.68951" lon="-2.33361">
        <ele>4</ele>
        <time>2015-09-30T11:58:40Z</time>
      </trkpt>
      <trkpt lat="46.68949" lon="-2.33363">
        <ele>4</ele>
        <time>2015-09-30T11:58:42Z</time>
      </trkpt>
      <trkpt lat="46.68948" lon="-2.33366">
        <ele>4</ele>
        <time>2015-09-30T11:58:44Z</time>
      </trkpt>
      <trkpt lat="46.68946" lon="-2.33369">
        <ele>4</ele>
        <time>2015-09-30T11:58:46Z</time>
      </trkpt>
      <trkpt lat="46.68945" lon="-2.33371">
        <ele>4</ele>
        <time>2015-09-30T11:58:48Z</time>
      </trkpt>
      <trkpt lat="46.68944" lon="-2.33372">
        <ele>4</ele>
        <time>2015-09-30T11:58:50Z</time>
      </trkpt>
      <trkpt lat="46.68942" lon="-2.33373">
        <ele>4</ele>
        <time>2015-09-30T11:58:51Z</time>
      </trkpt>
      <trkpt lat="46.68941" lon="-2.33375">
        <ele>4</ele>
        <time>2015-09-30T11:58:53Z</time>
      </trkpt>
      <trkpt lat="46.6894" lon="-2.33376">
        <ele>4</ele>
        <time>2015-09-30T11:58:55Z</time>
      </trkpt>
      <trkpt lat="46.68939" lon="-2.33378">
        <ele>4</ele>
        <time>2015-09-30T11:58:57Z</time>
      </trkpt>
      <trkpt lat="46.68938" lon="-2.3338">
        <ele>4</ele>
        <time>2015-09-30T11:58:59Z</time>
      </trkpt>
      <trkpt lat="46.68938" lon="-2.33381">
        <ele>5</ele>
        <time>2015-09-30T11:59:01Z</time>
      </trkpt>
      <trkpt lat="46.68937" lon="-2.33383">
        <ele>6</ele>
        <time>2015-09-30T11:59:04Z</time>
      </trkpt>
      <trkpt lat="46.68937" lon="-2.33386">
        <ele>7</ele>
        <time>2015-09-30T11:59:06Z</time>
      </trkpt>
      <trkpt lat="46.68937" lon="-2.33388">
        <ele>7</ele>
        <time>2015-09-30T11:59:07Z</time>
      </trkpt>
      <trkpt lat="46.68937" lon="-2.3339">
        <ele>7</ele>
        <time>2015-09-30T11:59:08Z</time>
      </trkpt>
      <trkpt lat="46.68936" lon="-2.33392">
        <ele>7</ele>
        <time>2015-09-30T11:59:10Z</time>
      </trkpt>
      <trkpt lat="46.68936" lon="-2.33394">
        <ele>7</ele>
        <time>2015-09-30T11:59:12Z</time>
      </trkpt>
      <trkpt lat="46.68936" lon="-2.33396">
        <ele>8</ele>
        <time>2015-09-30T11:59:14Z</time>
      </trkpt>
      <trkpt lat="46.68935" lon="-2.33399">
        <ele>8</ele>
        <time>2015-09-30T11:59:16Z</time>
      </trkpt>
      <trkpt lat="46.68935" lon="-2.334">
        <ele>8</ele>
        <time>2015-09-30T11:59:17Z</time>
      </trkpt>
      <trkpt lat="46.68935" lon="-2.33403">
        <ele>8</ele>
        <time>2015-09-30T11:59:19Z</time>
      </trkpt>
      <trkpt lat="46.68935" lon="-2.33405">
        <ele>8</ele>
        <time>2015-09-30T11:59:21Z</time>
      </trkpt>
      <trkpt lat="46.68934" lon="-2.33407">
        <ele>8</ele>
        <time>2015-09-30T11:59:23Z</time>
      </trkpt>
      <trkpt lat="46.68934" lon="-2.33409">
        <ele>8</ele>
        <time>2015-09-30T11:59:24Z</time>
      </trkpt>
      <trkpt lat="46.68934" lon="-2.33411">
        <ele>9</ele>
        <time>2015-09-30T11:59:26Z</time>
      </trkpt>
      <trkpt lat="46.68934" lon="-2.33413">
        <ele>9</ele>
        <time>2015-09-30T11:59:27Z</time>
      </trkpt>
      <trkpt lat="46.68934" lon="-2.33415">
        <ele>9</ele>
        <time>2015-09-30T11:59:28Z</time>
      </trkpt>
      <trkpt lat="46.68935" lon="-2.33418">
        <ele>9</ele>
        <time>2015-09-30T11:59:30Z</time>
      </trkpt>
      <trkpt lat="46.68936" lon="-2.3342">
        <ele>9</ele>
        <time>2015-09-30T11:59:32Z</time>
      </trkpt>
      <trkpt lat="46.68938" lon="-2.33423">
        <ele>9</ele>
        <time>2015-09-30T11:59:34Z</time>
      </trkpt>
      <trkpt lat="46.6894" lon="-2.33425">
        <ele>9</ele>
        <time>2015-09-30T11:59:36Z</time>
      </trkpt>
      <trkpt lat="46.68941" lon="-2.33427">
        <ele>9</ele>
        <time>2015-09-30T11:59:38Z</time>
      </trkpt>
      <trkpt lat="46.68942" lon="-2.33429">
        <ele>9</ele>
        <time>2015-09-30T11:59:40Z</time>
      </trkpt>
      <trkpt lat="46.68944" lon="-2.33432">
        <ele>9</ele>
        <time>2015-09-30T11:59:42Z</time>
      </trkpt>
      <trkpt lat="46.68945" lon="-2.33434">
        <ele>9</ele>
        <time>2015-09-30T11:59:44Z</time>
      </trkpt>
      <trkpt lat="46.68946" lon="-2.33436">
        <ele>9</ele>
        <time>2015-09-30T11:59:46Z</time>
      </trkpt>
      <trkpt lat="46.68946" lon="-2.33438">
        <ele>9</ele>
        <time>2015-09-30T11:59:47Z</time>
      </trkpt>
      <trkpt lat="46.68948" lon="-2.33441">
        <ele>9</ele>
        <time>2015-09-30T11:59:49Z</time>
      </trkpt>
      <trkpt lat="46.68948" lon="-2.33442">
        <ele>9</ele>
        <time>2015-09-30T11:59:50Z</time>
      </trkpt>
      <trkpt lat="46.68949" lon="-2.33444">
        <ele>9</ele>
        <time>2015-09-30T11:59:51Z</time>
      </trkpt>
      <trkpt lat="46.6895" lon="-2.33445">
        <ele>9</ele>
        <time>2015-09-30T11:59:52Z</time>
      </trkpt>
      <trkpt lat="46.6895" lon="-2.33448">
        <ele>9</ele>
        <time>2015-09-30T11:59:54Z</time>
      </trkpt>
      <trkpt lat="46.68951" lon="-2.3345">
        <ele>9</ele>
        <time>2015-09-30T11:59:55Z</time>
      </trkpt>
      <trkpt lat="46.68951" lon="-2.33451">
        <ele>9</ele>
        <time>2015-09-30T11:59:56Z</time>
      </trkpt>
      <trkpt lat="46.68952" lon="-2.33453">
        <ele>9</ele>
        <time>2015-09-30T11:59:57Z</time>
      </trkpt>
      <trkpt lat="46.68953" lon="-2.33456">
        <ele>9</ele>
        <time>2015-09-30T11:59:59Z</time>
      </trkpt>
      <trkpt lat="46.68954" lon="-2.33459">
        <ele>9</ele>
        <time>2015-09-30T12:00:01Z</time>
      </trkpt>
      <trkpt lat="46.68954" lon="-2.3346">
        <ele>9</ele>
        <time>2015-09-30T12:00:02Z</time>
      </trkpt>
      <trkpt lat="46.68955" lon="-2.33462">
        <ele>9</ele>
        <time>2015-09-30T12:00:03Z</time>
      </trkpt>
      <trkpt lat="46.68956" lon="-2.33465">
        <ele>9</ele>
        <time>2015-09-30T12:00:05Z</time>
      </trkpt>
      <trkpt lat="46.68956" lon="-2.33466">
        <ele>9</ele>
        <time>2015-09-30T12:00:06Z</time>
      </trkpt>
      <trkpt lat="46.68957" lon="-2.33468">
        <ele>9</ele>
        <time>2015-09-30T12:00:07Z</time>
      </trkpt>
      <trkpt lat="46.68958" lon="-2.33471">
        <ele>9</ele>
        <time>2015-09-30T12:00:09Z</time>
      </trkpt>
      <trkpt lat="46.68958" lon="-2.33472">
        <ele>9</ele>
        <time>2015-09-30T12:00:10Z</time>
      </trkpt>
      <trkpt lat="46.68959" lon="-2.33474">
        <ele>9</ele>
        <time>2015-09-30T12:00:11Z</time>
      </trkpt>
      <trkpt lat="46.68959" lon="-2.33475">
        <ele>9</ele>
        <time>2015-09-30T12:00:12Z</time>
      </trkpt>
      <trkpt lat="46.6896" lon="-2.33477">
        <ele>9</ele>
        <time>2015-09-30T12:00:13Z</time>
      </trkpt>
      <trkpt lat="46.68961" lon="-2.33479">
        <ele>9</ele>
        <time>2015-09-30T12:00:14Z</time>
      </trkpt>
      <trkpt lat="46.68961" lon="-2.3348">
        <ele>9</ele>
        <time>2015-09-30T12:00:15Z</time>
      </trkpt>
      <trkpt lat="46.68962" lon="-2.33482">
        <ele>9</ele>
        <time>2015-09-30T12:00:16Z</time>
      </trkpt>
      <trkpt lat="46.68962" lon="-2.33483">
        <ele>9</ele>
        <time>2015-09-30T12:00:17Z</time>
      </trkpt>
      <trkpt lat="46.68963" lon="-2.33485">
        <ele>9</ele>
        <time>2015-09-30T12:00:18Z</time>
      </trkpt>
      <trkpt lat="46.68964" lon="-2.33486">
        <ele>9</ele>
        <time>2015-09-30T12:00:19Z</time>
      </trkpt>
      <trkpt lat="46.68964" lon="-2.33488">
        <ele>9</ele>
        <time>2015-09-30T12:00:20Z</time>
      </trkpt>
      <trkpt lat="46.68966" lon="-2.33491">
        <ele>9</ele>
        <time>2015-09-30T12:00:22Z</time>
      </trkpt>
      <trkpt lat="46.68966" lon="-2.33492">
        <ele>9</ele>
        <time>2015-09-30T12:00:23Z</time>
      </trkpt>
      <trkpt lat="46.68967" lon="-2.33494">
        <ele>9</ele>
        <time>2015-09-30T12:00:24Z</time>
      </trkpt>
      <trkpt lat="46.68967" lon="-2.33495">
        <ele>9</ele>
        <time>2015-09-30T12:00:25Z</time>
      </trkpt>
      <trkpt lat="46.68968" lon="-2.33497">
        <ele>9</ele>
        <time>2015-09-30T12:00:26Z</time>
      </trkpt>
      <trkpt lat="46.68969" lon="-2.33498">
        <ele>9</ele>
        <time>2015-09-30T12:00:27Z</time>
      </trkpt>
      <trkpt lat="46.68969" lon="-2.335">
        <ele>9</ele>
        <time>2015-09-30T12:00:28Z</time>
      </trkpt>
      <trkpt lat="46.6897" lon="-2.33502">
        <ele>9</ele>
        <time>2015-09-30T12:00:29Z</time>
      </trkpt>
      <trkpt lat="46.6897" lon="-2.33503">
        <ele>9</ele>
        <time>2015-09-30T12:00:30Z</time>
      </trkpt>
      <trkpt lat="46.68972" lon="-2.33506">
        <ele>9</ele>
        <time>2015-09-30T12:00:32Z</time>
      </trkpt>
      <trkpt lat="46.68973" lon="-2.33508">
        <ele>10</ele>
        <time>2015-09-30T12:00:34Z</time>
      </trkpt>
      <trkpt lat="46.68975" lon="-2.33511">
        <ele>10</ele>
        <time>2015-09-30T12:00:36Z</time>
      </trkpt>
      <trkpt lat="46.68976" lon="-2.33514">
        <ele>10</ele>
        <time>2015-09-30T12:00:38Z</time>
      </trkpt>
      <trkpt lat="46.68977" lon="-2.33515">
        <ele>10</ele>
        <time>2015-09-30T12:00:39Z</time>
      </trkpt>
      <trkpt lat="46.68978" lon="-2.33517">
        <ele>10</ele>
        <time>2015-09-30T12:00:40Z</time>
      </trkpt>
      <trkpt lat="46.6898" lon="-2.33519">
        <ele>10</ele>
        <time>2015-09-30T12:00:42Z</time>
      </trkpt>
      <trkpt lat="46.68981" lon="-2.33522">
        <ele>10</ele>
        <time>2015-09-30T12:00:44Z</time>
      </trkpt>
      <trkpt lat="46.68983" lon="-2.33524">
        <ele>11</ele>
        <time>2015-09-30T12:00:46Z</time>
      </trkpt>
      <trkpt lat="46.68984" lon="-2.33527">
        <ele>11</ele>
        <time>2015-09-30T12:00:48Z</time>
      </trkpt>
      <trkpt lat="46.68985" lon="-2.3353">
        <ele>11</ele>
        <time>2015-09-30T12:00:50Z</time>
      </trkpt>
      <trkpt lat="46.68986" lon="-2.33533">
        <ele>11</ele>
        <time>2015-09-30T12:00:52Z</time>
      </trkpt>
      <trkpt lat="46.68987" lon="-2.33534">
        <ele>11</ele>
        <time>2015-09-30T12:00:53Z</time>
      </trkpt>
      <trkpt lat="46.68987" lon="-2.33536">
        <ele>11</ele>
        <time>2015-09-30T12:00:54Z</time>
      </trkpt>
      <trkpt lat="46.68988" lon="-2.33537">
        <ele>11</ele>
        <time>2015-09-30T12:00:55Z</time>
      </trkpt>
      <trkpt lat="46.68988" lon="-2.33539">
        <ele>11</ele>
        <time>2015-09-30T12:00:56Z</time>
      </trkpt>
      <trkpt lat="46.68989" lon="-2.33542">
        <ele>11</ele>
        <time>2015-09-30T12:00:58Z</time>
      </trkpt>
      <trkpt lat="46.68989" lon="-2.33543">
        <ele>12</ele>
        <time>2015-09-30T12:00:59Z</time>
      </trkpt>
      <trkpt lat="46.6899" lon="-2.33545">
        <ele>12</ele>
        <time>2015-09-30T12:01:00Z</time>
      </trkpt>
      <trkpt lat="46.6899" lon="-2.33547">
        <ele>12</ele>
        <time>2015-09-30T12:01:01Z</time>
      </trkpt>
      <trkpt lat="46.68991" lon="-2.33548">
        <ele>12</ele>
        <time>2015-09-30T12:01:02Z</time>
      </trkpt>
      <trkpt lat="46.68991" lon="-2.3355">
        <ele>13</ele>
        <time>2015-09-30T12:01:03Z</time>
      </trkpt>
      <trkpt lat="46.68991" lon="-2.33552">
        <ele>13</ele>
        <time>2015-09-30T12:01:04Z</time>
      </trkpt>
      <trkpt lat="46.68991" lon="-2.33553">
        <ele>13</ele>
        <time>2015-09-30T12:01:05Z</time>
      </trkpt>
      <trkpt lat="46.68992" lon="-2.33555">
        <ele>13</ele>
        <time>2015-09-30T12:01:06Z</time>
      </trkpt>
      <trkpt lat="46.68992" lon="-2.33557">
        <ele>13</ele>
        <time>2015-09-30T12:01:07Z</time>
      </trkpt>
      <trkpt lat="46.68992" lon="-2.33558">
        <ele>13</ele>
        <time>2015-09-30T12:01:08Z</time>
      </trkpt>
      <trkpt lat="46.68992" lon="-2.3356">
        <ele>13</ele>
        <time>2015-09-30T12:01:09Z</time>
      </trkpt>
      <trkpt lat="46.68992" lon="-2.33562">
        <ele>13</ele>
        <time>2015-09-30T12:01:10Z</time>
      </trkpt>
      <trkpt lat="46.68992" lon="-2.33563">
        <ele>13</ele>
        <time>2015-09-30T12:01:11Z</time>
      </trkpt>
      <trkpt lat="46.68993" lon="-2.33565">
        <ele>14</ele>
        <time>2015-09-30T12:01:12Z</time>
      </trkpt>
      <trkpt lat="46.68993" lon="-2.33566">
        <ele>14</ele>
        <time>2015-09-30T12:01:13Z</time>
      </trkpt>
      <trkpt lat="46.68993" lon="-2.33568">
        <ele>14</ele>
        <time>2015-09-30T12:01:14Z</time>
      </trkpt>
      <trkpt lat="46.68993" lon="-2.3357">
        <ele>14</ele>
        <time>2015-09-30T12:01:15Z</time>
      </trkpt>
      <trkpt lat="46.68993" lon="-2.33571">
        <ele>15</ele>
        <time>2015-09-30T12:01:16Z</time>
      </trkpt>
      <trkpt lat="46.68993" lon="-2.33573">
        <ele>15</ele>
        <time>2015-09-30T12:01:17Z</time>
      </trkpt>
      <trkpt lat="46.68993" lon="-2.33574">
        <ele>15</ele>
        <time>2015-09-30T12:01:18Z</time>
      </trkpt>
      <trkpt lat="46.68994" lon="-2.33578">
        <ele>15</ele>
        <time>2015-09-30T12:01:20Z</time>
      </trkpt>
      <trkpt lat="46.68994" lon="-2.33579">
        <ele>15</ele>
        <time>2015-09-30T12:01:21Z</time>
      </trkpt>
      <trkpt lat="46.68994" lon="-2.33581">
        <ele>15</ele>
        <time>2015-09-30T12:01:22Z</time>
      </trkpt>
      <trkpt lat="46.68994" lon="-2.33583">
        <ele>15</ele>
        <time>2015-09-30T12:01:23Z</time>
      </trkpt>
      <trkpt lat="46.68995" lon="-2.33584">
        <ele>15</ele>
        <time>2015-09-30T12:01:24Z</time>
      </trkpt>
      <trkpt lat="46.68995" lon="-2.33586">
        <ele>15</ele>
        <time>2015-09-30T12:01:25Z</time>
      </trkpt>
      <trkpt lat="46.68995" lon="-2.33587">
        <ele>15</ele>
        <time>2015-09-30T12:01:26Z</time>
      </trkpt>
      <trkpt lat="46.68995" lon="-2.33589">
        <ele>15</ele>
        <time>2015-09-30T12:01:27Z</time>
      </trkpt>
      <trkpt lat="46.68996" lon="-2.3359">
        <ele>15</ele>
        <time>2015-09-30T12:01:28Z</time>
      </trkpt>
      <trkpt lat="46.68996" lon="-2.33592">
        <ele>15</ele>
        <time>2015-09-30T12:01:29Z</time>
      </trkpt>
      <trkpt lat="46.68996" lon="-2.33594">
        <ele>15</ele>
        <time>2015-09-30T12:01:30Z</time>
      </trkpt>
      <trkpt lat="46.68997" lon="-2.33595">
        <ele>15</ele>
        <time>2015-09-30T12:01:31Z</time>
      </trkpt>
      <trkpt lat="46.68997" lon="-2.33597">
        <ele>15</ele>
        <time>2015-09-30T12:01:32Z</time>
      </trkpt>
      <trkpt lat="46.68998" lon="-2.33599">
        <ele>15</ele>
        <time>2015-09-30T12:01:33Z</time>
      </trkpt>
      <trkpt lat="46.68998" lon="-2.336">
        <ele>15</ele>
        <time>2015-09-30T12:01:34Z</time>
      </trkpt>
      <trkpt lat="46.68998" lon="-2.33602">
        <ele>15</ele>
        <time>2015-09-30T12:01:35Z</time>
      </trkpt>
      <trkpt lat="46.68999" lon="-2.33603">
        <ele>15</ele>
        <time>2015-09-30T12:01:36Z</time>
      </trkpt>
      <trkpt lat="46.68999" lon="-2.33605">
        <ele>15</ele>
        <time>2015-09-30T12:01:37Z</time>
      </trkpt>
      <trkpt lat="46.69" lon="-2.33606">
        <ele>15</ele>
        <time>2015-09-30T12:01:38Z</time>
      </trkpt>
      <trkpt lat="46.69" lon="-2.33608">
        <ele>15</ele>
        <time>2015-09-30T12:01:39Z</time>
      </trkpt>
      <trkpt lat="46.69001" lon="-2.3361">
        <ele>15</ele>
        <time>2015-09-30T12:01:40Z</time>
      </trkpt>
      <trkpt lat="46.69001" lon="-2.33611">
        <ele>15</ele>
        <time>2015-09-30T12:01:41Z</time>
      </trkpt>
      <trkpt lat="46.69002" lon="-2.33613">
        <ele>15</ele>
        <time>2015-09-30T12:01:42Z</time>
      </trkpt>
      <trkpt lat="46.69002" lon="-2.33615">
        <ele>15</ele>
        <time>2015-09-30T12:01:43Z</time>
      </trkpt>
      <trkpt lat="46.69003" lon="-2.33616">
        <ele>15</ele>
        <time>2015-09-30T12:01:44Z</time>
      </trkpt>
      <trkpt lat="46.69003" lon="-2.33618">
        <ele>15</ele>
        <time>2015-09-30T12:01:45Z</time>
      </trkpt>
      <trkpt lat="46.69004" lon="-2.3362">
        <ele>15</ele>
        <time>2015-09-30T12:01:46Z</time>
      </trkpt>
      <trkpt lat="46.69004" lon="-2.33621">
        <ele>15</ele>
        <time>2015-09-30T12:01:47Z</time>
      </trkpt>
      <trkpt lat="46.69005" lon="-2.33623">
        <ele>15</ele>
        <time>2015-09-30T12:01:48Z</time>
      </trkpt>
      <trkpt lat="46.69005" lon="-2.33625">
        <ele>15</ele>
        <time>2015-09-30T12:01:49Z</time>
      </trkpt>
      <trkpt lat="46.69006" lon="-2.33627">
        <ele>15</ele>
        <time>2015-09-30T12:01:50Z</time>
      </trkpt>
      <trkpt lat="46.69006" lon="-2.33628">
        <ele>15</ele>
        <time>2015-09-30T12:01:51Z</time>
      </trkpt>
      <trkpt lat="46.69007" lon="-2.3363">
        <ele>15</ele>
        <time>2015-09-30T12:01:52Z</time>
      </trkpt>
      <trkpt lat="46.69008" lon="-2.33632">
        <ele>15</ele>
        <time>2015-09-30T12:01:54Z</time>
      </trkpt>
      <trkpt lat="46.69009" lon="-2.33635">
        <ele>15</ele>
        <time>2015-09-30T12:01:56Z</time>
      </trkpt>
      <trkpt lat="46.69009" lon="-2.33637">
        <ele>15</ele>
        <time>2015-09-30T12:01:57Z</time>
      </trkpt>
      <trkpt lat="46.6901" lon="-2.33638">
        <ele>15</ele>
        <time>2015-09-30T12:01:58Z</time>
      </trkpt>
      <trkpt lat="46.6901" lon="-2.3364">
        <ele>15</ele>
        <time>2015-09-30T12:01:59Z</time>
      </trkpt>
      <trkpt lat="46.69011" lon="-2.33641">
        <ele>15</ele>
        <time>2015-09-30T12:02:00Z</time>
      </trkpt>
      <trkpt lat="46.69012" lon="-2.33644">
        <ele>15</ele>
        <time>2015-09-30T12:02:02Z</time>
      </trkpt>
      <trkpt lat="46.69012" lon="-2.33646">
        <ele>15</ele>
        <time>2015-09-30T12:02:03Z</time>
      </trkpt>
      <trkpt lat="46.69013" lon="-2.33648">
        <ele>15</ele>
        <time>2015-09-30T12:02:05Z</time>
      </trkpt>
      <trkpt lat="46.69013" lon="-2.33651">
        <ele>15</ele>
        <time>2015-09-30T12:02:07Z</time>
      </trkpt>
      <trkpt lat="46.69013" lon="-2.33653">
        <ele>15</ele>
        <time>2015-09-30T12:02:09Z</time>
      </trkpt>
      <trkpt lat="46.69013" lon="-2.33655">
        <ele>15</ele>
        <time>2015-09-30T12:02:10Z</time>
      </trkpt>
      <trkpt lat="46.69013" lon="-2.33657">
        <ele>15</ele>
        <time>2015-09-30T12:02:12Z</time>
      </trkpt>
      <trkpt lat="46.69012" lon="-2.3366">
        <ele>15</ele>
        <time>2015-09-30T12:02:14Z</time>
      </trkpt>
      <trkpt lat="46.69012" lon="-2.33663">
        <ele>15</ele>
        <time>2015-09-30T12:02:16Z</time>
      </trkpt>
      <trkpt lat="46.69012" lon="-2.33664">
        <ele>15</ele>
        <time>2015-09-30T12:02:17Z</time>
      </trkpt>
      <trkpt lat="46.69012" lon="-2.33666">
        <ele>15</ele>
        <time>2015-09-30T12:02:18Z</time>
      </trkpt>
      <trkpt lat="46.69012" lon="-2.33668">
        <ele>15</ele>
        <time>2015-09-30T12:02:19Z</time>
      </trkpt>
      <trkpt lat="46.69012" lon="-2.33669">
        <ele>15</ele>
        <time>2015-09-30T12:02:20Z</time>
      </trkpt>
      <trkpt lat="46.69012" lon="-2.33671">
        <ele>15</ele>
        <time>2015-09-30T12:02:21Z</time>
      </trkpt>
      <trkpt lat="46.69013" lon="-2.33674">
        <ele>15</ele>
        <time>2015-09-30T12:02:23Z</time>
      </trkpt>
      <trkpt lat="46.69013" lon="-2.33676">
        <ele>14</ele>
        <time>2015-09-30T12:02:25Z</time>
      </trkpt>
      <trkpt lat="46.69014" lon="-2.33678">
        <ele>14</ele>
        <time>2015-09-30T12:02:26Z</time>
      </trkpt>
      <trkpt lat="46.69014" lon="-2.3368">
        <ele>14</ele>
        <time>2015-09-30T12:02:27Z</time>
      </trkpt>
      <trkpt lat="46.69014" lon="-2.33682">
        <ele>13</ele>
        <time>2015-09-30T12:02:28Z</time>
      </trkpt>
      <trkpt lat="46.69014" lon="-2.33684">
        <ele>13</ele>
        <time>2015-09-30T12:02:29Z</time>
      </trkpt>
      <trkpt lat="46.69014" lon="-2.33686">
        <ele>13</ele>
        <time>2015-09-30T12:02:30Z</time>
      </trkpt>
      <trkpt lat="46.69014" lon="-2.33687">
        <ele>13</ele>
        <time>2015-09-30T12:02:31Z</time>
      </trkpt>
      <trkpt lat="46.69014" lon="-2.33689">
        <ele>13</ele>
        <time>2015-09-30T12:02:32Z</time>
      </trkpt>
      <trkpt lat="46.69014" lon="-2.33691">
        <ele>13</ele>
        <time>2015-09-30T12:02:33Z</time>
      </trkpt>
      <trkpt lat="46.69013" lon="-2.33693">
        <ele>13</ele>
        <time>2015-09-30T12:02:34Z</time>
      </trkpt>
      <trkpt lat="46.69013" lon="-2.33695">
        <ele>13</ele>
        <time>2015-09-30T12:02:35Z</time>
      </trkpt>
      <trkpt lat="46.69013" lon="-2.33696">
        <ele>13</ele>
        <time>2015-09-30T12:02:36Z</time>
      </trkpt>
      <trkpt lat="46.69013" lon="-2.33698">
        <ele>13</ele>
        <time>2015-09-30T12:02:37Z</time>
      </trkpt>
      <trkpt lat="46.69013" lon="-2.337">
        <ele>13</ele>
        <time>2015-09-30T12:02:38Z</time>
      </trkpt>
      <trkpt lat="46.69013" lon="-2.33702">
        <ele>13</ele>
        <time>2015-09-30T12:02:39Z</time>
      </trkpt>
      <trkpt lat="46.69013" lon="-2.33704">
        <ele>13</ele>
        <time>2015-09-30T12:02:40Z</time>
      </trkpt>
      <trkpt lat="46.69013" lon="-2.33706">
        <ele>13</ele>
        <time>2015-09-30T12:02:41Z</time>
      </trkpt>
      <trkpt lat="46.69013" lon="-2.33707">
        <ele>13</ele>
        <time>2015-09-30T12:02:42Z</time>
      </trkpt>
      <trkpt lat="46.69013" lon="-2.33709">
        <ele>13</ele>
        <time>2015-09-30T12:02:43Z</time>
      </trkpt>
      <trkpt lat="46.69013" lon="-2.33711">
        <ele>13</ele>
        <time>2015-09-30T12:02:44Z</time>
      </trkpt>
      <trkpt lat="46.69014" lon="-2.33713">
        <ele>13</ele>
        <time>2015-09-30T12:02:45Z</time>
      </trkpt>
      <trkpt lat="46.69014" lon="-2.33715">
        <ele>13</ele>
        <time>2015-09-30T12:02:46Z</time>
      </trkpt>
      <trkpt lat="46.69014" lon="-2.33717">
        <ele>13</ele>
        <time>2015-09-30T12:02:47Z</time>
      </trkpt>
      <trkpt lat="46.69014" lon="-2.33719">
        <ele>13</ele>
        <time>2015-09-30T12:02:48Z</time>
      </trkpt>
      <trkpt lat="46.69014" lon="-2.3372">
        <ele>13</ele>
        <time>2015-09-30T12:02:49Z</time>
      </trkpt>
      <trkpt lat="46.69014" lon="-2.33722">
        <ele>13</ele>
        <time>2015-09-30T12:02:50Z</time>
      </trkpt>
      <trkpt lat="46.69014" lon="-2.33724">
        <ele>13</ele>
        <time>2015-09-30T12:02:51Z</time>
      </trkpt>
      <trkpt lat="46.69014" lon="-2.33725">
        <ele>13</ele>
        <time>2015-09-30T12:02:52Z</time>
      </trkpt>
      <trkpt lat="46.69014" lon="-2.33727">
        <ele>13</ele>
        <time>2015-09-30T12:02:53Z</time>
      </trkpt>
      <trkpt lat="46.69014" lon="-2.33729">
        <ele>13</ele>
        <time>2015-09-30T12:02:54Z</time>
      </trkpt>
      <trkpt lat="46.69015" lon="-2.3373">
        <ele>13</ele>
        <time>2015-09-30T12:02:55Z</time>
      </trkpt>
      <trkpt lat="46.69015" lon="-2.33732">
        <ele>13</ele>
        <time>2015-09-30T12:02:56Z</time>
      </trkpt>
      <trkpt lat="46.69015" lon="-2.33733">
        <ele>13</ele>
        <time>2015-09-30T12:02:57Z</time>
      </trkpt>
      <trkpt lat="46.69015" lon="-2.33735">
        <ele>13</ele>
        <time>2015-09-30T12:02:58Z</time>
      </trkpt>
      <trkpt lat="46.69016" lon="-2.33737">
        <ele>13</ele>
        <time>2015-09-30T12:02:59Z</time>
      </trkpt>
      <trkpt lat="46.69016" lon="-2.33739">
        <ele>13</ele>
        <time>2015-09-30T12:03:00Z</time>
      </trkpt>
      <trkpt lat="46.69016" lon="-2.3374">
        <ele>13</ele>
        <time>2015-09-30T12:03:01Z</time>
      </trkpt>
      <trkpt lat="46.69016" lon="-2.33742">
        <ele>13</ele>
        <time>2015-09-30T12:03:02Z</time>
      </trkpt>
      <trkpt lat="46.69017" lon="-2.33744">
        <ele>13</ele>
        <time>2015-09-30T12:03:03Z</time>
      </trkpt>
      <trkpt lat="46.69017" lon="-2.33745">
        <ele>13</ele>
        <time>2015-09-30T12:03:04Z</time>
      </trkpt>
      <trkpt lat="46.69017" lon="-2.33747">
        <ele>13</ele>
        <time>2015-09-30T12:03:05Z</time>
      </trkpt>
      <trkpt lat="46.69017" lon="-2.33748">
        <ele>13</ele>
        <time>2015-09-30T12:03:06Z</time>
      </trkpt>
      <trkpt lat="46.69017" lon="-2.3375">
        <ele>13</ele>
        <time>2015-09-30T12:03:07Z</time>
      </trkpt>
      <trkpt lat="46.69017" lon="-2.33752">
        <ele>13</ele>
        <time>2015-09-30T12:03:08Z</time>
      </trkpt>
      <trkpt lat="46.69017" lon="-2.33754">
        <ele>13</ele>
        <time>2015-09-30T12:03:09Z</time>
      </trkpt>
      <trkpt lat="46.69017" lon="-2.33755">
        <ele>13</ele>
        <time>2015-09-30T12:03:10Z</time>
      </trkpt>
      <trkpt lat="46.69017" lon="-2.33757">
        <ele>13</ele>
        <time>2015-09-30T12:03:11Z</time>
      </trkpt>
      <trkpt lat="46.69017" lon="-2.33759">
        <ele>13</ele>
        <time>2015-09-30T12:03:12Z</time>
      </trkpt>
      <trkpt lat="46.69017" lon="-2.3376">
        <ele>13</ele>
        <time>2015-09-30T12:03:13Z</time>
      </trkpt>
      <trkpt lat="46.69017" lon="-2.33762">
        <ele>13</ele>
        <time>2015-09-30T12:03:14Z</time>
      </trkpt>
      <trkpt lat="46.69017" lon="-2.33764">
        <ele>13</ele>
        <time>2015-09-30T12:03:15Z</time>
      </trkpt>
      <trkpt lat="46.69018" lon="-2.33765">
        <ele>13</ele>
        <time>2015-09-30T12:03:16Z</time>
      </trkpt>
      <trkpt lat="46.69018" lon="-2.33767">
        <ele>13</ele>
        <time>2015-09-30T12:03:17Z</time>
      </trkpt>
      <trkpt lat="46.69017" lon="-2.33768">
        <ele>13</ele>
        <time>2015-09-30T12:03:18Z</time>
      </trkpt>
      <trkpt lat="46.69018" lon="-2.3377">
        <ele>13</ele>
        <time>2015-09-30T12:03:19Z</time>
      </trkpt>
      <trkpt lat="46.69018" lon="-2.33772">
        <ele>13</ele>
        <time>2015-09-30T12:03:20Z</time>
      </trkpt>
      <trkpt lat="46.69018" lon="-2.33774">
        <ele>13</ele>
        <time>2015-09-30T12:03:21Z</time>
      </trkpt>
      <trkpt lat="46.69018" lon="-2.33775">
        <ele>13</ele>
        <time>2015-09-30T12:03:22Z</time>
      </trkpt>
      <trkpt lat="46.69018" lon="-2.33777">
        <ele>13</ele>
        <time>2015-09-30T12:03:23Z</time>
      </trkpt>
      <trkpt lat="46.69018" lon="-2.33778">
        <ele>13</ele>
        <time>2015-09-30T12:03:24Z</time>
      </trkpt>
      <trkpt lat="46.69018" lon="-2.3378">
        <ele>13</ele>
        <time>2015-09-30T12:03:25Z</time>
      </trkpt>
      <trkpt lat="46.69018" lon="-2.33781">
        <ele>13</ele>
        <time>2015-09-30T12:03:26Z</time>
      </trkpt>
      <trkpt lat="46.69018" lon="-2.33784">
        <ele>13</ele>
        <time>2015-09-30T12:03:28Z</time>
      </trkpt>
      <trkpt lat="46.69018" lon="-2.33786">
        <ele>13</ele>
        <time>2015-09-30T12:03:29Z</time>
      </trkpt>
      <trkpt lat="46.69019" lon="-2.33788">
        <ele>13</ele>
        <time>2015-09-30T12:03:31Z</time>
      </trkpt>
      <trkpt lat="46.69019" lon="-2.3379">
        <ele>13</ele>
        <time>2015-09-30T12:03:33Z</time>
      </trkpt>
      <trkpt lat="46.69019" lon="-2.33793">
        <ele>13</ele>
        <time>2015-09-30T12:03:35Z</time>
      </trkpt>
      <trkpt lat="46.69019" lon="-2.33796">
        <ele>13</ele>
        <time>2015-09-30T12:03:37Z</time>
      </trkpt>
      <trkpt lat="46.69019" lon="-2.33798">
        <ele>13</ele>
        <time>2015-09-30T12:03:39Z</time>
      </trkpt>
      <trkpt lat="46.6902" lon="-2.33799">
        <ele>13</ele>
        <time>2015-09-30T12:03:45Z</time>
      </trkpt>
      <trkpt lat="46.69019" lon="-2.33801">
        <ele>13</ele>
        <time>2015-09-30T12:03:47Z</time>
      </trkpt>
      <trkpt lat="46.69019" lon="-2.33803">
        <ele>13</ele>
        <time>2015-09-30T12:03:48Z</time>
      </trkpt>
      <trkpt lat="46.69019" lon="-2.33805">
        <ele>13</ele>
        <time>2015-09-30T12:03:49Z</time>
      </trkpt>
      <trkpt lat="46.6902" lon="-2.33806">
        <ele>13</ele>
        <time>2015-09-30T12:03:50Z</time>
      </trkpt>
      <trkpt lat="46.6902" lon="-2.33808">
        <ele>13</ele>
        <time>2015-09-30T12:03:51Z</time>
      </trkpt>
      <trkpt lat="46.6902" lon="-2.3381">
        <ele>13</ele>
        <time>2015-09-30T12:03:52Z</time>
      </trkpt>
      <trkpt lat="46.6902" lon="-2.33811">
        <ele>13</ele>
        <time>2015-09-30T12:03:53Z</time>
      </trkpt>
      <trkpt lat="46.6902" lon="-2.33813">
        <ele>13</ele>
        <time>2015-09-30T12:03:54Z</time>
      </trkpt>
      <trkpt lat="46.6902" lon="-2.33815">
        <ele>13</ele>
        <time>2015-09-30T12:03:55Z</time>
      </trkpt>
      <trkpt lat="46.6902" lon="-2.33816">
        <ele>13</ele>
        <time>2015-09-30T12:03:56Z</time>
      </trkpt>
      <trkpt lat="46.6902" lon="-2.33818">
        <ele>13</ele>
        <time>2015-09-30T12:03:57Z</time>
      </trkpt>
      <trkpt lat="46.69021" lon="-2.33819">
        <ele>13</ele>
        <time>2015-09-30T12:03:58Z</time>
      </trkpt>
      <trkpt lat="46.69021" lon="-2.33821">
        <ele>13</ele>
        <time>2015-09-30T12:03:59Z</time>
      </trkpt>
      <trkpt lat="46.69021" lon="-2.33823">
        <ele>13</ele>
        <time>2015-09-30T12:04:00Z</time>
      </trkpt>
      <trkpt lat="46.69022" lon="-2.33824">
        <ele>13</ele>
        <time>2015-09-30T12:04:01Z</time>
      </trkpt>
      <trkpt lat="46.69022" lon="-2.33826">
        <ele>13</ele>
        <time>2015-09-30T12:04:02Z</time>
      </trkpt>
      <trkpt lat="46.69023" lon="-2.33828">
        <ele>13</ele>
        <time>2015-09-30T12:04:03Z</time>
      </trkpt>
      <trkpt lat="46.69023" lon="-2.33829">
        <ele>13</ele>
        <time>2015-09-30T12:04:04Z</time>
      </trkpt>
      <trkpt lat="46.69024" lon="-2.33832">
        <ele>13</ele>
        <time>2015-09-30T12:04:06Z</time>
      </trkpt>
      <trkpt lat="46.69024" lon="-2.33834">
        <ele>13</ele>
        <time>2015-09-30T12:04:08Z</time>
      </trkpt>
      <trkpt lat="46.69025" lon="-2.33836">
        <ele>13</ele>
        <time>2015-09-30T12:04:10Z</time>
      </trkpt>
      <trkpt lat="46.69026" lon="-2.33838">
        <ele>13</ele>
        <time>2015-09-30T12:04:12Z</time>
      </trkpt>
      <trkpt lat="46.69027" lon="-2.33841">
        <ele>13</ele>
        <time>2015-09-30T12:04:14Z</time>
      </trkpt>
      <trkpt lat="46.69027" lon="-2.33844">
        <ele>13</ele>
        <time>2015-09-30T12:04:16Z</time>
      </trkpt>
      <trkpt lat="46.69028" lon="-2.33846">
        <ele>13</ele>
        <time>2015-09-30T12:04:18Z</time>
      </trkpt>
      <trkpt lat="46.69029" lon="-2.33848">
        <ele>13</ele>
        <time>2015-09-30T12:04:20Z</time>
      </trkpt>
      <trkpt lat="46.69029" lon="-2.33849">
        <ele>13</ele>
        <time>2015-09-30T12:04:26Z</time>
      </trkpt>
      <trkpt lat="46.69029" lon="-2.33851">
        <ele>13</ele>
        <time>2015-09-30T12:04:30Z</time>
      </trkpt>
      <trkpt lat="46.6903" lon="-2.33853">
        <ele>13</ele>
        <time>2015-09-30T12:04:32Z</time>
      </trkpt>
      <trkpt lat="46.6903" lon="-2.33855">
        <ele>13</ele>
        <time>2015-09-30T12:04:33Z</time>
      </trkpt>
      <trkpt lat="46.69031" lon="-2.33858">
        <ele>13</ele>
        <time>2015-09-30T12:04:35Z</time>
      </trkpt>
      <trkpt lat="46.69032" lon="-2.3386">
        <ele>13</ele>
        <time>2015-09-30T12:04:37Z</time>
      </trkpt>
      <trkpt lat="46.69032" lon="-2.33862">
        <ele>13</ele>
        <time>2015-09-30T12:04:40Z</time>
      </trkpt>
      <trkpt lat="46.69032" lon="-2.33863">
        <ele>13</ele>
        <time>2015-09-30T12:04:41Z</time>
      </trkpt>
      <trkpt lat="46.69033" lon="-2.33865">
        <ele>13</ele>
        <time>2015-09-30T12:04:42Z</time>
      </trkpt>
      <trkpt lat="46.69034" lon="-2.33867">
        <ele>13</ele>
        <time>2015-09-30T12:04:44Z</time>
      </trkpt>
      <trkpt lat="46.69035" lon="-2.33869">
        <ele>13</ele>
        <time>2015-09-30T12:04:45Z</time>
      </trkpt>
      <trkpt lat="46.69035" lon="-2.3387">
        <ele>13</ele>
        <time>2015-09-30T12:04:46Z</time>
      </trkpt>
      <trkpt lat="46.69036" lon="-2.33873">
        <ele>13</ele>
        <time>2015-09-30T12:04:48Z</time>
      </trkpt>
      <trkpt lat="46.69037" lon="-2.33875">
        <ele>13</ele>
        <time>2015-09-30T12:04:50Z</time>
      </trkpt>
      <trkpt lat="46.69038" lon="-2.33877">
        <ele>13</ele>
        <time>2015-09-30T12:04:52Z</time>
      </trkpt>
      <trkpt lat="46.69039" lon="-2.3388">
        <ele>13</ele>
        <time>2015-09-30T12:04:54Z</time>
      </trkpt>
      <trkpt lat="46.69039" lon="-2.33882">
        <ele>13</ele>
        <time>2015-09-30T12:04:56Z</time>
      </trkpt>
      <trkpt lat="46.69039" lon="-2.33884">
        <ele>13</ele>
        <time>2015-09-30T12:04:57Z</time>
      </trkpt>
      <trkpt lat="46.69039" lon="-2.33886">
        <ele>13</ele>
        <time>2015-09-30T12:04:59Z</time>
      </trkpt>
      <trkpt lat="46.6904" lon="-2.33888">
        <ele>13</ele>
        <time>2015-09-30T12:05:01Z</time>
      </trkpt>
      <trkpt lat="46.69041" lon="-2.3389">
        <ele>13</ele>
        <time>2015-09-30T12:05:05Z</time>
      </trkpt>
      <trkpt lat="46.6904" lon="-2.33892">
        <ele>13</ele>
        <time>2015-09-30T12:05:11Z</time>
      </trkpt>
      <trkpt lat="46.69042" lon="-2.33892">
        <ele>13</ele>
        <time>2015-09-30T12:05:14Z</time>
      </trkpt>
      <trkpt lat="46.69043" lon="-2.33894">
        <ele>13</ele>
        <time>2015-09-30T12:05:16Z</time>
      </trkpt>
      <trkpt lat="46.69045" lon="-2.33895">
        <ele>13</ele>
        <time>2015-09-30T12:05:18Z</time>
      </trkpt>
      <trkpt lat="46.69046" lon="-2.33896">
        <ele>13</ele>
        <time>2015-09-30T12:05:20Z</time>
      </trkpt>
      <trkpt lat="46.69048" lon="-2.33898">
        <ele>13</ele>
        <time>2015-09-30T12:05:22Z</time>
      </trkpt>
      <trkpt lat="46.69049" lon="-2.33899">
        <ele>13</ele>
        <time>2015-09-30T12:05:24Z</time>
      </trkpt>
      <trkpt lat="46.6905" lon="-2.339">
        <ele>13</ele>
        <time>2015-09-30T12:05:26Z</time>
      </trkpt>
      <trkpt lat="46.69052" lon="-2.33901">
        <ele>14</ele>
        <time>2015-09-30T12:05:28Z</time>
      </trkpt>
      <trkpt lat="46.69053" lon="-2.33901">
        <ele>14</ele>
        <time>2015-09-30T12:05:30Z</time>
      </trkpt>
      <trkpt lat="46.69055" lon="-2.33901">
        <ele>14</ele>
        <time>2015-09-30T12:05:32Z</time>
      </trkpt>
      <trkpt lat="46.69056" lon="-2.339">
        <ele>14</ele>
        <time>2015-09-30T12:05:34Z</time>
      </trkpt>
      <trkpt lat="46.69058" lon="-2.33899">
        <ele>14</ele>
        <time>2015-09-30T12:05:36Z</time>
      </trkpt>
      <trkpt lat="46.69059" lon="-2.33898">
        <ele>15</ele>
        <time>2015-09-30T12:05:38Z</time>
      </trkpt>
      <trkpt lat="46.6906" lon="-2.33898">
        <ele>15</ele>
        <time>2015-09-30T12:05:40Z</time>
      </trkpt>
      <trkpt lat="46.69062" lon="-2.33897">
        <ele>15</ele>
        <time>2015-09-30T12:05:42Z</time>
      </trkpt>
      <trkpt lat="46.69063" lon="-2.33897">
        <ele>15</ele>
        <time>2015-09-30T12:05:44Z</time>
      </trkpt>
      <trkpt lat="46.69064" lon="-2.33898">
        <ele>15</ele>
        <time>2015-09-30T12:05:46Z</time>
      </trkpt>
      <trkpt lat="46.69065" lon="-2.33898">
        <ele>15</ele>
        <time>2015-09-30T12:05:48Z</time>
      </trkpt>
      <trkpt lat="46.69067" lon="-2.33897">
        <ele>15</ele>
        <time>2015-09-30T12:05:50Z</time>
      </trkpt>
      <trkpt lat="46.69068" lon="-2.33897">
        <ele>15</ele>
        <time>2015-09-30T12:05:52Z</time>
      </trkpt>
      <trkpt lat="46.69069" lon="-2.33896">
        <ele>15</ele>
        <time>2015-09-30T12:05:54Z</time>
      </trkpt>
      <trkpt lat="46.69071" lon="-2.33895">
        <ele>15</ele>
        <time>2015-09-30T12:05:56Z</time>
      </trkpt>
      <trkpt lat="46.69071" lon="-2.33893">
        <ele>15</ele>
        <time>2015-09-30T12:05:59Z</time>
      </trkpt>
      <trkpt lat="46.69073" lon="-2.33892">
        <ele>15</ele>
        <time>2015-09-30T12:06:01Z</time>
      </trkpt>
      <trkpt lat="46.69074" lon="-2.3389">
        <ele>15</ele>
        <time>2015-09-30T12:06:03Z</time>
      </trkpt>
      <trkpt lat="46.69076" lon="-2.33889">
        <ele>15</ele>
        <time>2015-09-30T12:06:05Z</time>
      </trkpt>
      <trkpt lat="46.69077" lon="-2.3389">
        <ele>15</ele>
        <time>2015-09-30T12:06:08Z</time>
      </trkpt>
      <trkpt lat="46.69078" lon="-2.33889">
        <ele>15</ele>
        <time>2015-09-30T12:06:13Z</time>
      </trkpt>
      <trkpt lat="46.69079" lon="-2.3389">
        <ele>15</ele>
        <time>2015-09-30T12:06:15Z</time>
      </trkpt>
      <trkpt lat="46.69081" lon="-2.3389">
        <ele>15</ele>
        <time>2015-09-30T12:06:17Z</time>
      </trkpt>
      <trkpt lat="46.69082" lon="-2.3389">
        <ele>15</ele>
        <time>2015-09-30T12:06:19Z</time>
      </trkpt>
      <trkpt lat="46.69084" lon="-2.33891">
        <ele>15</ele>
        <time>2015-09-30T12:06:21Z</time>
      </trkpt>
      <trkpt lat="46.69086" lon="-2.33892">
        <ele>15</ele>
        <time>2015-09-30T12:06:23Z</time>
      </trkpt>
      <trkpt lat="46.69087" lon="-2.33892">
        <ele>15</ele>
        <time>2015-09-30T12:06:24Z</time>
      </trkpt>
      <trkpt lat="46.69089" lon="-2.33892">
        <ele>15</ele>
        <time>2015-09-30T12:06:25Z</time>
      </trkpt>
      <trkpt lat="46.6909" lon="-2.33892">
        <ele>15</ele>
        <time>2015-09-30T12:06:26Z</time>
      </trkpt>
      <trkpt lat="46.69091" lon="-2.33893">
        <ele>15</ele>
        <time>2015-09-30T12:06:27Z</time>
      </trkpt>
      <trkpt lat="46.69093" lon="-2.33893">
        <ele>15</ele>
        <time>2015-09-30T12:06:29Z</time>
      </trkpt>
      <trkpt lat="46.69095" lon="-2.33894">
        <ele>15</ele>
        <time>2015-09-30T12:06:31Z</time>
      </trkpt>
      <trkpt lat="46.69096" lon="-2.33895">
        <ele>15</ele>
        <time>2015-09-30T12:06:32Z</time>
      </trkpt>
      <trkpt lat="46.69097" lon="-2.33895">
        <ele>15</ele>
        <time>2015-09-30T12:06:33Z</time>
      </trkpt>
      <trkpt lat="46.69099" lon="-2.33896">
        <ele>15</ele>
        <time>2015-09-30T12:06:35Z</time>
      </trkpt>
      <trkpt lat="46.691" lon="-2.33896">
        <ele>15</ele>
        <time>2015-09-30T12:06:36Z</time>
      </trkpt>
      <trkpt lat="46.69101" lon="-2.33896">
        <ele>15</ele>
        <time>2015-09-30T12:06:37Z</time>
      </trkpt>
      <trkpt lat="46.69103" lon="-2.33896">
        <ele>15</ele>
        <time>2015-09-30T12:06:38Z</time>
      </trkpt>
      <trkpt lat="46.69104" lon="-2.33896">
        <ele>15</ele>
        <time>2015-09-30T12:06:39Z</time>
      </trkpt>
      <trkpt lat="46.69106" lon="-2.33896">
        <ele>15</ele>
        <time>2015-09-30T12:06:41Z</time>
      </trkpt>
      <trkpt lat="46.69107" lon="-2.33896">
        <ele>15</ele>
        <time>2015-09-30T12:06:42Z</time>
      </trkpt>
      <trkpt lat="46.69109" lon="-2.33896">
        <ele>15</ele>
        <time>2015-09-30T12:06:43Z</time>
      </trkpt>
      <trkpt lat="46.69111" lon="-2.33897">
        <ele>15</ele>
        <time>2015-09-30T12:06:45Z</time>
      </trkpt>
      <trkpt lat="46.69113" lon="-2.33898">
        <ele>15</ele>
        <time>2015-09-30T12:06:47Z</time>
      </trkpt>
      <trkpt lat="46.69115" lon="-2.33898">
        <ele>15</ele>
        <time>2015-09-30T12:06:49Z</time>
      </trkpt>
      <trkpt lat="46.69116" lon="-2.33898">
        <ele>15</ele>
        <time>2015-09-30T12:06:50Z</time>
      </trkpt>
      <trkpt lat="46.69117" lon="-2.33897">
        <ele>15</ele>
        <time>2015-09-30T12:06:51Z</time>
      </trkpt>
      <trkpt lat="46.69119" lon="-2.33897">
        <ele>15</ele>
        <time>2015-09-30T12:06:52Z</time>
      </trkpt>
      <trkpt lat="46.69121" lon="-2.33896">
        <ele>15</ele>
        <time>2015-09-30T12:06:54Z</time>
      </trkpt>
      <trkpt lat="46.69122" lon="-2.33896">
        <ele>15</ele>
        <time>2015-09-30T12:06:56Z</time>
      </trkpt>
      <trkpt lat="46.69124" lon="-2.33895">
        <ele>15</ele>
        <time>2015-09-30T12:06:58Z</time>
      </trkpt>
      <trkpt lat="46.69126" lon="-2.33894">
        <ele>15</ele>
        <time>2015-09-30T12:07:00Z</time>
      </trkpt>
      <trkpt lat="46.69127" lon="-2.33894">
        <ele>15</ele>
        <time>2015-09-30T12:07:01Z</time>
      </trkpt>
      <trkpt lat="46.69129" lon="-2.33894">
        <ele>15</ele>
        <time>2015-09-30T12:07:03Z</time>
      </trkpt>
      <trkpt lat="46.69131" lon="-2.33893">
        <ele>15</ele>
        <time>2015-09-30T12:07:05Z</time>
      </trkpt>
      <trkpt lat="46.69133" lon="-2.33893">
        <ele>15</ele>
        <time>2015-09-30T12:07:07Z</time>
      </trkpt>
      <trkpt lat="46.69135" lon="-2.33892">
        <ele>15</ele>
        <time>2015-09-30T12:07:09Z</time>
      </trkpt>
      <trkpt lat="46.69136" lon="-2.33893">
        <ele>15</ele>
        <time>2015-09-30T12:07:10Z</time>
      </trkpt>
      <trkpt lat="46.69138" lon="-2.33893">
        <ele>15</ele>
        <time>2015-09-30T12:07:12Z</time>
      </trkpt>
      <trkpt lat="46.69139" lon="-2.33894">
        <ele>15</ele>
        <time>2015-09-30T12:07:14Z</time>
      </trkpt>
      <trkpt lat="46.69141" lon="-2.33894">
        <ele>15</ele>
        <time>2015-09-30T12:07:16Z</time>
      </trkpt>
      <trkpt lat="46.69143" lon="-2.33895">
        <ele>15</ele>
        <time>2015-09-30T12:07:18Z</time>
      </trkpt>
      <trkpt lat="46.69145" lon="-2.33897">
        <ele>15</ele>
        <time>2015-09-30T12:07:20Z</time>
      </trkpt>
      <trkpt lat="46.69146" lon="-2.33899">
        <ele>15</ele>
        <time>2015-09-30T12:07:22Z</time>
      </trkpt>
      <trkpt lat="46.69148" lon="-2.33901">
        <ele>15</ele>
        <time>2015-09-30T12:07:24Z</time>
      </trkpt>
      <trkpt lat="46.6915" lon="-2.33903">
        <ele>15</ele>
        <time>2015-09-30T12:07:26Z</time>
      </trkpt>
      <trkpt lat="46.69152" lon="-2.33905">
        <ele>15</ele>
        <time>2015-09-30T12:07:28Z</time>
      </trkpt>
      <trkpt lat="46.69154" lon="-2.33907">
        <ele>15</ele>
        <time>2015-09-30T12:07:30Z</time>
      </trkpt>
      <trkpt lat="46.69156" lon="-2.33909">
        <ele>15</ele>
        <time>2015-09-30T12:07:32Z</time>
      </trkpt>
      <trkpt lat="46.69158" lon="-2.33911">
        <ele>15</ele>
        <time>2015-09-30T12:07:34Z</time>
      </trkpt>
      <trkpt lat="46.6916" lon="-2.33913">
        <ele>15</ele>
        <time>2015-09-30T12:07:36Z</time>
      </trkpt>
      <trkpt lat="46.69161" lon="-2.33914">
        <ele>15</ele>
        <time>2015-09-30T12:07:37Z</time>
      </trkpt>
      <trkpt lat="46.69162" lon="-2.33915">
        <ele>15</ele>
        <time>2015-09-30T12:07:38Z</time>
      </trkpt>
      <trkpt lat="46.69163" lon="-2.33916">
        <ele>15</ele>
        <time>2015-09-30T12:07:39Z</time>
      </trkpt>
      <trkpt lat="46.69165" lon="-2.33917">
        <ele>16</ele>
        <time>2015-09-30T12:07:41Z</time>
      </trkpt>
      <trkpt lat="46.69167" lon="-2.33918">
        <ele>16</ele>
        <time>2015-09-30T12:07:42Z</time>
      </trkpt>
      <trkpt lat="46.69168" lon="-2.33919">
        <ele>16</ele>
        <time>2015-09-30T12:07:43Z</time>
      </trkpt>
      <trkpt lat="46.69169" lon="-2.33919">
        <ele>16</ele>
        <time>2015-09-30T12:07:44Z</time>
      </trkpt>
      <trkpt lat="46.6917" lon="-2.3392">
        <ele>16</ele>
        <time>2015-09-30T12:07:45Z</time>
      </trkpt>
      <trkpt lat="46.69171" lon="-2.33921">
        <ele>16</ele>
        <time>2015-09-30T12:07:46Z</time>
      </trkpt>
      <trkpt lat="46.69173" lon="-2.33921">
        <ele>16</ele>
        <time>2015-09-30T12:07:47Z</time>
      </trkpt>
      <trkpt lat="46.69174" lon="-2.33922">
        <ele>16</ele>
        <time>2015-09-30T12:07:48Z</time>
      </trkpt>
      <trkpt lat="46.69175" lon="-2.33923">
        <ele>16</ele>
        <time>2015-09-30T12:07:49Z</time>
      </trkpt>
      <trkpt lat="46.69176" lon="-2.33924">
        <ele>16</ele>
        <time>2015-09-30T12:07:50Z</time>
      </trkpt>
      <trkpt lat="46.69177" lon="-2.33925">
        <ele>16</ele>
        <time>2015-09-30T12:07:51Z</time>
      </trkpt>
      <trkpt lat="46.69178" lon="-2.33925">
        <ele>16</ele>
        <time>2015-09-30T12:07:52Z</time>
      </trkpt>
      <trkpt lat="46.6918" lon="-2.33926">
        <ele>16</ele>
        <time>2015-09-30T12:07:53Z</time>
      </trkpt>
      <trkpt lat="46.69181" lon="-2.33926">
        <ele>16</ele>
        <time>2015-09-30T12:07:54Z</time>
      </trkpt>
      <trkpt lat="46.69182" lon="-2.33927">
        <ele>16</ele>
        <time>2015-09-30T12:07:55Z</time>
      </trkpt>
      <trkpt lat="46.69184" lon="-2.33928">
        <ele>16</ele>
        <time>2015-09-30T12:07:57Z</time>
      </trkpt>
      <trkpt lat="46.69185" lon="-2.33928">
        <ele>16</ele>
        <time>2015-09-30T12:07:58Z</time>
      </trkpt>
      <trkpt lat="46.69186" lon="-2.33929">
        <ele>16</ele>
        <time>2015-09-30T12:07:59Z</time>
      </trkpt>
      <trkpt lat="46.69187" lon="-2.33929">
        <ele>16</ele>
        <time>2015-09-30T12:08:00Z</time>
      </trkpt>
      <trkpt lat="46.69189" lon="-2.3393">
        <ele>16</ele>
        <time>2015-09-30T12:08:02Z</time>
      </trkpt>
      <trkpt lat="46.69192" lon="-2.33931">
        <ele>17</ele>
        <time>2015-09-30T12:08:04Z</time>
      </trkpt>
      <trkpt lat="46.69194" lon="-2.33932">
        <ele>17</ele>
        <time>2015-09-30T12:08:06Z</time>
      </trkpt>
      <trkpt lat="46.69195" lon="-2.33933">
        <ele>17</ele>
        <time>2015-09-30T12:08:07Z</time>
      </trkpt>
      <trkpt lat="46.69197" lon="-2.33934">
        <ele>17</ele>
        <time>2015-09-30T12:08:09Z</time>
      </trkpt>
      <trkpt lat="46.69199" lon="-2.33935">
        <ele>17</ele>
        <time>2015-09-30T12:08:11Z</time>
      </trkpt>
      <trkpt lat="46.69201" lon="-2.33935">
        <ele>18</ele>
        <time>2015-09-30T12:08:13Z</time>
      </trkpt>
      <trkpt lat="46.69203" lon="-2.33936">
        <ele>18</ele>
        <time>2015-09-30T12:08:15Z</time>
      </trkpt>
      <trkpt lat="46.69204" lon="-2.33937">
        <ele>18</ele>
        <time>2015-09-30T12:08:17Z</time>
      </trkpt>
      <trkpt lat="46.69206" lon="-2.33938">
        <ele>18</ele>
        <time>2015-09-30T12:08:19Z</time>
      </trkpt>
      <trkpt lat="46.69207" lon="-2.3394">
        <ele>18</ele>
        <time>2015-09-30T12:08:21Z</time>
      </trkpt>
      <trkpt lat="46.69209" lon="-2.33941">
        <ele>18</ele>
        <time>2015-09-30T12:08:23Z</time>
      </trkpt>
      <trkpt lat="46.6921" lon="-2.33943">
        <ele>19</ele>
        <time>2015-09-30T12:08:25Z</time>
      </trkpt>
      <trkpt lat="46.69211" lon="-2.33945">
        <ele>19</ele>
        <time>2015-09-30T12:08:27Z</time>
      </trkpt>
      <trkpt lat="46.69213" lon="-2.33947">
        <ele>19</ele>
        <time>2015-09-30T12:08:29Z</time>
      </trkpt>
      <trkpt lat="46.69214" lon="-2.33949">
        <ele>19</ele>
        <time>2015-09-30T12:08:31Z</time>
      </trkpt>
      <trkpt lat="46.69216" lon="-2.33951">
        <ele>19</ele>
        <time>2015-09-30T12:08:33Z</time>
      </trkpt>
      <trkpt lat="46.69217" lon="-2.33953">
        <ele>19</ele>
        <time>2015-09-30T12:08:35Z</time>
      </trkpt>
      <trkpt lat="46.69218" lon="-2.33955">
        <ele>19</ele>
        <time>2015-09-30T12:08:37Z</time>
      </trkpt>
      <trkpt lat="46.6922" lon="-2.33957">
        <ele>19</ele>
        <time>2015-09-30T12:08:39Z</time>
      </trkpt>
      <trkpt lat="46.69221" lon="-2.33958">
        <ele>19</ele>
        <time>2015-09-30T12:08:41Z</time>
      </trkpt>
      <trkpt lat="46.69222" lon="-2.3396">
        <ele>19</ele>
        <time>2015-09-30T12:08:43Z</time>
      </trkpt>
      <trkpt lat="46.69224" lon="-2.33962">
        <ele>19</ele>
        <time>2015-09-30T12:08:45Z</time>
      </trkpt>
      <trkpt lat="46.69225" lon="-2.33964">
        <ele>19</ele>
        <time>2015-09-30T12:08:47Z</time>
      </trkpt>
      <trkpt lat="46.69226" lon="-2.33966">
        <ele>19</ele>
        <time>2015-09-30T12:08:49Z</time>
      </trkpt>
      <trkpt lat="46.69227" lon="-2.33969">
        <ele>19</ele>
        <time>2015-09-30T12:08:51Z</time>
      </trkpt>
      <trkpt lat="46.69228" lon="-2.3397">
        <ele>19</ele>
        <time>2015-09-30T12:08:52Z</time>
      </trkpt>
      <trkpt lat="46.69229" lon="-2.33973">
        <ele>19</ele>
        <time>2015-09-30T12:08:54Z</time>
      </trkpt>
      <trkpt lat="46.69231" lon="-2.33975">
        <ele>19</ele>
        <time>2015-09-30T12:08:56Z</time>
      </trkpt>
      <trkpt lat="46.69232" lon="-2.33978">
        <ele>19</ele>
        <time>2015-09-30T12:08:58Z</time>
      </trkpt>
      <trkpt lat="46.69233" lon="-2.3398">
        <ele>19</ele>
        <time>2015-09-30T12:09:00Z</time>
      </trkpt>
      <trkpt lat="46.69234" lon="-2.33983">
        <ele>19</ele>
        <time>2015-09-30T12:09:02Z</time>
      </trkpt>
      <trkpt lat="46.69235" lon="-2.33985">
        <ele>19</ele>
        <time>2015-09-30T12:09:04Z</time>
      </trkpt>
      <trkpt lat="46.69236" lon="-2.33988">
        <ele>19</ele>
        <time>2015-09-30T12:09:06Z</time>
      </trkpt>
      <trkpt lat="46.69237" lon="-2.3399">
        <ele>20</ele>
        <time>2015-09-30T12:09:08Z</time>
      </trkpt>
      <trkpt lat="46.69238" lon="-2.33993">
        <ele>20</ele>
        <time>2015-09-30T12:09:10Z</time>
      </trkpt>
      <trkpt lat="46.6924" lon="-2.33995">
        <ele>20</ele>
        <time>2015-09-30T12:09:12Z</time>
      </trkpt>
      <trkpt lat="46.69241" lon="-2.33997">
        <ele>20</ele>
        <time>2015-09-30T12:09:14Z</time>
      </trkpt>
      <trkpt lat="46.69242" lon="-2.34">
        <ele>20</ele>
        <time>2015-09-30T12:09:16Z</time>
      </trkpt>
      <trkpt lat="46.69244" lon="-2.34002">
        <ele>20</ele>
        <time>2015-09-30T12:09:18Z</time>
      </trkpt>
      <trkpt lat="46.69245" lon="-2.34003">
        <ele>20</ele>
        <time>2015-09-30T12:09:20Z</time>
      </trkpt>
      <trkpt lat="46.69247" lon="-2.34005">
        <ele>20</ele>
        <time>2015-09-30T12:09:22Z</time>
      </trkpt>
      <trkpt lat="46.69248" lon="-2.34006">
        <ele>20</ele>
        <time>2015-09-30T12:09:24Z</time>
      </trkpt>
      <trkpt lat="46.69249" lon="-2.34008">
        <ele>20</ele>
        <time>2015-09-30T12:09:26Z</time>
      </trkpt>
      <trkpt lat="46.69249" lon="-2.34011">
        <ele>20</ele>
        <time>2015-09-30T12:09:28Z</time>
      </trkpt>
      <trkpt lat="46.6925" lon="-2.34013">
        <ele>20</ele>
        <time>2015-09-30T12:09:30Z</time>
      </trkpt>
      <trkpt lat="46.69252" lon="-2.34015">
        <ele>20</ele>
        <time>2015-09-30T12:09:32Z</time>
      </trkpt>
      <trkpt lat="46.69253" lon="-2.34016">
        <ele>20</ele>
        <time>2015-09-30T12:09:34Z</time>
      </trkpt>
      <trkpt lat="46.69255" lon="-2.34018">
        <ele>20</ele>
        <time>2015-09-30T12:09:36Z</time>
      </trkpt>
      <trkpt lat="46.69256" lon="-2.3402">
        <ele>20</ele>
        <time>2015-09-30T12:09:38Z</time>
      </trkpt>
      <trkpt lat="46.69258" lon="-2.34021">
        <ele>20</ele>
        <time>2015-09-30T12:09:40Z</time>
      </trkpt>
      <trkpt lat="46.6926" lon="-2.34022">
        <ele>20</ele>
        <time>2015-09-30T12:09:42Z</time>
      </trkpt>
      <trkpt lat="46.69261" lon="-2.34023">
        <ele>20</ele>
        <time>2015-09-30T12:09:44Z</time>
      </trkpt>
      <trkpt lat="46.69263" lon="-2.34024">
        <ele>20</ele>
        <time>2015-09-30T12:09:46Z</time>
      </trkpt>
      <trkpt lat="46.69265" lon="-2.34026">
        <ele>20</ele>
        <time>2015-09-30T12:09:48Z</time>
      </trkpt>
      <trkpt lat="46.69266" lon="-2.34027">
        <ele>20</ele>
        <time>2015-09-30T12:09:50Z</time>
      </trkpt>
      <trkpt lat="46.69268" lon="-2.34028">
        <ele>20</ele>
        <time>2015-09-30T12:09:52Z</time>
      </trkpt>
      <trkpt lat="46.6927" lon="-2.3403">
        <ele>20</ele>
        <time>2015-09-30T12:09:54Z</time>
      </trkpt>
      <trkpt lat="46.69271" lon="-2.34032">
        <ele>20</ele>
        <time>2015-09-30T12:09:56Z</time>
      </trkpt>
      <trkpt lat="46.69273" lon="-2.34034">
        <ele>20</ele>
        <time>2015-09-30T12:09:58Z</time>
      </trkpt>
      <trkpt lat="46.69274" lon="-2.34037">
        <ele>20</ele>
        <time>2015-09-30T12:10:00Z</time>
      </trkpt>
      <trkpt lat="46.69276" lon="-2.34039">
        <ele>20</ele>
        <time>2015-09-30T12:10:02Z</time>
      </trkpt>
      <trkpt lat="46.69278" lon="-2.34041">
        <ele>20</ele>
        <time>2015-09-30T12:10:04Z</time>
      </trkpt>
      <trkpt lat="46.6928" lon="-2.34043">
        <ele>20</ele>
        <time>2015-09-30T12:10:06Z</time>
      </trkpt>
      <trkpt lat="46.69281" lon="-2.34045">
        <ele>20</ele>
        <time>2015-09-30T12:10:08Z</time>
      </trkpt>
      <trkpt lat="46.69283" lon="-2.34047">
        <ele>20</ele>
        <time>2015-09-30T12:10:10Z</time>
      </trkpt>
      <trkpt lat="46.69285" lon="-2.3405">
        <ele>20</ele>
        <time>2015-09-30T12:10:12Z</time>
      </trkpt>
      <trkpt lat="46.69287" lon="-2.34051">
        <ele>20</ele>
        <time>2015-09-30T12:10:14Z</time>
      </trkpt>
      <trkpt lat="46.69289" lon="-2.34053">
        <ele>20</ele>
        <time>2015-09-30T12:10:16Z</time>
      </trkpt>
      <trkpt lat="46.6929" lon="-2.34055">
        <ele>20</ele>
        <time>2015-09-30T12:10:18Z</time>
      </trkpt>
      <trkpt lat="46.69292" lon="-2.34057">
        <ele>20</ele>
        <time>2015-09-30T12:10:20Z</time>
      </trkpt>
      <trkpt lat="46.69294" lon="-2.34059">
        <ele>20</ele>
        <time>2015-09-30T12:10:22Z</time>
      </trkpt>
      <trkpt lat="46.69296" lon="-2.34061">
        <ele>20</ele>
        <time>2015-09-30T12:10:24Z</time>
      </trkpt>
      <trkpt lat="46.69297" lon="-2.34063">
        <ele>20</ele>
        <time>2015-09-30T12:10:26Z</time>
      </trkpt>
      <trkpt lat="46.69299" lon="-2.34064">
        <ele>20</ele>
        <time>2015-09-30T12:10:28Z</time>
      </trkpt>
      <trkpt lat="46.69301" lon="-2.34067">
        <ele>20</ele>
        <time>2015-09-30T12:10:30Z</time>
      </trkpt>
      <trkpt lat="46.69302" lon="-2.34069">
        <ele>20</ele>
        <time>2015-09-30T12:10:32Z</time>
      </trkpt>
      <trkpt lat="46.69304" lon="-2.34071">
        <ele>20</ele>
        <time>2015-09-30T12:10:34Z</time>
      </trkpt>
      <trkpt lat="46.69305" lon="-2.34073">
        <ele>20</ele>
        <time>2015-09-30T12:10:36Z</time>
      </trkpt>
      <trkpt lat="46.69306" lon="-2.34075">
        <ele>20</ele>
        <time>2015-09-30T12:10:38Z</time>
      </trkpt>
      <trkpt lat="46.69308" lon="-2.34078">
        <ele>20</ele>
        <time>2015-09-30T12:10:40Z</time>
      </trkpt>
      <trkpt lat="46.69309" lon="-2.3408">
        <ele>20</ele>
        <time>2015-09-30T12:10:42Z</time>
      </trkpt>
      <trkpt lat="46.69309" lon="-2.34082">
        <ele>20</ele>
        <time>2015-09-30T12:10:44Z</time>
      </trkpt>
      <trkpt lat="46.6931" lon="-2.34083">
        <ele>20</ele>
        <time>2015-09-30T12:10:45Z</time>
      </trkpt>
      <trkpt lat="46.69311" lon="-2.34086">
        <ele>20</ele>
        <time>2015-09-30T12:10:47Z</time>
      </trkpt>
      <trkpt lat="46.69311" lon="-2.34088">
        <ele>20</ele>
        <time>2015-09-30T12:10:48Z</time>
      </trkpt>
      <trkpt lat="46.69312" lon="-2.34089">
        <ele>20</ele>
        <time>2015-09-30T12:10:49Z</time>
      </trkpt>
      <trkpt lat="46.69313" lon="-2.34092">
        <ele>20</ele>
        <time>2015-09-30T12:10:51Z</time>
      </trkpt>
      <trkpt lat="46.69313" lon="-2.34094">
        <ele>20</ele>
        <time>2015-09-30T12:10:52Z</time>
      </trkpt>
      <trkpt lat="46.69314" lon="-2.34096">
        <ele>20</ele>
        <time>2015-09-30T12:10:54Z</time>
      </trkpt>
      <trkpt lat="46.69315" lon="-2.34099">
        <ele>20</ele>
        <time>2015-09-30T12:10:56Z</time>
      </trkpt>
      <trkpt lat="46.69317" lon="-2.34102">
        <ele>20</ele>
        <time>2015-09-30T12:10:58Z</time>
      </trkpt>
      <trkpt lat="46.69318" lon="-2.34104">
        <ele>20</ele>
        <time>2015-09-30T12:11:00Z</time>
      </trkpt>
      <trkpt lat="46.69319" lon="-2.34107">
        <ele>20</ele>
        <time>2015-09-30T12:11:02Z</time>
      </trkpt>
      <trkpt lat="46.6932" lon="-2.34109">
        <ele>20</ele>
        <time>2015-09-30T12:11:04Z</time>
      </trkpt>
      <trkpt lat="46.69321" lon="-2.34111">
        <ele>20</ele>
        <time>2015-09-30T12:11:06Z</time>
      </trkpt>
      <trkpt lat="46.69322" lon="-2.34114">
        <ele>20</ele>
        <time>2015-09-30T12:11:08Z</time>
      </trkpt>
      <trkpt lat="46.69322" lon="-2.34116">
        <ele>20</ele>
        <time>2015-09-30T12:11:09Z</time>
      </trkpt>
      <trkpt lat="46.69324" lon="-2.34118">
        <ele>20</ele>
        <time>2015-09-30T12:11:11Z</time>
      </trkpt>
      <trkpt lat="46.69325" lon="-2.3412">
        <ele>20</ele>
        <time>2015-09-30T12:11:13Z</time>
      </trkpt>
      <trkpt lat="46.69326" lon="-2.34123">
        <ele>20</ele>
        <time>2015-09-30T12:11:15Z</time>
      </trkpt>
      <trkpt lat="46.69327" lon="-2.34125">
        <ele>20</ele>
        <time>2015-09-30T12:11:17Z</time>
      </trkpt>
      <trkpt lat="46.69327" lon="-2.34127">
        <ele>20</ele>
        <time>2015-09-30T12:11:18Z</time>
      </trkpt>
      <trkpt lat="46.69328" lon="-2.34128">
        <ele>20</ele>
        <time>2015-09-30T12:11:19Z</time>
      </trkpt>
      <trkpt lat="46.69328" lon="-2.3413">
        <ele>20</ele>
        <time>2015-09-30T12:11:20Z</time>
      </trkpt>
      <trkpt lat="46.69329" lon="-2.34132">
        <ele>20</ele>
        <time>2015-09-30T12:11:22Z</time>
      </trkpt>
      <trkpt lat="46.6933" lon="-2.34135">
        <ele>20</ele>
        <time>2015-09-30T12:11:24Z</time>
      </trkpt>
      <trkpt lat="46.69331" lon="-2.34137">
        <ele>20</ele>
        <time>2015-09-30T12:11:26Z</time>
      </trkpt>
      <trkpt lat="46.69332" lon="-2.3414">
        <ele>20</ele>
        <time>2015-09-30T12:11:28Z</time>
      </trkpt>
      <trkpt lat="46.69333" lon="-2.34142">
        <ele>20</ele>
        <time>2015-09-30T12:11:29Z</time>
      </trkpt>
      <trkpt lat="46.69334" lon="-2.34144">
        <ele>20</ele>
        <time>2015-09-30T12:11:31Z</time>
      </trkpt>
      <trkpt lat="46.69335" lon="-2.34147">
        <ele>20</ele>
        <time>2015-09-30T12:11:33Z</time>
      </trkpt>
      <trkpt lat="46.69336" lon="-2.34149">
        <ele>20</ele>
        <time>2015-09-30T12:11:35Z</time>
      </trkpt>
      <trkpt lat="46.69337" lon="-2.34151">
        <ele>20</ele>
        <time>2015-09-30T12:11:37Z</time>
      </trkpt>
      <trkpt lat="46.69338" lon="-2.34153">
        <ele>20</ele>
        <time>2015-09-30T12:11:39Z</time>
      </trkpt>
      <trkpt lat="46.69339" lon="-2.34156">
        <ele>20</ele>
        <time>2015-09-30T12:11:41Z</time>
      </trkpt>
      <trkpt lat="46.69341" lon="-2.34158">
        <ele>20</ele>
        <time>2015-09-30T12:11:43Z</time>
      </trkpt>
      <trkpt lat="46.69342" lon="-2.3416">
        <ele>20</ele>
        <time>2015-09-30T12:11:45Z</time>
      </trkpt>
      <trkpt lat="46.69344" lon="-2.34162">
        <ele>20</ele>
        <time>2015-09-30T12:11:47Z</time>
      </trkpt>
      <trkpt lat="46.69345" lon="-2.34164">
        <ele>20</ele>
        <time>2015-09-30T12:11:49Z</time>
      </trkpt>
      <trkpt lat="46.69347" lon="-2.34166">
        <ele>20</ele>
        <time>2015-09-30T12:11:51Z</time>
      </trkpt>
      <trkpt lat="46.69348" lon="-2.34169">
        <ele>20</ele>
        <time>2015-09-30T12:11:53Z</time>
      </trkpt>
      <trkpt lat="46.6935" lon="-2.34171">
        <ele>20</ele>
        <time>2015-09-30T12:11:55Z</time>
      </trkpt>
      <trkpt lat="46.69351" lon="-2.34173">
        <ele>20</ele>
        <time>2015-09-30T12:11:57Z</time>
      </trkpt>
      <trkpt lat="46.69353" lon="-2.34175">
        <ele>20</ele>
        <time>2015-09-30T12:11:59Z</time>
      </trkpt>
      <trkpt lat="46.69354" lon="-2.34177">
        <ele>20</ele>
        <time>2015-09-30T12:12:01Z</time>
      </trkpt>
      <trkpt lat="46.69355" lon="-2.34179">
        <ele>20</ele>
        <time>2015-09-30T12:12:03Z</time>
      </trkpt>
      <trkpt lat="46.69357" lon="-2.3418">
        <ele>20</ele>
        <time>2015-09-30T12:12:05Z</time>
      </trkpt>
      <trkpt lat="46.69358" lon="-2.34182">
        <ele>20</ele>
        <time>2015-09-30T12:12:07Z</time>
      </trkpt>
      <trkpt lat="46.6936" lon="-2.34184">
        <ele>20</ele>
        <time>2015-09-30T12:12:10Z</time>
      </trkpt>
      <trkpt lat="46.69361" lon="-2.34185">
        <ele>20</ele>
        <time>2015-09-30T12:12:12Z</time>
      </trkpt>
      <trkpt lat="46.69362" lon="-2.34187">
        <ele>20</ele>
        <time>2015-09-30T12:12:14Z</time>
      </trkpt>
      <trkpt lat="46.69364" lon="-2.34189">
        <ele>20</ele>
        <time>2015-09-30T12:12:16Z</time>
      </trkpt>
      <trkpt lat="46.69365" lon="-2.3419">
        <ele>20</ele>
        <time>2015-09-30T12:12:19Z</time>
      </trkpt>
      <trkpt lat="46.69367" lon="-2.34192">
        <ele>20</ele>
        <time>2015-09-30T12:12:22Z</time>
      </trkpt>
      <trkpt lat="46.69368" lon="-2.34192">
        <ele>19</ele>
        <time>2015-09-30T12:12:26Z</time>
      </trkpt>
      <trkpt lat="46.69369" lon="-2.34191">
        <ele>17</ele>
        <time>2015-09-30T12:12:38Z</time>
      </trkpt>
      <trkpt lat="46.6937" lon="-2.3419">
        <ele>17</ele>
        <time>2015-09-30T12:12:41Z</time>
      </trkpt>
      <trkpt lat="46.6937" lon="-2.34188">
        <ele>17</ele>
        <time>2015-09-30T12:12:47Z</time>
      </trkpt>
      <trkpt lat="46.6937" lon="-2.34186">
        <ele>17</ele>
        <time>2015-09-30T12:12:53Z</time>
      </trkpt>
      <trkpt lat="46.69369" lon="-2.34188">
        <ele>17</ele>
        <time>2015-09-30T12:13:08Z</time>
      </trkpt>
      <trkpt lat="46.69368" lon="-2.34188">
        <ele>17</ele>
        <time>2015-09-30T12:13:18Z</time>
      </trkpt>
      <trkpt lat="46.69369" lon="-2.34189">
        <ele>17</ele>
        <time>2015-09-30T12:13:23Z</time>
      </trkpt>
      <trkpt lat="46.6937" lon="-2.3419">
        <ele>17</ele>
        <time>2015-09-30T12:13:26Z</time>
      </trkpt>
      <trkpt lat="46.69372" lon="-2.3419">
        <ele>16</ele>
        <time>2015-09-30T12:13:29Z</time>
      </trkpt>
      <trkpt lat="46.69373" lon="-2.34191">
        <ele>15</ele>
        <time>2015-09-30T12:13:32Z</time>
      </trkpt>
      <trkpt lat="46.69374" lon="-2.34191">
        <ele>15</ele>
        <time>2015-09-30T12:13:34Z</time>
      </trkpt>
      <trkpt lat="46.69375" lon="-2.34191">
        <ele>14</ele>
        <time>2015-09-30T12:13:37Z</time>
      </trkpt>
      <trkpt lat="46.69377" lon="-2.34192">
        <ele>14</ele>
        <time>2015-09-30T12:13:41Z</time>
      </trkpt>
      <trkpt lat="46.69378" lon="-2.34193">
        <ele>14</ele>
        <time>2015-09-30T12:13:44Z</time>
      </trkpt>
      <trkpt lat="46.69379" lon="-2.34193">
        <ele>14</ele>
        <time>2015-09-30T12:13:48Z</time>
      </trkpt>
      <trkpt lat="46.6938" lon="-2.34195">
        <ele>10</ele>
        <time>2015-09-30T12:13:59Z</time>
      </trkpt>
      <trkpt lat="46.6938" lon="-2.34197">
        <ele>10</ele>
        <time>2015-09-30T12:14:06Z</time>
      </trkpt>
      <trkpt lat="46.69381" lon="-2.34197">
        <ele>10</ele>
        <time>2015-09-30T12:14:09Z</time>
      </trkpt>
      <trkpt lat="46.69383" lon="-2.34198">
        <ele>9</ele>
        <time>2015-09-30T12:14:15Z</time>
      </trkpt>
      <trkpt lat="46.69381" lon="-2.342">
        <ele>9</ele>
        <time>2015-09-30T12:14:25Z</time>
      </trkpt>
      <trkpt lat="46.69382" lon="-2.34202">
        <ele>9</ele>
        <time>2015-09-30T12:14:27Z</time>
      </trkpt>
      <trkpt lat="46.69383" lon="-2.34202">
        <ele>9</ele>
        <time>2015-09-30T12:14:36Z</time>
      </trkpt>
      <trkpt lat="46.69384" lon="-2.34204">
        <ele>9</ele>
        <time>2015-09-30T12:14:42Z</time>
      </trkpt>
      <trkpt lat="46.69384" lon="-2.34206">
        <ele>9</ele>
        <time>2015-09-30T12:14:45Z</time>
      </trkpt>
      <trkpt lat="46.69386" lon="-2.34207">
        <ele>9</ele>
        <time>2015-09-30T12:14:50Z</time>
      </trkpt>
      <trkpt lat="46.69387" lon="-2.34207">
        <ele>9</ele>
        <time>2015-09-30T12:14:53Z</time>
      </trkpt>
      <trkpt lat="46.69388" lon="-2.34209">
        <ele>9</ele>
        <time>2015-09-30T12:14:55Z</time>
      </trkpt>
      <trkpt lat="46.6939" lon="-2.34208">
        <ele>9</ele>
        <time>2015-09-30T12:14:57Z</time>
      </trkpt>
      <trkpt lat="46.69392" lon="-2.34208">
        <ele>9</ele>
        <time>2015-09-30T12:14:59Z</time>
      </trkpt>
      <trkpt lat="46.69394" lon="-2.34209">
        <ele>8</ele>
        <time>2015-09-30T12:15:01Z</time>
      </trkpt>
      <trkpt lat="46.69396" lon="-2.34209">
        <ele>8</ele>
        <time>2015-09-30T12:15:03Z</time>
      </trkpt>
      <trkpt lat="46.69397" lon="-2.34209">
        <ele>8</ele>
        <time>2015-09-30T12:15:04Z</time>
      </trkpt>
      <trkpt lat="46.69399" lon="-2.34209">
        <ele>8</ele>
        <time>2015-09-30T12:15:05Z</time>
      </trkpt>
      <trkpt lat="46.694" lon="-2.3421">
        <ele>8</ele>
        <time>2015-09-30T12:15:07Z</time>
      </trkpt>
      <trkpt lat="46.69401" lon="-2.3421">
        <ele>8</ele>
        <time>2015-09-30T12:15:07Z</time>
      </trkpt>
      <trkpt lat="46.69402" lon="-2.3421">
        <ele>8</ele>
        <time>2015-09-30T12:15:08Z</time>
      </trkpt>
      <trkpt lat="46.69403" lon="-2.34211">
        <ele>8</ele>
        <time>2015-09-30T12:15:09Z</time>
      </trkpt>
      <trkpt lat="46.69405" lon="-2.34211">
        <ele>8</ele>
        <time>2015-09-30T12:15:11Z</time>
      </trkpt>
      <trkpt lat="46.69406" lon="-2.34212">
        <ele>8</ele>
        <time>2015-09-30T12:15:13Z</time>
      </trkpt>
      <trkpt lat="46.69406" lon="-2.34214">
        <ele>6</ele>
        <time>2015-09-30T12:15:33Z</time>
      </trkpt>
      <trkpt lat="46.69407" lon="-2.34215">
        <ele>5</ele>
        <time>2015-09-30T12:15:41Z</time>
      </trkpt>
      <trkpt lat="46.69408" lon="-2.34216">
        <ele>5</ele>
        <time>2015-09-30T12:15:44Z</time>
      </trkpt>
      <trkpt lat="46.69409" lon="-2.34217">
        <ele>5</ele>
        <time>2015-09-30T12:15:49Z</time>
      </trkpt>
      <trkpt lat="46.69411" lon="-2.34217">
        <ele>5</ele>
        <time>2015-09-30T12:15:51Z</time>
      </trkpt>
      <trkpt lat="46.69412" lon="-2.34217">
        <ele>5</ele>
        <time>2015-09-30T12:15:53Z</time>
      </trkpt>
      <trkpt lat="46.69414" lon="-2.34218">
        <ele>5</ele>
        <time>2015-09-30T12:15:55Z</time>
      </trkpt>
      <trkpt lat="46.69416" lon="-2.34218">
        <ele>5</ele>
        <time>2015-09-30T12:15:57Z</time>
      </trkpt>
      <trkpt lat="46.69418" lon="-2.34218">
        <ele>5</ele>
        <time>2015-09-30T12:15:59Z</time>
      </trkpt>
      <trkpt lat="46.6942" lon="-2.34216">
        <ele>5</ele>
        <time>2015-09-30T12:16:01Z</time>
      </trkpt>
      <trkpt lat="46.69421" lon="-2.34216">
        <ele>5</ele>
        <time>2015-09-30T12:16:03Z</time>
      </trkpt>
      <trkpt lat="46.69423" lon="-2.34216">
        <ele>5</ele>
        <time>2015-09-30T12:16:05Z</time>
      </trkpt>
      <trkpt lat="46.69425" lon="-2.34215">
        <ele>5</ele>
        <time>2015-09-30T12:16:07Z</time>
      </trkpt>
      <trkpt lat="46.69427" lon="-2.34214">
        <ele>5</ele>
        <time>2015-09-30T12:16:09Z</time>
      </trkpt>
      <trkpt lat="46.69429" lon="-2.34214">
        <ele>5</ele>
        <time>2015-09-30T12:16:10Z</time>
      </trkpt>
      <trkpt lat="46.6943" lon="-2.34213">
        <ele>5</ele>
        <time>2015-09-30T12:16:12Z</time>
      </trkpt>
      <trkpt lat="46.69432" lon="-2.34214">
        <ele>5</ele>
        <time>2015-09-30T12:16:14Z</time>
      </trkpt>
      <trkpt lat="46.69434" lon="-2.34215">
        <ele>5</ele>
        <time>2015-09-30T12:16:16Z</time>
      </trkpt>
      <trkpt lat="46.69435" lon="-2.34215">
        <ele>5</ele>
        <time>2015-09-30T12:16:17Z</time>
      </trkpt>
      <trkpt lat="46.69436" lon="-2.34215">
        <ele>5</ele>
        <time>2015-09-30T12:16:18Z</time>
      </trkpt>
      <trkpt lat="46.69438" lon="-2.34215">
        <ele>5</ele>
        <time>2015-09-30T12:16:20Z</time>
      </trkpt>
      <trkpt lat="46.69439" lon="-2.34216">
        <ele>5</ele>
        <time>2015-09-30T12:16:21Z</time>
      </trkpt>
      <trkpt lat="46.69441" lon="-2.34218">
        <ele>5</ele>
        <time>2015-09-30T12:16:23Z</time>
      </trkpt>
      <trkpt lat="46.69441" lon="-2.34221">
        <ele>5</ele>
        <time>2015-09-30T12:16:25Z</time>
      </trkpt>
      <trkpt lat="46.6944" lon="-2.34223">
        <ele>5</ele>
        <time>2015-09-30T12:16:27Z</time>
      </trkpt>
      <trkpt lat="46.69439" lon="-2.34225">
        <ele>5</ele>
        <time>2015-09-30T12:16:29Z</time>
      </trkpt>
      <trkpt lat="46.69438" lon="-2.34227">
        <ele>5</ele>
        <time>2015-09-30T12:16:30Z</time>
      </trkpt>
      <trkpt lat="46.69439" lon="-2.34228">
        <ele>5</ele>
        <time>2015-09-30T12:16:31Z</time>
      </trkpt>
      <trkpt lat="46.69439" lon="-2.3423">
        <ele>5</ele>
        <time>2015-09-30T12:16:32Z</time>
      </trkpt>
      <trkpt lat="46.6944" lon="-2.34231">
        <ele>5</ele>
        <time>2015-09-30T12:16:33Z</time>
      </trkpt>
      <trkpt lat="46.69441" lon="-2.34234">
        <ele>5</ele>
        <time>2015-09-30T12:16:35Z</time>
      </trkpt>
      <trkpt lat="46.69441" lon="-2.34236">
        <ele>5</ele>
        <time>2015-09-30T12:16:37Z</time>
      </trkpt>
      <trkpt lat="46.69441" lon="-2.34238">
        <ele>5</ele>
        <time>2015-09-30T12:16:39Z</time>
      </trkpt>
      <trkpt lat="46.6944" lon="-2.34241">
        <ele>5</ele>
        <time>2015-09-30T12:16:41Z</time>
      </trkpt>
      <trkpt lat="46.69439" lon="-2.34242">
        <ele>5</ele>
        <time>2015-09-30T12:16:42Z</time>
      </trkpt>
      <trkpt lat="46.69438" lon="-2.34245">
        <ele>5</ele>
        <time>2015-09-30T12:16:44Z</time>
      </trkpt>
      <trkpt lat="46.69437" lon="-2.34248">
        <ele>5</ele>
        <time>2015-09-30T12:16:46Z</time>
      </trkpt>
      <trkpt lat="46.69437" lon="-2.34249">
        <ele>5</ele>
        <time>2015-09-30T12:16:48Z</time>
      </trkpt>
      <trkpt lat="46.69438" lon="-2.34251">
        <ele>5</ele>
        <time>2015-09-30T12:16:53Z</time>
      </trkpt>
      <trkpt lat="46.69438" lon="-2.34253">
        <ele>5</ele>
        <time>2015-09-30T12:16:55Z</time>
      </trkpt>
      <trkpt lat="46.69438" lon="-2.34255">
        <ele>5</ele>
        <time>2015-09-30T12:16:58Z</time>
      </trkpt>
      <trkpt lat="46.69438" lon="-2.34256">
        <ele>5</ele>
        <time>2015-09-30T12:17:01Z</time>
      </trkpt>
      <trkpt lat="46.69436" lon="-2.34257">
        <ele>5</ele>
        <time>2015-09-30T12:17:05Z</time>
      </trkpt>
      <trkpt lat="46.69435" lon="-2.34258">
        <ele>5</ele>
        <time>2015-09-30T12:17:08Z</time>
      </trkpt>
      <trkpt lat="46.69435" lon="-2.3426">
        <ele>5</ele>
        <time>2015-09-30T12:17:11Z</time>
      </trkpt>
      <trkpt lat="46.69434" lon="-2.34261">
        <ele>5</ele>
        <time>2015-09-30T12:17:15Z</time>
      </trkpt>
      <trkpt lat="46.69432" lon="-2.34263">
        <ele>5</ele>
        <time>2015-09-30T12:17:18Z</time>
      </trkpt>
      <trkpt lat="46.69431" lon="-2.34265">
        <ele>6</ele>
        <time>2015-09-30T12:17:21Z</time>
      </trkpt>
      <trkpt lat="46.6943" lon="-2.34267">
        <ele>6</ele>
        <time>2015-09-30T12:17:23Z</time>
      </trkpt>
      <trkpt lat="46.69429" lon="-2.34269">
        <ele>7</ele>
        <time>2015-09-30T12:17:25Z</time>
      </trkpt>
      <trkpt lat="46.69428" lon="-2.3427">
        <ele>7</ele>
        <time>2015-09-30T12:17:27Z</time>
      </trkpt>
      <trkpt lat="46.69426" lon="-2.34271">
        <ele>8</ele>
        <time>2015-09-30T12:17:30Z</time>
      </trkpt>
      <trkpt lat="46.69425" lon="-2.34272">
        <ele>9</ele>
        <time>2015-09-30T12:17:32Z</time>
      </trkpt>
      <trkpt lat="46.69423" lon="-2.34273">
        <ele>9</ele>
        <time>2015-09-30T12:17:34Z</time>
      </trkpt>
      <trkpt lat="46.69422" lon="-2.34275">
        <ele>9</ele>
        <time>2015-09-30T12:17:37Z</time>
      </trkpt>
      <trkpt lat="46.69421" lon="-2.34276">
        <ele>10</ele>
        <time>2015-09-30T12:17:39Z</time>
      </trkpt>
      <trkpt lat="46.6942" lon="-2.34277">
        <ele>10</ele>
        <time>2015-09-30T12:17:41Z</time>
      </trkpt>
      <trkpt lat="46.69418" lon="-2.34278">
        <ele>10</ele>
        <time>2015-09-30T12:17:44Z</time>
      </trkpt>
      <trkpt lat="46.69417" lon="-2.34278">
        <ele>10</ele>
        <time>2015-09-30T12:17:46Z</time>
      </trkpt>
      <trkpt lat="46.69416" lon="-2.3428">
        <ele>10</ele>
        <time>2015-09-30T12:17:49Z</time>
      </trkpt>
      <trkpt lat="46.69415" lon="-2.34282">
        <ele>10</ele>
        <time>2015-09-30T12:17:52Z</time>
      </trkpt>
      <trkpt lat="46.69413" lon="-2.34282">
        <ele>10</ele>
        <time>2015-09-30T12:17:54Z</time>
      </trkpt>
      <trkpt lat="46.69412" lon="-2.34283">
        <ele>10</ele>
        <time>2015-09-30T12:17:56Z</time>
      </trkpt>
      <trkpt lat="46.69411" lon="-2.34285">
        <ele>10</ele>
        <time>2015-09-30T12:17:58Z</time>
      </trkpt>
      <trkpt lat="46.69409" lon="-2.34287">
        <ele>10</ele>
        <time>2015-09-30T12:18:00Z</time>
      </trkpt>
      <trkpt lat="46.69409" lon="-2.34289">
        <ele>10</ele>
        <time>2015-09-30T12:18:01Z</time>
      </trkpt>
      <trkpt lat="46.69409" lon="-2.34291">
        <ele>10</ele>
        <time>2015-09-30T12:18:03Z</time>
      </trkpt>
      <trkpt lat="46.69409" lon="-2.34293">
        <ele>10</ele>
        <time>2015-09-30T12:18:05Z</time>
      </trkpt>
      <trkpt lat="46.69408" lon="-2.34295">
        <ele>10</ele>
        <time>2015-09-30T12:18:07Z</time>
      </trkpt>
      <trkpt lat="46.69408" lon="-2.34297">
        <ele>10</ele>
        <time>2015-09-30T12:18:09Z</time>
      </trkpt>
      <trkpt lat="46.69407" lon="-2.34299">
        <ele>10</ele>
        <time>2015-09-30T12:18:11Z</time>
      </trkpt>
      <trkpt lat="46.69406" lon="-2.34301">
        <ele>10</ele>
        <time>2015-09-30T12:18:13Z</time>
      </trkpt>
      <trkpt lat="46.69406" lon="-2.34304">
        <ele>10</ele>
        <time>2015-09-30T12:18:15Z</time>
      </trkpt>
      <trkpt lat="46.69406" lon="-2.34306">
        <ele>10</ele>
        <time>2015-09-30T12:18:17Z</time>
      </trkpt>
      <trkpt lat="46.69405" lon="-2.34307">
        <ele>11</ele>
        <time>2015-09-30T12:18:29Z</time>
      </trkpt>
      <trkpt lat="46.69406" lon="-2.34308">
        <ele>11</ele>
        <time>2015-09-30T12:18:35Z</time>
      </trkpt>
      <trkpt lat="46.69407" lon="-2.3431">
        <ele>11</ele>
        <time>2015-09-30T12:18:44Z</time>
      </trkpt>
      <trkpt lat="46.69405" lon="-2.3431">
        <ele>12</ele>
        <time>2015-09-30T12:18:58Z</time>
      </trkpt>
      <trkpt lat="46.69405" lon="-2.34312">
        <ele>15</ele>
        <time>2015-09-30T12:19:16Z</time>
      </trkpt>
      <trkpt lat="46.69405" lon="-2.34315">
        <ele>15</ele>
        <time>2015-09-30T12:19:18Z</time>
      </trkpt>
      <trkpt lat="46.69405" lon="-2.34316">
        <ele>15</ele>
        <time>2015-09-30T12:19:19Z</time>
      </trkpt>
      <trkpt lat="46.69405" lon="-2.34318">
        <ele>15</ele>
        <time>2015-09-30T12:19:20Z</time>
      </trkpt>
      <trkpt lat="46.69405" lon="-2.34319">
        <ele>15</ele>
        <time>2015-09-30T12:19:21Z</time>
      </trkpt>
      <trkpt lat="46.69406" lon="-2.34322">
        <ele>16</ele>
        <time>2015-09-30T12:19:23Z</time>
      </trkpt>
      <trkpt lat="46.69406" lon="-2.34324">
        <ele>16</ele>
        <time>2015-09-30T12:19:25Z</time>
      </trkpt>
      <trkpt lat="46.69406" lon="-2.34326">
        <ele>16</ele>
        <time>2015-09-30T12:19:27Z</time>
      </trkpt>
      <trkpt lat="46.69406" lon="-2.34328">
        <ele>16</ele>
        <time>2015-09-30T12:19:28Z</time>
      </trkpt>
      <trkpt lat="46.69406" lon="-2.34329">
        <ele>16</ele>
        <time>2015-09-30T12:19:29Z</time>
      </trkpt>
      <trkpt lat="46.69405" lon="-2.34332">
        <ele>16</ele>
        <time>2015-09-30T12:19:31Z</time>
      </trkpt>
      <trkpt lat="46.69405" lon="-2.34334">
        <ele>16</ele>
        <time>2015-09-30T12:19:32Z</time>
      </trkpt>
      <trkpt lat="46.69405" lon="-2.34335">
        <ele>16</ele>
        <time>2015-09-30T12:19:33Z</time>
      </trkpt>
      <trkpt lat="46.69405" lon="-2.34339">
        <ele>16</ele>
        <time>2015-09-30T12:19:35Z</time>
      </trkpt>
      <trkpt lat="46.69405" lon="-2.34341">
        <ele>16</ele>
        <time>2015-09-30T12:19:36Z</time>
      </trkpt>
      <trkpt lat="46.69405" lon="-2.34342">
        <ele>16</ele>
        <time>2015-09-30T12:19:37Z</time>
      </trkpt>
      <trkpt lat="46.69405" lon="-2.34345">
        <ele>16</ele>
        <time>2015-09-30T12:19:39Z</time>
      </trkpt>
      <trkpt lat="46.69404" lon="-2.34348">
        <ele>16</ele>
        <time>2015-09-30T12:19:41Z</time>
      </trkpt>
      <trkpt lat="46.69404" lon="-2.3435">
        <ele>16</ele>
        <time>2015-09-30T12:19:42Z</time>
      </trkpt>
      <trkpt lat="46.69404" lon="-2.34351">
        <ele>16</ele>
        <time>2015-09-30T12:19:43Z</time>
      </trkpt>
      <trkpt lat="46.69404" lon="-2.34353">
        <ele>16</ele>
        <time>2015-09-30T12:19:44Z</time>
      </trkpt>
      <trkpt lat="46.69404" lon="-2.34354">
        <ele>16</ele>
        <time>2015-09-30T12:19:45Z</time>
      </trkpt>
      <trkpt lat="46.69405" lon="-2.34356">
        <ele>16</ele>
        <time>2015-09-30T12:19:46Z</time>
      </trkpt>
      <trkpt lat="46.69405" lon="-2.34359">
        <ele>16</ele>
        <time>2015-09-30T12:19:48Z</time>
      </trkpt>
      <trkpt lat="46.69406" lon="-2.3436">
        <ele>16</ele>
        <time>2015-09-30T12:19:49Z</time>
      </trkpt>
      <trkpt lat="46.69408" lon="-2.34362">
        <ele>16</ele>
        <time>2015-09-30T12:19:51Z</time>
      </trkpt>
      <trkpt lat="46.69407" lon="-2.34361">
        <ele>16</ele>
        <time>2015-09-30T12:19:56Z</time>
      </trkpt>
      <trkpt lat="46.69407" lon="-2.34359">
        <ele>16</ele>
        <time>2015-09-30T12:20:02Z</time>
      </trkpt>
      <trkpt lat="46.69408" lon="-2.34359">
        <ele>16</ele>
        <time>2015-09-30T12:20:08Z</time>
      </trkpt>
      <trkpt lat="46.69408" lon="-2.34357">
        <ele>16</ele>
        <time>2015-09-30T12:20:11Z</time>
      </trkpt>
      <trkpt lat="46.69407" lon="-2.34359">
        <ele>16</ele>
        <time>2015-09-30T12:20:27Z</time>
      </trkpt>
      <trkpt lat="46.69408" lon="-2.34359">
        <ele>16</ele>
        <time>2015-09-30T12:20:30Z</time>
      </trkpt>
      <trkpt lat="46.69409" lon="-2.34358">
        <ele>16</ele>
        <time>2015-09-30T12:20:36Z</time>
      </trkpt>
      <trkpt lat="46.6941" lon="-2.3436">
        <ele>15</ele>
        <time>2015-09-30T12:20:40Z</time>
      </trkpt>
      <trkpt lat="46.6941" lon="-2.34362">
        <ele>15</ele>
        <time>2015-09-30T12:20:52Z</time>
      </trkpt>
      <trkpt lat="46.6941" lon="-2.34363">
        <ele>15</ele>
        <time>2015-09-30T12:20:57Z</time>
      </trkpt>
      <trkpt lat="46.69409" lon="-2.34365">
        <ele>15</ele>
        <time>2015-09-30T12:21:02Z</time>
      </trkpt>
      <trkpt lat="46.69407" lon="-2.34367">
        <ele>15</ele>
        <time>2015-09-30T12:21:07Z</time>
      </trkpt>
      <trkpt lat="46.69406" lon="-2.34368">
        <ele>15</ele>
        <time>2015-09-30T12:21:16Z</time>
      </trkpt>
      <trkpt lat="46.69408" lon="-2.34367">
        <ele>16</ele>
        <time>2015-09-30T12:21:20Z</time>
      </trkpt>
      <trkpt lat="46.69408" lon="-2.34366">
        <ele>16</ele>
        <time>2015-09-30T12:21:30Z</time>
      </trkpt>
      <trkpt lat="46.69408" lon="-2.34368">
        <ele>17</ele>
        <time>2015-09-30T12:21:51Z</time>
      </trkpt>
      <trkpt lat="46.69407" lon="-2.34367">
        <ele>17</ele>
        <time>2015-09-30T12:22:04Z</time>
      </trkpt>
      <trkpt lat="46.69407" lon="-2.34368">
        <ele>16</ele>
        <time>2015-09-30T12:22:15Z</time>
      </trkpt>
      <trkpt lat="46.69407" lon="-2.3437">
        <ele>15</ele>
        <time>2015-09-30T12:22:18Z</time>
      </trkpt>
      <trkpt lat="46.69407" lon="-2.34372">
        <ele>14</ele>
        <time>2015-09-30T12:22:21Z</time>
      </trkpt>
      <trkpt lat="46.69407" lon="-2.34374">
        <ele>14</ele>
        <time>2015-09-30T12:22:24Z</time>
      </trkpt>
      <trkpt lat="46.69406" lon="-2.34376">
        <ele>14</ele>
        <time>2015-09-30T12:22:51Z</time>
      </trkpt>
      <trkpt lat="46.69407" lon="-2.34378">
        <ele>14</ele>
        <time>2015-09-30T12:22:53Z</time>
      </trkpt>
      <trkpt lat="46.69407" lon="-2.34379">
        <ele>14</ele>
        <time>2015-09-30T12:22:55Z</time>
      </trkpt>
      <trkpt lat="46.69407" lon="-2.34381">
        <ele>14</ele>
        <time>2015-09-30T12:22:57Z</time>
      </trkpt>
      <trkpt lat="46.69408" lon="-2.34384">
        <ele>14</ele>
        <time>2015-09-30T12:23:01Z</time>
      </trkpt>
      <trkpt lat="46.69409" lon="-2.34386">
        <ele>14</ele>
        <time>2015-09-30T12:23:03Z</time>
      </trkpt>
      <trkpt lat="46.69409" lon="-2.34388">
        <ele>14</ele>
        <time>2015-09-30T12:23:05Z</time>
      </trkpt>
      <trkpt lat="46.6941" lon="-2.3439">
        <ele>14</ele>
        <time>2015-09-30T12:23:07Z</time>
      </trkpt>
      <trkpt lat="46.69411" lon="-2.34393">
        <ele>14</ele>
        <time>2015-09-30T12:23:09Z</time>
      </trkpt>
      <trkpt lat="46.69412" lon="-2.34394">
        <ele>14</ele>
        <time>2015-09-30T12:23:11Z</time>
      </trkpt>
      <trkpt lat="46.69413" lon="-2.34396">
        <ele>14</ele>
        <time>2015-09-30T12:23:14Z</time>
      </trkpt>
      <trkpt lat="46.69414" lon="-2.34398">
        <ele>14</ele>
        <time>2015-09-30T12:23:16Z</time>
      </trkpt>
      <trkpt lat="46.69414" lon="-2.344">
        <ele>14</ele>
        <time>2015-09-30T12:23:18Z</time>
      </trkpt>
      <trkpt lat="46.69415" lon="-2.34403">
        <ele>14</ele>
        <time>2015-09-30T12:23:20Z</time>
      </trkpt>
      <trkpt lat="46.69416" lon="-2.34405">
        <ele>14</ele>
        <time>2015-09-30T12:23:22Z</time>
      </trkpt>
      <trkpt lat="46.69416" lon="-2.34408">
        <ele>14</ele>
        <time>2015-09-30T12:23:24Z</time>
      </trkpt>
      <trkpt lat="46.69417" lon="-2.34409">
        <ele>13</ele>
        <time>2015-09-30T12:23:26Z</time>
      </trkpt>
      <trkpt lat="46.69418" lon="-2.34412">
        <ele>13</ele>
        <time>2015-09-30T12:23:28Z</time>
      </trkpt>
      <trkpt lat="46.69418" lon="-2.34414">
        <ele>13</ele>
        <time>2015-09-30T12:23:30Z</time>
      </trkpt>
      <trkpt lat="46.69419" lon="-2.34416">
        <ele>13</ele>
        <time>2015-09-30T12:23:32Z</time>
      </trkpt>
      <trkpt lat="46.69419" lon="-2.34418">
        <ele>13</ele>
        <time>2015-09-30T12:23:34Z</time>
      </trkpt>
      <trkpt lat="46.69419" lon="-2.3442">
        <ele>13</ele>
        <time>2015-09-30T12:23:35Z</time>
      </trkpt>
      <trkpt lat="46.69419" lon="-2.34422">
        <ele>13</ele>
        <time>2015-09-30T12:23:36Z</time>
      </trkpt>
      <trkpt lat="46.69419" lon="-2.34425">
        <ele>12</ele>
        <time>2015-09-30T12:23:38Z</time>
      </trkpt>
      <trkpt lat="46.6942" lon="-2.34427">
        <ele>12</ele>
        <time>2015-09-30T12:23:40Z</time>
      </trkpt>
      <trkpt lat="46.69419" lon="-2.34429">
        <ele>11</ele>
        <time>2015-09-30T12:23:42Z</time>
      </trkpt>
      <trkpt lat="46.69418" lon="-2.34432">
        <ele>10</ele>
        <time>2015-09-30T12:23:44Z</time>
      </trkpt>
      <trkpt lat="46.69417" lon="-2.34433">
        <ele>10</ele>
        <time>2015-09-30T12:23:47Z</time>
      </trkpt>
      <trkpt lat="46.69417" lon="-2.34435">
        <ele>9</ele>
        <time>2015-09-30T12:24:00Z</time>
      </trkpt>
      <trkpt lat="46.69417" lon="-2.34437">
        <ele>9</ele>
        <time>2015-09-30T12:24:03Z</time>
      </trkpt>
      <trkpt lat="46.69417" lon="-2.34439">
        <ele>9</ele>
        <time>2015-09-30T12:24:06Z</time>
      </trkpt>
      <trkpt lat="46.69416" lon="-2.34439">
        <ele>9</ele>
        <time>2015-09-30T12:24:29Z</time>
      </trkpt>
      <trkpt lat="46.69418" lon="-2.34439">
        <ele>9</ele>
        <time>2015-09-30T12:24:35Z</time>
      </trkpt>
      <trkpt lat="46.69419" lon="-2.34439">
        <ele>9</ele>
        <time>2015-09-30T12:24:36Z</time>
      </trkpt>
      <trkpt lat="46.69421" lon="-2.3444">
        <ele>9</ele>
        <time>2015-09-30T12:24:38Z</time>
      </trkpt>
      <trkpt lat="46.69422" lon="-2.34442">
        <ele>9</ele>
        <time>2015-09-30T12:24:39Z</time>
      </trkpt>
      <trkpt lat="46.69423" lon="-2.34443">
        <ele>9</ele>
        <time>2015-09-30T12:24:40Z</time>
      </trkpt>
      <trkpt lat="46.69424" lon="-2.34444">
        <ele>9</ele>
        <time>2015-09-30T12:24:42Z</time>
      </trkpt>
      <trkpt lat="46.69426" lon="-2.34446">
        <ele>7</ele>
        <time>2015-09-30T12:24:45Z</time>
      </trkpt>
      <trkpt lat="46.69426" lon="-2.34447">
        <ele>7</ele>
        <time>2015-09-30T12:24:48Z</time>
      </trkpt>
      <trkpt lat="46.69427" lon="-2.34449">
        <ele>7</ele>
        <time>2015-09-30T12:24:50Z</time>
      </trkpt>
      <trkpt lat="46.69427" lon="-2.34451">
        <ele>7</ele>
        <time>2015-09-30T12:24:51Z</time>
      </trkpt>
      <trkpt lat="46.69428" lon="-2.34452">
        <ele>7</ele>
        <time>2015-09-30T12:24:53Z</time>
      </trkpt>
      <trkpt lat="46.69429" lon="-2.34453">
        <ele>7</ele>
        <time>2015-09-30T12:24:56Z</time>
      </trkpt>
      <trkpt lat="46.69429" lon="-2.34455">
        <ele>7</ele>
        <time>2015-09-30T12:25:00Z</time>
      </trkpt>
      <trkpt lat="46.69431" lon="-2.34457">
        <ele>7</ele>
        <time>2015-09-30T12:25:02Z</time>
      </trkpt>
      <trkpt lat="46.69432" lon="-2.34458">
        <ele>7</ele>
        <time>2015-09-30T12:25:04Z</time>
      </trkpt>
      <trkpt lat="46.69433" lon="-2.3446">
        <ele>7</ele>
        <time>2015-09-30T12:25:06Z</time>
      </trkpt>
      <trkpt lat="46.69435" lon="-2.34461">
        <ele>7</ele>
        <time>2015-09-30T12:25:07Z</time>
      </trkpt>
      <trkpt lat="46.69436" lon="-2.34462">
        <ele>7</ele>
        <time>2015-09-30T12:25:09Z</time>
      </trkpt>
      <trkpt lat="46.69438" lon="-2.34464">
        <ele>7</ele>
        <time>2015-09-30T12:25:11Z</time>
      </trkpt>
      <trkpt lat="46.69439" lon="-2.34465">
        <ele>7</ele>
        <time>2015-09-30T12:25:13Z</time>
      </trkpt>
      <trkpt lat="46.6944" lon="-2.34466">
        <ele>7</ele>
        <time>2015-09-30T12:25:15Z</time>
      </trkpt>
      <trkpt lat="46.69441" lon="-2.34469">
        <ele>7</ele>
        <time>2015-09-30T12:25:17Z</time>
      </trkpt>
      <trkpt lat="46.69442" lon="-2.34471">
        <ele>7</ele>
        <time>2015-09-30T12:25:19Z</time>
      </trkpt>
      <trkpt lat="46.69442" lon="-2.34473">
        <ele>7</ele>
        <time>2015-09-30T12:25:21Z</time>
      </trkpt>
      <trkpt lat="46.69444" lon="-2.34475">
        <ele>7</ele>
        <time>2015-09-30T12:25:23Z</time>
      </trkpt>
      <trkpt lat="46.69445" lon="-2.34477">
        <ele>7</ele>
        <time>2015-09-30T12:25:25Z</time>
      </trkpt>
      <trkpt lat="46.69446" lon="-2.34479">
        <ele>6</ele>
        <time>2015-09-30T12:25:27Z</time>
      </trkpt>
      <trkpt lat="46.69448" lon="-2.34481">
        <ele>6</ele>
        <time>2015-09-30T12:25:29Z</time>
      </trkpt>
      <trkpt lat="46.69449" lon="-2.34483">
        <ele>6</ele>
        <time>2015-09-30T12:25:31Z</time>
      </trkpt>
      <trkpt lat="46.6945" lon="-2.34484">
        <ele>6</ele>
        <time>2015-09-30T12:25:33Z</time>
      </trkpt>
      <trkpt lat="46.69451" lon="-2.34486">
        <ele>6</ele>
        <time>2015-09-30T12:25:35Z</time>
      </trkpt>
      <trkpt lat="46.69453" lon="-2.34488">
        <ele>6</ele>
        <time>2015-09-30T12:25:37Z</time>
      </trkpt>
      <trkpt lat="46.69454" lon="-2.34491">
        <ele>5</ele>
        <time>2015-09-30T12:25:39Z</time>
      </trkpt>
      <trkpt lat="46.69456" lon="-2.34492">
        <ele>5</ele>
        <time>2015-09-30T12:25:41Z</time>
      </trkpt>
      <trkpt lat="46.69457" lon="-2.34493">
        <ele>5</ele>
        <time>2015-09-30T12:25:43Z</time>
      </trkpt>
      <trkpt lat="46.69459" lon="-2.34494">
        <ele>5</ele>
        <time>2015-09-30T12:25:45Z</time>
      </trkpt>
      <trkpt lat="46.69461" lon="-2.34495">
        <ele>5</ele>
        <time>2015-09-30T12:25:47Z</time>
      </trkpt>
      <trkpt lat="46.69463" lon="-2.34496">
        <ele>5</ele>
        <time>2015-09-30T12:25:49Z</time>
      </trkpt>
      <trkpt lat="46.69465" lon="-2.34497">
        <ele>5</ele>
        <time>2015-09-30T12:25:51Z</time>
      </trkpt>
      <trkpt lat="46.69467" lon="-2.34498">
        <ele>5</ele>
        <time>2015-09-30T12:25:53Z</time>
      </trkpt>
      <trkpt lat="46.69468" lon="-2.345">
        <ele>5</ele>
        <time>2015-09-30T12:25:55Z</time>
      </trkpt>
      <trkpt lat="46.69469" lon="-2.34501">
        <ele>5</ele>
        <time>2015-09-30T12:25:57Z</time>
      </trkpt>
      <trkpt lat="46.69469" lon="-2.34503">
        <ele>5</ele>
        <time>2015-09-30T12:26:00Z</time>
      </trkpt>
      <trkpt lat="46.69471" lon="-2.34504">
        <ele>5</ele>
        <time>2015-09-30T12:26:04Z</time>
      </trkpt>
      <trkpt lat="46.69471" lon="-2.34506">
        <ele>5</ele>
        <time>2015-09-30T12:26:06Z</time>
      </trkpt>
      <trkpt lat="46.69471" lon="-2.34507">
        <ele>5</ele>
        <time>2015-09-30T12:26:11Z</time>
      </trkpt>
      <trkpt lat="46.69472" lon="-2.34508">
        <ele>4</ele>
        <time>2015-09-30T12:26:14Z</time>
      </trkpt>
      <trkpt lat="46.69474" lon="-2.3451">
        <ele>4</ele>
        <time>2015-09-30T12:26:16Z</time>
      </trkpt>
      <trkpt lat="46.69475" lon="-2.34512">
        <ele>4</ele>
        <time>2015-09-30T12:26:18Z</time>
      </trkpt>
      <trkpt lat="46.69476" lon="-2.34513">
        <ele>3</ele>
        <time>2015-09-30T12:26:20Z</time>
      </trkpt>
      <trkpt lat="46.69477" lon="-2.34515">
        <ele>2</ele>
        <time>2015-09-30T12:26:24Z</time>
      </trkpt>
      <trkpt lat="46.69477" lon="-2.34518">
        <ele>2</ele>
        <time>2015-09-30T12:26:26Z</time>
      </trkpt>
      <trkpt lat="46.69478" lon="-2.3452">
        <ele>2</ele>
        <time>2015-09-30T12:26:28Z</time>
      </trkpt>
      <trkpt lat="46.69478" lon="-2.34522">
        <ele>1</ele>
        <time>2015-09-30T12:26:30Z</time>
      </trkpt>
      <trkpt lat="46.6948" lon="-2.34524">
        <ele>1</ele>
        <time>2015-09-30T12:26:32Z</time>
      </trkpt>
      <trkpt lat="46.69481" lon="-2.34525">
        <ele>1</ele>
        <time>2015-09-30T12:26:34Z</time>
      </trkpt>
      <trkpt lat="46.69482" lon="-2.34528">
        <ele>6</ele>
        <time>2015-09-30T12:26:36Z</time>
      </trkpt>
      <trkpt lat="46.69484" lon="-2.34528">
        <ele>5.9</ele>
        <time>2015-09-30T12:26:38Z</time>
      </trkpt>
      <trkpt lat="46.69485" lon="-2.34529">
        <ele>5.8</ele>
        <time>2015-09-30T12:26:39Z</time>
      </trkpt>
      <trkpt lat="46.69487" lon="-2.34529">
        <ele>5.8</ele>
        <time>2015-09-30T12:26:41Z</time>
      </trkpt>
      <trkpt lat="46.69489" lon="-2.34529">
        <ele>5.8</ele>
        <time>2015-09-30T12:26:43Z</time>
      </trkpt>
      <trkpt lat="46.69491" lon="-2.34528">
        <ele>5.9</ele>
        <time>2015-09-30T12:26:45Z</time>
      </trkpt>
      <trkpt lat="46.69493" lon="-2.34529">
        <ele>5.7</ele>
        <time>2015-09-30T12:26:47Z</time>
      </trkpt>
      <trkpt lat="46.69495" lon="-2.34529">
        <ele>5.8</ele>
        <time>2015-09-30T12:26:49Z</time>
      </trkpt>
      <trkpt lat="46.69497" lon="-2.34528">
        <ele>5.9</ele>
        <time>2015-09-30T12:26:51Z</time>
      </trkpt>
      <trkpt lat="46.69499" lon="-2.34528">
        <ele>5.9</ele>
        <time>2015-09-30T12:26:53Z</time>
      </trkpt>
      <trkpt lat="46.695" lon="-2.34529">
        <ele>5.9</ele>
        <time>2015-09-30T12:26:55Z</time>
      </trkpt>
      <trkpt lat="46.69502" lon="-2.34529">
        <ele>6</ele>
        <time>2015-09-30T12:26:56Z</time>
      </trkpt>
      <trkpt lat="46.69504" lon="-2.34529">
        <ele>6.3</ele>
        <time>2015-09-30T12:26:58Z</time>
      </trkpt>
      <trkpt lat="46.69506" lon="-2.3453">
        <ele>6.5</ele>
        <time>2015-09-30T12:27:00Z</time>
      </trkpt>
      <trkpt lat="46.69507" lon="-2.34531">
        <ele>6.5</ele>
        <time>2015-09-30T12:27:02Z</time>
      </trkpt>
      <trkpt lat="46.69509" lon="-2.34531">
        <ele>6.6</ele>
        <time>2015-09-30T12:27:03Z</time>
      </trkpt>
      <trkpt lat="46.6951" lon="-2.34532">
        <ele>6.7</ele>
        <time>2015-09-30T12:27:04Z</time>
      </trkpt>
      <trkpt lat="46.69512" lon="-2.34532">
        <ele>6.9</ele>
        <time>2015-09-30T12:27:06Z</time>
      </trkpt>
      <trkpt lat="46.69514" lon="-2.34533">
        <ele>7.1</ele>
        <time>2015-09-30T12:27:08Z</time>
      </trkpt>
      <trkpt lat="46.69515" lon="-2.34533">
        <ele>7.1</ele>
        <time>2015-09-30T12:27:10Z</time>
      </trkpt>
      <trkpt lat="46.69516" lon="-2.34534">
        <ele>7.2</ele>
        <time>2015-09-30T12:27:13Z</time>
      </trkpt>
      <trkpt lat="46.69517" lon="-2.34535">
        <ele>7.1</ele>
        <time>2015-09-30T12:27:15Z</time>
      </trkpt>
      <trkpt lat="46.69517" lon="-2.34537">
        <ele>6.8</ele>
        <time>2015-09-30T12:27:18Z</time>
      </trkpt>
      <trkpt lat="46.69519" lon="-2.34537">
        <ele>7</ele>
        <time>2015-09-30T12:27:21Z</time>
      </trkpt>
      <trkpt lat="46.69519" lon="-2.34539">
        <ele>6.7</ele>
        <time>2015-09-30T12:27:26Z</time>
      </trkpt>
      <trkpt lat="46.6952" lon="-2.3454">
        <ele>6.7</ele>
        <time>2015-09-30T12:27:28Z</time>
      </trkpt>
      <trkpt lat="46.69522" lon="-2.34542">
        <ele>6.5</ele>
        <time>2015-09-30T12:27:30Z</time>
      </trkpt>
      <trkpt lat="46.69523" lon="-2.34545">
        <ele>6.3</ele>
        <time>2015-09-30T12:27:32Z</time>
      </trkpt>
      <trkpt lat="46.69524" lon="-2.34547">
        <ele>6.1</ele>
        <time>2015-09-30T12:27:34Z</time>
      </trkpt>
      <trkpt lat="46.69526" lon="-2.34548">
        <ele>6</ele>
        <time>2015-09-30T12:27:36Z</time>
      </trkpt>
      <trkpt lat="46.69527" lon="-2.3455">
        <ele>6</ele>
        <time>2015-09-30T12:27:38Z</time>
      </trkpt>
      <trkpt lat="46.69529" lon="-2.34551">
        <ele>5.9</ele>
        <time>2015-09-30T12:27:40Z</time>
      </trkpt>
      <trkpt lat="46.69531" lon="-2.34551">
        <ele>5.9</ele>
        <time>2015-09-30T12:27:41Z</time>
      </trkpt>
      <trkpt lat="46.69533" lon="-2.34552">
        <ele>5.9</ele>
        <time>2015-09-30T12:27:43Z</time>
      </trkpt>
      <trkpt lat="46.69534" lon="-2.34552">
        <ele>5.9</ele>
        <time>2015-09-30T12:27:45Z</time>
      </trkpt>
      <trkpt lat="46.69535" lon="-2.34552">
        <ele>6</ele>
        <time>2015-09-30T12:27:46Z</time>
      </trkpt>
      <trkpt lat="46.69537" lon="-2.34552">
        <ele>6.1</ele>
        <time>2015-09-30T12:27:48Z</time>
      </trkpt>
      <trkpt lat="46.69539" lon="-2.34552">
        <ele>6.2</ele>
        <time>2015-09-30T12:27:50Z</time>
      </trkpt>
      <trkpt lat="46.6954" lon="-2.34553">
        <ele>6</ele>
        <time>2015-09-30T12:27:52Z</time>
      </trkpt>
      <trkpt lat="46.69542" lon="-2.34554">
        <ele>5.8</ele>
        <time>2015-09-30T12:27:54Z</time>
      </trkpt>
      <trkpt lat="46.69543" lon="-2.34557">
        <ele>5.5</ele>
        <time>2015-09-30T12:27:56Z</time>
      </trkpt>
      <trkpt lat="46.69545" lon="-2.34559">
        <ele>5.5</ele>
        <time>2015-09-30T12:27:58Z</time>
      </trkpt>
      <trkpt lat="46.69546" lon="-2.34561">
        <ele>5.5</ele>
        <time>2015-09-30T12:27:59Z</time>
      </trkpt>
      <trkpt lat="46.69546" lon="-2.34562">
        <ele>5.4</ele>
        <time>2015-09-30T12:28:00Z</time>
      </trkpt>
      <trkpt lat="46.69547" lon="-2.34565">
        <ele>5.4</ele>
        <time>2015-09-30T12:28:02Z</time>
      </trkpt>
      <trkpt lat="46.69549" lon="-2.34566">
        <ele>5.4</ele>
        <time>2015-09-30T12:28:04Z</time>
      </trkpt>
      <trkpt lat="46.6955" lon="-2.34568">
        <ele>5.3</ele>
        <time>2015-09-30T12:28:06Z</time>
      </trkpt>
      <trkpt lat="46.69552" lon="-2.3457">
        <ele>5.3</ele>
        <time>2015-09-30T12:28:08Z</time>
      </trkpt>
      <trkpt lat="46.69553" lon="-2.34572">
        <ele>5.3</ele>
        <time>2015-09-30T12:28:10Z</time>
      </trkpt>
      <trkpt lat="46.69555" lon="-2.34574">
        <ele>5.3</ele>
        <time>2015-09-30T12:28:12Z</time>
      </trkpt>
      <trkpt lat="46.69557" lon="-2.34576">
        <ele>5.3</ele>
        <time>2015-09-30T12:28:14Z</time>
      </trkpt>
      <trkpt lat="46.69559" lon="-2.34577">
        <ele>5.3</ele>
        <time>2015-09-30T12:28:16Z</time>
      </trkpt>
      <trkpt lat="46.6956" lon="-2.34579">
        <ele>5.3</ele>
        <time>2015-09-30T12:28:18Z</time>
      </trkpt>
      <trkpt lat="46.69562" lon="-2.3458">
        <ele>5.2</ele>
        <time>2015-09-30T12:28:20Z</time>
      </trkpt>
      <trkpt lat="46.69563" lon="-2.34581">
        <ele>5.2</ele>
        <time>2015-09-30T12:28:22Z</time>
      </trkpt>
      <trkpt lat="46.69565" lon="-2.34582">
        <ele>5.1</ele>
        <time>2015-09-30T12:28:24Z</time>
      </trkpt>
      <trkpt lat="46.69567" lon="-2.34583">
        <ele>5.1</ele>
        <time>2015-09-30T12:28:26Z</time>
      </trkpt>
      <trkpt lat="46.69568" lon="-2.34585">
        <ele>5.1</ele>
        <time>2015-09-30T12:28:28Z</time>
      </trkpt>
      <trkpt lat="46.69568" lon="-2.34586">
        <ele>5.2</ele>
        <time>2015-09-30T12:28:32Z</time>
      </trkpt>
      <trkpt lat="46.69569" lon="-2.34588">
        <ele>5.2</ele>
        <time>2015-09-30T12:28:35Z</time>
      </trkpt>
      <trkpt lat="46.69569" lon="-2.34589">
        <ele>5.3</ele>
        <time>2015-09-30T12:28:37Z</time>
      </trkpt>
      <trkpt lat="46.6957" lon="-2.34591">
        <ele>5.4</ele>
        <time>2015-09-30T12:28:39Z</time>
      </trkpt>
      <trkpt lat="46.69571" lon="-2.34593">
        <ele>5.6</ele>
        <time>2015-09-30T12:28:41Z</time>
      </trkpt>
      <trkpt lat="46.69571" lon="-2.34592">
        <ele>5.5</ele>
        <time>2015-09-30T12:28:45Z</time>
      </trkpt>
      <trkpt lat="46.69572" lon="-2.34591">
        <ele>5.5</ele>
        <time>2015-09-30T12:28:51Z</time>
      </trkpt>
      <trkpt lat="46.69573" lon="-2.34593">
        <ele>5.6</ele>
        <time>2015-09-30T12:28:55Z</time>
      </trkpt>
      <trkpt lat="46.69574" lon="-2.34594">
        <ele>5.6</ele>
        <time>2015-09-30T12:28:59Z</time>
      </trkpt>
      <trkpt lat="46.69574" lon="-2.34596">
        <ele>5.7</ele>
        <time>2015-09-30T12:29:05Z</time>
      </trkpt>
      <trkpt lat="46.69574" lon="-2.34597">
        <ele>5.8</ele>
        <time>2015-09-30T12:29:13Z</time>
      </trkpt>
      <trkpt lat="46.69575" lon="-2.34599">
        <ele>5.9</ele>
        <time>2015-09-30T12:29:15Z</time>
      </trkpt>
      <trkpt lat="46.69574" lon="-2.346">
        <ele>6</ele>
        <time>2015-09-30T12:29:19Z</time>
      </trkpt>
      <trkpt lat="46.69573" lon="-2.34601">
        <ele>6</ele>
        <time>2015-09-30T12:29:25Z</time>
      </trkpt>
      <trkpt lat="46.69574" lon="-2.346">
        <ele>6</ele>
        <time>2015-09-30T12:29:40Z</time>
      </trkpt>
      <trkpt lat="46.69576" lon="-2.346">
        <ele>6</ele>
        <time>2015-09-30T12:29:42Z</time>
      </trkpt>
      <trkpt lat="46.69574" lon="-2.346">
        <ele>6</ele>
        <time>2015-09-30T12:29:53Z</time>
      </trkpt>
      <trkpt lat="46.69576" lon="-2.346">
        <ele>6</ele>
        <time>2015-09-30T12:29:59Z</time>
      </trkpt>
      <trkpt lat="46.69576" lon="-2.34598">
        <ele>5.9</ele>
        <time>2015-09-30T12:30:02Z</time>
      </trkpt>
      <trkpt lat="46.69577" lon="-2.34597">
        <ele>5.9</ele>
        <time>2015-09-30T12:30:04Z</time>
      </trkpt>
      <trkpt lat="46.69577" lon="-2.34598">
        <ele>5.9</ele>
        <time>2015-09-30T12:30:08Z</time>
      </trkpt>
      <trkpt lat="46.69577" lon="-2.34597">
        <ele>5.9</ele>
        <time>2015-09-30T12:30:14Z</time>
      </trkpt>
      <trkpt lat="46.69576" lon="-2.34596">
        <ele>5.8</ele>
        <time>2015-09-30T12:30:19Z</time>
      </trkpt>
      <trkpt lat="46.69575" lon="-2.34597">
        <ele>5.8</ele>
        <time>2015-09-30T12:30:20Z</time>
      </trkpt>
      <trkpt lat="46.69573" lon="-2.34596">
        <ele>5.8</ele>
        <time>2015-09-30T12:30:22Z</time>
      </trkpt>
      <trkpt lat="46.69573" lon="-2.34595">
        <ele>5.7</ele>
        <time>2015-09-30T12:30:24Z</time>
      </trkpt>
      <trkpt lat="46.69572" lon="-2.34594">
        <ele>5.6</ele>
        <time>2015-09-30T12:30:25Z</time>
      </trkpt>
      <trkpt lat="46.69571" lon="-2.34593">
        <ele>5.5</ele>
        <time>2015-09-30T12:30:26Z</time>
      </trkpt>
      <trkpt lat="46.69569" lon="-2.34592">
        <ele>5.5</ele>
        <time>2015-09-30T12:30:27Z</time>
      </trkpt>
      <trkpt lat="46.69568" lon="-2.34592">
        <ele>5.4</ele>
        <time>2015-09-30T12:30:28Z</time>
      </trkpt>
      <trkpt lat="46.69566" lon="-2.3459">
        <ele>5.3</ele>
        <time>2015-09-30T12:30:30Z</time>
      </trkpt>
      <trkpt lat="46.69565" lon="-2.34588">
        <ele>5.2</ele>
        <time>2015-09-30T12:30:31Z</time>
      </trkpt>
      <trkpt lat="46.69563" lon="-2.34586">
        <ele>5.1</ele>
        <time>2015-09-30T12:30:33Z</time>
      </trkpt>
      <trkpt lat="46.69561" lon="-2.34584">
        <ele>5</ele>
        <time>2015-09-30T12:30:35Z</time>
      </trkpt>
      <trkpt lat="46.6956" lon="-2.34583">
        <ele>5</ele>
        <time>2015-09-30T12:30:36Z</time>
      </trkpt>
      <trkpt lat="46.69558" lon="-2.34582">
        <ele>5.1</ele>
        <time>2015-09-30T12:30:37Z</time>
      </trkpt>
      <trkpt lat="46.69557" lon="-2.34581">
        <ele>5.1</ele>
        <time>2015-09-30T12:30:38Z</time>
      </trkpt>
      <trkpt lat="46.69556" lon="-2.34581">
        <ele>5.1</ele>
        <time>2015-09-30T12:30:39Z</time>
      </trkpt>
      <trkpt lat="46.69555" lon="-2.3458">
        <ele>5.1</ele>
        <time>2015-09-30T12:30:40Z</time>
      </trkpt>
      <trkpt lat="46.69553" lon="-2.34579">
        <ele>5.1</ele>
        <time>2015-09-30T12:30:41Z</time>
      </trkpt>
      <trkpt lat="46.69551" lon="-2.34577">
        <ele>5.1</ele>
        <time>2015-09-30T12:30:43Z</time>
      </trkpt>
      <trkpt lat="46.69549" lon="-2.34575">
        <ele>5.1</ele>
        <time>2015-09-30T12:30:45Z</time>
      </trkpt>
      <trkpt lat="46.69548" lon="-2.34574">
        <ele>5.1</ele>
        <time>2015-09-30T12:30:46Z</time>
      </trkpt>
      <trkpt lat="46.69547" lon="-2.34573">
        <ele>5.1</ele>
        <time>2015-09-30T12:30:47Z</time>
      </trkpt>
      <trkpt lat="46.69545" lon="-2.34572">
        <ele>5</ele>
        <time>2015-09-30T12:30:49Z</time>
      </trkpt>
      <trkpt lat="46.69543" lon="-2.3457">
        <ele>5</ele>
        <time>2015-09-30T12:30:51Z</time>
      </trkpt>
      <trkpt lat="46.69542" lon="-2.34569">
        <ele>5</ele>
        <time>2015-09-30T12:30:53Z</time>
      </trkpt>
      <trkpt lat="46.69541" lon="-2.34567">
        <ele>5.1</ele>
        <time>2015-09-30T12:30:54Z</time>
      </trkpt>
      <trkpt lat="46.6954" lon="-2.34566">
        <ele>5.1</ele>
        <time>2015-09-30T12:30:55Z</time>
      </trkpt>
      <trkpt lat="46.6954" lon="-2.34564">
        <ele>5.1</ele>
        <time>2015-09-30T12:30:56Z</time>
      </trkpt>
      <trkpt lat="46.69539" lon="-2.34562">
        <ele>5.2</ele>
        <time>2015-09-30T12:30:58Z</time>
      </trkpt>
      <trkpt lat="46.6954" lon="-2.34561">
        <ele>5.2</ele>
        <time>2015-09-30T12:31:03Z</time>
      </trkpt>
      <trkpt lat="46.69538" lon="-2.34559">
        <ele>5.2</ele>
        <time>2015-09-30T12:31:05Z</time>
      </trkpt>
      <trkpt lat="46.69537" lon="-2.34559">
        <ele>5.2</ele>
        <time>2015-09-30T12:31:06Z</time>
      </trkpt>
      <trkpt lat="46.69536" lon="-2.34558">
        <ele>5.2</ele>
        <time>2015-09-30T12:31:07Z</time>
      </trkpt>
      <trkpt lat="46.69534" lon="-2.34559">
        <ele>5.1</ele>
        <time>2015-09-30T12:31:09Z</time>
      </trkpt>
      <trkpt lat="46.69533" lon="-2.34561">
        <ele>5</ele>
        <time>2015-09-30T12:31:14Z</time>
      </trkpt>
      <trkpt lat="46.69532" lon="-2.34562">
        <ele>4.9</ele>
        <time>2015-09-30T12:31:18Z</time>
      </trkpt>
      <trkpt lat="46.69533" lon="-2.34561">
        <ele>5</ele>
        <time>2015-09-30T12:31:31Z</time>
      </trkpt>
      <trkpt lat="46.69531" lon="-2.3456">
        <ele>5</ele>
        <time>2015-09-30T12:31:42Z</time>
      </trkpt>
      <trkpt lat="46.69533" lon="-2.34559">
        <ele>5</ele>
        <time>2015-09-30T12:31:50Z</time>
      </trkpt>
      <trkpt lat="46.69533" lon="-2.34562">
        <ele>2</ele>
        <time>2015-09-30T12:32:04Z</time>
      </trkpt>
      <trkpt lat="46.69535" lon="-2.34563">
        <ele>1</ele>
        <time>2015-09-30T12:32:06Z</time>
      </trkpt>
      <trkpt lat="46.69536" lon="-2.34563">
        <ele>5</ele>
        <time>2015-09-30T12:32:09Z</time>
      </trkpt>
      <trkpt lat="46.69535" lon="-2.34563">
        <ele>5</ele>
        <time>2015-09-30T12:32:13Z</time>
      </trkpt>
      <trkpt lat="46.69534" lon="-2.34561">
        <ele>5</ele>
        <time>2015-09-30T12:32:18Z</time>
      </trkpt>
      <trkpt lat="46.69534" lon="-2.3456">
        <ele>5.1</ele>
        <time>2015-09-30T12:32:20Z</time>
      </trkpt>
      <trkpt lat="46.69532" lon="-2.34558">
        <ele>5.1</ele>
        <time>2015-09-30T12:32:21Z</time>
      </trkpt>
      <trkpt lat="46.6953" lon="-2.34557">
        <ele>5</ele>
        <time>2015-09-30T12:32:22Z</time>
      </trkpt>
      <trkpt lat="46.69529" lon="-2.34556">
        <ele>5</ele>
        <time>2015-09-30T12:32:23Z</time>
      </trkpt>
      <trkpt lat="46.69527" lon="-2.34555">
        <ele>5</ele>
        <time>2015-09-30T12:32:25Z</time>
      </trkpt>
      <trkpt lat="46.69525" lon="-2.34554">
        <ele>4.9</ele>
        <time>2015-09-30T12:32:27Z</time>
      </trkpt>
      <trkpt lat="46.69523" lon="-2.34555">
        <ele>4.5</ele>
        <time>2015-09-30T12:32:29Z</time>
      </trkpt>
      <trkpt lat="46.69523" lon="-2.34553">
        <ele>4.8</ele>
        <time>2015-09-30T12:32:45Z</time>
      </trkpt>
      <trkpt lat="46.69523" lon="-2.34551">
        <ele>5.1</ele>
        <time>2015-09-30T12:32:51Z</time>
      </trkpt>
      <trkpt lat="46.69524" lon="-2.34552">
        <ele>5.2</ele>
        <time>2015-09-30T12:33:16Z</time>
      </trkpt>
      <trkpt lat="46.69526" lon="-2.34552">
        <ele>5.3</ele>
        <time>2015-09-30T12:33:20Z</time>
      </trkpt>
      <trkpt lat="46.69527" lon="-2.34553">
        <ele>5.3</ele>
        <time>2015-09-30T12:33:23Z</time>
      </trkpt>
      <trkpt lat="46.69529" lon="-2.34555">
        <ele>5.2</ele>
        <time>2015-09-30T12:33:25Z</time>
      </trkpt>
      <trkpt lat="46.6953" lon="-2.34556">
        <ele>5.1</ele>
        <time>2015-09-30T12:33:27Z</time>
      </trkpt>
      <trkpt lat="46.69529" lon="-2.34558">
        <ele>5</ele>
        <time>2015-09-30T12:33:30Z</time>
      </trkpt>
      <trkpt lat="46.69529" lon="-2.34559">
        <ele>4.9</ele>
        <time>2015-09-30T12:33:37Z</time>
      </trkpt>
      <trkpt lat="46.69531" lon="-2.34559">
        <ele>5</ele>
        <time>2015-09-30T12:33:40Z</time>
      </trkpt>
      <trkpt lat="46.69531" lon="-2.34561">
        <ele>4.9</ele>
        <time>2015-09-30T12:33:44Z</time>
      </trkpt>
    </trkseg>
  </trk>
</gpx>